<
# Wetter Temperatur Luftdruck Luftfeuchtigkeit Sichtweite Windgeschwindigkeit Windrichtung Zeit
1 Clouds -6 978 73 10000 2.6 70 21:59 02.04.2020
2 Clouds -5 978 67 10000 3.1 100 21:37 02.04.2020
3 Clouds -5 978 67 10000 3.1 120 21:19 02.04.2020
4 Clouds -4 979 62 10000 3.1 130 20:45 02.04.2020
5 Clouds -4 979 58 10000 3.1 120 20:25 02.04.2020
6 Clouds -4 979 58 10000 3.1 120 19:59 02.04.2020
7 Clouds -4 979 58 10000 3.1 120 19:59 02.04.2020
8 Clouds -4 979 58 10000 3.1 130 19:40 02.04.2020
9 Clouds -4 979 58 10000 2.6 110 19:20 02.04.2020
10 Clouds -4 980 58 10000 3.6 110 18:56 02.04.2020
11 Clouds -4 980 58 10000 3.6 110 18:37 02.04.2020
12 Clouds -3 980 53 10000 3.1 110 18:18 02.04.2020
13 Clouds -3 981 53 10000 3.1 120 17:43 02.04.2020
14 Clouds -3 981 53 10000 3.1 130 17:24 02.04.2020
15 Clouds -3 981 53 10000 3.1 130 16:58 02.04.2020
16 Clouds -3 981 53 10000 3.6 110 16:40 02.04.2020
17 Clouds -3 981 53 10000 2.6 110 16:22 02.04.2020
18 Clouds -3 981 53 10000 2.6 110 15:57 02.04.2020
19 Clouds -3 982 53 10000 2.1 90 15:39 02.04.2020
20 Clouds -4 982 58 10000 1 0 15:18 02.04.2020
21 Clouds -4 982 58 10000 1 0 14:57 02.04.2020
22 Clouds -4 983 62 10000 2.6 130 14:38 02.04.2020
23 Clouds -4 983 58 10000 2.6 130 14:18 02.04.2020
24 Clouds -4 983 58 10000 2.1 120 13:54 02.04.2020
25 Clouds -4 983 58 10000 2.1 120 13:36 02.04.2020
26 Clouds -5 983 62 10000 2.1 140 13:18 02.04.2020
27 Clouds -5 984 62 10000 2.6 100 12:41 02.04.2020
28 Clouds -5 984 62 10000 2.1 150 12:19 02.04.2020
29 Clouds -5 984 62 10000 2.1 150 11:57 02.04.2020
30 Clouds -5 984 62 10000 2.1 150 11:57 02.04.2020
31 Clouds -5 984 62 10000 2.6 140 11:39 02.04.2020
32 Clouds -6 985 73 10000 2.1 100 11:20 02.04.2020
33 Clouds -6 985 73 10000 2.1 100 10:56 02.04.2020
34 Clouds -7 985 73 10000 2.1 80 10:37 02.04.2020
35 Clouds -8 985 78 10000 2.1 70 10:19 02.04.2020
36 Clouds -8 985 78 10000 2.1 70 10:19 02.04.2020
37 Clouds -8 985 78 10000 2.1 70 09:58 02.04.2020
38 Clouds -8 986 78 10000 2.6 80 09:39 02.04.2020
39 Clouds -8 986 78 10000 2.6 70 09:19 02.04.2020
40 Clouds -9 986 85 10000 2.6 70 08:47 02.04.2020
41 Clouds -9 986 85 10000 2.6 70 08:27 02.04.2020
42 Rain -12 987 92 10000 2.1 40 07:45 02.04.2020
43 Clouds -11 987 92 10000 3.6 30 07:21 02.04.2020
44 Fog -12 987 85 10000 3.6 360 06:59 02.04.2020
45 Clear -12 987 92 10000 3.1 350 06:22 02.04.2020
46 Clouds -11 988 92 10000 3.1 340 05:45 02.04.2020
47 Clouds -9 988 85 10000 3.6 350 04:46 02.04.2020
48 Clouds -8 990 85 10000 3.6 320 01:54 02.04.2020
49 Clear -8 990 85 10000 3.1 320 00:51 02.04.2020
50 Clear -8 990 85 10000 3.1 320 00:29 02.04.2020
51 Clear -8 990 85 10000 3.1 320 23:57 01.04.2020
52 Clear -7 990 79 10000 3.6 330 23:37 01.04.2020
53 Clear -7 990 79 10000 3.1 330 23:18 01.04.2020
54 Clouds -7 990 79 10000 3.1 330 22:41 01.04.2020
55 Clouds -6 990 73 10000 2.6 320 22:22 01.04.2020
56 Clouds -6 990 73 10000 2.6 320 21:57 01.04.2020
57 Clear -6 991 73 10000 2.6 320 21:39 01.04.2020
58 Clouds -5 991 73 10000 2.6 320 21:18 01.04.2020
59 Clouds -5 991 73 10000 2.6 320 20:55 01.04.2020
60 Clouds -6 991 79 10000 2.6 320 20:37 01.04.2020
61 Clouds -6 991 79 10000 2.1 300 20:18 01.04.2020
62 Clouds -6 991 79 10000 2.1 300 20:18 01.04.2020
63 Clouds -4 991 68 10000 2.6 340 19:43 01.04.2020
64 Clouds -4 991 68 10000 3.1 320 19:22 01.04.2020
65 Clouds -4 991 68 10000 3.1 320 18:59 01.04.2020
66 Clouds -4 991 68 10000 3.1 330 18:40 01.04.2020
67 Snow -4 991 73 10000 4.1 340 18:21 01.04.2020
68 Clouds -4 991 79 10000 3.1 320 17:55 01.04.2020
69 Clouds -4 991 79 10000 3.1 320 17:36 01.04.2020
70 Snow -4 992 79 3600 3.1 330 17:18 01.04.2020
71 Snow -4 992 79 3600 3.1 330 17:18 01.04.2020
72 Snow -4 991 79 1500 3.6 350 16:42 01.04.2020
73 Snow -3 991 63 10000 4.1 340 16:24 01.04.2020
74 Snow -3 991 63 10000 4.1 340 15:59 01.04.2020
75 Snow -3 991 63 10000 6.2 340 15:41 01.04.2020
76 Clouds -4 991 68 10000 5.7 10 15:21 01.04.2020
77 Snow -4 992 68 8000 5.7 360 14:57 01.04.2020
78 Snow -4 992 68 8000 5.7 360 14:38 01.04.2020
79 Snow -4 991 73 10000 5.7 350 14:19 01.04.2020
80 Snow -4 991 73 10000 5.7 350 13:58 01.04.2020
81 Snow -4 991 68 2500 5.7 360 13:37 01.04.2020
82 Snow -5 991 73 7000 5.7 350 13:19 01.04.2020
83 Snow -5 991 67 10000 5.1 350 12:54 01.04.2020
84 Snow -5 991 67 10000 5.1 350 12:36 01.04.2020
85 Clouds -5 991 62 10000 6.2 350 12:18 01.04.2020
86 Rain -6 991 67 10000 6.2 350 11:42 01.04.2020
87 Snow -6 991 67 10000 6.2 350 11:23 01.04.2020
88 Snow -6 991 67 10000 6.2 350 10:58 01.04.2020
89 Clouds -6 991 73 10000 6.2 330 10:37 01.04.2020
90 Clouds -7 991 79 10000 4.6 340 10:18 01.04.2020
91 Clouds -7 991 79 10000 4.6 340 09:57 01.04.2020
92 Clouds -7 990 73 10000 5.1 350 09:38 01.04.2020
93 Clouds -7 990 79 10000 5.1 360 09:18 01.04.2020
94 Clouds -6 990 73 10000 5.1 350 08:40 01.04.2020
95 Clouds -6 989 79 10000 5.7 340 08:18 01.04.2020
96 Snow -6 989 79 10000 5.7 340 07:43 01.04.2020
97 Clouds -6 989 79 10000 5.7 350 07:21 01.04.2020
98 Clouds -6 989 85 10000 5.1 340 06:48 01.04.2020
99 Snow -5 988 85 10000 5.1 340 06:24 01.04.2020
100 Snow -5 988 85 10000 5.1 340 05:56 01.04.2020
101 Snow -3 987 92 10000 5.1 350 04:30 01.04.2020
102 Clouds -2 986 79 10000 3.6 340 03:28 01.04.2020
103 Clouds -2 986 74 10000 3.6 330 02:49 01.04.2020
104 Clouds -2 986 74 10000 2.6 310 01:56 01.04.2020
105 Snow -2 986 74 10000 3.1 290 01:37 01.04.2020
106 Clouds -2 986 74 10000 1.5 270 01:18 01.04.2020
107 Clouds -3 986 86 10000 1.5 230 00:43 01.04.2020
108 Clouds -2 986 79 10000 1.5 250 00:18 01.04.2020
109 Clouds -2 986 79 10000 1 0 23:41 31.03.2020
110 Clouds -2 986 79 10000 1 0 23:41 31.03.2020
111 Clouds -2 985 86 10000 2.1 240 23:23 31.03.2020
112 Clouds -2 985 86 10000 2.1 240 23:23 31.03.2020
113 Clouds -3 986 92 10000 3.1 230 22:43 31.03.2020
114 Clouds -1 986 92 10000 3.1 230 22:23 31.03.2020
115 Clouds -1 986 92 10000 3.1 230 22:23 31.03.2020
116 Clouds -1 986 92 10000 2.1 200 21:59 31.03.2020
117 Clouds -1 986 92 10000 2.1 200 21:59 31.03.2020
118 Clouds -1 986 92 10000 2.1 200 21:59 31.03.2020
119 Clouds -1 986 92 10000 2.1 200 21:41 31.03.2020
120 Snow 0 986 95 10000 2.6 340 21:22 31.03.2020
121 Snow 0 986 95 10000 2.6 340 20:58 31.03.2020
122 Clouds 0 986 95 10000 4.1 340 20:38 31.03.2020
123 Clouds 0 986 95 10000 4.1 340 20:20 31.03.2020
124 Clouds 0 986 95 10000 4.1 340 19:59 31.03.2020
125 Snow 1 986 80 10000 3.6 340 19:40 31.03.2020
126 Clouds 1 986 86 10000 4.1 280 19:21 31.03.2020
127 Clouds 2 986 80 10000 2.1 250 18:54 31.03.2020
128 Clouds 2 986 80 10000 2.1 250 18:36 31.03.2020
129 Snow 1 986 84 10000 2.6 230 18:18 31.03.2020
130 Clouds 1 986 84 10000 2.6 230 17:54 31.03.2020
131 Clouds 1 986 84 10000 2.6 230 17:36 31.03.2020
132 Clouds 0 986 84 10000 3.1 230 17:18 31.03.2020
133 Clouds 0 986 84 10000 4.6 220 16:37 31.03.2020
134 Clouds 0 986 84 10000 4.6 220 16:18 31.03.2020
135 Clouds 0 986 84 10000 4.6 220 15:57 31.03.2020
136 Clouds -1 987 100 10000 4.6 220 15:37 31.03.2020
137 Snow -1 987 92 2800 5.7 210 15:19 31.03.2020
138 Snow -1 987 92 2800 5.7 210 14:56 31.03.2020
139 Snow -2 987 92 1000 6.2 190 14:38 31.03.2020
140 Snow -3 988 92 800 6.7 190 14:18 31.03.2020
141 Snow -3 988 92 800 6.7 190 13:41 31.03.2020
142 Snow -3 989 92 700 7.2 190 13:19 31.03.2020
143 Snow -4 990 92 600 7.7 180 12:54 31.03.2020
144 Snow -4 990 92 600 7.7 180 12:36 31.03.2020
145 Snow -4 991 92 500 7.2 190 12:18 31.03.2020
146 Snow -4 992 92 600 8.2 190 11:38 31.03.2020
147 Snow -4 993 92 600 7.7 190 11:19 31.03.2020
148 Snow -4 993 92 600 7.7 190 10:57 31.03.2020
149 Snow -4 993 92 1500 10.3 190 10:39 31.03.2020
150 Snow -4 994 92 1500 10.3 190 10:20 31.03.2020
151 Snow -4 996 85 1200 9.3 190 09:55 31.03.2020
152 Snow -4 996 85 1200 9.3 190 09:37 31.03.2020
153 Snow -5 998 92 1200 7.7 180 09:19 31.03.2020
154 Snow -5 998 92 1200 7.7 180 08:54 31.03.2020
155 Snow -6 999 92 1400 7.2 170 08:36 31.03.2020
156 Snow -6 1001 85 1400 7.7 180 08:18 31.03.2020
157 Snow -6 1002 79 5000 6.7 180 07:43 31.03.2020
158 Snow -7 1003 79 10000 6.7 170 07:23 31.03.2020
159 Snow -7 1005 73 10000 7.7 180 06:55 31.03.2020
160 Snow -7 1005 73 10000 7.7 180 06:36 31.03.2020
161 Clouds -7 1007 67 10000 4.1 180 05:42 31.03.2020
162 Clouds -8 1008 67 10000 3.6 180 05:20 31.03.2020
163 Clouds -9 1013 56 10000 3.1 210 02:40 31.03.2020
164 Clouds -8 1015 52 10000 3.6 200 01:47 31.03.2020
165 Clouds -8 1016 57 10000 2.1 230 00:53 31.03.2020
166 Clouds -8 1016 57 10000 2.1 230 00:25 31.03.2020
167 Clear -8 1017 57 10000 2.6 230 23:59 30.03.2020
168 Clear -8 1017 57 10000 2.1 230 23:38 30.03.2020
169 Clear -7 1017 52 10000 2.1 260 23:19 30.03.2020
170 Clear -7 1017 52 10000 2.1 260 22:57 30.03.2020
171 Clear -6 1018 48 10000 2.1 240 22:38 30.03.2020
172 Clear -6 1018 48 10000 2.1 240 22:18 30.03.2020
173 Clear -6 1018 48 10000 2.1 240 21:57 30.03.2020
174 Clear -6 1018 48 10000 2.1 270 21:37 30.03.2020
175 Clouds -5 1019 45 10000 1.5 260 21:19 30.03.2020
176 Clouds -5 1019 45 10000 2.1 270 20:55 30.03.2020
177 Clouds -5 1019 45 10000 2.1 270 20:36 30.03.2020
178 Clouds -5 1019 45 10000 2.1 270 20:36 30.03.2020
179 Clouds -5 1019 45 10000 2.1 280 20:18 30.03.2020
180 Clouds -4 1019 41 10000 2.1 260 19:40 30.03.2020
181 Clouds -4 1019 41 10000 1.5 260 19:22 30.03.2020
182 Clouds -4 1019 41 10000 1.5 260 18:57 30.03.2020
183 Clouds -3 1019 38 10000 2.6 300 18:39 30.03.2020
184 Snow -3 1019 38 10000 2.6 300 18:20 30.03.2020
185 Snow -3 1019 38 10000 2.6 300 17:57 30.03.2020
186 Snow -3 1019 38 10000 3.1 280 17:38 30.03.2020
187 Snow -2 1019 36 10000 3.6 290 17:19 30.03.2020
188 Snow -2 1019 36 10000 3.6 290 16:55 30.03.2020
189 Snow -2 1019 39 10000 4.1 290 16:37 30.03.2020
190 Snow -3 1019 42 10000 3.6 310 16:18 30.03.2020
191 Snow -3 1019 42 10000 3.6 310 15:54 30.03.2020
192 Snow -3 1019 38 10000 5.7 320 15:36 30.03.2020
193 Snow -2 1019 36 10000 5.7 310 15:18 30.03.2020
194 Snow -2 1019 39 10000 4.1 320 14:39 30.03.2020
195 Snow -3 1019 42 10000 5.1 300 14:19 30.03.2020
196 Snow -3 1019 42 10000 5.1 300 13:59 30.03.2020
197 Snow -3 1019 42 10000 4.1 290 13:40 30.03.2020
198 Clouds -3 1019 42 10000 5.1 310 13:20 30.03.2020
199 Clouds -3 1019 45 10000 4.1 300 12:54 30.03.2020
200 Clouds -3 1019 45 10000 4.1 300 12:54 30.03.2020
201 Clouds -3 1019 45 10000 4.1 300 12:36 30.03.2020
202 Clear -4 1019 49 10000 3.6 300 12:18 30.03.2020
203 Clear -4 1019 49 10000 5.1 310 11:42 30.03.2020
204 Clear -4 1019 49 10000 5.1 310 11:23 30.03.2020
205 Clear -5 1019 53 10000 4.6 310 10:57 30.03.2020
206 Clear -6 1019 57 10000 4.1 310 10:38 30.03.2020
207 Clear -6 1018 57 10000 4.6 310 10:20 30.03.2020
208 Clear -7 1018 57 10000 4.1 310 09:41 30.03.2020
209 Clear -8 1018 61 10000 4.1 300 09:20 30.03.2020
210 Clear -8 1018 61 10000 4.1 300 08:58 30.03.2020
211 Clear -9 1018 66 10000 3.6 310 08:38 30.03.2020
212 Clear -9 1018 61 10000 3.6 310 08:20 30.03.2020
213 Clear -10 1018 66 10000 3.1 320 07:44 30.03.2020
214 Clear -11 1018 72 10000 3.1 320 07:23 30.03.2020
215 Clear -11 1017 72 10000 3.1 320 06:47 30.03.2020
216 Clear -12 1017 78 10000 2.1 280 06:27 30.03.2020
217 Clear -12 1017 78 10000 2.1 310 05:44 30.03.2020
218 Clear -11 1016 72 10000 3.1 320 04:37 30.03.2020
219 Clear -11 1016 72 10000 4.1 330 04:18 30.03.2020
220 Clear -11 1016 66 10000 2.6 310 02:45 30.03.2020
221 Clear -10 1016 61 10000 2.1 310 01:58 30.03.2020
222 Clear -9 1016 61 10000 3.6 310 01:18 30.03.2020
223 Clear -9 1016 56 10000 3.1 320 00:29 30.03.2020
224 Clear -8 1016 52 10000 2.6 310 23:56 29.03.2020
225 Clear -8 1015 52 10000 3.1 310 23:37 29.03.2020
226 Clear -8 1015 52 10000 3.1 310 23:37 29.03.2020
227 Clear -8 1015 52 10000 3.6 320 23:19 29.03.2020
228 Clear -8 1015 48 10000 2.6 320 22:55 29.03.2020
229 Clear -8 1015 48 10000 2.6 320 22:37 29.03.2020
230 Clear -7 1015 41 10000 2.6 310 22:18 29.03.2020
231 Clear -7 1015 44 10000 3.1 320 21:38 29.03.2020
232 Clouds -6 1015 41 10000 3.6 320 21:20 29.03.2020
233 Clouds -6 1015 41 10000 3.6 320 20:55 29.03.2020
234 Clouds -6 1014 44 10000 2.6 310 20:37 29.03.2020
235 Clouds -6 1014 44 10000 2.6 310 20:37 29.03.2020
236 Clouds -6 1014 44 10000 2.6 310 20:37 29.03.2020
237 Clouds -6 1014 44 10000 2.6 290 20:19 29.03.2020
238 Clouds -6 1014 44 10000 2.6 290 20:19 29.03.2020
239 Clouds -5 1014 45 10000 2.1 310 19:57 29.03.2020
240 Clouds -5 1014 45 10000 2.1 310 19:57 29.03.2020
241 Clouds -5 1014 45 10000 2.1 310 19:39 29.03.2020
242 Clouds -5 1014 45 10000 2.1 310 19:39 29.03.2020
243 Clouds -4 1014 41 10000 2.1 290 19:21 29.03.2020
244 Clouds -4 1014 45 10000 2.6 300 18:57 29.03.2020
245 Clouds -4 1014 45 10000 2.6 300 18:38 29.03.2020
246 Snow -3 1014 45 10000 2.6 280 18:19 29.03.2020
247 Snow -3 1014 45 10000 3.1 280 17:55 29.03.2020
248 Snow -3 1014 45 10000 3.1 280 17:37 29.03.2020
249 Snow -3 1014 38 10000 3.1 300 17:18 29.03.2020
250 Snow -3 1014 42 10000 3.6 300 16:56 29.03.2020
251 Snow -3 1014 42 10000 3.6 300 16:38 29.03.2020
252 Snow -3 1014 45 10000 2.1 290 16:18 29.03.2020
253 Snow -2 1013 39 10000 3.1 310 15:41 29.03.2020
254 Snow -2 1014 42 10000 3.1 300 15:23 29.03.2020
255 Snow -2 1014 42 10000 3.1 300 15:23 29.03.2020
256 Snow -2 1014 42 10000 3.1 300 14:57 29.03.2020
257 Snow -2 1014 39 10000 5.7 310 14:39 29.03.2020
258 Clouds -3 1014 45 10000 3.6 260 14:20 29.03.2020
259 Snow -3 1014 38 10000 3.6 290 13:56 29.03.2020
260 Snow -3 1014 38 10000 3.6 290 13:38 29.03.2020
261 Clouds -3 1014 42 10000 3.6 300 13:19 29.03.2020
262 Snow -3 1014 42 10000 4.6 290 12:55 29.03.2020
263 Snow -3 1014 42 10000 4.6 290 12:37 29.03.2020
264 Clouds -3 1014 42 10000 4.6 320 12:18 29.03.2020
265 Clouds -3 1014 45 10000 5.1 300 11:40 29.03.2020
266 Clouds -4 1014 49 10000 4.6 320 11:21 29.03.2020
267 Clouds -4 1014 49 10000 4.6 320 10:59 29.03.2020
268 Clouds -4 1014 53 10000 4.1 300 10:37 29.03.2020
269 Clouds -5 1013 57 10000 3.6 290 10:18 29.03.2020
270 Clouds -5 1013 57 10000 3.6 290 10:18 29.03.2020
271 Clouds -5 1013 53 10000 3.1 300 09:40 29.03.2020
272 Clouds -6 1013 62 10000 3.6 300 09:19 29.03.2020
273 Clouds -7 1013 62 10000 3.6 300 08:53 29.03.2020
274 Clouds -7 1013 62 10000 3.6 300 08:28 29.03.2020
275 Clouds -8 1013 61 10000 3.1 280 07:58 29.03.2020
276 Clouds -8 1013 67 10000 3.1 310 07:58 29.03.2020
277 Clouds -8 1013 61 10000 3.1 280 07:58 29.03.2020
278 Clouds -8 1013 61 10000 3.1 280 07:39 29.03.2020
279 Clouds -8 1013 61 10000 3.1 280 07:39 29.03.2020
280 Clouds -9 1013 66 10000 2.6 280 07:20 29.03.2020
281 Clear -9 1012 66 10000 3.6 300 04:59 29.03.2020
282 Clear -9 1012 66 10000 3.6 300 04:59 29.03.2020
283 Clear -8 1012 61 10000 4.1 290 03:48 29.03.2020
284 Clear -8 1012 61 10000 4.1 290 03:26 29.03.2020
285 Clouds -8 1012 61 10000 5.1 290 01:50 29.03.2020
286 Clouds -8 1012 61 10000 5.1 290 01:23 29.03.2020
287 Clouds -7 1012 57 10000 4.1 290 00:53 29.03.2020
288 Clouds -7 1012 57 10000 4.1 290 00:30 29.03.2020
289 Clouds -7 1012 57 10000 4.1 280 23:42 28.03.2020
290 Clouds -6 1012 53 10000 5.1 290 23:23 28.03.2020
291 Clouds -6 1011 53 10000 4.1 280 22:57 28.03.2020
292 Clouds -6 1011 53 10000 4.1 280 22:37 28.03.2020
293 Clouds -6 1011 53 10000 5.7 290 22:19 28.03.2020
294 Clouds -6 1011 57 10000 6.2 290 21:42 28.03.2020
295 Clouds -5 1011 53 10000 4.1 290 21:24 28.03.2020
296 Clouds -5 1011 53 10000 4.1 290 20:58 28.03.2020
297 Clouds -5 1011 49 10000 4.6 290 20:39 28.03.2020
298 Clouds -5 1011 49 10000 4.6 300 20:21 28.03.2020
299 Clouds -5 1011 49 10000 4.6 300 19:57 28.03.2020
300 Clouds -5 1011 49 10000 4.6 290 19:37 28.03.2020
301 Clouds -5 1011 49 10000 4.6 290 19:37 28.03.2020
302 Clouds -4 1011 45 10000 4.6 290 19:19 28.03.2020
303 Clouds -4 1010 45 10000 3.6 290 18:55 28.03.2020
304 Clouds -4 1010 45 10000 3.6 290 18:36 28.03.2020
305 Clouds -3 1010 38 10000 6.2 300 18:18 28.03.2020
306 Clouds -3 1010 38 10000 5.1 300 17:38 28.03.2020
307 Snow -3 1010 38 10000 6.7 290 17:19 28.03.2020
308 Snow -2 1009 39 10000 7.7 300 16:42 28.03.2020
309 Snow -2 1009 39 10000 7.2 300 16:20 28.03.2020
310 Snow -2 1009 39 10000 7.2 300 15:56 28.03.2020
311 Snow -2 1009 39 10000 8.2 300 15:37 28.03.2020
312 Snow -2 1008 39 10000 7.2 300 15:18 28.03.2020
313 Snow -1 1008 39 10000 8.7 290 14:42 28.03.2020
314 Snow -2 1008 42 10000 7.7 300 14:22 28.03.2020
315 Snow -2 1008 42 10000 7.7 300 13:56 28.03.2020
316 Clouds -2 1007 42 10000 7.7 300 13:37 28.03.2020
317 Clouds -2 1007 46 10000 7.2 300 13:18 28.03.2020
318 Clouds -2 1007 46 10000 7.2 300 13:18 28.03.2020
319 Clouds -2 1007 50 10000 7.2 300 12:38 28.03.2020
320 Clouds -2 1006 50 10000 8.2 300 12:19 28.03.2020
321 Snow -2 1005 54 10000 8.2 290 11:42 28.03.2020
322 Snow -3 1004 68 3100 8.7 290 11:21 28.03.2020
323 Snow -3 1004 86 1300 7.7 280 10:43 28.03.2020
324 Snow -3 1003 79 3900 10.3 280 10:24 28.03.2020
325 Snow -3 1003 79 3900 10.3 280 09:59 28.03.2020
326 Snow -1 1002 58 10000 9.3 290 09:39 28.03.2020
327 Clouds 0 1001 83 10000 9.3 300 09:21 28.03.2020
328 Clouds 1 1000 50 10000 8.7 280 08:42 28.03.2020
329 Clouds 1 1000 50 10000 8.7 280 08:42 28.03.2020
330 Clouds 1 1000 55 10000 8.7 270 08:24 28.03.2020
331 Clouds 1 1000 59 10000 7.7 260 07:53 28.03.2020
332 Clouds 1 1000 59 10000 7.7 260 07:35 28.03.2020
333 Clouds -1 999 80 10000 7.2 230 06:52 28.03.2020
334 Clouds -1 1000 86 10000 6.7 230 06:23 28.03.2020
335 Clouds -1 1000 86 10000 6.2 220 05:26 28.03.2020
336 Clouds 0 1001 96 10000 6.7 220 04:53 28.03.2020
337 Clouds 0 1001 96 10000 6.7 220 04:35 28.03.2020
338 Clouds -1 1003 86 10000 4.6 200 02:50 28.03.2020
339 Clouds -2 1005 92 10000 4.6 200 01:47 28.03.2020
340 Clouds -2 1005 92 10000 4.6 200 01:23 28.03.2020
341 Clouds -1 1006 86 10000 5.7 190 00:47 28.03.2020
342 Clouds -1 1007 86 10000 4.6 200 00:21 28.03.2020
343 Clouds -1 1008 86 10000 5.1 200 23:43 27.03.2020
344 Clouds -1 1008 92 10000 5.1 200 23:24 27.03.2020
345 Clouds 0 1009 89 10000 5.1 210 22:57 27.03.2020
346 Clouds 0 1009 89 10000 5.1 210 22:39 27.03.2020
347 Clouds 0 1009 89 10000 5.7 210 22:20 27.03.2020
348 Clouds 0 1009 89 10000 5.7 210 21:56 27.03.2020
349 Clouds 0 1010 89 10000 5.1 210 21:38 27.03.2020
350 Clouds 0 1010 89 10000 4.1 0 21:20 27.03.2020
351 Clouds 0 1011 88 10000 4.6 210 20:43 27.03.2020
352 Clouds 1 1011 80 10000 3.6 220 20:21 27.03.2020
353 Clouds 1 1011 80 10000 3.6 220 19:59 27.03.2020
354 Clouds 1 1012 80 10000 4.1 220 19:40 27.03.2020
355 Clouds 2 1012 74 10000 5.7 220 19:22 27.03.2020
356 Clouds 2 1012 74 10000 5.7 220 18:56 27.03.2020
357 Clouds 2 1012 74 10000 5.7 220 18:38 27.03.2020
358 Clouds 2 1013 74 10000 5.1 220 18:19 27.03.2020
359 Clouds 2 1013 74 10000 5.1 220 17:40 27.03.2020
360 Clouds 2 1013 80 10000 5.7 220 17:20 27.03.2020
361 Clouds 2 1014 74 10000 6.7 220 16:45 27.03.2020
362 Clouds 2 1014 74 10000 6.7 220 16:27 27.03.2020
363 Clouds 2 1014 74 10000 6.2 220 15:59 27.03.2020
364 Clouds 3 1014 69 10000 7.7 220 15:40 27.03.2020
365 Clouds 3 1015 69 10000 7.7 210 15:22 27.03.2020
366 Clouds 3 1015 69 10000 7.2 210 14:46 27.03.2020
367 Clouds 3 1016 69 10000 6.7 220 14:25 27.03.2020
368 Clouds 3 1016 69 10000 6.7 220 13:56 27.03.2020
369 Clouds 3 1016 69 10000 6.7 210 13:37 27.03.2020
370 Clouds 4 1016 64 10000 6.7 210 13:18 27.03.2020
371 Clouds 5 1017 60 10000 6.2 210 12:49 27.03.2020
372 Clouds 5 1017 56 10000 6.7 230 12:21 27.03.2020
373 Clouds 4 1017 64 10000 6.2 210 11:59 27.03.2020
374 Clouds 4 1017 64 10000 6.2 210 11:59 27.03.2020
375 Clouds 4 1017 64 10000 6.2 210 11:59 27.03.2020
376 Clouds 4 1017 64 10000 6.2 210 11:59 27.03.2020
377 Clouds 4 1017 64 10000 6.2 210 11:40 27.03.2020
378 Clouds 4 1017 64 10000 5.7 210 11:22 27.03.2020
379 Clouds 3 1018 69 10000 5.7 240 10:54 27.03.2020
380 Clouds 3 1018 69 10000 5.7 240 10:36 27.03.2020
381 Clouds 3 1018 69 10000 5.7 240 10:36 27.03.2020
382 Clouds 2 1018 74 10000 5.7 230 10:18 27.03.2020
383 Clouds 2 1018 74 10000 5.7 230 09:54 27.03.2020
384 Clouds 2 1018 69 10000 6.7 230 09:36 27.03.2020
385 Clouds 1 1018 74 10000 6.2 230 09:18 27.03.2020
386 Clouds 1 1018 74 10000 6.7 230 08:54 27.03.2020
387 Clouds 1 1018 74 10000 6.7 230 08:36 27.03.2020
388 Clouds 0 1018 89 10000 5.7 230 08:18 27.03.2020
389 Clouds -1 1017 80 10000 5.1 220 07:41 27.03.2020
390 Clouds -1 1017 80 10000 4.6 240 07:21 27.03.2020
391 Clouds -1 1017 80 10000 5.7 230 06:41 27.03.2020
392 Clouds -1 1017 80 10000 5.7 240 05:57 27.03.2020
393 Clouds -1 1017 80 10000 6.2 230 03:34 27.03.2020
394 Clouds -2 1017 79 10000 5.1 230 02:19 27.03.2020
395 Clouds -2 1017 79 10000 6.2 220 01:19 27.03.2020
396 Clouds -1 1017 80 10000 5.7 220 00:43 27.03.2020
397 Clouds -1 1017 80 10000 5.7 210 00:19 27.03.2020
398 Clouds -1 1017 80 10000 5.7 220 23:40 26.03.2020
399 Clouds -1 1017 80 10000 5.1 220 23:18 26.03.2020
400 Clouds 0 1017 92 10000 6.2 210 22:57 26.03.2020
401 Clouds 0 1017 92 10000 6.2 210 22:36 26.03.2020
402 Clouds 0 1018 92 10000 5.1 210 22:18 26.03.2020
403 Clouds 0 1018 92 10000 6.2 220 21:40 26.03.2020
404 Clouds 0 1018 92 10000 5.7 220 21:21 26.03.2020
405 Clouds 0 1018 92 10000 5.7 220 20:59 26.03.2020
406 Clouds 0 1018 92 10000 5.7 230 20:39 26.03.2020
407 Clouds 0 1018 97 10000 6.2 220 20:21 26.03.2020
408 Clouds 0 1018 96 10000 6.2 220 19:58 26.03.2020
409 Clouds 1 1018 74 10000 6.7 210 19:40 26.03.2020
410 Clouds 1 1018 74 10000 6.7 220 19:21 26.03.2020
411 Clouds 1 1018 74 10000 6.7 220 18:58 26.03.2020
412 Clouds 1 1019 69 10000 5.7 210 18:40 26.03.2020
413 Clouds 2 1018 64 10000 5.1 200 18:21 26.03.2020
414 Clouds 3 1019 59 10000 6.2 210 17:44 26.03.2020
415 Clear 3 1019 59 10000 6.7 210 17:19 26.03.2020
416 Clear 3 1019 59 10000 7.7 210 16:55 26.03.2020
417 Clear 3 1019 59 10000 7.7 210 16:55 26.03.2020
418 Clear 3 1019 59 10000 7.7 210 16:37 26.03.2020
419 Clear 4 1019 55 10000 6.7 220 16:18 26.03.2020
420 Clear 4 1019 51 10000 7.7 220 15:41 26.03.2020
421 Clear 4 1019 55 10000 7.7 210 15:22 26.03.2020
422 Clear 4 1019 55 10000 7.7 210 14:59 26.03.2020
423 Clear 4 1019 55 10000 6.7 220 14:41 26.03.2020
424 Clear 4 1019 51 10000 7.7 210 14:23 26.03.2020
425 Clear 4 1019 51 10000 7.2 210 13:45 26.03.2020
426 Clear 3 1019 55 10000 8.2 210 13:24 26.03.2020
427 Clear 3 1019 55 10000 8.2 210 13:24 26.03.2020
428 Clear 3 1019 55 10000 8.2 210 12:59 26.03.2020
429 Clear 3 1019 59 10000 6.7 230 12:38 26.03.2020
430 Clear 3 1019 59 10000 6.2 210 12:20 26.03.2020
431 Clear 3 1019 59 10000 5.1 220 11:46 26.03.2020
432 Clear 3 1019 59 10000 5.7 210 11:22 26.03.2020
433 Clear 3 1019 59 10000 5.7 210 11:22 26.03.2020
434 Clear 2 1019 64 10000 4.1 210 10:56 26.03.2020
435 Clear 2 1019 64 10000 4.1 210 10:37 26.03.2020
436 Clear 2 1019 59 10000 3.1 230 10:19 26.03.2020
437 Clear 2 1019 59 10000 3.1 270 09:44 26.03.2020
438 Clear 1 1019 64 10000 3.1 250 09:20 26.03.2020
439 Clear 0 1018 84 10000 3.1 250 08:55 26.03.2020
440 Clear 0 1018 84 10000 3.1 250 08:37 26.03.2020
441 Clear -1 1018 74 10000 4.6 240 08:18 26.03.2020
442 Clear -2 1018 79 10000 3.1 240 07:41 26.03.2020
443 Clear -3 1017 79 10000 2.6 230 07:20 26.03.2020
444 Clear -3 1017 79 10000 2.6 230 06:48 26.03.2020
445 Clear -3 1016 79 10000 3.1 210 05:54 26.03.2020
446 Clear -2 1015 79 10000 2.6 200 03:59 26.03.2020
447 Clear -1 1014 74 10000 2.1 270 03:36 26.03.2020
448 Clear -1 1013 68 10000 3.1 280 02:54 26.03.2020
449 Clouds 0 1012 92 10000 3.6 260 01:50 26.03.2020
450 Clouds 1 1011 59 10000 3.1 270 00:45 26.03.2020
451 Clouds 2 1010 55 10000 4.1 280 23:47 25.03.2020
452 Clouds 2 1009 55 10000 4.6 290 23:28 25.03.2020
453 Clouds 3 1008 51 10000 4.6 290 22:58 25.03.2020
454 Clouds 3 1008 51 10000 4.6 290 22:38 25.03.2020
455 Clouds 3 1008 55 10000 5.1 300 22:19 25.03.2020
456 Clouds 3 1007 55 10000 5.1 300 21:55 25.03.2020
457 Clouds 3 1007 55 10000 5.1 300 21:37 25.03.2020
458 Clouds 4 1006 60 10000 4.1 290 21:18 25.03.2020
459 Clouds 4 1006 60 10000 4.1 290 21:18 25.03.2020
460 Clouds 4 1006 64 10000 4.6 280 20:40 25.03.2020
461 Clouds 3 1005 74 10000 3.6 240 20:20 25.03.2020
462 Clouds 3 1005 74 10000 3.6 240 19:58 25.03.2020
463 Clouds 3 1004 74 10000 4.1 240 19:39 25.03.2020
464 Clouds 4 1004 64 10000 4.1 260 19:21 25.03.2020
465 Clouds 6 1003 45 10000 4.1 270 18:54 25.03.2020
466 Clouds 5 1003 60 10000 3.6 260 18:36 25.03.2020
467 Clouds 5 1003 60 10000 3.6 260 18:18 25.03.2020
468 Snow 6 1002 60 10000 3.1 260 17:41 25.03.2020
469 Clouds 5 1002 65 10000 3.1 240 17:23 25.03.2020
470 Clouds 4 1001 69 10000 2.6 240 16:59 25.03.2020
471 Clouds 4 1001 69 10000 2.6 240 16:41 25.03.2020
472 Clouds 4 1001 69 10000 4.1 230 16:21 25.03.2020
473 Clouds 4 1000 69 10000 4.6 220 15:44 25.03.2020
474 Clouds 4 1000 69 10000 4.6 220 15:21 25.03.2020
475 Clouds 4 1000 69 10000 4.6 220 14:59 25.03.2020
476 Clouds 4 999 69 10000 5.1 220 14:40 25.03.2020
477 -273 0 0 0 0 0 14:20 25.03.2020
478 Clouds 4 998 69 10000 5.7 220 13:46 25.03.2020
479 Clouds 4 998 69 10000 5.7 220 13:25 25.03.2020
480 Clouds 5 998 65 10000 6.7 220 12:54 25.03.2020
481 Clouds 5 998 65 10000 6.7 220 12:36 25.03.2020
482 Clouds 4 997 69 10000 7.2 220 12:18 25.03.2020
483 Clouds 4 997 69 10000 6.2 220 11:41 25.03.2020
484 Clouds 3 997 69 10000 7.2 210 11:21 25.03.2020
485 Clouds 3 997 69 10000 7.7 220 10:59 25.03.2020
486 Clouds 3 997 69 10000 7.7 220 10:59 25.03.2020
487 Clouds 3 997 69 10000 7.7 220 10:40 25.03.2020
488 Clouds 2 997 74 10000 9.8 220 10:19 25.03.2020
489 Clouds 2 997 74 10000 9.8 220 09:58 25.03.2020
490 Clouds 2 997 74 10000 9.8 220 09:39 25.03.2020
491 Clouds 2 997 74 10000 8.2 220 09:21 25.03.2020
492 Clouds 1 997 80 10000 8.2 220 08:43 25.03.2020
493 Clouds 1 997 80 10000 8.2 220 08:25 25.03.2020
494 Clouds 2 997 74 10000 7.7 220 07:57 25.03.2020
495 Clouds 1 997 80 10000 8.2 210 07:38 25.03.2020
496 Clouds 1 998 80 10000 7.2 210 07:18 25.03.2020
497 Clouds 1 998 80 10000 8.2 210 06:42 25.03.2020
498 Clouds 1 999 80 10000 8.7 220 06:24 25.03.2020
499 Clouds 1 999 80 10000 7.7 220 05:47 25.03.2020
500 Clouds 1 999 80 10000 7.7 210 04:46 25.03.2020
501 Clouds 1 1000 80 10000 7.2 200 03:58 25.03.2020
502 Clouds 1 1000 80 10000 6.2 200 03:33 25.03.2020
503 Clouds 1 1002 80 10000 5.7 200 01:41 25.03.2020
504 Clouds 1 1003 80 10000 5.7 210 00:51 25.03.2020
505 Clouds 1 1003 80 10000 5.7 210 00:30 25.03.2020
506 Clouds 1 1004 80 10000 6.7 210 23:58 24.03.2020
507 Clouds 1 1004 80 10000 6.7 210 23:39 24.03.2020
508 Clouds 1 1004 80 10000 6.7 220 23:19 24.03.2020
509 Clouds 1 1005 80 10000 6.7 210 22:54 24.03.2020
510 Clouds 1 1005 80 10000 6.7 210 22:36 24.03.2020
511 Clouds 1 1005 80 10000 6.7 220 22:18 24.03.2020
512 Clouds 1 1005 80 10000 6.7 220 21:42 24.03.2020
513 Clouds 1 1005 80 10000 6.7 220 21:19 24.03.2020
514 Clouds 1 1005 80 10000 6.7 220 20:59 24.03.2020
515 Clouds 1 1006 80 10000 6.7 220 20:40 24.03.2020
516 Clouds 1 1006 80 10000 7.2 220 20:22 24.03.2020
517 Clouds 1 1006 80 10000 6.7 210 19:48 24.03.2020
518 Clouds 1 1006 80 10000 7.7 210 19:22 24.03.2020
519 Clouds 1 1007 74 10000 8.2 210 18:58 24.03.2020
520 Clouds 1 1007 74 10000 8.2 210 18:38 24.03.2020
521 Clouds 2 1007 69 10000 7.7 210 18:20 24.03.2020
522 Clouds 2 1007 69 10000 6.7 220 17:56 24.03.2020
523 Clouds 2 1007 69 10000 6.7 220 17:56 24.03.2020
524 Clouds 2 1007 69 10000 7.2 210 17:38 24.03.2020
525 Clouds 2 1007 69 10000 7.2 210 17:20 24.03.2020
526 Clouds 2 1007 69 10000 8.7 210 16:56 24.03.2020
527 Clouds 2 1007 69 10000 8.7 210 16:37 24.03.2020
528 Clouds 2 1007 69 10000 7.7 220 16:19 24.03.2020
529 Clouds 2 1007 69 10000 9.3 210 15:42 24.03.2020
530 Clouds 2 1007 69 10000 9.3 210 15:23 24.03.2020
531 Clouds 3 1007 64 10000 9.3 220 14:44 24.03.2020
532 Clouds 3 1007 59 10000 8.7 230 14:22 24.03.2020
533 Clouds 3 1007 59 10000 8.7 230 13:59 24.03.2020
534 Clouds 3 1006 59 10000 9.8 210 13:40 24.03.2020
535 Clouds 3 1007 64 10000 9.3 210 13:22 24.03.2020
536 Clouds 3 1007 69 10000 7.7 200 12:42 24.03.2020
537 Clouds 3 1007 69 10000 8.2 200 12:24 24.03.2020
538 Clouds 3 1007 64 10000 8.7 200 11:42 24.03.2020
539 Clouds 3 1008 64 10000 8.7 200 11:22 24.03.2020
540 Clouds 2 1008 69 10000 9.3 210 10:59 24.03.2020
541 Clouds 2 1008 69 10000 9.3 210 10:41 24.03.2020
542 Clouds 2 1008 74 10000 9.8 200 10:18 24.03.2020
543 Clouds 1 1008 74 10000 8.2 180 09:46 24.03.2020
544 Clouds 1 1008 74 10000 8.2 180 09:46 24.03.2020
545 Clouds 1 1008 74 10000 8.2 180 09:26 24.03.2020
546 Clouds 0 1009 86 10000 7.7 190 08:57 24.03.2020
547 Clouds 0 1009 86 10000 7.2 200 08:37 24.03.2020
548 Clouds 0 1009 90 10000 9.8 210 08:18 24.03.2020
549 Clouds 0 1009 90 10000 8.7 200 07:44 24.03.2020
550 Clouds 0 1009 90 10000 8.7 200 07:22 24.03.2020
551 Clouds 0 1009 90 10000 8.7 200 07:22 24.03.2020
552 Clouds 0 1009 90 10000 7.7 200 06:38 24.03.2020
553 Clouds 0 1010 90 10000 9.3 200 05:42 24.03.2020
554 Clouds -1 1011 86 10000 9.8 200 04:51 24.03.2020
555 Clouds -1 1012 86 10000 11.3 210 03:21 24.03.2020
556 Clouds -1 1013 86 10000 9.8 210 02:37 24.03.2020
557 Clouds 0 1014 91 10000 10.8 210 00:54 24.03.2020
558 Clouds 0 1014 91 10000 10.8 210 00:27 24.03.2020
559 Clouds -1 1015 86 10000 9.3 210 23:55 23.03.2020
560 Clouds -1 1015 86 10000 9.3 210 23:37 23.03.2020
561 Clouds -1 1015 86 10000 11.3 210 23:19 23.03.2020
562 Clouds 0 1016 90 10000 11.3 210 22:43 23.03.2020
563 Clouds 0 1016 90 10000 10.8 200 22:22 23.03.2020
564 Clouds 0 1017 90 10000 11.3 200 21:55 23.03.2020
565 Clouds 0 1017 90 10000 11.3 200 21:37 23.03.2020
566 Clouds 0 1017 90 10000 10.3 200 21:18 23.03.2020
567 Clouds 0 1018 90 10000 11.3 200 20:42 23.03.2020
568 Clouds 0 1018 90 10000 10.3 200 20:24 23.03.2020
569 Clouds 0 1018 89 10000 10.3 200 19:55 23.03.2020
570 Clouds 0 1019 89 10000 11.8 210 19:37 23.03.2020
571 Clouds 0 1019 89 10000 10.3 210 19:19 23.03.2020
572 Clouds 0 1020 89 10000 9.8 210 18:43 23.03.2020
573 Clouds 0 1020 89 10000 9.8 210 18:24 23.03.2020
574 Clouds 0 1021 89 10000 9.3 210 17:59 23.03.2020
575 Clouds 0 1021 89 10000 9.3 210 17:40 23.03.2020
576 Clouds 0 1021 86 10000 9.8 210 17:19 23.03.2020
577 Clouds 0 1021 86 10000 8.7 200 16:43 23.03.2020
578 Clouds 0 1021 86 10000 8.7 200 16:25 23.03.2020
579 Clouds 1 1022 64 10000 10.8 210 15:54 23.03.2020
580 Clouds 1 1022 64 10000 10.8 210 15:36 23.03.2020
581 Clouds 1 1022 69 10000 9.3 210 15:18 23.03.2020
582 Clouds 2 1022 69 10000 7.7 220 14:37 23.03.2020
583 Clouds 3 1022 64 10000 7.2 220 14:18 23.03.2020
584 Clouds 3 1022 64 10000 7.2 220 13:55 23.03.2020
585 Clouds 3 1022 64 10000 7.2 210 13:37 23.03.2020
586 Clouds 2 1022 64 10000 9.3 220 13:19 23.03.2020
587 Clouds 2 1022 64 10000 9.3 210 12:42 23.03.2020
588 Clouds 2 1022 64 10000 7.7 200 12:22 23.03.2020
589 Clouds 2 1022 64 10000 7.7 200 12:22 23.03.2020
590 Clouds 2 1022 64 10000 8.2 210 11:55 23.03.2020
591 Clouds 2 1022 64 10000 8.2 210 11:37 23.03.2020
592 Clouds 2 1023 64 10000 7.7 220 11:18 23.03.2020
593 Clouds 1 1023 69 10000 6.7 220 10:40 23.03.2020
594 Clouds 1 1023 69 10000 6.7 220 10:40 23.03.2020
595 Clouds 1 1023 64 10000 8.7 220 10:22 23.03.2020
596 Clouds 1 1023 64 10000 8.7 220 09:58 23.03.2020
597 Clouds 0 1023 86 10000 8.2 220 09:40 23.03.2020
598 Clouds -1 1023 68 10000 7.7 220 09:19 23.03.2020
599 Clouds -2 1023 74 10000 7.2 220 08:38 23.03.2020
600 Clouds -2 1023 74 10000 7.7 220 08:19 23.03.2020
601 Clouds -3 1023 79 10000 6.2 220 07:50 23.03.2020
602 Clouds -3 1023 79 10000 6.2 220 07:32 23.03.2020
603 Clouds -3 1023 79 10000 6.7 210 06:54 23.03.2020
604 Clouds -3 1023 79 10000 6.7 210 06:32 23.03.2020
605 Clouds -3 1023 79 10000 5.7 220 05:42 23.03.2020
606 Clouds -3 1022 79 10000 6.7 220 03:45 23.03.2020
607 Clouds -3 1022 79 10000 7.7 220 02:43 23.03.2020
608 Clouds -3 1022 79 10000 7.2 220 01:39 23.03.2020
609 Clouds -3 1022 86 10000 7.7 220 00:44 23.03.2020
610 Snow -2 1021 79 10000 8.2 220 23:54 22.03.2020
611 Snow -2 1021 79 10000 8.2 220 23:36 22.03.2020
612 Snow -3 1022 86 10000 6.7 220 23:18 22.03.2020
613 Snow -3 1022 86 10000 7.7 220 22:40 22.03.2020
614 Snow -2 1022 79 10000 9.3 220 22:19 22.03.2020
615 Snow -2 1022 79 10000 9.3 220 21:40 22.03.2020
616 Snow -2 1022 79 10000 8.2 210 21:21 22.03.2020
617 Snow -2 1022 79 10000 8.2 210 20:58 22.03.2020
618 Clouds -2 1022 79 10000 8.7 210 20:39 22.03.2020
619 Clouds -2 1023 86 10000 9.8 210 20:21 22.03.2020
620 Clouds -2 1023 86 10000 9.8 210 19:55 22.03.2020
621 Snow -2 1023 79 10000 8.7 220 19:37 22.03.2020
622 Snow -2 1023 79 10000 9.3 210 19:19 22.03.2020
623 Clouds -2 1023 79 10000 10.3 210 18:56 22.03.2020
624 Clouds -2 1023 79 10000 10.3 210 18:37 22.03.2020
625 Snow -2 1023 79 10000 11.3 210 18:18 22.03.2020
626 Snow -2 1024 79 10000 10.8 210 17:55 22.03.2020
627 Snow -2 1024 79 10000 10.8 210 17:36 22.03.2020
628 Snow -2 1024 79 10000 10.8 220 17:18 22.03.2020
629 Clouds -2 1024 74 10000 10.8 210 16:41 22.03.2020
630 Snow -2 1024 74 10000 11.8 210 16:22 22.03.2020
631 Snow -2 1024 74 10000 11.8 210 15:59 22.03.2020
632 Clouds -1 1025 58 10000 9.8 210 15:39 22.03.2020
633 Clouds -1 1026 54 10000 9.8 200 14:47 22.03.2020
634 Clouds -1 1026 58 10000 9.8 210 14:20 22.03.2020
635 Clouds -1 1026 58 10000 9.8 210 13:58 22.03.2020
636 Clouds -1 1027 63 10000 10.8 210 13:40 22.03.2020
637 Clouds -1 1027 63 10000 8.2 210 13:19 22.03.2020
638 Clouds -1 1027 63 10000 7.2 210 12:44 22.03.2020
639 Clouds -2 1028 74 10000 5.7 220 12:21 22.03.2020
640 Clouds -3 1028 79 10000 6.7 220 11:57 22.03.2020
641 Clouds -3 1028 79 10000 6.7 220 11:39 22.03.2020
642 Clear -3 1028 73 10000 6.7 210 11:20 22.03.2020
643 Clear -3 1028 73 10000 6.7 220 10:43 22.03.2020
644 Clear -4 1029 79 10000 5.7 210 10:24 22.03.2020
645 Clear -5 1029 85 10000 5.1 210 09:49 22.03.2020
646 Clear -5 1029 85 10000 5.1 210 09:30 22.03.2020
647 Clear -6 1029 92 10000 5.1 210 08:55 22.03.2020
648 Clear -6 1029 92 10000 5.7 210 08:37 22.03.2020
649 Clouds -7 1029 92 10000 5.1 210 08:18 22.03.2020
650 Clouds -8 1029 100 10000 4.1 200 07:49 22.03.2020
651 Clouds -8 1030 92 10000 5.1 220 07:18 22.03.2020
652 Mist -9 1030 100 2700 6.2 210 05:55 22.03.2020
653 Clouds -10 1030 92 10000 3.6 230 04:58 22.03.2020
654 Clouds -9 1030 66 10000 4.1 220 02:50 22.03.2020
655 Clouds -9 1030 61 10000 3.6 230 01:21 22.03.2020
656 Clouds -9 1031 61 10000 4.1 230 00:36 22.03.2020
657 Clouds -9 1031 61 10000 2.6 240 23:58 21.03.2020
658 Clouds -9 1031 61 10000 2.6 240 23:40 21.03.2020
659 Clouds -9 1031 61 10000 2.6 240 23:18 21.03.2020
660 Clouds -8 1031 57 10000 2.6 240 22:38 21.03.2020
661 Clouds -7 1031 52 10000 2.6 250 22:20 21.03.2020
662 Clouds -7 1031 52 10000 2.6 250 21:59 21.03.2020
663 Clouds -8 1031 57 10000 3.1 240 21:39 21.03.2020
664 Clouds -7 1031 52 10000 2.6 240 21:21 21.03.2020
665 Clouds -6 1031 53 10000 3.1 240 20:46 21.03.2020
666 Clouds -5 1031 49 10000 3.1 240 20:23 21.03.2020
667 Clear -5 1031 49 10000 3.1 240 19:57 21.03.2020
668 Clear -7 1031 52 10000 2.1 240 19:39 21.03.2020
669 Clear -5 1031 49 10000 2.6 240 19:20 21.03.2020
670 Clear -5 1031 49 10000 2.6 240 18:54 21.03.2020
671 Clear -5 1031 49 10000 2.6 240 18:36 21.03.2020
672 Clear -5 1031 49 10000 3.1 240 18:18 21.03.2020
673 Clear -3 1030 45 10000 2.6 240 17:42 21.03.2020
674 Clear -2 1031 42 10000 2.6 250 17:23 21.03.2020
675 Clear -2 1031 42 10000 3.1 250 16:56 21.03.2020
676 Clear -2 1031 42 10000 3.1 250 16:38 21.03.2020
677 Clear -2 1031 42 10000 3.6 270 16:18 21.03.2020
678 Clear -2 1031 39 10000 3.6 280 15:41 21.03.2020
679 Clear -2 1030 39 10000 4.1 270 15:23 21.03.2020
680 Clear -2 1030 39 10000 4.1 270 14:58 21.03.2020
681 Clear -2 1030 39 10000 4.1 270 14:58 21.03.2020
682 Clear -2 1030 39 10000 3.6 260 14:40 21.03.2020
683 Clear -3 1030 42 10000 4.1 270 14:20 21.03.2020
684 Clear -3 1030 42 10000 4.1 270 13:58 21.03.2020
685 Clear -3 1030 42 10000 4.1 280 13:39 21.03.2020
686 Clear -3 1030 42 10000 4.1 280 13:21 21.03.2020
687 Clear -3 1030 42 10000 4.1 280 12:58 21.03.2020
688 Clear -3 1030 42 10000 3.1 260 12:37 21.03.2020
689 Clear -3 1030 45 10000 3.6 300 12:19 21.03.2020
690 Clear -4 1030 45 10000 3.1 310 11:55 21.03.2020
691 Clear -4 1030 45 10000 3.1 310 11:37 21.03.2020
692 Clear -5 1030 53 10000 3.1 280 11:18 21.03.2020
693 Clear -5 1029 49 10000 3.1 260 10:56 21.03.2020
694 Clear -5 1029 49 10000 3.1 260 10:38 21.03.2020
695 Clear -6 1029 53 10000 3.6 290 10:19 21.03.2020
696 Clear -6 1029 53 10000 3.6 290 10:19 21.03.2020
697 Clear -7 1029 62 10000 2.6 280 09:41 21.03.2020
698 Clear -7 1029 62 10000 1.5 280 09:23 21.03.2020
699 Clear -7 1029 62 10000 1.5 280 08:59 21.03.2020
700 Clear -9 1028 72 10000 3.6 330 08:41 21.03.2020
701 Clear -10 1028 72 10000 2.1 320 08:22 21.03.2020
702 Clear -11 1028 78 10000 3.6 340 07:42 21.03.2020
703 Clear -12 1027 85 10000 4.1 340 07:23 21.03.2020
704 Clear -13 1027 84 10000 4.6 340 06:46 21.03.2020
705 Snow -13 1026 84 700 5.1 340 06:26 21.03.2020
706 Clear -13 1026 84 10000 5.1 340 05:41 21.03.2020
707 Clear -12 1025 78 10000 5.7 340 04:37 21.03.2020
708 Clear -11 1023 78 10000 4.1 340 02:39 21.03.2020
709 Clouds -10 1022 72 10000 3.6 360 01:57 21.03.2020
710 Clouds -12 1022 72 10000 3.1 360 01:29 21.03.2020
711 Clouds -12 1021 72 10000 3.1 10 00:47 21.03.2020
712 Clouds -10 1020 66 10000 3.1 360 00:24 21.03.2020
713 Clouds -8 1020 61 10000 3.1 360 23:46 20.03.2020
714 Clouds -7 1019 57 10000 3.1 350 23:24 20.03.2020
715 Clouds -6 1019 57 10000 3.1 340 22:44 20.03.2020
716 Clouds -6 1019 57 10000 3.1 340 22:25 20.03.2020
717 Clouds -12 1019 72 10000 1.5 310 21:59 20.03.2020
718 Clouds -10 1019 61 10000 1.5 270 21:41 20.03.2020
719 Clouds -7 1018 57 10000 1.5 260 21:20 20.03.2020
720 Clouds -7 1018 57 10000 1.5 260 20:59 20.03.2020
721 Clouds -7 1018 57 10000 1.5 300 20:41 20.03.2020
722 Clouds -6 1018 53 10000 2.1 290 20:20 20.03.2020
723 Clouds -6 1018 53 10000 2.1 290 19:49 20.03.2020
724 Clouds -5 1018 53 10000 2.1 280 19:22 20.03.2020
725 Clouds -5 1018 53 10000 2.1 280 18:59 20.03.2020
726 Clouds -5 1018 53 10000 2.1 270 18:39 20.03.2020
727 Clouds -5 1018 49 10000 2.1 240 18:20 20.03.2020
728 Clouds -4 1018 49 10000 2.1 240 17:56 20.03.2020
729 Clouds -4 1018 49 10000 2.1 240 17:38 20.03.2020
730 Clouds -3 1018 45 10000 2.6 260 17:19 20.03.2020
731 Clouds -2 1018 42 10000 3.1 260 16:42 20.03.2020
732 Clouds -3 1018 45 10000 4.1 250 16:21 20.03.2020
733 Clouds -3 1018 45 10000 4.1 250 15:56 20.03.2020
734 Clouds -2 1018 42 10000 3.6 250 15:37 20.03.2020
735 Clouds -2 1018 39 10000 3.6 240 15:19 20.03.2020
736 Clouds -2 1018 42 10000 4.6 250 14:42 20.03.2020
737 Clouds -3 1018 45 10000 4.1 210 14:21 20.03.2020
738 Clouds -4 1018 49 10000 4.6 210 13:50 20.03.2020
739 Clouds -4 1018 49 10000 4.6 210 13:26 20.03.2020
740 Clouds -4 1018 49 10000 2.6 240 12:59 20.03.2020
741 Clouds -4 1018 49 10000 2.6 240 12:38 20.03.2020
742 Clouds -5 1018 53 10000 3.1 200 12:20 20.03.2020
743 Clouds -6 1018 53 10000 2.6 230 11:40 20.03.2020
744 Clouds -7 1018 57 10000 2.6 230 11:21 20.03.2020
745 Clouds -8 1018 61 10000 3.1 250 10:57 20.03.2020
746 Clouds -8 1018 61 10000 3.1 250 10:38 20.03.2020
747 Clouds -9 1018 61 10000 3.1 250 10:18 20.03.2020
748 Clouds -10 1018 66 10000 2.6 230 09:46 20.03.2020
749 Clouds -11 1018 66 10000 3.1 240 09:21 20.03.2020
750 Clouds -11 1018 66 10000 3.1 240 08:58 20.03.2020
751 Clouds -12 1018 72 10000 3.1 230 08:39 20.03.2020
752 Clouds -12 1018 72 10000 3.6 230 08:19 20.03.2020
753 Clouds -13 1018 71 10000 3.6 240 07:43 20.03.2020
754 Clouds -14 1018 77 10000 3.1 240 07:25 20.03.2020
755 Clouds -14 1018 77 10000 2.6 240 06:42 20.03.2020
756 Clouds -15 1018 84 10000 2.6 240 06:22 20.03.2020
757 Clear -13 1018 78 10000 2.1 280 04:39 20.03.2020
758 Clear -13 1017 78 10000 4.1 330 02:54 20.03.2020
759 Clear -12 1017 72 10000 4.1 330 01:50 20.03.2020
760 Clear -12 1017 72 10000 3.1 330 00:45 20.03.2020
761 Clear -12 1016 78 10000 4.1 330 00:24 20.03.2020
762 Clear -11 1016 72 10000 3.6 330 23:42 19.03.2020
763 Clear -11 1016 72 10000 3.6 330 23:23 19.03.2020
764 Clear -10 1015 66 10000 4.6 340 22:41 19.03.2020
765 Clear -10 1015 66 10000 4.6 340 22:23 19.03.2020
766 Clear -10 1015 66 10000 4.6 340 21:58 19.03.2020
767 Clear -9 1014 61 10000 3.6 350 21:38 19.03.2020
768 Clear -9 1014 66 10000 4.1 340 21:19 19.03.2020
769 Clear -8 1013 61 10000 4.6 330 20:44 19.03.2020
770 Clear -8 1013 57 10000 4.6 340 20:25 19.03.2020
771 Clouds -8 1013 57 10000 4.6 340 19:59 19.03.2020
772 Clouds -8 1012 61 10000 4.6 340 19:39 19.03.2020
773 Clouds -7 1012 57 10000 5.7 340 19:21 19.03.2020
774 Clouds -6 1011 53 10000 5.1 340 18:58 19.03.2020
775 Clouds -6 1011 53 10000 5.1 340 18:40 19.03.2020
776 Clouds -6 1011 57 10000 6.2 340 18:22 19.03.2020
777 Clouds -6 1011 57 10000 6.2 340 18:22 19.03.2020
778 Clouds -5 1010 57 10000 5.7 330 17:44 19.03.2020
779 Clouds -4 1009 53 10000 5.7 330 17:20 19.03.2020
780 Clouds -4 1009 58 10000 6.2 330 16:58 19.03.2020
781 Clouds -4 1009 58 10000 6.2 330 16:39 19.03.2020
782 Clouds -3 1008 53 10000 7.2 330 16:21 19.03.2020
783 Clouds -3 1008 53 10000 6.7 330 15:42 19.03.2020
784 Clouds -2 1007 54 10000 5.7 330 15:23 19.03.2020
785 Clouds -2 1007 54 10000 5.7 330 15:23 19.03.2020
786 Clouds -2 1006 54 10000 6.2 330 14:43 19.03.2020
787 Clouds -1 1006 46 10000 6.2 330 14:22 19.03.2020
788 Clouds -1 1006 46 10000 6.2 330 13:56 19.03.2020
789 Clouds -1 1005 46 10000 4.6 330 13:37 19.03.2020
790 Clouds -2 1005 58 10000 4.6 360 13:18 19.03.2020
791 Clouds -2 1004 58 10000 4.6 350 12:40 19.03.2020
792 Clouds -2 1004 63 10000 5.7 330 12:22 19.03.2020
793 Clouds -1 1003 63 10000 5.7 340 11:57 19.03.2020
794 Clouds -1 1003 63 10000 5.7 340 11:38 19.03.2020
795 Clouds -2 1003 68 10000 3.6 340 11:19 19.03.2020
796 Clouds -3 1002 79 10000 5.1 340 10:41 19.03.2020
797 Clouds -3 1001 79 10000 5.1 360 10:20 19.03.2020
798 Clouds -3 1001 79 10000 5.1 360 09:57 19.03.2020
799 Clouds -4 1001 85 10000 4.1 350 09:37 19.03.2020
800 Clouds -4 1000 79 10000 4.6 360 09:18 19.03.2020
801 Clouds -6 999 85 10000 5.1 340 08:42 19.03.2020
802 Clouds -6 999 85 10000 5.1 340 08:42 19.03.2020
803 Clouds -7 999 92 10000 4.1 350 08:21 19.03.2020
804 Clouds -7 998 85 10000 4.6 10 07:46 19.03.2020
805 Clouds -7 998 85 10000 4.6 10 07:28 19.03.2020
806 Clouds -7 997 92 10000 5.1 350 06:43 19.03.2020
807 Fog -10 996 92 350 1 0 05:48 19.03.2020
808 Fog -9 996 92 900 0.5 270 04:57 19.03.2020
809 Fog -9 996 92 900 0.5 270 04:39 19.03.2020
810 Clouds -7 995 100 10000 2.1 260 02:49 19.03.2020
811 Clouds -7 994 100 10000 2.1 250 01:21 19.03.2020
812 Clouds -7 994 85 10000 1.5 240 00:28 19.03.2020
813 Clouds -5 994 92 10000 2.6 240 23:48 18.03.2020
814 Clouds -5 994 100 10000 2.1 250 23:30 18.03.2020
815 Clouds -5 994 92 10000 2.1 240 22:56 18.03.2020
816 Clouds -5 994 92 10000 2.1 240 22:38 18.03.2020
817 Clouds -5 994 92 10000 2.6 240 22:20 18.03.2020
818 Clouds -3 994 86 10000 2.1 250 21:42 18.03.2020
819 Clouds -4 994 85 10000 2.1 260 21:21 18.03.2020
820 Clouds -4 994 85 10000 2.1 260 20:57 18.03.2020
821 Clouds -4 993 85 10000 1.5 240 20:39 18.03.2020
822 Clouds -2 993 79 10000 3.1 220 20:20 18.03.2020
823 Clouds -2 993 79 10000 3.1 220 20:20 18.03.2020
824 Clouds -2 993 79 10000 3.1 220 19:56 18.03.2020
825 Clouds -2 993 86 10000 2.6 230 19:37 18.03.2020
826 Clouds -1 993 80 10000 3.1 230 19:19 18.03.2020
827 Clouds -1 993 80 10000 3.1 230 19:19 18.03.2020
828 Clouds -2 993 79 10000 2.1 240 18:41 18.03.2020
829 Clouds -1 993 80 10000 3.1 230 18:20 18.03.2020
830 Clouds 0 993 96 10000 3.6 0 17:58 18.03.2020
831 Clouds 0 993 96 10000 3.6 0 17:39 18.03.2020
832 Clouds 1 993 69 10000 4.1 220 17:21 18.03.2020
833 Clouds 2 993 69 10000 5.1 220 16:55 18.03.2020
834 Clouds 2 993 69 10000 5.1 220 16:37 18.03.2020
835 Clouds 3 993 64 10000 4.1 210 16:19 18.03.2020
836 Clouds 3 993 59 10000 5.1 230 15:45 18.03.2020
837 Clouds 3 993 64 10000 5.1 230 15:20 18.03.2020
838 Clouds 3 993 64 10000 5.1 230 14:45 18.03.2020
839 Clouds 3 993 64 10000 5.7 220 14:22 18.03.2020
840 Clouds 2 992 69 10000 6.2 210 13:58 18.03.2020
841 Clouds 2 992 69 10000 6.2 210 13:36 18.03.2020
842 Clouds 2 992 69 10000 6.2 230 13:18 18.03.2020
843 Clouds 2 992 69 10000 4.6 240 12:41 18.03.2020
844 Clouds 2 992 69 10000 6.2 220 12:19 18.03.2020
845 Clouds 1 992 74 10000 5.7 230 11:40 18.03.2020
846 Clouds 1 992 74 10000 4.6 230 11:21 18.03.2020
847 Clouds 0 992 91 10000 3.1 240 10:58 18.03.2020
848 Clouds 0 992 91 10000 3.1 240 10:39 18.03.2020
849 Clouds 0 992 91 10000 5.7 230 10:20 18.03.2020
850 Clouds -1 992 86 10000 5.1 240 09:44 18.03.2020
851 Clouds -1 992 86 10000 5.7 230 09:26 18.03.2020
852 Clouds -1 992 86 10000 5.7 230 08:58 18.03.2020
853 Clouds -2 991 86 10000 5.1 230 08:39 18.03.2020
854 Clouds -2 991 86 10000 2.6 240 08:21 18.03.2020
855 Clouds -3 991 92 10000 4.1 230 07:49 18.03.2020
856 Clouds -3 991 92 10000 4.1 230 07:30 18.03.2020
857 Clouds -3 991 92 10000 5.7 230 06:45 18.03.2020
858 Clouds -3 991 92 10000 4.1 230 06:23 18.03.2020
859 Clouds -3 991 92 10000 5.1 230 05:35 18.03.2020
860 Clouds -3 991 92 10000 5.1 230 04:27 18.03.2020
861 Clouds -2 991 92 10000 6.2 230 02:48 18.03.2020
862 Clouds -2 991 100 10000 5.1 220 01:48 18.03.2020
863 Clouds -2 991 100 10000 4.6 230 01:27 18.03.2020
864 Clouds -1 991 100 10000 4.1 230 00:25 18.03.2020
865 Clouds -1 991 100 10000 5.7 230 23:50 17.03.2020
866 Clouds -1 991 100 10000 5.1 0 23:28 17.03.2020
867 Clouds -1 992 100 10000 4.6 220 22:59 17.03.2020
868 Clouds -1 992 100 10000 4.6 220 22:40 17.03.2020
869 Clouds -1 992 100 10000 4.6 220 22:22 17.03.2020
870 Clouds -1 992 100 10000 5.7 220 21:40 17.03.2020
871 Clouds -1 992 100 10000 5.1 220 21:21 17.03.2020
872 Clouds -1 992 100 10000 5.1 230 20:40 17.03.2020
873 Clouds -1 992 100 10000 5.1 230 20:40 17.03.2020
874 Clouds -1 992 100 10000 5.1 220 20:21 17.03.2020
875 Clouds -1 992 100 10000 5.1 220 19:58 17.03.2020
876 Snow -1 992 100 10000 5.1 210 19:39 17.03.2020
877 Snow -1 992 100 3700 5.7 220 19:18 17.03.2020
878 Snow -1 992 92 7000 7.2 220 18:56 17.03.2020
879 Snow -1 992 92 7000 7.2 220 18:37 17.03.2020
880 Snow -1 993 92 2600 6.7 210 18:19 17.03.2020
881 Snow -2 993 100 1900 5.7 200 17:40 17.03.2020
882 Snow -2 993 92 5000 5.7 190 17:21 17.03.2020
883 Snow -1 994 86 10000 7.2 190 16:55 17.03.2020
884 Snow -1 994 86 10000 7.2 190 16:36 17.03.2020
885 Snow -2 994 92 10000 8.2 200 16:18 17.03.2020
886 Snow -2 995 92 2500 8.7 200 15:41 17.03.2020
887 Snow -2 995 86 10000 8.7 200 15:19 17.03.2020
888 Snow -2 996 86 10000 7.2 200 14:41 17.03.2020
889 Clouds -2 996 86 10000 7.2 190 14:21 17.03.2020
890 Clouds -2 996 86 10000 7.2 190 14:21 17.03.2020
891 Clouds -2 997 86 10000 8.7 200 13:43 17.03.2020
892 Clouds -2 997 86 10000 8.7 210 13:25 17.03.2020
893 Clouds -2 997 86 8000 8.7 200 12:54 17.03.2020
894 Clouds -2 997 86 8000 8.7 200 12:36 17.03.2020
895 Snow -2 998 86 2500 9.3 210 12:18 17.03.2020
896 Snow -3 998 92 2000 7.7 200 11:42 17.03.2020
897 Snow -3 999 92 1500 8.2 200 11:24 17.03.2020
898 Snow -3 999 92 1500 9.3 200 10:57 17.03.2020
899 Snow -3 999 92 1500 9.3 200 10:57 17.03.2020
900 Snow -3 999 92 1500 9.3 200 10:37 17.03.2020
901 Snow -3 1000 92 3000 9.3 210 10:18 17.03.2020
902 Snow -3 1000 92 1500 9.8 210 09:46 17.03.2020
903 Snow -3 1000 92 1400 11.3 200 09:20 17.03.2020
904 Snow -3 1000 92 1400 11.3 200 08:58 17.03.2020
905 Snow -2 1000 86 2500 9.3 200 08:40 17.03.2020
906 Snow -3 1001 86 2000 8.7 200 08:18 17.03.2020
907 Clouds -2 1001 74 10000 8.2 200 07:49 17.03.2020
908 Snow -3 1002 73 10000 7.7 200 07:21 17.03.2020
909 Snow -3 1003 73 10000 6.2 200 06:49 17.03.2020
910 Snow -3 1004 73 10000 5.1 200 06:25 17.03.2020
911 Clouds -4 1005 73 10000 5.1 210 05:20 17.03.2020
912 Clouds -4 1006 73 10000 6.2 210 03:31 17.03.2020
913 Clouds -4 1006 73 10000 5.1 210 01:50 17.03.2020
914 Clouds -4 1006 73 10000 5.1 210 01:31 17.03.2020
915 Clouds -4 1006 73 10000 4.1 230 00:52 17.03.2020
916 Clouds -4 1006 73 10000 4.1 230 23:53 16.03.2020
917 Clouds -4 1006 73 10000 4.1 230 23:34 16.03.2020
918 Clouds -1 1006 63 10000 4.6 260 22:55 16.03.2020
919 Clouds -1 1006 63 10000 4.6 260 22:37 16.03.2020
920 Clouds -1 1006 63 10000 4.1 260 22:19 16.03.2020
921 Clouds -1 1005 58 10000 4.6 260 21:44 16.03.2020
922 Clouds -1 1005 58 10000 5.7 260 21:25 16.03.2020
923 Clouds -1 1004 58 10000 5.7 250 20:58 16.03.2020
924 Clouds -1 1004 58 10000 5.7 250 20:38 16.03.2020
925 Clouds -1 1004 54 10000 5.7 250 20:20 16.03.2020
926 Clouds -1 1003 54 10000 5.7 250 19:44 16.03.2020
927 Snow -1 1003 54 10000 7.2 240 19:23 16.03.2020
928 Snow -1 1003 54 10000 7.2 240 18:57 16.03.2020
929 Clouds -1 1002 46 10000 7.7 240 18:38 16.03.2020
930 Clouds -1 1002 46 10000 7.7 240 18:18 16.03.2020
931 Clouds -1 1002 42 10000 6.7 240 17:45 16.03.2020
932 Clouds -2 1002 42 10000 6.2 240 17:24 16.03.2020
933 Snow -2 1002 42 10000 6.2 230 16:49 16.03.2020
934 Snow -2 1002 42 10000 6.2 230 16:31 16.03.2020
935 Snow -2 1001 46 10000 6.7 230 15:58 16.03.2020
936 Clouds -1 1001 39 10000 6.7 230 15:40 16.03.2020
937 Clouds -1 1001 36 10000 6.2 240 15:20 16.03.2020
938 Clouds -1 1001 39 10000 5.1 240 14:44 16.03.2020
939 Clouds -1 1001 42 10000 5.1 250 14:20 16.03.2020
940 Clouds -2 1001 42 10000 4.6 290 13:43 16.03.2020
941 Clouds -2 1001 46 10000 5.1 310 13:25 16.03.2020
942 Clouds -2 1001 46 10000 5.1 310 12:55 16.03.2020
943 Clouds -2 1000 46 10000 6.2 300 12:36 16.03.2020
944 Clouds -3 1000 53 10000 5.7 320 12:18 16.03.2020
945 Clouds -3 999 58 10000 7.7 310 11:41 16.03.2020
946 Clouds -3 998 58 10000 5.7 310 11:19 16.03.2020
947 Clouds -4 998 62 10000 7.2 310 10:43 16.03.2020
948 Clouds -4 997 73 10000 6.7 310 10:24 16.03.2020
949 Clouds -4 996 73 10000 6.2 310 09:46 16.03.2020
950 Clouds -4 996 73 10000 6.2 310 09:28 16.03.2020
951 Clouds -5 994 79 10000 7.2 320 08:58 16.03.2020
952 Clouds -5 992 79 10000 6.7 310 08:26 16.03.2020
953 Snow -5 992 79 10000 6.7 310 07:54 16.03.2020
954 Clouds -5 991 85 10000 5.7 310 07:28 16.03.2020
955 Clouds -5 989 92 10000 4.1 310 06:54 16.03.2020
956 Clouds -5 988 92 10000 4.1 310 06:27 16.03.2020
957 Clouds -4 988 85 10000 4.1 310 05:54 16.03.2020
958 Snow -1 984 100 4100 3.1 250 02:46 16.03.2020
959 Snow -1 984 100 6000 3.6 240 01:20 16.03.2020
960 Snow -1 983 100 6000 3.6 230 00:42 16.03.2020
961 Snow -1 983 100 5000 5.1 220 23:49 15.03.2020
962 Snow -1 983 100 5000 5.1 220 23:21 15.03.2020
963 Snow -1 984 100 4200 5.7 220 22:43 15.03.2020
964 Snow -1 984 100 4200 5.7 220 22:24 15.03.2020
965 Clouds -1 984 100 3800 5.7 210 21:59 15.03.2020
966 Clouds -1 984 100 3800 5.7 210 21:38 15.03.2020
967 Clouds -1 985 100 2300 5.1 200 21:19 15.03.2020
968 Clouds -1 985 100 2700 5.1 200 20:43 15.03.2020
969 Snow -1 986 92 3300 5.1 190 20:22 15.03.2020
970 Snow -1 986 92 3300 5.1 190 19:58 15.03.2020
971 Snow -1 987 92 4000 5.1 190 19:40 15.03.2020
972 Snow -1 987 92 3600 4.6 190 19:21 15.03.2020
973 Snow -1 987 92 3600 4.6 190 18:56 15.03.2020
974 Snow -1 988 92 3300 5.1 190 18:37 15.03.2020
975 Snow -1 988 92 3300 5.1 190 18:37 15.03.2020
976 Clouds -1 988 92 4900 5.1 190 18:19 15.03.2020
977 Snow -1 989 92 3100 6.2 180 17:41 15.03.2020
978 Snow -1 989 92 3700 4.6 170 17:21 15.03.2020
979 Snow -2 990 100 1400 5.7 190 16:58 15.03.2020
980 Snow -2 990 100 1400 5.7 190 16:40 15.03.2020
981 Snow -1 991 86 4100 7.2 200 16:21 15.03.2020
982 Clouds -1 991 80 10000 7.2 200 15:48 15.03.2020
983 Clouds -1 992 74 10000 7.7 200 15:30 15.03.2020
984 Clouds -1 992 74 10000 7.7 200 14:58 15.03.2020
985 Clouds -1 993 74 10000 8.7 200 14:38 15.03.2020
986 Clouds -1 993 68 10000 8.2 200 14:19 15.03.2020
987 Clouds -1 993 68 10000 8.2 200 13:55 15.03.2020
988 Clouds -1 993 68 10000 7.7 210 13:37 15.03.2020
989 Clouds -1 993 63 10000 8.2 220 13:18 15.03.2020
990 Clouds -1 993 63 10000 8.2 220 13:18 15.03.2020
991 Clouds -1 994 68 10000 8.2 220 12:40 15.03.2020
992 Clouds -1 994 63 10000 8.7 210 12:21 15.03.2020
993 Snow -1 994 63 10000 9.3 220 11:44 15.03.2020
994 Snow -2 994 63 10000 10.3 220 11:25 15.03.2020
995 Snow -2 994 63 10000 9.8 220 10:59 15.03.2020
996 Snow -2 994 63 10000 9.8 220 10:39 15.03.2020
997 Snow -2 994 63 10000 9.3 220 10:21 15.03.2020
998 Snow -2 994 63 10000 9.3 220 09:57 15.03.2020
999 Clouds -3 994 68 10000 9.8 220 09:36 15.03.2020
1000 Snow -3 994 68 10000 11.8 210 09:18 15.03.2020
1001 Clouds -3 994 73 10000 10.3 220 08:40 15.03.2020
1002 Snow -4 994 85 10000 11.3 210 08:19 15.03.2020
1003 Snow -4 994 85 10000 11.3 210 07:44 15.03.2020
1004 Snow -4 994 85 4000 11.3 210 07:18 15.03.2020
1005 Snow -4 994 85 10000 10.8 210 06:36 15.03.2020
1006 Snow -4 996 79 4700 10.8 210 05:46 15.03.2020
1007 Clouds -5 996 85 10000 10.3 200 04:50 15.03.2020
1008 Clouds -5 996 85 10000 10.3 200 04:32 15.03.2020
1009 Clouds -6 997 85 10000 10.3 200 03:59 15.03.2020
1010 Clouds -6 1000 79 10000 8.7 200 02:49 15.03.2020
1011 Clouds -6 1000 79 10000 8.7 200 02:18 15.03.2020
1012 Clouds -8 1003 78 10000 6.7 190 00:57 15.03.2020
1013 Clouds -8 1003 78 10000 6.7 190 00:38 15.03.2020
1014 Clouds -8 1003 72 10000 6.7 180 00:18 15.03.2020
1015 Clouds -8 1004 72 10000 8.2 200 23:38 14.03.2020
1016 Clouds -8 1005 67 10000 7.2 200 23:19 14.03.2020
1017 Clouds -10 1005 66 10000 5.1 180 22:46 14.03.2020
1018 Clouds -10 1005 66 10000 5.1 180 22:27 14.03.2020
1019 Clouds -10 1006 61 10000 4.6 180 21:57 14.03.2020
1020 Clouds -10 1007 56 10000 4.1 180 21:37 14.03.2020
1021 Clouds -11 1007 56 10000 4.1 170 21:19 14.03.2020
1022 Clouds -11 1007 56 10000 4.1 170 21:19 14.03.2020
1023 Clouds -11 1007 56 10000 4.1 170 20:59 14.03.2020
1024 Clouds -11 1008 56 10000 4.1 170 20:41 14.03.2020
1025 Clouds -10 1008 51 10000 4.6 160 20:20 14.03.2020
1026 Clouds -10 1008 51 10000 4.6 160 20:20 14.03.2020
1027 Clouds -9 1008 47 10000 4.1 160 19:58 14.03.2020
1028 Clouds -9 1008 47 10000 4.1 160 19:39 14.03.2020
1029 Clouds -9 1008 47 10000 3.1 170 19:19 14.03.2020
1030 Clouds -9 1009 47 10000 2.1 160 18:37 14.03.2020
1031 Clouds -10 1009 51 10000 1 0 18:19 14.03.2020
1032 Clouds -9 1009 47 10000 1.99 201 17:39 14.03.2020
1033 Clear -7 1009 41 10000 1 290 17:21 14.03.2020
1034 Clear -6 1009 41 10000 1.5 300 16:41 14.03.2020
1035 Clear -6 1009 41 10000 2.6 310 16:23 14.03.2020
1036 Clear -6 1009 41 10000 2.6 310 15:59 14.03.2020
1037 Clear -7 1009 41 10000 3.1 330 15:27 14.03.2020
1038 Clear -7 1008 41 10000 4.1 330 14:59 14.03.2020
1039 Clear -7 1008 41 10000 4.1 330 14:37 14.03.2020
1040 Clear -7 1008 41 10000 5.1 320 14:19 14.03.2020
1041 Clear -7 1008 44 10000 4.6 330 13:44 14.03.2020
1042 Clear -7 1008 44 10000 4.6 330 13:44 14.03.2020
1043 Clear -7 1007 44 10000 5.7 330 13:24 14.03.2020
1044 Snow -7 1007 48 10000 5.7 330 12:58 14.03.2020
1045 Snow -7 1007 48 10000 5.7 330 12:38 14.03.2020
1046 Clear -7 1006 48 10000 5.1 330 12:20 14.03.2020
1047 Snow -8 1006 57 10000 4.6 330 11:42 14.03.2020
1048 Snow -8 1005 57 10000 6.2 330 11:24 14.03.2020
1049 Snow -9 1005 61 10000 5.7 330 10:47 14.03.2020
1050 Snow -9 1004 61 10000 5.7 330 10:27 14.03.2020
1051 Snow -10 1004 66 10000 5.7 330 09:58 14.03.2020
1052 Snow -10 1004 66 10000 5.7 330 09:40 14.03.2020
1053 Clear -10 1003 66 10000 4.6 330 09:20 14.03.2020
1054 Clear -11 1003 72 10000 6.2 330 08:46 14.03.2020
1055 Clouds -12 1002 78 10000 4.6 320 08:24 14.03.2020
1056 Clouds -12 1001 78 10000 5.1 330 07:40 14.03.2020
1057 Clouds -13 1001 78 10000 4.6 320 07:21 14.03.2020
1058 Clouds -14 1000 84 10000 4.1 320 06:41 14.03.2020
1059 Clouds -13 999 78 10000 5.1 330 05:58 14.03.2020
1060 Clouds -13 998 78 10000 5.1 330 04:52 14.03.2020
1061 Clouds -12 996 72 10000 4.6 320 03:25 14.03.2020
1062 Clouds -13 996 78 10000 4.6 330 02:35 14.03.2020
1063 Clear -13 995 78 10000 4.1 320 01:39 14.03.2020
1064 Clear -12 994 72 10000 3.6 310 00:22 14.03.2020
1065 Clear -12 994 72 10000 4.1 320 23:38 13.03.2020
1066 Clear -12 994 72 10000 4.1 320 23:38 13.03.2020
1067 Clear -12 993 72 10000 3.6 310 23:18 13.03.2020
1068 Clear -12 993 72 10000 3.6 320 22:41 13.03.2020
1069 Clear -12 993 72 10000 3.1 320 22:20 13.03.2020
1070 Clear -11 993 66 10000 3.6 320 21:40 13.03.2020
1071 Clear -11 993 66 10000 4.1 320 21:18 13.03.2020
1072 Clear -11 993 66 10000 2.6 310 20:41 13.03.2020
1073 Clouds -11 993 61 10000 3.1 310 20:22 13.03.2020
1074 Clouds -10 992 61 10000 3.1 310 19:51 13.03.2020
1075 Clouds -10 992 61 10000 3.1 310 19:31 13.03.2020
1076 Clouds -9 992 52 10000 4.6 310 18:59 13.03.2020
1077 Clouds -9 992 52 10000 4.6 310 18:39 13.03.2020
1078 Clouds -9 991 52 10000 5.7 310 18:21 13.03.2020
1079 Clouds -8 991 52 10000 5.1 320 17:42 13.03.2020
1080 Clouds -8 991 52 10000 5.1 320 17:21 13.03.2020
1081 Snow -7 990 52 10000 6.2 330 16:56 13.03.2020
1082 Snow -7 990 52 10000 6.2 330 16:37 13.03.2020
1083 Snow -7 989 57 10000 6.2 330 16:19 13.03.2020
1084 Snow -7 989 52 10000 7.2 330 15:41 13.03.2020
1085 Snow -7 988 52 10000 6.7 330 15:21 13.03.2020
1086 Snow -6 987 53 10000 6.7 340 14:44 13.03.2020
1087 Snow -6 986 53 10000 8.2 350 14:23 13.03.2020
1088 Snow -6 986 53 10000 8.2 350 13:59 13.03.2020
1089 Snow -6 986 57 10000 7.2 340 13:40 13.03.2020
1090 Clouds -6 985 62 10000 7.2 350 13:21 13.03.2020
1091 Snow -7 984 79 10000 9.8 360 12:56 13.03.2020
1092 Snow -7 984 79 10000 9.8 360 12:38 13.03.2020
1093 Snow -7 983 79 4000 9.8 350 12:19 13.03.2020
1094 Snow -7 982 79 2500 9.8 350 11:45 13.03.2020
1095 Snow -7 981 85 1000 9.8 350 11:26 13.03.2020
1096 Snow -7 980 85 900 9.3 350 10:58 13.03.2020
1097 Snow -7 980 85 900 9.3 350 10:39 13.03.2020
1098 Snow -7 979 85 2100 9.3 350 10:21 13.03.2020
1099 Snow -6 978 79 2900 7.7 350 09:44 13.03.2020
1100 Snow -6 977 79 2800 8.2 350 09:25 13.03.2020
1101 Snow -6 977 85 4000 6.7 340 08:48 13.03.2020
1102 Snow -6 976 85 10000 6.7 350 08:24 13.03.2020
1103 Snow -6 976 85 10000 6.7 350 07:58 13.03.2020
1104 Snow -6 975 85 9000 6.7 340 07:38 13.03.2020
1105 Snow -6 975 92 9000 6.2 340 07:19 13.03.2020
1106 Snow -6 974 92 10000 5.7 330 06:44 13.03.2020
1107 Snow -6 974 92 10000 5.7 330 06:44 13.03.2020
1108 Snow -5 974 85 10000 6.2 330 05:56 13.03.2020
1109 Snow -5 974 85 10000 6.2 330 05:37 13.03.2020
1110 Snow -5 973 92 6000 6.7 330 04:38 13.03.2020
1111 Snow -5 972 92 10000 6.7 330 03:46 13.03.2020
1112 Snow -2 972 100 5000 4.1 300 01:48 13.03.2020
1113 Snow -1 972 100 3800 1.5 260 01:19 13.03.2020
1114 Snow -1 972 100 6000 2.1 260 00:56 13.03.2020
1115 Snow -1 972 100 4200 2.1 250 00:29 13.03.2020
1116 Snow -1 972 100 4200 2.1 220 23:59 12.03.2020
1117 Snow -1 972 100 4200 2.1 220 23:59 12.03.2020
1118 Snow 0 972 96 3300 2.1 180 23:28 12.03.2020
1119 Snow 0 972 99 5000 2.6 160 22:57 12.03.2020
1120 Snow 0 972 99 5000 2.6 160 22:39 12.03.2020
1121 Snow 0 972 99 6000 2.1 160 22:21 12.03.2020
1122 Snow 0 972 99 6000 2.6 160 21:45 12.03.2020
1123 Snow 0 972 99 6000 2.6 160 21:27 12.03.2020
1124 Snow 0 972 99 6000 3.6 160 20:57 12.03.2020
1125 Snow 0 972 99 6000 3.6 160 20:38 12.03.2020
1126 Snow 0 972 98 4800 3.1 160 20:19 12.03.2020
1127 Snow 0 972 98 4700 3.1 150 19:41 12.03.2020
1128 Snow 0 973 98 3800 3.6 150 19:20 12.03.2020
1129 Clouds 0 973 98 3800 2.6 160 18:44 12.03.2020
1130 Clouds 0 973 98 4300 2.1 160 18:24 12.03.2020
1131 Clouds 0 973 98 4400 3.1 160 17:57 12.03.2020
1132 Clouds 0 973 98 4400 3.1 160 17:38 12.03.2020
1133 Snow 0 973 98 10000 3.6 160 17:20 12.03.2020
1134 Snow 0 973 98 6000 2.6 140 16:55 12.03.2020
1135 Snow 0 973 98 6000 2.6 140 16:37 12.03.2020
1136 Snow 0 974 98 4300 3.1 160 16:18 12.03.2020
1137 Snow 0 974 98 5000 2.6 160 15:45 12.03.2020
1138 Snow 0 974 98 5000 2.6 160 15:26 12.03.2020
1139 Rain 1 974 98 10000 3.6 160 14:40 12.03.2020
1140 Snow 1 974 97 6000 4.1 170 14:21 12.03.2020
1141 Snow 1 974 97 6000 4.1 170 13:56 12.03.2020
1142 Clouds 1 974 86 10000 3.6 180 13:36 12.03.2020
1143 Clouds 1 975 97 10000 3.1 160 13:18 12.03.2020
1144 Clouds 1 975 86 10000 4.1 170 12:41 12.03.2020
1145 Clouds 1 975 86 10000 3.1 170 12:21 12.03.2020
1146 Snow 1 975 97 10000 3.1 170 11:57 12.03.2020
1147 Snow 1 975 97 10000 3.1 170 11:38 12.03.2020
1148 Clouds 1 975 97 10000 2.6 170 11:19 12.03.2020
1149 Clouds 0 976 97 10000 2.6 160 10:58 12.03.2020
1150 Clouds 0 976 97 10000 2.6 160 10:40 12.03.2020
1151 Snow 0 976 97 6000 2.6 160 10:22 12.03.2020
1152 Snow 0 976 97 5000 3.1 140 09:46 12.03.2020
1153 Snow 0 977 97 7000 3.1 150 09:25 12.03.2020
1154 Snow 0 977 97 1600 3.6 150 08:44 12.03.2020
1155 Fog 0 977 98 500 3.6 150 08:20 12.03.2020
1156 Fog 0 977 98 500 3.6 150 07:56 12.03.2020
1157 Fog 0 977 98 700 3.1 140 07:38 12.03.2020
1158 Fog 0 978 98 700 3.1 150 07:20 12.03.2020
1159 Clouds -1 979 100 10000 2.1 120 05:48 12.03.2020
1160 Clouds -1 979 100 10000 2.1 140 05:25 12.03.2020
1161 Clouds 0 981 98 10000 3.1 190 02:41 12.03.2020
1162 Clouds 0 982 97 10000 2.6 160 01:32 12.03.2020
1163 Snow 0 982 96 8000 3.1 170 00:47 12.03.2020
1164 Snow 0 982 96 5000 3.6 170 00:26 12.03.2020
1165 Clouds 0 983 96 10000 3.1 160 23:47 11.03.2020
1166 Clouds 0 983 96 10000 3.1 170 23:24 11.03.2020
1167 Clouds 0 983 98 6000 3.6 160 22:48 11.03.2020
1168 Clouds 0 983 98 6000 3.6 160 22:30 11.03.2020
1169 Clouds 0 983 98 6000 3.6 160 22:30 11.03.2020
1170 Snow 0 984 98 10000 3.6 150 21:59 11.03.2020
1171 Snow 0 984 98 10000 3.6 150 21:59 11.03.2020
1172 Clouds 0 984 98 10000 3.1 130 21:41 11.03.2020
1173 Clouds 0 985 98 10000 3.1 120 21:22 11.03.2020
1174 Clouds 0 985 98 10000 3.1 120 20:58 11.03.2020
1175 Clouds 0 985 98 10000 3.1 120 20:39 11.03.2020
1176 Clouds 0 985 98 10000 2.6 130 20:19 11.03.2020
1177 Clouds 0 985 97 10000 2.6 140 19:44 11.03.2020
1178 Clouds 0 985 97 10000 2.6 140 19:25 11.03.2020
1179 Clouds 0 986 97 10000 2.6 0 18:59 11.03.2020
1180 Clouds 0 986 97 10000 2.6 130 18:40 11.03.2020
1181 Clouds 0 986 97 10000 3.1 120 18:21 11.03.2020
1182 Snow 0 986 97 10000 3.6 120 17:58 11.03.2020
1183 Snow 0 986 97 10000 3.6 120 17:58 11.03.2020
1184 Snow 0 986 97 10000 3.6 120 17:39 11.03.2020
1185 Clouds 0 986 97 10000 2.1 110 17:20 11.03.2020
1186 Clouds 1 986 86 10000 2.1 130 16:46 11.03.2020
1187 Clouds 1 987 86 10000 3.1 130 16:23 11.03.2020
1188 Clouds 1 987 86 10000 3.1 130 15:57 11.03.2020
1189 Clouds 1 987 86 10000 2.1 130 15:39 11.03.2020
1190 Clouds 1 987 86 10000 2.1 170 15:21 11.03.2020
1191 Clouds 1 988 86 10000 3.1 180 14:41 11.03.2020
1192 Clouds 1 988 86 10000 2.6 140 14:22 11.03.2020
1193 Clouds 1 988 86 10000 2.6 170 13:45 11.03.2020
1194 Clouds 1 988 86 10000 2.6 170 13:27 11.03.2020
1195 Clouds 1 988 86 10000 2.6 180 12:58 11.03.2020
1196 Clouds 1 988 99 10000 4.6 170 12:40 11.03.2020
1197 Clouds 1 988 99 10000 3.1 170 12:19 11.03.2020
1198 Snow 0 989 99 2000 3.6 170 11:55 11.03.2020
1199 Snow 0 989 99 2000 3.6 170 11:36 11.03.2020
1200 Clouds 1 989 99 10000 3.1 160 11:18 11.03.2020
1201 Clouds 0 989 99 10000 3.6 130 10:42 11.03.2020
1202 Clouds 0 989 99 10000 3.6 120 10:18 11.03.2020
1203 Snow 0 989 99 5000 3.6 120 09:43 11.03.2020
1204 Snow 0 989 99 5000 3.6 120 09:43 11.03.2020
1205 Clouds 0 989 99 2000 4.1 110 09:24 11.03.2020
1206 Clouds -1 990 100 5000 3.1 90 08:45 11.03.2020
1207 Clouds -1 990 100 5000 3.1 90 08:27 11.03.2020
1208 Snow -1 990 92 3000 3.6 80 07:58 11.03.2020
1209 Snow -2 990 100 5000 3.6 80 07:38 11.03.2020
1210 Snow -2 990 92 7000 3.6 80 07:18 11.03.2020
1211 Snow -2 990 92 10000 4.1 80 06:37 11.03.2020
1212 Clouds -3 991 100 10000 5.1 70 05:35 11.03.2020
1213 Clouds -3 991 92 10000 6.7 70 04:18 11.03.2020
1214 Snow -2 992 92 10000 6.2 70 02:19 11.03.2020
1215 Snow -2 993 92 10000 5.7 70 01:27 11.03.2020
1216 Snow -2 993 92 5000 5.1 70 00:45 11.03.2020
1217 Snow -2 993 92 2500 5.1 70 23:57 10.03.2020
1218 Snow -2 993 92 2500 5.1 70 23:39 10.03.2020
1219 Snow -2 993 92 6000 6.2 60 23:20 10.03.2020
1220 Snow -2 993 100 10000 6.2 60 22:38 10.03.2020
1221 Clouds -1 993 100 10000 3.6 70 22:19 10.03.2020
1222 Clouds -1 993 100 10000 3.6 70 21:56 10.03.2020
1223 Clouds -1 994 92 10000 2.6 70 21:38 10.03.2020
1224 Clouds -1 994 92 10000 1.5 90 21:19 10.03.2020
1225 Clouds -1 994 92 10000 1.5 110 20:57 10.03.2020
1226 Clouds -1 994 92 10000 1.5 110 20:38 10.03.2020
1227 Clouds -1 994 92 10000 1.5 130 20:18 10.03.2020
1228 Clouds -1 994 92 10000 2.1 160 19:55 10.03.2020
1229 Clouds -1 994 92 10000 2.1 160 19:36 10.03.2020
1230 Clouds -1 994 92 10000 2.1 160 19:18 10.03.2020
1231 Clouds -1 994 92 10000 1.5 190 18:42 10.03.2020
1232 Clouds 0 994 96 10000 1 190 18:23 10.03.2020
1233 Snow 0 994 96 10000 2.1 210 17:56 10.03.2020
1234 Snow 0 994 96 10000 2.1 210 17:38 10.03.2020
1235 Clouds 0 994 91 10000 2.1 200 17:20 10.03.2020
1236 Clouds 0 994 91 10000 3.6 210 16:38 10.03.2020
1237 Clouds 0 994 91 10000 3.6 210 16:38 10.03.2020
1238 Clouds 0 994 91 10000 3.6 200 16:18 10.03.2020
1239 Clouds 0 994 91 10000 4.6 200 15:44 10.03.2020
1240 Clouds 1 994 80 10000 4.1 220 15:20 10.03.2020
1241 Clouds 1 994 80 10000 4.1 220 14:59 10.03.2020
1242 Clouds 1 994 80 10000 4.1 220 14:59 10.03.2020
1243 Clouds 1 994 80 10000 4.1 190 14:40 10.03.2020
1244 Clouds 1 993 86 10000 4.6 210 14:19 10.03.2020
1245 Clouds 1 993 86 10000 4.6 210 14:19 10.03.2020
1246 Clouds 1 993 86 10000 4.6 200 13:45 10.03.2020
1247 Clouds 1 993 86 10000 4.6 200 13:26 10.03.2020
1248 Clouds 2 993 80 10000 4.6 230 12:57 10.03.2020
1249 Clouds 2 993 74 10000 5.7 210 12:37 10.03.2020
1250 Clouds 2 993 74 10000 5.7 210 12:37 10.03.2020
1251 Clouds 2 993 74 10000 5.7 220 12:18 10.03.2020
1252 Clouds 2 993 74 10000 6.2 220 11:42 10.03.2020
1253 Clouds 1 993 80 10000 6.2 210 11:24 10.03.2020
1254 Clouds 1 992 80 10000 7.2 210 10:58 10.03.2020
1255 Clouds 1 992 80 10000 7.2 210 10:39 10.03.2020
1256 Clouds 1 992 80 10000 7.7 220 10:19 10.03.2020
1257 Clouds 0 992 87 10000 8.2 210 09:55 10.03.2020
1258 Clouds 0 992 87 10000 8.2 210 09:36 10.03.2020
1259 Clouds 0 992 87 10000 8.7 210 09:18 10.03.2020
1260 Clouds 0 992 87 10000 6.7 210 08:42 10.03.2020
1261 Clouds 0 992 87 10000 6.7 210 08:24 10.03.2020
1262 Clouds 0 992 89 10000 6.7 210 07:45 10.03.2020
1263 Clouds -1 992 92 10000 6.2 210 07:27 10.03.2020
1264 Clouds -1 992 92 10000 6.2 220 06:38 10.03.2020
1265 Clouds -1 991 92 10000 6.7 210 05:58 10.03.2020
1266 Clouds -1 991 92 10000 6.7 210 05:38 10.03.2020
1267 Clouds 0 991 92 10000 6.2 210 04:33 10.03.2020
1268 Clouds 0 991 92 10000 6.7 200 03:19 10.03.2020
1269 Clouds 1 992 93 10000 7.7 210 01:36 10.03.2020
1270 Clouds 1 992 93 10000 8.2 210 00:51 10.03.2020
1271 Clouds 1 992 93 10000 8.2 210 00:29 10.03.2020
1272 Clouds 1 992 93 10000 7.7 210 23:43 09.03.2020
1273 Clouds 1 992 93 8000 7.2 200 23:23 09.03.2020
1274 Clouds 1 993 96 7000 7.7 210 22:58 09.03.2020
1275 Clouds 1 993 96 7000 7.7 210 22:38 09.03.2020
1276 Clouds 1 993 100 10000 7.2 200 22:20 09.03.2020
1277 Clouds 1 993 100 10000 6.7 200 21:45 09.03.2020
1278 Clouds 1 993 96 10000 9.3 200 21:22 09.03.2020
1279 Clouds 1 993 96 10000 9.3 200 21:22 09.03.2020
1280 Clouds 1 993 96 10000 9.3 200 20:58 09.03.2020
1281 Clouds 1 993 100 10000 9.3 200 20:40 09.03.2020
1282 Clouds 1 994 96 10000 9.3 210 20:22 09.03.2020
1283 Clouds 1 994 95 10000 9.3 210 19:59 09.03.2020
1284 Clouds 1 994 95 10000 9.3 210 19:59 09.03.2020
1285 Clouds 1 994 95 10000 8.7 210 19:41 09.03.2020
1286 Clouds 1 994 95 10000 9.3 210 19:18 09.03.2020
1287 Clouds 1 994 100 10000 9.8 210 18:56 09.03.2020
1288 Clouds 1 994 100 10000 9.8 210 18:37 09.03.2020
1289 Clouds 1 994 100 10000 7.7 210 18:18 09.03.2020
1290 Clouds 1 994 100 10000 8.7 210 17:55 09.03.2020
1291 Clouds 1 994 100 10000 8.7 210 17:55 09.03.2020
1292 Clouds 1 994 100 10000 8.7 210 17:36 09.03.2020
1293 Clouds 1 993 100 10000 7.2 210 17:18 09.03.2020
1294 Clouds 1 993 100 10000 7.2 210 16:42 09.03.2020
1295 Clouds 1 993 100 10000 6.7 220 16:22 09.03.2020
1296 Clouds 1 993 100 10000 6.7 220 15:59 09.03.2020
1297 Clouds 1 993 100 7000 6.7 220 15:39 09.03.2020
1298 Clouds 1 993 100 7000 6.7 220 15:21 09.03.2020
1299 Rain 1 993 100 400 7.7 220 14:58 09.03.2020
1300 Rain 1 993 100 400 7.7 220 14:38 09.03.2020
1301 Fog 1 993 100 200 8.7 220 14:19 09.03.2020
1302 Fog 1 993 100 300 9.3 220 13:58 09.03.2020
1303 Fog 1 992 100 250 8.2 210 13:39 09.03.2020
1304 Fog 1 992 100 250 8.2 210 13:19 09.03.2020
1305 Fog 1 992 100 300 7.7 220 12:43 09.03.2020
1306 Fog 1 992 100 300 7.7 220 12:23 09.03.2020
1307 Fog 1 991 100 200 8.7 210 11:58 09.03.2020
1308 Fog 1 991 100 200 9.8 210 11:38 09.03.2020
1309 Fog 1 991 100 200 9.8 210 11:38 09.03.2020
1310 Fog 1 991 100 200 9.8 210 11:19 09.03.2020
1311 Fog 1 991 100 300 8.2 220 10:55 09.03.2020
1312 Mist 1 990 100 3000 8.2 210 10:36 09.03.2020
1313 Mist 1 990 100 3000 8.2 210 10:18 09.03.2020
1314 Clouds 1 990 100 10000 9.8 220 09:40 09.03.2020
1315 Clouds 1 990 100 10000 9.8 220 09:21 09.03.2020
1316 Rain 1 990 100 10000 10.3 210 08:44 09.03.2020
1317 Rain 1 990 100 10000 10.3 210 08:26 09.03.2020
1318 Rain 1 990 100 6000 10.8 210 07:42 09.03.2020
1319 Rain 1 990 100 6000 10.3 210 07:22 09.03.2020
1320 Rain 1 990 100 6000 10.3 210 07:22 09.03.2020
1321 Snow 1 990 100 7000 10.8 210 06:46 09.03.2020
1322 Drizzle 1 990 100 5000 11.3 210 06:27 09.03.2020
1323 Drizzle 1 990 100 6000 11.8 210 05:58 09.03.2020
1324 Drizzle 1 990 100 6000 11.8 210 05:39 09.03.2020
1325 Drizzle 1 990 100 4500 10.8 200 04:43 09.03.2020
1326 Drizzle 1 991 100 4600 10.8 210 04:22 09.03.2020
1327 Rain 1 991 94 4600 10.3 210 03:28 09.03.2020
1328 Snow 0 992 97 6000 9.3 200 01:50 09.03.2020
1329 Clouds 0 993 96 4500 9.8 200 00:39 09.03.2020
1330 Snow 0 993 96 4000 9.8 200 00:21 09.03.2020
1331 Clouds 0 993 96 3800 10.3 200 23:52 08.03.2020
1332 Snow 0 993 96 3600 9.8 200 23:25 08.03.2020
1333 Clouds 0 993 96 4200 9.8 200 22:58 08.03.2020
1334 Clouds 0 993 96 4200 9.8 200 22:39 08.03.2020
1335 Clouds 0 993 96 4700 9.8 200 22:20 08.03.2020
1336 Clouds 0 994 96 4300 9.8 190 21:56 08.03.2020
1337 Clouds 0 994 96 4300 9.8 190 21:56 08.03.2020
1338 Clouds 0 994 96 3400 9.3 190 21:38 08.03.2020
1339 Clouds 0 994 96 3400 9.3 190 21:19 08.03.2020
1340 Clouds 0 995 96 2700 9.3 190 20:40 08.03.2020
1341 Clouds 0 995 96 2700 9.3 190 20:40 08.03.2020
1342 Clouds 0 995 96 2700 9.3 190 20:21 08.03.2020
1343 Clouds 0 995 96 2700 9.3 190 19:56 08.03.2020
1344 Clouds 0 995 96 4200 8.7 180 19:37 08.03.2020
1345 Clouds 0 995 96 3300 9.3 190 19:18 08.03.2020
1346 Snow 0 996 96 4300 9.3 180 18:42 08.03.2020
1347 Snow 0 996 96 4300 9.3 180 18:42 08.03.2020
1348 Snow 0 996 96 4300 9.3 180 18:24 08.03.2020
1349 Snow 0 996 96 3400 9.3 180 17:56 08.03.2020
1350 Snow 0 997 96 2900 9.3 170 17:38 08.03.2020
1351 Snow 0 997 96 2900 9.3 170 17:19 08.03.2020
1352 Snow 0 997 96 2900 9.3 170 16:46 08.03.2020
1353 Snow 0 997 96 2400 9.3 170 16:27 08.03.2020
1354 Rain 0 998 96 10000 9.3 180 15:56 08.03.2020
1355 Rain 1 998 80 10000 9.3 180 15:38 08.03.2020
1356 Rain 1 998 80 10000 9.3 180 15:19 08.03.2020
1357 Snow 0 999 96 10000 7.2 170 14:40 08.03.2020
1358 Snow 0 999 96 10000 7.2 170 14:21 08.03.2020
1359 Clouds 0 1000 92 10000 6.7 180 13:57 08.03.2020
1360 Clouds 0 1000 92 10000 6.7 180 13:38 08.03.2020
1361 Clouds 0 1000 95 10000 6.7 180 13:19 08.03.2020
1362 Clouds 0 1001 95 10000 7.7 190 12:41 08.03.2020
1363 Clouds 0 1001 95 10000 7.7 190 12:21 08.03.2020
1364 Clouds 0 1001 95 10000 6.7 180 11:54 08.03.2020
1365 Snow -1 1002 80 10000 6.2 180 11:36 08.03.2020
1366 Clouds -2 1002 92 10000 6.2 190 11:18 08.03.2020
1367 Clouds -2 1002 92 10000 6.2 190 10:41 08.03.2020
1368 Clouds -2 1002 92 10000 6.2 190 10:22 08.03.2020
1369 Clouds -3 1003 92 10000 5.7 180 09:40 08.03.2020
1370 Clouds -3 1003 92 10000 5.7 180 09:22 08.03.2020
1371 Clouds -4 1003 92 10000 4.6 160 08:50 08.03.2020
1372 Clouds -4 1004 92 10000 5.1 160 08:27 08.03.2020
1373 Clouds -4 1004 92 10000 5.1 160 07:51 08.03.2020
1374 Clouds -4 1004 92 10000 5.1 160 07:29 08.03.2020
1375 Clouds -4 1004 92 10000 4.6 150 06:58 08.03.2020
1376 Clouds -3 1004 92 10000 4.6 160 06:37 08.03.2020
1377 Clouds -3 1004 92 10000 3.1 160 06:18 08.03.2020
1378 Clouds -3 1005 92 10000 4.1 180 04:50 08.03.2020
1379 Clouds -3 1006 92 10000 5.1 200 03:27 08.03.2020
1380 Clouds -3 1006 92 10000 5.7 190 02:27 08.03.2020
1381 Mist -3 1006 100 2400 4.1 180 01:21 08.03.2020
1382 Snow -3 1006 92 2700 3.6 180 00:42 08.03.2020
1383 Snow -3 1006 92 2700 3.6 180 00:22 08.03.2020
1384 Clouds -4 1007 100 2600 4.1 190 23:43 07.03.2020
1385 Mist -4 1007 100 2900 5.7 190 23:21 07.03.2020
1386 Clouds -4 1007 92 1500 4.1 190 22:39 07.03.2020
1387 Clouds -4 1007 92 1500 4.1 190 22:39 07.03.2020
1388 Clouds -4 1007 92 1500 4.1 190 22:20 07.03.2020
1389 Fog -5 1007 100 700 5.1 180 21:47 07.03.2020
1390 Fog -5 1007 92 800 4.6 160 21:24 07.03.2020
1391 Clear -5 1007 100 10000 4.6 180 20:42 07.03.2020
1392 Clear -4 1007 92 10000 4.1 190 20:23 07.03.2020
1393 Clear -4 1007 92 10000 4.1 210 19:57 07.03.2020
1394 Clear -4 1007 92 10000 4.1 210 19:38 07.03.2020
1395 Clear -3 1007 92 10000 4.1 210 19:19 07.03.2020
1396 Clear -3 1007 92 10000 4.1 210 18:41 07.03.2020
1397 Clear -4 1007 100 10000 4.6 220 18:22 07.03.2020
1398 Clear -3 1006 92 10000 4.1 220 17:43 07.03.2020
1399 Clear -3 1006 92 10000 4.1 220 17:22 07.03.2020
1400 Clear -3 1006 100 10000 4.1 220 16:59 07.03.2020
1401 Clear -3 1006 92 10000 3.6 220 16:41 07.03.2020
1402 Clear -3 1006 92 10000 3.6 220 16:22 07.03.2020
1403 Clear -3 1006 92 10000 4.1 220 15:57 07.03.2020
1404 Clouds -2 1005 92 10000 4.1 230 15:37 07.03.2020
1405 Clouds -2 1005 92 10000 4.1 230 15:19 07.03.2020
1406 Clouds -2 1005 92 10000 2.6 240 14:46 07.03.2020
1407 Clouds -3 1005 100 10000 3.1 230 14:26 07.03.2020
1408 Clouds -3 1005 100 10000 3.6 250 13:59 07.03.2020
1409 Clouds -3 1004 92 10000 3.1 260 13:39 07.03.2020
1410 Clouds -3 1004 92 10000 3.1 260 13:19 07.03.2020
1411 Clouds -3 1004 92 10000 4.1 240 12:42 07.03.2020
1412 Clouds -4 1004 100 10000 3.6 230 12:20 07.03.2020
1413 Clouds -4 1003 100 10000 4.1 240 11:57 07.03.2020
1414 Clouds -4 1003 100 10000 4.1 240 11:57 07.03.2020
1415 Clouds -4 1003 100 10000 4.1 240 11:39 07.03.2020
1416 Clouds -4 1003 92 10000 3.1 230 11:20 07.03.2020
1417 Snow -5 1002 100 6000 5.7 220 10:41 07.03.2020
1418 Snow -5 1002 100 6000 5.7 220 10:20 07.03.2020
1419 Mist -5 1002 92 1900 6.2 210 09:56 07.03.2020
1420 Snow -5 1002 92 1000 6.2 200 09:37 07.03.2020
1421 Snow -5 1002 92 1000 6.2 200 09:18 07.03.2020
1422 Clouds -5 1001 92 1200 5.7 210 08:44 07.03.2020
1423 Clouds -6 1001 92 1000 5.7 200 08:21 07.03.2020
1424 Fog -6 1001 92 650 5.7 200 07:49 07.03.2020
1425 Fog -7 1001 92 750 5.7 200 07:23 07.03.2020
1426 Clouds -7 1002 97 0 3.46 205 06:55 07.03.2020
1427 Clouds -7 1002 97 0 3.46 205 06:29 07.03.2020
1428 Clouds -9 1000 100 10000 4.1 220 05:52 07.03.2020
1429 Clouds -8 1000 85 10000 3.6 210 04:42 07.03.2020
1430 Snow -8 1000 100 2000 4.1 230 02:47 07.03.2020
1431 Clouds -8 999 92 10000 3.6 230 02:24 07.03.2020
1432 Clouds -8 999 92 10000 4.1 220 01:26 07.03.2020
1433 Clouds -8 998 92 10000 4.1 220 00:38 07.03.2020
1434 Clouds -8 998 92 10000 4.1 220 00:19 07.03.2020
1435 Clouds -8 998 92 10000 4.6 220 23:43 06.03.2020
1436 Clouds -8 998 92 10000 4.1 230 23:25 06.03.2020
1437 Clouds -8 998 92 10000 3.6 230 22:47 06.03.2020
1438 Clouds -9 998 92 10000 3.6 230 22:21 06.03.2020
1439 Clouds -9 997 92 10000 3.6 230 21:54 06.03.2020
1440 Clouds -9 997 92 10000 2.6 230 21:36 06.03.2020
1441 Clouds -9 997 92 10000 2.6 230 21:18 06.03.2020
1442 Clouds -9 997 92 10000 4.1 230 20:37 06.03.2020
1443 Clouds -9 997 92 10000 4.1 230 20:19 06.03.2020
1444 Clouds -8 996 92 10000 5.1 220 19:44 06.03.2020
1445 Clouds -8 996 92 10000 5.1 220 19:26 06.03.2020
1446 Clouds -7 996 92 10000 5.7 220 18:44 06.03.2020
1447 Clouds -7 996 92 10000 4.1 220 18:21 06.03.2020
1448 Clouds -6 995 92 10000 5.1 220 17:58 06.03.2020
1449 Clouds -6 995 92 10000 5.1 220 17:40 06.03.2020
1450 Clouds -6 995 92 10000 5.7 220 17:21 06.03.2020
1451 Snow -4 995 79 10000 5.1 230 16:57 06.03.2020
1452 Snow -4 995 79 10000 5.1 230 16:39 06.03.2020
1453 Snow -4 995 79 10000 5.1 230 16:19 06.03.2020
1454 Snow -4 994 85 10000 5.7 230 15:42 06.03.2020
1455 Snow -4 994 79 10000 5.7 230 15:23 06.03.2020
1456 Clouds -4 993 79 10000 5.7 240 14:41 06.03.2020
1457 Clouds -4 993 79 10000 5.7 240 14:23 06.03.2020
1458 Clouds -4 993 79 10000 5.7 240 14:23 06.03.2020
1459 Clouds -5 993 85 10000 5.7 240 13:57 06.03.2020
1460 Clouds -5 993 85 10000 5.7 240 13:39 06.03.2020
1461 Clouds -5 993 79 10000 4.1 240 13:19 06.03.2020
1462 Clouds -5 992 85 10000 4.1 240 12:54 06.03.2020
1463 Clouds -5 992 85 10000 4.1 240 12:36 06.03.2020
1464 Clouds -5 992 85 10000 4.1 240 12:18 06.03.2020
1465 Clouds -4 992 79 10000 3.1 270 11:42 06.03.2020
1466 Clouds -5 992 85 10000 3.1 250 11:20 06.03.2020
1467 Clouds -5 991 92 10000 3.6 260 10:56 06.03.2020
1468 Snow -4 991 85 10000 3.6 280 10:36 06.03.2020
1469 Snow -4 991 85 10000 3.6 280 10:18 06.03.2020
1470 Snow -4 991 92 7000 3.1 300 09:41 06.03.2020
1471 Snow -3 990 92 6000 3.1 240 09:23 06.03.2020
1472 Snow -3 990 92 7000 3.1 230 08:55 06.03.2020
1473 Snow -3 990 92 10000 3.1 230 08:36 06.03.2020
1474 Snow -3 990 92 10000 3.1 230 08:18 06.03.2020
1475 Clouds -3 989 92 5000 2.6 210 07:41 06.03.2020
1476 -273 0 0 0 0 0 07:21 06.03.2020
1477 Clouds -3 989 92 3000 2.1 190 06:42 06.03.2020
1478 Snow -3 989 92 10000 2.1 170 05:59 06.03.2020
1479 Snow -3 989 92 10000 3.1 190 05:36 06.03.2020
1480 Snow -3 990 92 10000 3.1 200 04:59 06.03.2020
1481 Snow -3 990 100 10000 3.6 190 03:58 06.03.2020
1482 Snow -2 990 92 9000 4.1 210 01:42 06.03.2020
1483 Snow -2 990 92 5000 4.1 210 01:24 06.03.2020
1484 Snow -3 990 100 10000 4.1 200 00:47 06.03.2020
1485 Snow -3 990 100 10000 3.6 190 00:20 06.03.2020
1486 Snow -3 991 100 10000 3.1 170 23:43 05.03.2020
1487 Snow -3 991 92 9000 2.6 130 23:24 05.03.2020
1488 Snow -3 991 92 5000 3.1 130 22:41 05.03.2020
1489 Snow -4 991 100 2400 3.1 110 22:23 05.03.2020
1490 Snow -4 992 100 10000 3.1 110 21:58 05.03.2020
1491 Snow -4 992 100 10000 3.1 110 21:39 05.03.2020
1492 Snow -4 992 92 10000 3.1 100 21:21 05.03.2020
1493 Snow -4 992 92 6000 3.1 100 20:59 05.03.2020
1494 Snow -4 992 92 6000 3.1 100 20:41 05.03.2020
1495 Snow -4 992 92 4200 3.6 90 20:20 05.03.2020
1496 Snow -4 992 92 4100 3.6 90 19:58 05.03.2020
1497 Snow -4 992 92 4100 3.6 90 19:39 05.03.2020
1498 Snow -4 993 92 3900 3.6 90 19:19 05.03.2020
1499 Snow -4 993 92 3700 3.6 80 18:57 05.03.2020
1500 Snow -4 994 92 3900 3.6 90 18:37 05.03.2020
1501 Snow -4 994 92 3900 3.6 90 18:18 05.03.2020
1502 Snow -4 994 92 2000 4.1 90 17:42 05.03.2020
1503 Snow -4 994 92 3600 4.1 90 17:22 05.03.2020
1504 Snow -5 995 92 1800 4.1 90 16:59 05.03.2020
1505 Snow -4 995 85 1600 4.1 90 16:40 05.03.2020
1506 Snow -4 995 85 1600 4.1 90 16:21 05.03.2020
1507 Snow -5 995 92 1700 4.6 90 15:45 05.03.2020
1508 Snow -5 996 92 1300 4.6 90 15:24 05.03.2020
1509 Snow -5 996 92 6000 5.1 100 14:59 05.03.2020
1510 Snow -5 997 92 4000 4.6 90 14:41 05.03.2020
1511 Snow -5 997 92 4000 4.6 90 14:22 05.03.2020
1512 Snow -5 997 92 3000 5.1 90 13:57 05.03.2020
1513 Snow -5 997 92 3000 5.1 90 13:38 05.03.2020
1514 Snow -5 998 92 10000 5.7 90 13:20 05.03.2020
1515 Snow -5 998 92 6000 5.7 100 12:42 05.03.2020
1516 Snow -5 999 85 2000 6.2 90 12:21 05.03.2020
1517 Clouds -5 999 85 2000 6.2 100 11:57 05.03.2020
1518 Clouds -5 999 85 2000 6.2 100 11:37 05.03.2020
1519 Snow -5 1000 85 5000 6.7 100 11:19 05.03.2020
1520 Clouds -5 1000 85 5000 6.7 100 10:57 05.03.2020
1521 Clouds -5 1000 85 5000 6.7 100 10:57 05.03.2020
1522 Snow -6 1001 92 10000 6.7 100 10:39 05.03.2020
1523 Snow -6 1001 92 10000 6.7 100 10:21 05.03.2020
1524 Snow -6 1001 92 7000 6.7 90 09:46 05.03.2020
1525 Snow -6 1001 85 3000 6.2 90 09:28 05.03.2020
1526 Snow -6 1002 85 3000 6.7 90 08:49 05.03.2020
1527 Snow -6 1002 85 3000 6.7 90 08:49 05.03.2020
1528 Snow -6 1002 85 4500 6.2 90 08:31 05.03.2020
1529 Snow -6 1003 85 5000 7.2 90 07:56 05.03.2020
1530 Snow -6 1003 85 5000 7.2 100 07:36 05.03.2020
1531 Snow -6 1003 85 5000 7.2 100 07:18 05.03.2020
1532 Snow -6 1004 85 6000 7.2 90 06:43 05.03.2020
1533 Snow -6 1004 85 5000 7.2 100 06:19 05.03.2020
1534 Snow -6 1005 85 10000 6.7 100 05:33 05.03.2020
1535 Snow -6 1005 85 10000 6.7 100 05:33 05.03.2020
1536 Snow -7 1007 85 2600 6.2 90 04:23 05.03.2020
1537 Snow -7 1007 85 2000 7.2 90 03:58 05.03.2020
1538 Snow -7 1010 67 7000 6.7 80 02:31 05.03.2020
1539 Snow -8 1011 72 10000 7.2 70 01:26 05.03.2020
1540 Snow -8 1012 72 10000 7.7 80 00:44 05.03.2020
1541 Snow -8 1013 72 10000 7.2 80 23:56 04.03.2020
1542 Snow -8 1013 72 10000 7.2 80 23:56 04.03.2020
1543 Snow -8 1014 72 10000 6.2 80 23:38 04.03.2020
1544 Clouds -8 1014 72 10000 6.2 80 23:20 04.03.2020
1545 Clouds -8 1015 72 10000 6.2 80 22:55 04.03.2020
1546 Clouds -8 1015 72 10000 6.2 80 22:36 04.03.2020
1547 Clouds -8 1015 72 10000 6.2 80 22:18 04.03.2020
1548 Clouds -8 1016 72 10000 6.2 80 21:41 04.03.2020
1549 Clouds -9 1017 78 10000 5.7 80 21:21 04.03.2020
1550 Clouds -9 1017 78 10000 5.7 70 20:57 04.03.2020
1551 Clouds -9 1017 78 10000 5.7 70 20:39 04.03.2020
1552 Clouds -9 1018 72 10000 5.7 70 20:21 04.03.2020
1553 Clouds -10 1018 78 10000 5.1 70 19:42 04.03.2020
1554 Clouds -9 1019 72 10000 5.7 70 19:24 04.03.2020
1555 Clouds -9 1019 78 10000 5.1 80 18:58 04.03.2020
1556 Clouds -9 1019 78 10000 5.1 80 18:40 04.03.2020
1557 Clouds -9 1020 72 10000 4.1 80 18:22 04.03.2020
1558 Clouds -8 1020 72 10000 4.6 90 17:56 04.03.2020
1559 Clouds -8 1020 72 10000 4.6 90 17:38 04.03.2020
1560 Clouds -8 1020 72 10000 4.6 80 17:19 04.03.2020
1561 Clouds -7 1020 67 10000 4.6 80 16:44 04.03.2020
1562 Clouds -7 1021 73 10000 5.1 90 16:25 04.03.2020
1563 Clouds -6 1021 67 10000 4.6 100 15:59 04.03.2020
1564 Clouds -6 1021 67 10000 4.6 100 15:41 04.03.2020
1565 Clouds -6 1021 67 10000 6.2 100 15:21 04.03.2020
1566 Clouds -5 1022 57 10000 6.2 100 14:55 04.03.2020
1567 Clouds -5 1022 57 10000 5.7 90 14:37 04.03.2020
1568 Clouds -5 1022 57 10000 5.7 90 14:18 04.03.2020
1569 Clouds -6 1023 57 10000 6.2 110 13:55 04.03.2020
1570 Clouds -6 1023 57 10000 5.7 100 13:36 04.03.2020
1571 Clouds -6 1023 57 10000 5.7 100 13:18 04.03.2020
1572 Clouds -7 1023 67 10000 4.1 90 12:43 04.03.2020
1573 Clouds -7 1023 67 10000 4.1 90 12:43 04.03.2020
1574 Clouds -8 1024 72 10000 4.1 90 12:24 04.03.2020
1575 Clouds -9 1024 78 10000 3.6 80 11:56 04.03.2020
1576 Clouds -9 1024 78 10000 3.6 80 11:37 04.03.2020
1577 Clouds -9 1024 72 10000 4.1 80 11:19 04.03.2020
1578 Clouds -11 1024 85 10000 4.1 80 10:45 04.03.2020
1579 Clouds -12 1025 85 10000 3.6 60 10:25 04.03.2020
1580 Clouds -13 1025 84 10000 3.6 60 09:58 04.03.2020
1581 Clouds -14 1025 84 10000 3.1 70 09:39 04.03.2020
1582 Clouds -14 1025 84 10000 3.1 70 09:19 04.03.2020
1583 Fog -14 1025 84 10000 4.6 70 08:42 04.03.2020
1584 Clouds -14 1025 77 10000 4.6 70 08:24 04.03.2020
1585 Clouds -15 1025 84 10000 4.6 70 07:48 04.03.2020
1586 Clouds -15 1025 84 10000 4.6 70 07:29 04.03.2020
1587 Clouds -14 1025 84 10000 4.6 70 06:54 04.03.2020
1588 Clouds -14 1025 84 10000 4.6 80 06:26 04.03.2020
1589 Snow -14 1025 92 10000 4.6 70 05:59 04.03.2020
1590 Clouds -13 1025 84 10000 4.6 80 05:28 04.03.2020
1591 Clear -13 1025 92 10000 4.1 70 03:54 04.03.2020
1592 Clear -12 1025 85 10000 4.1 70 03:35 04.03.2020
1593 Clear -12 1025 85 10000 4.1 80 02:58 04.03.2020
1594 Clear -12 1025 92 10000 4.1 70 02:27 04.03.2020
1595 Clear -11 1025 85 10000 4.1 80 01:56 04.03.2020
1596 Clear -11 1024 85 10000 4.1 80 01:33 04.03.2020
1597 Clear -11 1024 85 10000 3.6 70 00:41 04.03.2020
1598 Clear -11 1024 92 10000 3.6 70 00:22 04.03.2020
1599 Clear -11 1024 85 10000 4.1 60 23:43 03.03.2020
1600 Clear -10 1024 85 10000 3.1 70 23:23 03.03.2020
1601 Clear -10 1024 85 10000 3.1 80 22:56 03.03.2020
1602 Clear -10 1023 85 10000 4.1 70 22:37 03.03.2020
1603 Clear -10 1023 85 10000 4.1 70 22:18 03.03.2020
1604 Clear -9 1023 78 10000 3.6 70 21:43 03.03.2020
1605 Clear -9 1023 78 10000 4.6 60 21:22 03.03.2020
1606 Clear -9 1022 78 10000 3.6 70 20:58 03.03.2020
1607 Clear -9 1022 78 10000 3.6 70 20:39 03.03.2020
1608 Clear -8 1022 78 10000 3.6 70 20:18 03.03.2020
1609 Clear -8 1022 78 10000 3.6 70 19:56 03.03.2020
1610 Clear -8 1022 78 10000 3.6 80 19:37 03.03.2020
1611 Clear -8 1022 78 10000 3.6 80 19:37 03.03.2020
1612 Clear -8 1022 78 10000 3.6 80 19:18 03.03.2020
1613 Clear -8 1021 78 10000 4.1 70 18:56 03.03.2020
1614 Clear -8 1021 78 10000 4.1 70 18:38 03.03.2020
1615 Clear -9 1021 78 10000 4.6 60 18:18 03.03.2020
1616 Clear -8 1021 78 10000 4.6 50 17:41 03.03.2020
1617 Clear -8 1021 78 10000 4.6 50 17:41 03.03.2020
1618 Clear -10 1020 78 10000 4.1 30 17:22 03.03.2020
1619 Clear -10 1020 78 10000 3.6 30 16:59 03.03.2020
1620 Clear -10 1020 78 10000 3.6 30 16:38 03.03.2020
1621 Clear -9 1020 72 10000 2.6 30 16:20 03.03.2020
1622 Clear -9 1020 72 10000 2.6 30 16:20 03.03.2020
1623 Clear -9 1020 72 10000 2.6 30 16:20 03.03.2020
1624 Clear -10 1020 72 10000 3.1 30 15:58 03.03.2020
1625 Clear -10 1020 72 10000 3.1 30 15:58 03.03.2020
1626 Clear -10 1020 72 10000 3.1 30 15:40 03.03.2020
1627 Clear -8 1020 72 10000 2.6 20 15:20 03.03.2020
1628 Snow -8 1019 67 10000 2.1 40 14:43 03.03.2020
1629 Clear -9 1019 72 10000 2.1 50 14:20 03.03.2020
1630 Clear -5 1019 62 10000 2.1 70 13:58 03.03.2020
1631 Clear -7 1018 67 10000 1.5 40 13:40 03.03.2020
1632 Clear -7 1018 67 10000 1.5 40 13:21 03.03.2020
1633 Clear -7 1018 67 10000 1.5 40 13:21 03.03.2020
1634 Clear -7 1018 62 10000 0.5 0 12:47 03.03.2020
1635 Clear -9 1017 66 10000 1 210 12:27 03.03.2020
1636 Clear -9 1017 78 10000 1 40 11:58 03.03.2020
1637 Clear -10 1016 72 10000 1 40 11:37 03.03.2020
1638 Clear -10 1016 72 10000 1 40 11:19 03.03.2020
1639 Clear -11 1016 78 10000 1.5 50 10:56 03.03.2020
1640 Clear -11 1016 78 10000 1.5 50 10:56 03.03.2020
1641 Clear -12 1015 85 10000 1 0 10:37 03.03.2020
1642 Clear -12 1015 85 10000 1 0 10:19 03.03.2020
1643 Clear -10 1015 72 10000 1 0 09:44 03.03.2020
1644 Clear -11 1014 78 10000 1.5 320 09:22 03.03.2020
1645 Fog -13 1014 84 10000 0.5 0 08:57 03.03.2020
1646 Fog -11 1013 78 10000 0.5 30 08:39 03.03.2020
1647 Fog -11 1013 78 10000 0.5 30 08:20 03.03.2020
1648 Clear -12 1012 85 10000 1 0 07:43 03.03.2020
1649 Clear -14 1012 84 10000 1.5 0 07:20 03.03.2020
1650 Clear -12 1012 85 10000 0.5 0 06:43 03.03.2020
1651 Clear -12 1011 78 10000 3.6 350 06:23 03.03.2020
1652 Clear -13 1011 84 10000 3.1 340 05:47 03.03.2020
1653 Clear -12 1010 85 10000 1 350 05:18 03.03.2020
1654 Clear -11 1009 85 10000 5.7 340 04:24 03.03.2020
1655 Clouds -13 1007 92 10000 4.1 320 01:40 03.03.2020
1656 Clouds -12 1006 85 10000 3.1 310 00:48 03.03.2020
1657 Clouds -11 1006 85 10000 3.1 320 00:26 03.03.2020
1658 Clouds -11 1005 85 10000 2.6 320 23:52 02.03.2020
1659 Clouds -12 1004 85 10000 2.1 270 23:24 02.03.2020
1660 Clouds -12 1004 85 10000 2.6 300 22:58 02.03.2020
1661 Clouds -12 1003 85 10000 2.6 280 22:39 02.03.2020
1662 Clouds -12 1003 85 10000 2.6 280 22:20 02.03.2020
1663 Clouds -12 1003 78 10000 2.6 250 21:59 02.03.2020
1664 Clouds -12 1003 78 10000 2.6 250 21:39 02.03.2020
1665 Clouds -14 1003 92 10000 2.6 230 21:21 02.03.2020
1666 Clouds -12 1002 78 10000 1.5 260 20:58 02.03.2020
1667 Clouds -12 1002 78 10000 1.5 260 20:38 02.03.2020
1668 Clouds -11 1002 78 10000 2.1 270 20:20 02.03.2020
1669 Clouds -11 1001 78 10000 1.5 290 19:55 02.03.2020
1670 Clouds -11 1001 78 10000 2.6 310 19:37 02.03.2020
1671 Clouds -11 1001 78 10000 2.6 310 19:18 02.03.2020
1672 Clouds -11 1001 78 10000 2.6 310 19:18 02.03.2020
1673 Clouds -11 1001 78 10000 2.6 260 18:44 02.03.2020
1674 Clouds -11 1000 78 10000 2.6 270 18:19 02.03.2020
1675 Clouds -11 1000 85 10000 2.6 260 17:58 02.03.2020
1676 Clouds -11 1000 85 10000 2.6 260 17:40 02.03.2020
1677 Clouds -10 1000 78 10000 3.1 280 17:21 02.03.2020
1678 Clouds -10 999 85 10000 3.1 270 16:55 02.03.2020
1679 Clouds -9 999 78 10000 2.6 270 16:36 02.03.2020
1680 Clouds -9 999 78 10000 2.6 270 16:18 02.03.2020
1681 Clouds -8 998 78 10000 3.1 280 15:42 02.03.2020
1682 Clouds -8 998 78 10000 2.6 270 15:20 02.03.2020
1683 Clouds -9 997 78 10000 2.1 260 14:41 02.03.2020
1684 Clouds -9 997 78 10000 2.1 260 14:20 02.03.2020
1685 Clouds -9 997 78 10000 2.6 270 13:59 02.03.2020
1686 Clouds -9 997 78 10000 2.6 270 13:38 02.03.2020
1687 Clouds -10 997 85 10000 1.5 290 13:18 02.03.2020
1688 Fog -11 997 85 10000 1.5 320 12:43 02.03.2020
1689 Snow -11 996 85 10000 2.6 290 12:19 02.03.2020
1690 Snow -12 996 92 10000 2.6 310 11:55 02.03.2020
1691 Snow -12 996 85 10000 4.1 320 11:36 02.03.2020
1692 Snow -12 996 85 10000 4.1 320 11:18 02.03.2020
1693 Snow -13 995 84 10000 2.6 300 10:42 02.03.2020
1694 Snow -13 995 84 10000 2.6 300 10:42 02.03.2020
1695 Clouds -12 995 85 10000 3.1 320 10:20 02.03.2020
1696 Snow -13 994 92 10000 2.6 320 09:56 02.03.2020
1697 Snow -14 994 92 10000 2.6 330 09:37 02.03.2020
1698 Snow -14 994 92 10000 2.6 330 09:18 02.03.2020
1699 Snow -14 993 84 10000 3.1 330 08:41 02.03.2020
1700 Snow -15 993 84 10000 4.1 340 08:19 02.03.2020
1701 Snow -15 992 84 10000 4.6 330 07:41 02.03.2020
1702 Snow -16 992 84 10000 4.1 330 06:57 02.03.2020
1703 Snow -16 992 84 10000 4.6 330 06:37 02.03.2020
1704 Snow -16 991 84 10000 5.1 330 05:52 02.03.2020
1705 Snow -15 990 84 10000 5.1 340 04:21 02.03.2020
1706 Snow -15 990 92 10000 3.6 350 03:20 02.03.2020
1707 Snow -15 990 84 10000 4.6 10 02:37 02.03.2020
1708 Clouds -15 990 92 10000 3.1 340 01:45 02.03.2020
1709 Clouds -14 990 84 10000 1.5 330 01:26 02.03.2020
1710 Snow -13 989 84 10000 3.6 350 00:23 02.03.2020
1711 Snow -13 989 84 10000 3.1 340 23:56 01.03.2020
1712 Snow -13 989 84 10000 3.1 340 23:38 01.03.2020
1713 Snow -14 989 92 10000 2.6 350 23:19 01.03.2020
1714 Snow -13 990 84 10000 3.1 20 22:42 01.03.2020
1715 Snow -12 990 85 10000 3.6 20 22:19 01.03.2020
1716 Snow -12 990 85 10000 3.1 30 21:55 01.03.2020
1717 Snow -12 990 85 10000 2.6 20 21:37 01.03.2020
1718 Snow -12 990 85 10000 2.6 20 21:18 01.03.2020
1719 Snow -12 990 85 10000 3.1 20 20:43 01.03.2020
1720 Snow -12 990 92 10000 3.6 20 20:24 01.03.2020
1721 Snow -11 989 85 10000 3.1 20 19:43 01.03.2020
1722 Snow -12 989 92 10000 3.1 20 19:24 01.03.2020
1723 Snow -11 989 85 10000 3.1 40 18:59 01.03.2020
1724 Snow -11 989 85 10000 3.1 40 18:40 01.03.2020
1725 Snow -11 989 92 10000 3.6 60 18:20 01.03.2020
1726 Snow -10 990 85 10000 3.1 70 17:57 01.03.2020
1727 Snow -10 990 85 10000 3.1 70 17:39 01.03.2020
1728 Snow -10 989 85 10000 3.6 70 17:20 01.03.2020
1729 Snow -9 989 85 10000 4.1 70 16:57 01.03.2020
1730 Snow -9 989 85 10000 4.1 70 16:38 01.03.2020
1731 Snow -10 989 92 10000 4.1 60 16:18 01.03.2020
1732 Snow -9 989 78 10000 4.1 70 15:56 01.03.2020
1733 Snow -10 990 85 2500 4.1 70 15:37 01.03.2020
1734 Snow -10 990 85 2500 4.1 70 15:19 01.03.2020
1735 Snow -10 990 85 9000 4.1 70 14:56 01.03.2020
1736 Snow -10 990 85 9000 4.1 70 14:38 01.03.2020
1737 Snow -10 990 85 10000 3.1 60 14:19 01.03.2020
1738 Snow -10 990 85 10000 4.6 70 13:44 01.03.2020
1739 Snow -11 990 85 5000 4.1 70 13:22 01.03.2020
1740 Clouds -11 990 85 10000 3.6 70 12:59 01.03.2020
1741 Clouds -11 990 85 10000 3.6 70 12:59 01.03.2020
1742 Clouds -11 990 85 10000 3.6 70 12:41 01.03.2020
1743 Clouds -12 990 85 10000 4.1 60 12:21 01.03.2020
1744 Clouds -12 990 85 10000 4.1 60 12:21 01.03.2020
1745 Clouds -13 990 84 10000 4.1 70 11:42 01.03.2020
1746 Clouds -13 990 84 10000 4.1 70 11:24 01.03.2020
1747 Snow -14 990 84 10000 5.1 70 10:57 01.03.2020
1748 Snow -14 990 84 10000 5.1 0 10:38 01.03.2020
1749 Snow -14 990 84 10000 5.1 0 10:20 01.03.2020
1750 Snow -15 990 84 10000 5.1 60 09:55 01.03.2020
1751 Snow -16 990 84 10000 5.1 60 09:37 01.03.2020
1752 Snow -16 990 84 10000 5.1 60 09:18 01.03.2020
1753 Snow -17 990 84 10000 5.1 70 08:41 01.03.2020
1754 Clouds -17 990 84 10000 5.1 60 08:20 01.03.2020
1755 Snow -17 990 84 10000 5.1 60 07:42 01.03.2020
1756 Clouds -17 990 84 10000 4.6 60 07:24 01.03.2020
1757 Clouds -17 990 84 10000 4.6 60 07:24 01.03.2020
1758 Clouds -17 990 84 10000 4.6 70 06:54 01.03.2020
1759 Clouds -17 990 84 10000 4.6 60 06:36 01.03.2020
1760 Clouds -18 991 84 10000 4.1 60 04:26 01.03.2020
1761 Clouds -17 991 84 10000 2.6 80 02:55 01.03.2020
1762 Clouds -17 992 91 10000 2.6 70 01:53 01.03.2020
1763 Clouds -18 992 91 10000 3.6 60 01:28 01.03.2020
1764 Clouds -18 992 91 10000 3.1 70 00:44 01.03.2020
1765 Clouds -16 992 91 10000 4.1 60 00:22 01.03.2020
1766 Clouds -17 992 91 10000 3.6 60 23:51 29.02.2020
1767 Clouds -17 992 91 10000 3.6 70 23:33 29.02.2020
1768 Clouds -15 992 84 10000 3.6 70 22:44 29.02.2020
1769 Clouds -17 992 91 10000 3.6 70 22:25 29.02.2020
1770 Clouds -17 992 91 10000 3.1 60 21:44 29.02.2020
1771 Clouds -17 993 84 10000 2.1 90 21:26 29.02.2020
1772 Clouds -16 993 91 10000 1.5 100 20:45 29.02.2020
1773 Clear -12 993 78 10000 1.5 90 20:22 29.02.2020
1774 Clear -15 993 77 10000 2.1 160 19:58 29.02.2020
1775 Clear -15 993 77 10000 2.1 160 19:39 29.02.2020
1776 Clear -15 993 77 10000 2.1 160 19:39 29.02.2020
1777 Clear -15 993 77 10000 1.5 140 19:21 29.02.2020
1778 Clear -15 993 84 10000 1.5 210 18:44 29.02.2020
1779 Clear -10 993 72 10000 1.5 110 18:25 29.02.2020
1780 Clear -10 993 72 10000 1.5 110 17:58 29.02.2020
1781 Clear -10 993 72 10000 1.5 110 17:40 29.02.2020
1782 Clear -12 993 78 10000 1.5 110 17:21 29.02.2020
1783 Clear -15 993 84 10000 1 80 16:57 29.02.2020
1784 Clear -15 993 84 10000 1 80 16:39 29.02.2020
1785 Clear -11 994 72 10000 1.5 80 16:18 29.02.2020
1786 Clear -12 994 78 10000 1 80 15:42 29.02.2020
1787 Clear -10 994 66 10000 1.4 135 15:23 29.02.2020
1788 Clear -10 994 72 10000 2.1 80 14:55 29.02.2020
1789 Clear -11 994 78 10000 1.5 100 14:37 29.02.2020
1790 Clear -11 994 78 10000 1.5 100 14:19 29.02.2020
1791 Clear -10 994 78 10000 2.1 100 13:42 29.02.2020
1792 Clear -12 995 85 10000 1.5 90 13:23 29.02.2020
1793 Clear -12 995 85 10000 1.5 80 12:43 29.02.2020
1794 Clear -12 995 85 10000 1.5 80 12:43 29.02.2020
1795 Clear -14 995 84 10000 1.5 90 12:23 29.02.2020
1796 Clear -14 995 84 10000 1 70 11:58 29.02.2020
1797 Clear -14 995 84 10000 1 70 11:39 29.02.2020
1798 Clear -15 995 84 10000 1.5 70 11:21 29.02.2020
1799 Clear -15 995 84 10000 2.1 70 10:47 29.02.2020
1800 Clear -15 995 77 10000 2.1 80 10:28 29.02.2020
1801 Clear -15 996 84 10000 1.5 90 09:50 29.02.2020
1802 Clear -17 996 84 10000 2.1 70 09:27 29.02.2020
1803 Clear -17 996 84 10000 2.1 70 09:27 29.02.2020
1804 Clear -18 996 84 10000 2.1 60 08:55 29.02.2020
1805 Clear -19 996 84 10000 2.6 60 08:37 29.02.2020
1806 Clear -19 996 84 10000 2.6 60 08:19 29.02.2020
1807 Clear -18 996 84 10000 3.1 70 07:41 29.02.2020
1808 Clear -18 996 84 10000 3.1 70 07:19 29.02.2020
1809 Clear -18 996 84 10000 2.6 70 06:50 29.02.2020
1810 Clear -19 996 84 10000 2.1 90 06:25 29.02.2020
1811 Snow -18 997 84 4600 2.1 80 05:48 29.02.2020
1812 Clear -19 997 91 10000 2.6 70 04:50 29.02.2020
1813 Clear -17 997 84 10000 2.6 60 03:43 29.02.2020
1814 Clear -17 998 84 10000 2.6 70 03:22 29.02.2020
1815 Clear -16 998 91 10000 2.6 100 02:38 29.02.2020
1816 Clear -16 999 91 10000 2.6 80 01:23 29.02.2020
1817 Clear -15 999 92 10000 2.6 80 00:37 29.02.2020
1818 Clear -14 999 84 10000 2.1 110 23:56 28.02.2020
1819 Clear -15 999 84 10000 2.6 100 23:36 28.02.2020
1820 Clear -15 999 84 10000 2.6 100 23:18 28.02.2020
1821 Clear -15 999 84 10000 2.6 100 23:18 28.02.2020
1822 Clear -12 1000 92 10000 2.1 110 22:41 28.02.2020
1823 Clear -12 1000 92 10000 2.1 110 22:19 28.02.2020
1824 Clear -11 1000 85 10000 2.1 120 21:41 28.02.2020
1825 Clear -12 1000 85 10000 1.5 90 21:21 28.02.2020
1826 Clear -10 1000 85 10000 1 0 20:41 28.02.2020
1827 Clear -10 1000 85 10000 1 0 20:23 28.02.2020
1828 Clear -10 1000 85 10000 3.1 140 19:59 28.02.2020
1829 Clear -10 1000 85 10000 3.1 140 19:40 28.02.2020
1830 Clear -10 1000 85 10000 3.6 140 19:21 28.02.2020
1831 Clear -9 1001 85 10000 4.1 160 18:58 28.02.2020
1832 Clear -9 1001 85 10000 4.1 160 18:39 28.02.2020
1833 Clear -8 1001 72 10000 3.6 150 18:21 28.02.2020
1834 Clear -8 1001 72 10000 2.6 160 17:41 28.02.2020
1835 Clear -8 1001 72 10000 2.6 160 17:22 28.02.2020
1836 Clear -7 1001 67 10000 3.1 150 16:47 28.02.2020
1837 Clear -6 1001 62 10000 3.6 160 16:21 28.02.2020
1838 Clear -5 1001 57 10000 2.6 170 15:59 28.02.2020
1839 Snow -5 1001 62 6000 2.1 170 15:41 28.02.2020
1840 Snow -5 1001 62 6000 2.1 170 15:20 28.02.2020
1841 Clear -5 1001 67 10000 2.6 190 14:58 28.02.2020
1842 Clear -5 1001 67 10000 2.6 190 14:39 28.02.2020
1843 Clear -5 1001 67 10000 2.6 190 14:19 28.02.2020
1844 Clear -5 1001 67 10000 3.1 190 13:54 28.02.2020
1845 Clear -5 1001 67 10000 3.6 190 13:36 28.02.2020
1846 Clear -5 1001 67 10000 3.6 190 13:18 28.02.2020
1847 Clear -6 1001 67 10000 3.6 180 12:41 28.02.2020
1848 Clear -7 1001 79 10000 3.6 180 12:22 28.02.2020
1849 Clear -7 1001 73 10000 2.6 170 11:42 28.02.2020
1850 Clear -8 1002 78 10000 2.1 110 11:24 28.02.2020
1851 Clear -10 1002 85 10000 2.1 100 10:58 28.02.2020
1852 Clear -10 1002 85 10000 2.1 100 10:39 28.02.2020
1853 Clear -10 1001 85 10000 2.1 160 10:19 28.02.2020
1854 Clear -11 1001 85 10000 1.5 90 09:44 28.02.2020
1855 Clear -12 1001 92 10000 1.5 120 09:21 28.02.2020
1856 Fog -12 1001 85 10000 2.1 110 08:56 28.02.2020
1857 Fog -12 1001 85 10000 2.1 90 08:36 28.02.2020
1858 Fog -12 1001 85 10000 2.1 90 08:18 28.02.2020
1859 Fog -13 1001 92 10000 2.6 160 07:39 28.02.2020
1860 Fog -13 1001 92 10000 2.6 160 07:19 28.02.2020
1861 Clouds -12 1001 85 10000 3.1 160 06:41 28.02.2020
1862 Clouds -10 1001 85 10000 4.1 180 05:50 28.02.2020
1863 Clouds -10 1000 85 10000 4.1 170 04:34 28.02.2020
1864 Clouds -9 1000 85 10000 3.6 170 03:43 28.02.2020
1865 Clouds -8 1001 92 10000 2.6 150 02:45 28.02.2020
1866 Clouds -6 1000 85 10000 4.1 170 02:20 28.02.2020
1867 Clouds -5 1000 92 10000 5.1 210 00:36 28.02.2020
1868 Clouds -5 1000 92 10000 5.1 200 23:58 27.02.2020
1869 Clouds -5 1000 92 10000 4.1 200 23:38 27.02.2020
1870 Clouds -5 1000 92 10000 4.1 200 23:18 27.02.2020
1871 Clouds -6 1000 92 10000 4.6 200 22:40 27.02.2020
1872 Clouds -6 1000 92 10000 6.2 210 22:22 27.02.2020
1873 Clouds -6 1000 92 10000 5.7 210 21:55 27.02.2020
1874 Clouds -6 1000 92 10000 5.1 190 21:37 27.02.2020
1875 Clouds -6 1000 92 10000 5.1 190 21:18 27.02.2020
1876 Clouds -7 1000 92 10000 6.2 190 20:43 27.02.2020
1877 Clouds -7 1000 92 10000 5.1 180 20:23 27.02.2020
1878 Clouds -7 1000 92 10000 4.1 190 19:59 27.02.2020
1879 Clouds -7 1000 92 10000 4.1 190 19:41 27.02.2020
1880 Clouds -8 999 100 10000 4.6 190 19:23 27.02.2020
1881 Clouds -8 999 92 10000 4.1 190 18:58 27.02.2020
1882 Clouds -8 999 92 10000 4.6 190 18:39 27.02.2020
1883 Clouds -8 999 92 10000 4.6 190 18:20 27.02.2020
1884 Snow -9 999 92 10000 3.1 190 17:56 27.02.2020
1885 Clouds -9 999 92 10000 4.1 190 17:37 27.02.2020
1886 Clouds -9 999 92 10000 4.1 190 17:18 27.02.2020
1887 Clouds -9 999 85 10000 4.1 200 16:41 27.02.2020
1888 Clouds -8 999 85 10000 3.6 190 16:20 27.02.2020
1889 Snow -8 999 85 10000 3.1 210 15:59 27.02.2020
1890 Clouds -8 998 85 10000 5.1 210 15:38 27.02.2020
1891 Clouds -8 998 85 10000 5.1 210 15:20 27.02.2020
1892 Clouds -8 998 92 10000 4.6 210 14:59 27.02.2020
1893 Clouds -9 998 92 10000 4.1 220 14:39 27.02.2020
1894 Clouds -9 998 92 10000 4.1 220 14:20 27.02.2020
1895 Clouds -9 998 92 10000 4.6 220 13:43 27.02.2020
1896 Clouds -9 998 92 10000 4.1 210 13:22 27.02.2020
1897 Clouds -9 998 92 10000 3.1 190 12:56 27.02.2020
1898 Clouds -9 998 92 10000 3.1 190 12:38 27.02.2020
1899 Clouds -10 998 92 10000 2.6 180 12:18 27.02.2020
1900 Fog -10 998 92 10000 2.1 200 11:42 27.02.2020
1901 Fog -11 998 92 10000 3.1 210 11:22 27.02.2020
1902 Fog -11 998 92 10000 3.1 210 11:22 27.02.2020
1903 Clouds -12 998 92 10000 3.1 210 10:44 27.02.2020
1904 Clouds -12 998 85 10000 2.6 210 10:24 27.02.2020
1905 Fog -13 997 84 10000 3.6 220 09:50 27.02.2020
1906 Clouds -13 997 92 10000 3.1 200 09:30 27.02.2020
1907 Clouds -14 997 92 10000 2.1 180 08:58 27.02.2020
1908 Clouds -14 997 92 10000 2.1 180 08:40 27.02.2020
1909 Clouds -15 997 92 10000 2.6 210 08:22 27.02.2020
1910 Fog -14 997 92 10000 2.1 210 07:44 27.02.2020
1911 Fog -14 997 84 10000 2.1 230 07:25 27.02.2020
1912 Fog -15 996 92 10000 2.6 230 06:46 27.02.2020
1913 Clear -14 996 84 10000 2.6 220 05:43 27.02.2020
1914 Clouds -13 996 92 10000 3.1 250 03:40 27.02.2020
1915 Clouds -13 996 92 10000 2.6 230 02:21 27.02.2020
1916 Clouds -11 995 85 9000 2.6 230 00:45 27.02.2020
1917 Fog -11 995 92 1800 3.6 220 00:26 27.02.2020
1918 Fog -11 995 92 800 4.1 230 23:40 26.02.2020
1919 Fog -11 995 92 800 4.1 230 23:40 26.02.2020
1920 Clouds -11 995 92 1000 4.1 230 23:19 26.02.2020
1921 Clouds -11 995 92 2700 5.1 220 22:57 26.02.2020
1922 Clouds -11 995 92 2700 5.1 220 22:39 26.02.2020
1923 Clouds -11 995 85 10000 4.6 220 22:19 26.02.2020
1924 Snow -12 995 92 10000 4.6 230 21:55 26.02.2020
1925 Clouds -13 995 92 10000 2.6 230 21:36 26.02.2020
1926 Clouds -13 995 92 10000 2.6 230 21:18 26.02.2020
1927 Clouds -12 996 92 10000 4.1 210 20:54 26.02.2020
1928 Clouds -12 996 92 10000 4.1 210 20:54 26.02.2020
1929 Clouds -11 995 85 10000 5.1 210 20:36 26.02.2020
1930 Clouds -11 995 85 10000 5.1 210 20:18 26.02.2020
1931 Clouds -12 996 85 10000 5.1 220 19:44 26.02.2020
1932 Clouds -13 996 92 10000 2.6 220 19:20 26.02.2020
1933 Clouds -11 996 85 10000 3.1 170 18:58 26.02.2020
1934 Clouds -11 995 85 10000 3.1 180 18:39 26.02.2020
1935 Clouds -11 995 85 10000 3.1 180 18:21 26.02.2020
1936 Clouds -11 995 78 10000 2.6 170 17:42 26.02.2020
1937 Clouds -11 995 78 10000 2.6 170 17:23 26.02.2020
1938 Snow -11 996 78 10000 2.1 160 16:57 26.02.2020
1939 Snow -11 996 78 10000 2.1 160 16:39 26.02.2020
1940 Snow -11 996 78 10000 2.1 160 16:39 26.02.2020
1941 Clouds -11 996 78 10000 1.5 130 16:21 26.02.2020
1942 Clouds -12 996 72 10000 1 170 15:46 26.02.2020
1943 Clouds -11 996 72 10000 2.1 120 15:28 26.02.2020
1944 Clouds -10 996 72 10000 1 0 14:56 26.02.2020
1945 Clouds -11 996 78 10000 1.5 210 14:37 26.02.2020
1946 Clouds -11 996 78 10000 1.5 210 14:18 26.02.2020
1947 Clouds -11 996 72 10000 2.1 230 13:42 26.02.2020
1948 Clouds -12 996 78 10000 1 0 13:20 26.02.2020
1949 Clouds -13 996 78 10000 1.5 250 12:39 26.02.2020
1950 Clouds -14 996 77 10000 1.5 250 12:20 26.02.2020
1951 Clouds -15 996 84 10000 1 240 11:56 26.02.2020
1952 Clouds -15 996 84 10000 1 240 11:56 26.02.2020
1953 Clouds -13 996 84 10000 0.5 100 11:38 26.02.2020
1954 Clouds -13 996 84 10000 0.5 100 11:20 26.02.2020
1955 Clouds -16 996 84 10000 1.5 50 10:41 26.02.2020
1956 Clouds -15 996 84 10000 1 0 10:41 26.02.2020
1957 Clouds -16 996 84 10000 1.5 50 10:22 26.02.2020
1958 Fog -12 996 85 10000 1 0 09:56 26.02.2020
1959 Fog -12 996 85 10000 1 0 09:38 26.02.2020
1960 Fog -14 996 84 10000 1 0 09:18 26.02.2020
1961 Clouds -16 995 84 10000 1.5 310 08:38 26.02.2020
1962 Clouds -16 995 84 10000 1.5 310 08:19 26.02.2020
1963 Clouds -16 995 84 10000 1 310 07:50 26.02.2020
1964 Clouds -19 995 91 10000 1.5 310 07:29 26.02.2020
1965 Clouds -17 995 91 10000 1 0 06:54 26.02.2020
1966 Clouds -15 995 84 10000 1.5 310 06:36 26.02.2020
1967 Clouds -15 995 84 10000 1.5 310 06:18 26.02.2020
1968 Clouds -14 995 92 10000 2.1 0 05:43 26.02.2020
1969 Clear -14 995 92 10000 1.5 330 04:49 26.02.2020
1970 Clear -16 995 100 10000 1.5 290 02:51 26.02.2020
1971 Clear -14 995 92 10000 1 260 01:49 26.02.2020
1972 Clear -16 995 91 10000 2.1 310 00:51 26.02.2020
1973 Snow -13 995 92 10000 0.5 0 00:27 26.02.2020
1974 Snow -13 995 92 10000 0.5 0 00:27 26.02.2020
1975 Clear -15 995 92 10000 2.1 320 23:57 25.02.2020
1976 Clear -15 995 92 10000 2.1 320 23:38 25.02.2020
1977 Clear -13 995 84 10000 1 0 23:20 25.02.2020
1978 Clear -12 995 85 6000 3.1 330 22:42 25.02.2020
1979 Clear -12 995 85 10000 3.1 310 22:20 25.02.2020
1980 Clear -11 995 78 10000 4.6 330 21:58 25.02.2020
1981 Clear -10 995 78 10000 4.6 340 21:37 25.02.2020
1982 Clear -10 995 78 10000 4.6 340 21:18 25.02.2020
1983 Clear -10 995 78 10000 4.1 330 20:55 25.02.2020
1984 Clear -10 995 78 10000 4.6 330 20:36 25.02.2020
1985 Clouds -10 995 78 10000 4.6 330 20:18 25.02.2020
1986 Clouds -9 994 72 10000 3.6 320 19:42 25.02.2020
1987 Clouds -9 994 72 10000 3.6 320 19:20 25.02.2020
1988 Clouds -9 994 72 10000 4.1 330 18:58 25.02.2020
1989 Clouds -9 994 72 10000 4.1 330 18:38 25.02.2020
1990 Clouds -9 994 72 10000 4.1 330 18:19 25.02.2020
1991 Clouds -9 994 72 10000 4.1 330 17:39 25.02.2020
1992 Clouds -9 994 72 10000 3.6 330 17:20 25.02.2020
1993 Clouds -9 994 72 10000 3.6 330 16:59 25.02.2020
1994 Clouds -9 994 72 10000 3.6 330 16:40 25.02.2020
1995 Clouds -8 994 67 10000 3.6 330 16:22 25.02.2020
1996 Clouds -8 994 67 10000 2.6 310 15:59 25.02.2020
1997 Clouds -8 994 67 10000 2.6 310 15:41 25.02.2020
1998 Clouds -8 994 67 10000 2.6 300 15:18 25.02.2020
1999 Clouds -7 994 67 10000 2.6 320 14:57 25.02.2020
2000 Clouds -7 994 67 10000 3.1 320 14:37 25.02.2020
2001 Clouds -7 994 67 10000 3.1 320 14:18 25.02.2020
2002 Clouds -7 994 67 10000 3.1 320 14:18 25.02.2020
2003 Clouds -7 994 67 10000 3.6 330 13:55 25.02.2020
2004 Clouds -8 993 72 10000 3.6 340 13:37 25.02.2020
2005 Clouds -8 993 72 10000 3.6 340 13:18 25.02.2020
2006 Clouds -8 993 72 10000 3.6 340 12:41 25.02.2020
2007 Clouds -7 993 73 10000 3.6 330 12:21 25.02.2020
2008 Clouds -7 993 73 10000 4.6 330 11:57 25.02.2020
2009 Clouds -7 993 73 10000 4.6 330 11:38 25.02.2020
2010 Clouds -8 993 72 10000 5.7 330 11:19 25.02.2020
2011 Clouds -9 992 78 10000 3.1 300 10:59 25.02.2020
2012 Clouds -9 992 78 10000 3.1 300 10:59 25.02.2020
2013 Clouds -9 992 78 10000 3.1 300 10:40 25.02.2020
2014 Clouds -9 992 78 10000 2.1 320 10:21 25.02.2020
2015 Clouds -10 992 85 10000 4.6 320 09:41 25.02.2020
2016 Clouds -10 992 85 10000 4.6 320 09:21 25.02.2020
2017 Clouds -10 992 85 10000 5.7 330 08:45 25.02.2020
2018 Clouds -10 992 85 10000 5.7 330 08:45 25.02.2020
2019 Clouds -10 991 85 10000 5.7 330 08:27 25.02.2020
2020 Clouds -11 992 85 10000 3.6 320 07:56 25.02.2020
2021 Clouds -11 991 85 10000 3.6 330 07:36 25.02.2020
2022 Clouds -11 991 85 10000 3.6 330 07:18 25.02.2020
2023 Clouds -10 991 85 10000 4.1 330 06:27 25.02.2020
2024 Clouds -9 991 78 10000 4.1 330 05:24 25.02.2020
2025 Clouds -9 991 85 10000 4.1 320 02:47 25.02.2020
2026 Clouds -8 990 78 10000 3.1 300 01:30 25.02.2020
2027 Clouds -6 990 73 10000 5.1 320 00:34 25.02.2020
2028 Clouds -6 989 73 10000 4.6 310 23:59 24.02.2020
2029 Clouds -6 989 73 10000 4.1 310 23:40 24.02.2020
2030 Clouds -6 989 73 10000 4.1 310 23:19 24.02.2020
2031 Clouds -6 989 73 10000 4.1 320 22:38 24.02.2020
2032 Clouds -6 989 79 10000 4.6 310 22:19 24.02.2020
2033 Clouds -6 988 79 10000 4.6 310 21:56 24.02.2020
2034 Clouds -5 988 73 10000 5.1 320 21:38 24.02.2020
2035 Clouds -5 988 73 10000 5.1 320 21:19 24.02.2020
2036 Clouds -5 988 73 10000 5.7 320 20:56 24.02.2020
2037 Clouds -4 988 68 10000 5.7 320 20:37 24.02.2020
2038 Clouds -4 988 68 10000 5.7 320 20:18 24.02.2020
2039 Clouds -4 987 68 10000 5.1 320 19:56 24.02.2020
2040 Clouds -4 987 73 10000 5.1 310 19:37 24.02.2020
2041 Clouds -4 987 73 10000 5.1 310 19:19 24.02.2020
2042 Clouds -4 986 73 10000 5.7 320 18:42 24.02.2020
2043 Clouds -4 986 73 10000 5.7 320 18:23 24.02.2020
2044 Clouds -4 986 73 10000 5.7 310 17:57 24.02.2020
2045 Clouds -4 986 73 10000 5.7 310 17:38 24.02.2020
2046 Clouds -3 985 73 10000 5.7 310 17:19 24.02.2020
2047 Clouds -3 985 73 10000 5.1 310 16:55 24.02.2020
2048 Clouds -3 984 73 10000 6.7 320 16:36 24.02.2020
2049 Clouds -3 984 73 10000 6.7 320 16:18 24.02.2020
2050 Clouds -2 984 74 10000 6.2 320 15:55 24.02.2020
2051 Clouds -2 983 74 10000 6.7 320 15:37 24.02.2020
2052 Clouds -2 983 74 10000 6.7 320 15:19 24.02.2020
2053 Clouds -2 983 79 10000 5.1 320 14:40 24.02.2020
2054 Clouds -2 982 86 10000 6.2 330 14:22 24.02.2020
2055 Snow -1 982 86 10000 7.7 330 13:58 24.02.2020
2056 Snow -1 982 86 10000 7.7 330 13:40 24.02.2020
2057 Snow -1 981 86 10000 6.2 320 13:22 24.02.2020
2058 Snow -1 981 92 3000 5.7 320 12:57 24.02.2020
2059 Snow -1 981 92 3000 5.7 320 12:39 24.02.2020
2060 Snow -2 980 92 3000 5.7 320 12:21 24.02.2020
2061 Snow -3 979 92 7000 4.6 330 11:46 24.02.2020
2062 Snow -4 979 92 10000 5.1 330 11:28 24.02.2020
2063 Snow -4 978 92 6000 5.1 320 10:48 24.02.2020
2064 Snow -5 978 92 4000 5.1 330 10:30 24.02.2020
2065 Clouds -5 977 92 10000 5.1 320 09:55 24.02.2020
2066 Clouds -6 977 92 10000 3.6 320 09:37 24.02.2020
2067 Clouds -6 977 92 10000 3.6 320 09:18 24.02.2020
2068 Clouds -6 976 92 10000 4.1 310 08:46 24.02.2020
2069 Clouds -6 976 92 10000 4.6 330 08:27 24.02.2020
2070 Clouds -6 975 85 10000 5.7 320 07:46 24.02.2020
2071 Clouds -6 974 85 10000 5.7 320 07:27 24.02.2020
2072 Clouds -6 974 92 10000 5.1 330 06:37 24.02.2020
2073 Clouds -6 973 92 10000 5.7 330 06:18 24.02.2020
2074 Clouds -6 972 92 10000 5.1 330 05:30 24.02.2020
2075 Clouds -6 971 92 10000 3.1 300 04:25 24.02.2020
2076 Clouds -6 970 92 10000 2.6 240 02:55 24.02.2020
2077 Clouds -6 970 92 10000 2.6 240 01:47 24.02.2020
2078 Clouds -6 969 92 10000 3.1 240 01:18 24.02.2020
2079 Clouds -6 969 92 10000 3.1 230 00:36 24.02.2020
2080 Clouds -6 969 92 10000 3.1 230 00:18 24.02.2020
2081 Clouds -6 968 92 10000 3.6 230 23:41 23.02.2020
2082 Clouds -6 968 92 10000 3.6 230 23:19 23.02.2020
2083 Clouds -6 968 92 10000 3.6 220 22:56 23.02.2020
2084 Clouds -7 968 100 10000 3.6 230 22:37 23.02.2020
2085 Clouds -7 968 100 10000 3.6 230 22:18 23.02.2020
2086 Clouds -6 968 92 10000 3.1 220 21:45 23.02.2020
2087 Clouds -5 967 85 10000 2.6 230 21:20 23.02.2020
2088 Clouds -6 967 92 10000 3.1 230 20:57 23.02.2020
2089 Clouds -6 967 92 10000 3.1 230 20:38 23.02.2020
2090 Clouds -5 967 92 10000 3.6 240 20:20 23.02.2020
2091 Clouds -5 967 92 10000 3.1 230 19:56 23.02.2020
2092 Clouds -5 967 92 10000 3.6 230 19:38 23.02.2020
2093 Clouds -5 967 92 10000 3.1 230 19:38 23.02.2020
2094 Clouds -5 967 92 10000 3.6 230 19:18 23.02.2020
2095 Clouds -4 967 92 10000 3.6 240 18:55 23.02.2020
2096 Clouds -4 967 92 10000 3.6 230 18:36 23.02.2020
2097 Clouds -4 967 92 10000 3.6 230 18:18 23.02.2020
2098 Clouds -4 967 92 10000 3.6 230 17:56 23.02.2020
2099 Clouds -4 966 92 10000 4.1 230 17:37 23.02.2020
2100 Clouds -4 966 92 10000 4.1 230 17:18 23.02.2020
2101 Snow -4 966 92 10000 3.6 230 16:42 23.02.2020
2102 Clouds -3 966 92 10000 2.1 230 16:24 23.02.2020
2103 Clouds -3 966 92 10000 3.1 240 15:57 23.02.2020
2104 Clouds -2 965 86 10000 2.6 250 15:38 23.02.2020
2105 Clouds -2 965 86 10000 2.6 250 15:20 23.02.2020
2106 Clouds -2 965 86 10000 3.6 250 14:56 23.02.2020
2107 Clouds -2 965 86 10000 3.6 250 14:37 23.02.2020
2108 Clouds -2 964 92 10000 3.1 260 14:19 23.02.2020
2109 Clouds -1 964 86 10000 3.1 250 13:56 23.02.2020
2110 Clouds -1 964 86 10000 3.1 270 13:38 23.02.2020
2111 Clouds -1 964 86 10000 3.1 270 13:19 23.02.2020
2112 Clouds -1 963 92 10000 3.1 270 12:41 23.02.2020
2113 Clouds -1 963 92 10000 4.1 280 12:21 23.02.2020
2114 Clouds -1 963 100 10000 3.6 290 11:39 23.02.2020
2115 Mist -1 962 100 3500 2.6 310 11:20 23.02.2020
2116 Mist 0 962 92 4900 3.1 310 10:59 23.02.2020
2117 Mist 0 962 92 4900 3.1 310 10:41 23.02.2020
2118 Mist 0 962 92 4300 3.1 300 10:23 23.02.2020
2119 Mist 0 961 92 3900 2.6 300 09:56 23.02.2020
2120 Mist 0 961 92 4300 3.1 320 09:38 23.02.2020
2121 Mist 0 961 92 4300 3.1 320 09:19 23.02.2020
2122 Fog 0 961 92 900 3.1 310 08:50 23.02.2020
2123 Mist 0 961 92 3200 2.1 300 08:29 23.02.2020
2124 Clouds 0 960 96 1900 2.6 320 07:48 23.02.2020
2125 Clouds 0 960 96 2100 3.1 320 07:29 23.02.2020
2126 Snow 0 960 96 3300 2.6 350 06:25 23.02.2020
2127 Snow 0 959 96 2500 2.6 340 05:34 23.02.2020
2128 Snow 0 960 98 2700 2.1 340 04:23 23.02.2020
2129 Clouds 0 960 98 3500 1.5 50 02:50 23.02.2020
2130 Clouds 0 960 99 2500 2.1 60 01:42 23.02.2020
2131 Clouds 0 960 99 2500 2.1 60 01:20 23.02.2020
2132 Snow 0 961 99 2500 2.1 80 00:44 23.02.2020
2133 Clouds 0 961 99 1700 2.1 90 00:22 23.02.2020
2134 Clouds 0 961 99 1300 2.6 90 23:43 22.02.2020
2135 Clouds 0 962 99 2200 2.1 90 23:24 22.02.2020
2136 Clouds 0 962 99 6000 3.1 110 22:45 22.02.2020
2137 Rain 0 963 99 8000 3.1 130 22:20 22.02.2020
2138 Drizzle 1 963 99 7000 3.1 140 21:46 22.02.2020
2139 Clouds 1 964 100 10000 3.1 140 21:28 22.02.2020
2140 Clouds 1 964 100 5000 3.6 140 20:59 22.02.2020
2141 Clouds 1 964 100 5000 3.6 140 20:40 22.02.2020
2142 Fog 1 965 100 2200 3.6 140 20:21 22.02.2020
2143 Fog 1 966 100 1300 3.6 140 19:43 22.02.2020
2144 Fog 1 966 100 1300 3.6 140 19:24 22.02.2020
2145 Fog 1 967 100 900 3.1 130 18:57 22.02.2020
2146 Fog 1 967 100 900 3.1 130 18:57 22.02.2020
2147 Fog 1 967 100 900 3.1 130 18:37 22.02.2020
2148 Drizzle 1 968 100 2300 2.6 160 18:19 22.02.2020
2149 Clouds 1 968 100 6000 4.1 180 17:44 22.02.2020
2150 Clouds 1 968 98 10000 5.7 200 17:26 22.02.2020
2151 Clouds 1 969 97 10000 5.7 200 16:59 22.02.2020
2152 Clouds 1 969 97 10000 5.7 200 16:40 22.02.2020
2153 Clouds 1 970 97 10000 5.1 180 16:20 22.02.2020
2154 Clouds 1 970 100 6000 4.6 170 15:55 22.02.2020
2155 Clouds 1 970 100 6000 4.6 170 15:55 22.02.2020
2156 Clouds 1 970 100 6000 4.6 170 15:37 22.02.2020
2157 Clouds 1 970 100 8000 5.7 190 15:19 22.02.2020
2158 Mist 1 970 100 3600 5.7 200 14:41 22.02.2020
2159 Clouds 1 971 100 5000 8.2 210 14:21 22.02.2020
2160 Clouds 1 971 100 9000 8.7 200 13:43 22.02.2020
2161 Clouds 1 971 100 9000 8.7 200 13:43 22.02.2020
2162 Rain 1 972 100 10000 8.2 200 13:20 22.02.2020
2163 Clouds 1 972 100 10000 7.2 190 12:58 22.02.2020
2164 Clouds 1 972 100 10000 7.2 190 12:39 22.02.2020
2165 Clouds 1 972 100 10000 7.2 190 12:20 22.02.2020
2166 Rain 1 973 100 10000 7.7 200 11:42 22.02.2020
2167 Rain 1 973 91 10000 9.3 190 11:24 22.02.2020
2168 Clouds 1 974 91 10000 9.8 200 10:42 22.02.2020
2169 Clouds 1 974 91 10000 10.3 200 10:21 22.02.2020
2170 Clouds 1 974 91 10000 9.8 210 09:59 22.02.2020
2171 Clouds 1 974 91 10000 9.8 210 09:41 22.02.2020
2172 Clouds 1 974 91 10000 9.8 0 09:22 22.02.2020
2173 Clouds 1 974 91 10000 9.3 200 08:55 22.02.2020
2174 Clouds 0 974 95 10000 8.7 210 08:28 22.02.2020
2175 Clouds 0 974 93 10000 8.7 210 07:58 22.02.2020
2176 Clouds 0 974 93 10000 8.2 200 07:38 22.02.2020
2177 Clouds 0 974 93 10000 8.2 200 07:18 22.02.2020
2178 Rain 0 975 93 10000 9.8 210 06:43 22.02.2020
2179 Snow 0 975 93 3700 7.7 190 04:45 22.02.2020
2180 Clouds 0 976 93 6000 8.2 190 03:52 22.02.2020
2181 Snow 0 978 93 3500 9.3 190 02:38 22.02.2020
2182 Rain 0 978 89 10000 10.3 200 01:48 22.02.2020
2183 Rain 0 979 91 10000 11.8 200 01:29 22.02.2020
2184 Clouds 0 979 91 10000 10.8 200 00:48 22.02.2020
2185 Clouds 0 979 91 10000 8.2 190 00:29 22.02.2020
2186 Clouds -1 980 100 10000 7.2 190 23:53 21.02.2020
2187 Clouds -1 981 100 10000 7.2 180 23:26 21.02.2020
2188 Clouds -1 981 100 10000 6.7 200 22:59 21.02.2020
2189 Clouds -1 982 100 10000 7.2 200 22:40 21.02.2020
2190 Clouds -1 982 100 10000 7.2 200 22:21 21.02.2020
2191 Clouds 0 982 92 9000 8.7 200 21:43 21.02.2020
2192 Clouds 0 982 92 10000 9.8 200 21:24 21.02.2020
2193 Clouds 0 982 92 9000 7.7 200 20:58 21.02.2020
2194 Clouds 0 982 92 9000 7.7 200 20:38 21.02.2020
2195 Clouds 0 982 96 7000 7.2 200 20:19 21.02.2020
2196 Clouds 0 982 97 4200 8.2 200 19:39 21.02.2020
2197 Clouds 0 983 97 10000 7.2 200 19:39 21.02.2020
2198 Clouds 0 983 97 10000 7.2 200 19:19 21.02.2020
2199 Clouds 0 983 97 10000 7.7 200 18:42 21.02.2020
2200 Snow 0 983 97 6000 8.2 200 18:22 21.02.2020
2201 Clouds 0 983 97 8000 6.7 200 17:56 21.02.2020
2202 Snow 0 984 97 4100 7.2 200 17:36 21.02.2020
2203 Snow 0 984 97 4100 7.2 200 17:18 21.02.2020
2204 Clouds 0 984 97 3100 7.2 200 16:41 21.02.2020
2205 Clouds 0 984 97 2200 8.2 200 16:22 21.02.2020
2206 Snow 0 984 97 2600 8.7 200 15:57 21.02.2020
2207 Snow 0 984 97 2600 8.7 200 15:38 21.02.2020
2208 Snow 0 984 97 3600 8.7 200 15:18 21.02.2020
2209 Clouds 0 984 97 2100 8.2 190 14:42 21.02.2020
2210 Snow 0 985 97 1800 8.7 200 14:20 21.02.2020
2211 Snow 0 985 97 2000 8.7 200 13:45 21.02.2020
2212 Snow 0 985 97 2000 8.2 190 13:24 21.02.2020
2213 Snow 0 985 97 2000 8.2 190 12:56 21.02.2020
2214 Snow 0 985 97 1400 9.3 190 12:37 21.02.2020
2215 Snow 0 985 97 1400 9.3 190 12:19 21.02.2020
2216 Snow 0 985 97 2000 9.3 190 11:43 21.02.2020
2217 Snow 0 986 97 2000 7.7 190 11:23 21.02.2020
2218 Snow 0 986 97 2000 7.2 180 10:57 21.02.2020
2219 Snow -1 986 100 1800 7.7 180 10:39 21.02.2020
2220 Snow -1 986 100 1800 7.7 180 10:19 21.02.2020
2221 Snow -1 986 92 1800 7.7 180 09:57 21.02.2020
2222 Snow -1 986 92 1800 7.7 180 09:38 21.02.2020
2223 Snow -2 986 100 2000 8.2 170 09:19 21.02.2020
2224 Snow -2 987 92 2000 8.2 170 08:43 21.02.2020
2225 Snow -2 987 92 2000 7.7 170 08:22 21.02.2020
2226 Snow -2 987 92 2500 7.7 170 07:59 21.02.2020
2227 Snow -2 987 92 2500 7.7 170 07:59 21.02.2020
2228 Snow -2 987 92 2500 7.7 170 07:41 21.02.2020
2229 Snow -3 988 92 2000 6.7 160 07:19 21.02.2020
2230 Snow -3 988 92 2000 7.2 160 06:52 21.02.2020
2231 Snow -4 989 92 4400 7.2 160 06:31 21.02.2020
2232 Snow -4 989 92 4200 7.7 150 05:50 21.02.2020
2233 Clouds -5 991 92 10000 8.7 160 04:38 21.02.2020
2234 Clouds -5 991 92 10000 8.7 160 04:19 21.02.2020
2235 Clouds -5 991 92 10000 8.2 170 03:42 21.02.2020
2236 Snow -5 993 79 10000 7.2 170 02:43 21.02.2020
2237 Clouds -6 995 79 10000 7.7 170 01:24 21.02.2020
2238 Clouds -6 995 73 10000 5.7 170 00:45 21.02.2020
2239 Clouds -7 996 79 10000 7.2 170 00:23 21.02.2020
2240 Clouds -7 996 73 10000 7.2 170 23:46 20.02.2020
2241 Clouds -7 997 73 10000 5.7 160 23:25 20.02.2020
2242 Clouds -8 998 78 10000 5.7 150 22:57 20.02.2020
2243 Clouds -8 998 78 10000 5.7 150 22:38 20.02.2020
2244 Clouds -9 998 78 10000 5.7 160 22:20 20.02.2020
2245 Clouds -9 998 78 10000 5.1 150 21:56 20.02.2020
2246 Clouds -9 998 78 10000 5.1 150 21:56 20.02.2020
2247 Clouds -9 999 78 10000 6.2 160 21:37 20.02.2020
2248 Clouds -9 999 78 10000 6.2 160 21:37 20.02.2020
2249 Clouds -9 999 78 10000 6.2 160 21:19 20.02.2020
2250 Clouds -9 999 72 10000 5.7 160 20:54 20.02.2020
2251 Clouds -9 1000 72 10000 5.1 150 20:36 20.02.2020
2252 Clouds -9 1000 72 10000 5.1 150 20:18 20.02.2020
2253 Clouds -11 1001 78 10000 4.1 130 19:56 20.02.2020
2254 Clouds -11 1001 78 10000 4.1 140 19:38 20.02.2020
2255 Clouds -11 1001 78 10000 4.1 140 19:20 20.02.2020
2256 Clouds -11 1001 78 10000 6.7 160 18:39 20.02.2020
2257 Clouds -11 1002 78 10000 5.7 160 18:20 20.02.2020
2258 Clouds -11 1003 78 10000 6.2 160 17:41 20.02.2020
2259 Clouds -11 1003 78 10000 6.2 160 17:23 20.02.2020
2260 -273 0 0 0 0 0 17:22 20.02.2020
2261 Clouds -11 1003 78 10000 6.2 160 17:22 20.02.2020
2262 Clouds -11 1003 78 10000 6.2 160 17:22 20.02.2020
2263 Clouds -11 1004 78 10000 5.7 170 16:58 20.02.2020
2264 Clouds -10 1005 78 10000 5.7 160 16:40 20.02.2020
2265 Clouds -10 1005 78 10000 5.7 160 16:20 20.02.2020
2266 Clouds -9 1005 72 10000 5.1 160 15:58 20.02.2020
2267 Clouds -9 1005 72 10000 5.1 160 15:39 20.02.2020
2268 Clouds -9 1006 72 10000 4.6 170 15:20 20.02.2020
2269 Clouds -9 1006 72 10000 4.1 180 14:54 20.02.2020
2270 Clouds -9 1006 72 10000 4.6 190 14:36 20.02.2020
2271 Clouds -9 1006 72 10000 4.6 190 14:18 20.02.2020
2272 Clouds -9 1006 72 10000 4.1 170 13:43 20.02.2020
2273 Clouds -9 1007 72 10000 4.1 190 13:19 20.02.2020
2274 Clouds -9 1007 72 10000 3.1 180 12:43 20.02.2020
2275 Clouds -10 1007 78 10000 3.6 180 12:22 20.02.2020
2276 Clouds -10 1008 78 10000 3.6 190 11:59 20.02.2020
2277 Clouds -11 1008 85 10000 3.6 190 11:41 20.02.2020
2278 Clouds -11 1008 85 10000 3.6 190 11:22 20.02.2020
2279 Clear -12 1008 92 10000 3.6 200 10:57 20.02.2020
2280 Clear -14 1008 92 10000 3.1 220 10:38 20.02.2020
2281 Clear -14 1008 92 10000 3.1 220 10:20 20.02.2020
2282 Fog -14 1008 84 10000 3.1 230 09:44 20.02.2020
2283 Fog -14 1008 84 3000 3.1 220 09:24 20.02.2020
2284 Fog -14 1008 84 3000 3.1 220 09:24 20.02.2020
2285 Fog -15 1008 84 3000 3.1 220 08:57 20.02.2020
2286 Fog -15 1008 84 3000 3.1 220 08:38 20.02.2020
2287 Fog -15 1008 92 2000 3.6 210 08:19 20.02.2020
2288 Fog -15 1007 84 10000 3.1 230 07:44 20.02.2020
2289 Fog -15 1007 84 10000 3.1 230 07:21 20.02.2020
2290 Fog -16 1007 91 10000 2.6 230 06:44 20.02.2020
2291 Clouds -15 1007 84 10000 2.6 240 06:25 20.02.2020
2292 Snow -16 1007 91 10000 2.1 230 05:44 20.02.2020
2293 Snow -15 1007 92 10000 3.1 250 04:50 20.02.2020
2294 Clear -16 1007 84 10000 2.6 240 03:57 20.02.2020
2295 Clear -16 1006 91 10000 2.6 240 02:59 20.02.2020
2296 Clear -15 1005 92 10000 2.6 250 01:34 20.02.2020
2297 Clear -16 1005 91 10000 2.1 270 00:54 20.02.2020
2298 Clear -13 1004 92 10000 1.5 260 00:25 20.02.2020
2299 Clear -12 1004 85 10000 1.5 290 23:49 19.02.2020
2300 Clear -12 1004 85 10000 2.1 310 23:22 19.02.2020
2301 Clear -11 1004 85 10000 3.1 320 22:44 19.02.2020
2302 Clear -11 1003 85 10000 3.6 330 22:25 19.02.2020
2303 Clear -11 1003 92 10000 3.6 330 21:59 19.02.2020
2304 Clear -11 1003 92 10000 3.6 330 21:40 19.02.2020
2305 Clear -11 1003 92 10000 3.1 330 21:19 19.02.2020
2306 Clear -11 1003 92 10000 3.6 340 20:57 19.02.2020
2307 Clear -11 1003 92 10000 3.6 340 20:57 19.02.2020
2308 Clear -11 1003 92 10000 3.6 340 20:38 19.02.2020
2309 Clear -11 1003 92 10000 3.6 340 20:38 19.02.2020
2310 Clouds -11 1002 92 10000 3.6 330 20:19 19.02.2020
2311 Clouds -11 1001 92 10000 3.6 340 19:57 19.02.2020
2312 Clouds -11 1001 92 10000 3.6 340 19:38 19.02.2020
2313 Clouds -11 1001 92 10000 3.6 340 19:19 19.02.2020
2314 Clouds -10 1001 85 10000 3.6 340 18:57 19.02.2020
2315 Clouds -10 1000 92 10000 3.6 330 18:39 19.02.2020
2316 Clouds -10 1000 92 10000 3.6 330 18:21 19.02.2020
2317 Clouds -10 1000 92 10000 3.1 330 17:44 19.02.2020
2318 Clouds -9 999 85 10000 3.1 340 17:20 19.02.2020
2319 Clouds -9 999 85 10000 3.1 340 16:59 19.02.2020
2320 Clouds -9 999 85 10000 3.1 340 16:41 19.02.2020
2321 Clouds -8 998 85 10000 3.6 350 16:18 19.02.2020
2322 Clouds -7 997 79 10000 3.1 10 15:43 19.02.2020
2323 Clouds -6 997 79 10000 3.6 360 15:25 19.02.2020
2324 Clouds -6 996 79 10000 4.1 10 14:58 19.02.2020
2325 Clouds -6 996 79 10000 4.1 10 14:40 19.02.2020
2326 Clouds -6 996 85 10000 4.6 360 14:21 19.02.2020
2327 Clouds -6 995 85 10000 4.1 10 13:42 19.02.2020
2328 Clouds -6 994 85 10000 4.1 360 13:22 19.02.2020
2329 Clouds -6 994 85 10000 3.6 360 12:55 19.02.2020
2330 Clouds -6 993 85 10000 3.6 360 12:37 19.02.2020
2331 Clouds -6 993 85 10000 3.6 360 12:18 19.02.2020
2332 Clouds -6 993 85 10000 4.6 360 11:38 19.02.2020
2333 Clouds -6 992 85 10000 4.6 360 11:20 19.02.2020
2334 Clouds -6 991 85 10000 4.6 10 10:58 19.02.2020
2335 Clouds -6 991 85 10000 4.6 10 10:38 19.02.2020
2336 Clouds -7 991 85 10000 4.6 360 10:20 19.02.2020
2337 Clouds -7 990 85 10000 4.1 360 09:58 19.02.2020
2338 Clouds -7 989 92 10000 4.6 350 09:38 19.02.2020
2339 Clouds -7 989 92 10000 4.6 350 09:19 19.02.2020
2340 Clouds -7 988 92 10000 5.1 340 08:46 19.02.2020
2341 Clouds -7 988 92 10000 3.1 350 08:24 19.02.2020
2342 Clouds -6 987 92 10000 3.1 350 07:46 19.02.2020
2343 Clouds -6 987 92 10000 2.6 350 07:26 19.02.2020
2344 Clouds -6 986 92 10000 4.1 360 06:57 19.02.2020
2345 Clouds -6 986 85 10000 4.1 360 06:34 19.02.2020
2346 Snow -5 983 92 10000 5.7 20 04:28 19.02.2020
2347 Snow -4 983 92 10000 6.2 40 03:20 19.02.2020
2348 Snow -4 982 92 10000 6.2 40 02:32 19.02.2020
2349 Snow -3 981 86 10000 6.7 60 01:25 19.02.2020
2350 Snow -3 981 86 10000 6.7 50 00:51 19.02.2020
2351 Snow -4 981 92 4600 6.2 40 00:32 19.02.2020
2352 Snow -4 980 92 10000 5.1 40 23:56 18.02.2020
2353 Snow -4 980 92 5000 5.1 30 23:37 18.02.2020
2354 Snow -4 980 92 5000 5.1 30 23:19 18.02.2020
2355 Clouds -4 980 92 10000 4.6 30 22:43 18.02.2020
2356 Snow -4 979 92 10000 4.1 30 22:20 18.02.2020
2357 Snow -4 979 100 10000 3.6 20 21:58 18.02.2020
2358 Snow -4 979 100 10000 3.6 20 21:38 18.02.2020
2359 Snow -4 979 100 10000 3.6 20 21:38 18.02.2020
2360 Snow -4 979 100 10000 2.6 30 21:19 18.02.2020
2361 Snow -3 979 92 10000 2.1 60 20:58 18.02.2020
2362 Snow -3 979 92 10000 2.1 60 20:38 18.02.2020
2363 Snow -4 978 100 10000 2.1 60 20:20 18.02.2020
2364 Snow -4 978 100 5000 2.6 70 19:55 18.02.2020
2365 Snow -4 978 100 2600 2.6 50 19:36 18.02.2020
2366 Snow -4 978 100 2600 2.6 50 19:18 18.02.2020
2367 Clouds -4 978 100 10000 2.6 30 18:41 18.02.2020
2368 Snow -4 977 100 10000 2.6 40 18:21 18.02.2020
2369 Snow -4 977 100 8000 2.1 50 17:57 18.02.2020
2370 Snow -4 977 100 5000 2.1 60 17:38 18.02.2020
2371 Snow -4 977 100 5000 2.1 60 17:19 18.02.2020
2372 Snow -4 976 100 2300 2.1 40 16:40 18.02.2020
2373 Snow -4 976 100 2300 2.1 40 16:20 18.02.2020
2374 Snow -3 976 92 10000 1.5 90 15:41 18.02.2020
2375 Snow -4 976 100 10000 1.5 30 15:20 18.02.2020
2376 Snow -3 976 92 10000 1 0 14:57 18.02.2020
2377 Snow -3 976 92 10000 1 0 14:39 18.02.2020
2378 Clouds -3 975 92 10000 2.1 340 14:20 18.02.2020
2379 Snow -3 975 92 10000 1.5 270 13:42 18.02.2020
2380 Snow -3 975 92 10000 1.5 270 13:24 18.02.2020
2381 Rain -3 975 92 10000 2.1 270 12:59 18.02.2020
2382 Rain -3 975 92 10000 2.1 270 12:41 18.02.2020
2383 Rain -3 974 92 10000 2.6 220 12:22 18.02.2020
2384 Clouds -3 974 92 10000 2.6 230 11:55 18.02.2020
2385 Snow -3 973 92 7000 2.1 250 11:37 18.02.2020
2386 Snow -3 973 92 7000 2.1 250 11:37 18.02.2020
2387 Snow -3 973 92 7000 2.1 250 11:18 18.02.2020
2388 Snow -3 973 92 10000 2.1 280 10:41 18.02.2020
2389 Snow -3 973 92 10000 2.1 280 10:18 18.02.2020
2390 Snow -3 972 100 10000 1.5 280 09:56 18.02.2020
2391 Snow -3 972 92 10000 1.5 240 09:37 18.02.2020
2392 Snow -3 972 92 10000 1.5 240 09:19 18.02.2020
2393 Clouds -3 971 100 10000 1 0 08:43 18.02.2020
2394 Clouds -3 971 100 10000 1.5 310 08:21 18.02.2020
2395 Clouds -3 971 100 10000 1 280 07:58 18.02.2020
2396 Clouds -3 971 100 10000 1.5 260 07:36 18.02.2020
2397 Clouds -3 971 100 10000 1.5 260 07:18 18.02.2020
2398 Snow -2 971 92 4000 2.6 250 06:41 18.02.2020
2399 Snow -2 971 100 4000 2.6 240 06:21 18.02.2020
2400 Snow -2 970 92 2500 2.6 230 05:46 18.02.2020
2401 Clouds -2 970 92 6000 4.1 210 04:39 18.02.2020
2402 Clouds -2 970 100 2500 5.7 230 03:36 18.02.2020
2403 Clouds -2 970 100 3800 5.1 210 02:38 18.02.2020
2404 Clouds -2 970 100 10000 6.2 220 01:19 18.02.2020
2405 Clouds -2 970 100 10000 4.1 230 00:22 18.02.2020
2406 Clouds -2 970 100 10000 4.1 230 23:56 17.02.2020
2407 Clouds -1 969 92 10000 5.1 220 23:37 17.02.2020
2408 Clouds -1 969 92 10000 5.1 220 23:19 17.02.2020
2409 Clouds -1 969 92 10000 6.7 220 22:41 17.02.2020
2410 Clouds -1 969 92 10000 8.7 220 22:21 17.02.2020
2411 Clouds -1 969 92 10000 8.7 0 21:59 17.02.2020
2412 Clouds -1 969 92 10000 8.2 220 21:38 17.02.2020
2413 Clouds -1 969 92 10000 8.2 220 21:18 17.02.2020
2414 Clouds -1 969 92 10000 7.7 220 20:42 17.02.2020
2415 Clouds -1 968 92 10000 6.7 230 20:21 17.02.2020
2416 Clouds -1 968 92 10000 6.7 230 20:21 17.02.2020
2417 Clouds -1 968 92 10000 7.7 220 19:58 17.02.2020
2418 Clouds -1 968 92 10000 6.7 220 19:40 17.02.2020
2419 Clouds -1 968 92 10000 6.7 220 19:20 17.02.2020
2420 Clouds -1 968 92 10000 7.2 220 18:38 17.02.2020
2421 Clouds -1 968 92 10000 7.2 220 18:38 17.02.2020
2422 Clouds -1 968 92 10000 5.7 230 18:20 17.02.2020
2423 Clouds -1 968 92 10000 6.2 230 17:58 17.02.2020
2424 Clouds -1 968 92 10000 6.2 230 17:58 17.02.2020
2425 Clouds -1 968 92 10000 8.2 220 17:37 17.02.2020
2426 Clouds -1 968 92 10000 8.2 220 17:19 17.02.2020
2427 Clouds -1 968 92 10000 8.2 220 17:19 17.02.2020
2428 Clouds -1 968 92 10000 8.2 220 17:19 17.02.2020
2429 Clouds -1 967 92 10000 7.7 220 16:55 17.02.2020
2430 Clouds -2 967 92 10000 6.2 220 16:36 17.02.2020
2431 Clouds -2 967 92 10000 6.2 220 16:18 17.02.2020
2432 Clouds -1 967 86 10000 7.2 220 15:44 17.02.2020
2433 Clouds -1 966 92 10000 6.7 210 15:26 17.02.2020
2434 Clouds -1 966 92 10000 5.1 220 14:55 17.02.2020
2435 Clouds -1 966 92 10000 5.1 220 14:55 17.02.2020
2436 Clouds -1 966 92 10000 4.1 230 14:37 17.02.2020
2437 Clouds -1 966 92 10000 4.1 230 14:19 17.02.2020
2438 Clouds -1 966 92 10000 4.6 230 13:41 17.02.2020
2439 Clouds -1 966 92 10000 4.6 230 13:20 17.02.2020
2440 Clouds -1 965 86 10000 5.1 230 12:57 17.02.2020
2441 Clouds -2 965 92 10000 5.1 230 12:39 17.02.2020
2442 Clouds -2 965 92 10000 5.1 230 12:21 17.02.2020
2443 Clouds -1 965 86 10000 3.6 230 11:45 17.02.2020
2444 Clouds -1 964 92 10000 3.6 240 11:26 17.02.2020
2445 Clouds -1 964 86 10000 4.1 250 10:57 17.02.2020
2446 Clouds -1 963 86 10000 5.1 250 10:39 17.02.2020
2447 Clouds -1 963 86 10000 5.1 250 10:20 17.02.2020
2448 Clouds -1 963 92 10000 6.2 250 09:56 17.02.2020
2449 Clouds -1 962 92 10000 7.2 240 09:38 17.02.2020
2450 Clouds -1 962 92 10000 7.2 240 09:18 17.02.2020
2451 Clouds -1 962 100 10000 6.2 250 08:42 17.02.2020
2452 Clouds 0 961 95 10000 6.7 250 08:23 17.02.2020
2453 Clouds 0 961 92 10000 5.7 250 07:57 17.02.2020
2454 Snow 0 960 92 3500 5.7 250 07:28 17.02.2020
2455 Snow 0 959 92 3000 5.7 240 06:57 17.02.2020
2456 Snow 0 959 92 3000 5.7 240 06:39 17.02.2020
2457 Snow 0 959 92 6000 6.2 240 06:19 17.02.2020
2458 Clouds 0 957 92 6000 7.2 240 05:39 17.02.2020
2459 Rain 0 955 96 5000 8.7 210 03:55 17.02.2020
2460 Rain 0 957 96 9000 5.1 160 02:37 17.02.2020
2461 Clouds 0 959 89 3500 6.2 140 00:59 17.02.2020
2462 Clouds 0 960 89 3100 6.2 120 00:25 17.02.2020
2463 Snow 0 961 89 2700 6.2 110 23:56 16.02.2020
2464 Snow 0 962 89 2000 6.2 120 23:36 16.02.2020
2465 Snow 0 962 98 2000 6.2 120 23:18 16.02.2020
2466 Clouds 0 964 98 1100 6.7 130 22:54 16.02.2020
2467 Snow 0 965 98 3000 6.2 130 22:36 16.02.2020
2468 Snow 0 965 98 3000 6.2 130 22:18 16.02.2020
2469 Snow 0 965 98 3000 6.2 130 22:18 16.02.2020
2470 Snow 0 966 98 3100 6.2 130 21:42 16.02.2020
2471 Clouds 0 968 98 2100 5.7 140 21:24 16.02.2020
2472 Snow 0 969 98 2800 5.1 140 20:58 16.02.2020
2473 Snow 0 969 98 2800 5.1 140 20:40 16.02.2020
2474 Snow 0 969 98 2800 5.1 140 20:40 16.02.2020
2475 Clouds 0 970 98 3600 5.7 150 20:40 16.02.2020
2476 Clouds 0 970 98 3600 5.7 150 20:40 16.02.2020
2477 Clouds 0 970 98 3600 5.7 150 20:40 16.02.2020
2478 Clouds 0 970 98 3600 5.7 150 20:22 16.02.2020
2479 Clouds 0 971 97 2800 6.2 140 19:59 16.02.2020
2480 Clouds 0 971 97 2800 6.2 140 19:40 16.02.2020
2481 Clouds 0 972 97 2500 6.2 150 19:19 16.02.2020
2482 Clouds 0 972 97 2500 6.2 150 19:19 16.02.2020
2483 Snow 0 973 97 10000 6.2 140 18:58 16.02.2020
2484 Snow 0 973 97 10000 6.2 140 18:40 16.02.2020
2485 Clouds 0 974 97 7000 6.7 140 18:21 16.02.2020
2486 Clouds 0 975 97 5000 6.2 140 17:43 16.02.2020
2487 Snow 0 976 98 4300 6.2 150 17:20 16.02.2020
2488 Snow 0 977 98 4600 6.7 140 16:56 16.02.2020
2489 Snow 0 978 98 3300 6.7 140 16:38 16.02.2020
2490 Snow 0 978 98 3300 6.7 140 16:19 16.02.2020
2491 Snow 0 979 98 2100 6.7 130 15:42 16.02.2020
2492 Snow 0 980 98 1000 6.7 130 15:23 16.02.2020
2493 Snow -1 982 100 1500 7.2 130 14:57 16.02.2020
2494 Snow -1 983 100 1200 7.7 120 14:38 16.02.2020
2495 Snow -1 983 100 1200 7.7 120 14:19 16.02.2020
2496 Snow -1 984 92 1800 6.7 120 13:45 16.02.2020
2497 Clouds -1 986 100 10000 5.7 130 13:23 16.02.2020
2498 Clouds -1 987 100 10000 6.2 130 12:42 16.02.2020
2499 Clouds -1 987 100 10000 6.2 130 12:20 16.02.2020
2500 Clouds -1 989 92 10000 5.7 120 11:59 16.02.2020
2501 Clouds -1 990 92 10000 5.7 150 11:37 16.02.2020
2502 Clouds -1 990 92 10000 5.7 150 11:18 16.02.2020
2503 Clouds -1 990 92 7000 5.7 160 10:56 16.02.2020
2504 Mist -2 991 100 2100 6.2 170 10:37 16.02.2020
2505 Mist -2 991 100 2100 6.2 170 10:19 16.02.2020
2506 Snow -2 991 100 3900 6.7 170 09:39 16.02.2020
2507 Snow -2 992 100 2300 5.7 170 09:21 16.02.2020
2508 Clouds -2 992 100 1700 5.1 180 08:59 16.02.2020
2509 Clouds -2 992 100 1700 5.1 180 08:40 16.02.2020
2510 Clouds -2 993 92 10000 3.6 170 08:20 16.02.2020
2511 Clouds -2 994 92 10000 3.6 190 07:44 16.02.2020
2512 Fog -3 994 100 550 2.1 180 07:25 16.02.2020
2513 Snow -3 995 100 1100 2.6 190 06:32 16.02.2020
2514 Snow -4 995 100 3300 2.1 170 04:38 16.02.2020
2515 Snow -4 996 92 4600 2.1 210 03:24 16.02.2020
2516 Clouds -4 997 92 10000 1.5 210 02:27 16.02.2020
2517 Snow -4 997 92 10000 1 0 01:40 16.02.2020
2518 Snow -4 996 92 10000 1 0 01:21 16.02.2020
2519 Clouds -4 996 92 2600 2.1 260 00:51 16.02.2020
2520 Snow -4 997 100 10000 3.1 280 00:28 16.02.2020
2521 Clouds -3 996 92 10000 2.6 260 23:44 15.02.2020
2522 Snow -3 996 92 10000 3.6 250 23:26 15.02.2020
2523 Snow -3 996 100 4000 4.1 230 22:59 15.02.2020
2524 Snow -3 996 100 4000 4.1 230 22:40 15.02.2020
2525 Clouds -2 996 92 10000 5.1 230 22:21 15.02.2020
2526 Snow -2 996 92 10000 4.6 220 21:56 15.02.2020
2527 Clouds -2 996 100 10000 4.1 200 21:37 15.02.2020
2528 Clouds -2 996 100 10000 4.1 200 21:19 15.02.2020
2529 Snow -2 996 92 4100 4.1 200 20:39 15.02.2020
2530 Snow -2 996 92 4100 4.1 200 20:39 15.02.2020
2531 Clouds -2 996 92 3700 4.1 190 20:21 15.02.2020
2532 Clouds -2 996 92 3700 4.1 190 20:21 15.02.2020
2533 Snow -3 996 100 8000 3.1 160 19:44 15.02.2020
2534 Snow -3 996 100 10000 3.6 160 19:22 15.02.2020
2535 Snow -3 996 100 10000 3.1 0 18:44 15.02.2020
2536 Clouds -3 997 100 8000 3.6 130 18:23 15.02.2020
2537 Clouds -3 997 100 5000 3.1 150 17:58 15.02.2020
2538 Clouds -3 997 100 5000 3.1 150 17:38 15.02.2020
2539 Snow -3 997 100 7000 2.1 150 17:20 15.02.2020
2540 Snow -3 998 92 4100 4.1 150 16:43 15.02.2020
2541 Snow -3 998 92 4100 4.1 150 16:24 15.02.2020
2542 Snow -3 998 92 5000 3.6 140 15:58 15.02.2020
2543 Snow -4 998 100 3400 3.6 130 15:40 15.02.2020
2544 Snow -4 998 100 3400 3.6 130 15:40 15.02.2020
2545 Snow -4 998 100 3400 3.6 130 15:22 15.02.2020
2546 Snow -4 998 100 1500 4.1 130 14:45 15.02.2020
2547 Snow -4 999 92 2000 5.1 110 14:19 15.02.2020
2548 Snow -4 999 92 1000 4.6 120 13:56 15.02.2020
2549 Snow -5 1000 100 5000 4.6 120 13:37 15.02.2020
2550 Snow -5 1000 100 5000 4.6 120 13:19 15.02.2020
2551 Snow -5 1001 100 10000 4.1 130 12:42 15.02.2020
2552 Clouds -5 1001 100 10000 4.6 140 12:23 15.02.2020
2553 Snow -5 1001 100 6000 4.6 140 11:49 15.02.2020
2554 Clouds -5 1002 100 6000 4.6 140 11:31 15.02.2020
2555 Snow -5 1002 100 5000 4.6 150 10:56 15.02.2020
2556 Snow -5 1003 92 2000 3.6 140 10:37 15.02.2020
2557 Snow -5 1003 92 2000 3.6 140 10:37 15.02.2020
2558 Snow -5 1003 92 2000 3.6 140 10:18 15.02.2020
2559 Snow -5 1003 92 2300 3.6 140 09:41 15.02.2020
2560 Snow -6 1003 92 2400 4.1 150 09:23 15.02.2020
2561 Clouds -6 1004 92 600 3.6 150 08:44 15.02.2020
2562 Fog -7 1004 92 600 3.6 150 08:25 15.02.2020
2563 Fog -8 1004 92 650 3.1 130 07:59 15.02.2020
2564 Fog -8 1004 92 1000 4.1 150 07:39 15.02.2020
2565 Fog -8 1004 92 1000 4.1 150 07:18 15.02.2020
2566 Clouds -11 1005 92 1800 5.1 160 06:37 15.02.2020
2567 Clouds -12 1005 92 10000 3.1 160 05:54 15.02.2020
2568 Clouds -12 1006 92 10000 1.5 150 04:48 15.02.2020
2569 Clouds -11 1006 92 10000 1.5 120 03:43 15.02.2020
2570 Clouds -11 1007 92 3200 2.6 200 02:58 15.02.2020
2571 Clouds -11 1007 92 10000 3.1 200 02:23 15.02.2020
2572 Clouds -11 1007 85 10000 3.1 230 01:41 15.02.2020
2573 Clear -12 1007 92 10000 3.6 210 00:43 15.02.2020
2574 Snow -12 1006 92 1700 1.5 220 00:24 15.02.2020
2575 Snow -12 1007 92 10000 3.6 220 23:42 14.02.2020
2576 Clear -11 1007 92 10000 3.6 200 23:20 14.02.2020
2577 Snow -12 1007 92 4000 2.6 210 22:45 14.02.2020
2578 Snow -10 1007 92 4200 2.1 190 22:24 14.02.2020
2579 Snow -10 1007 92 10000 3.6 210 21:54 14.02.2020
2580 Clouds -10 1007 92 10000 4.6 220 21:36 14.02.2020
2581 Clouds -10 1007 92 10000 4.6 220 21:18 14.02.2020
2582 Snow -9 1007 92 10000 3.6 220 20:42 14.02.2020
2583 Snow -9 1007 92 10000 5.1 220 20:19 14.02.2020
2584 Snow -9 1006 100 10000 4.6 220 19:56 14.02.2020
2585 Clouds -8 1006 92 10000 6.2 210 19:38 14.02.2020
2586 Clouds -8 1006 92 10000 6.2 210 19:18 14.02.2020
2587 Snow -8 1006 92 2200 6.2 220 18:55 14.02.2020
2588 Snow -8 1006 92 2200 6.2 220 18:55 14.02.2020
2589 Fog -8 1006 92 2000 4.6 220 18:37 14.02.2020
2590 Fog -8 1006 92 2000 4.6 220 18:18 14.02.2020
2591 Snow -8 1006 92 1100 3.6 220 17:41 14.02.2020
2592 Fog -7 1006 92 2300 4.6 220 17:19 14.02.2020
2593 Mist -7 1006 92 2800 4.6 220 16:57 14.02.2020
2594 Clouds -7 1006 92 10000 5.1 210 16:38 14.02.2020
2595 Clouds -7 1006 92 10000 5.1 210 16:19 14.02.2020
2596 Clouds -7 1005 100 10000 4.6 220 15:54 14.02.2020
2597 Clouds -6 1005 92 10000 3.1 240 15:36 14.02.2020
2598 Clouds -6 1005 92 10000 3.1 240 15:18 14.02.2020
2599 Clouds -6 1005 92 10000 3.6 220 14:42 14.02.2020
2600 Clouds -6 1005 92 10000 3.1 250 14:22 14.02.2020
2601 Clouds -6 1005 92 10000 4.1 230 13:58 14.02.2020
2602 Clouds -6 1004 100 10000 4.6 230 13:39 14.02.2020
2603 Clouds -6 1004 100 10000 4.6 230 13:20 14.02.2020
2604 Clouds -5 1004 92 10000 4.1 230 12:57 14.02.2020
2605 Clouds -5 1003 92 10000 2.6 240 12:38 14.02.2020
2606 Clouds -5 1003 92 10000 2.6 240 12:20 14.02.2020
2607 Clouds -5 1003 92 10000 3.6 240 11:57 14.02.2020
2608 Clouds -5 1003 92 10000 3.6 240 11:57 14.02.2020
2609 Clouds -5 1003 92 10000 2.6 230 11:39 14.02.2020
2610 Clouds -5 1003 92 10000 2.6 230 11:19 14.02.2020
2611 Clouds -5 1002 92 10000 2.6 230 10:43 14.02.2020
2612 Clouds -5 1002 92 10000 2.1 230 10:23 14.02.2020
2613 Snow -5 1002 92 10000 1.5 210 09:56 14.02.2020
2614 Clouds -5 1002 92 10000 2.1 250 09:36 14.02.2020
2615 Clouds -5 1002 92 10000 2.1 250 09:36 14.02.2020
2616 Clouds -5 1002 92 10000 2.1 250 09:18 14.02.2020
2617 Clouds -5 1001 92 10000 1.5 250 08:40 14.02.2020
2618 Clouds -5 1001 92 10000 1.5 250 08:22 14.02.2020
2619 Clouds -5 1001 92 10000 1.5 250 08:22 14.02.2020
2620 Clouds -5 1001 92 10000 1.5 250 08:22 14.02.2020
2621 Clouds -5 1001 92 10000 1.5 280 07:50 14.02.2020
2622 Clouds -5 1000 92 10000 1.5 290 07:31 14.02.2020
2623 Clouds -5 1000 92 10000 1.5 250 06:54 14.02.2020
2624 Clouds -5 1000 92 10000 2.1 260 06:22 14.02.2020
2625 Snow -4 1000 92 10000 1 0 05:42 14.02.2020
2626 Clouds -4 999 92 10000 2.1 330 03:51 14.02.2020
2627 Clouds -4 998 92 10000 1.5 250 02:58 14.02.2020
2628 Clouds -3 998 92 10000 2.1 350 02:18 14.02.2020
2629 Snow -5 997 92 10000 1.5 290 01:18 14.02.2020
2630 Clouds -4 997 92 7000 1 0 00:32 14.02.2020
2631 Snow -4 997 92 10000 2.6 320 23:59 13.02.2020
2632 Snow -4 997 92 10000 2.6 320 23:41 13.02.2020
2633 Clouds -4 997 92 10000 2.1 330 23:19 13.02.2020
2634 Snow -3 996 92 10000 2.6 30 22:41 13.02.2020
2635 Clouds -3 996 92 10000 3.1 30 22:20 13.02.2020
2636 Clouds -3 996 92 10000 3.1 360 21:58 13.02.2020
2637 Clouds -3 996 92 10000 3.1 360 21:40 13.02.2020
2638 Clouds -3 996 92 10000 3.1 350 21:20 13.02.2020
2639 Clouds -2 995 92 10000 2.1 360 20:43 13.02.2020
2640 Clouds -2 995 92 10000 1 0 20:23 13.02.2020
2641 Clouds -1 995 92 10000 1 0 19:58 13.02.2020
2642 Clouds -1 995 92 10000 1 0 19:39 13.02.2020
2643 Clouds -1 994 86 10000 2.1 90 19:20 13.02.2020
2644 Clouds -1 994 86 10000 1.5 80 18:57 13.02.2020
2645 Clouds -1 994 86 10000 1.5 80 18:39 13.02.2020
2646 Clouds -1 994 86 10000 2.6 80 18:20 13.02.2020
2647 Clouds -1 994 86 10000 2.1 70 17:57 13.02.2020
2648 Clouds -2 993 92 10000 1.5 50 17:37 13.02.2020
2649 Clouds -2 993 92 10000 1.5 50 17:18 13.02.2020
2650 Clouds -1 993 92 10000 1.5 10 16:42 13.02.2020
2651 Clouds -2 993 100 10000 2.1 40 16:21 13.02.2020
2652 Clouds -1 993 92 10000 1.5 20 15:58 13.02.2020
2653 Clouds -1 992 92 7000 1.5 10 15:39 13.02.2020
2654 Clouds -1 992 92 7000 1.5 10 15:20 13.02.2020
2655 Clouds -1 992 92 10000 1 0 14:59 13.02.2020
2656 Clouds -1 991 92 10000 1.5 10 14:40 13.02.2020
2657 Clouds -1 991 92 10000 1.5 10 14:21 13.02.2020
2658 Clouds -1 991 92 10000 1.5 340 13:48 13.02.2020
2659 Clouds -1 991 86 10000 0.5 0 13:20 13.02.2020
2660 Clouds -1 990 86 10000 0.5 0 12:58 13.02.2020
2661 Clouds -1 990 86 10000 0.5 0 12:40 13.02.2020
2662 Clouds -1 990 92 10000 1.5 310 12:22 13.02.2020
2663 Clouds -1 989 92 10000 1 0 11:55 13.02.2020
2664 Clouds -1 989 92 5000 1.5 240 11:37 13.02.2020
2665 Clouds -1 989 92 5000 1.5 240 11:18 13.02.2020
2666 Clouds -1 989 92 10000 1.5 240 10:41 13.02.2020
2667 Clouds -1 988 92 10000 2.1 230 10:22 13.02.2020
2668 Clouds -1 988 92 10000 2.1 210 09:44 13.02.2020
2669 Clouds -1 987 92 10000 2.1 200 09:23 13.02.2020
2670 Clouds -1 987 92 10000 1.5 210 08:47 13.02.2020
2671 Clouds -1 986 92 10000 2.6 250 08:20 13.02.2020
2672 Clouds -1 986 100 7000 2.6 210 07:43 13.02.2020
2673 Clouds -1 986 100 1800 2.6 210 07:24 13.02.2020
2674 Mist -1 985 100 2500 2.6 190 06:54 13.02.2020
2675 Clouds -1 985 100 8000 2.1 200 06:36 13.02.2020
2676 Clouds -1 985 100 10000 2.1 200 05:52 13.02.2020
2677 Snow -1 984 100 4300 2.1 170 04:48 13.02.2020
2678 Clouds -1 984 100 6000 2.1 160 04:23 13.02.2020
2679 Clouds -1 984 100 10000 2.6 180 03:41 13.02.2020
2680 Clouds -1 983 100 10000 3.1 180 02:58 13.02.2020
2681 Clouds -1 983 100 10000 3.1 180 02:20 13.02.2020
2682 Clouds -1 982 100 10000 3.1 180 01:54 13.02.2020
2683 Clouds -1 982 100 10000 3.1 180 01:54 13.02.2020
2684 Clouds -1 982 92 7000 3.1 160 01:25 13.02.2020
2685 Snow -1 982 92 10000 3.1 170 00:28 13.02.2020
2686 Snow -1 982 92 10000 3.1 170 23:43 12.02.2020
2687 Clouds -1 982 92 10000 2.6 160 23:23 12.02.2020
2688 Clouds -1 982 92 10000 2.6 160 23:23 12.02.2020
2689 Snow -1 981 92 9000 3.1 160 22:59 12.02.2020
2690 Snow -1 981 92 9000 3.1 160 22:41 12.02.2020
2691 Clouds -1 981 92 10000 3.1 170 22:22 12.02.2020
2692 Snow -1 981 92 4900 3.1 180 21:55 12.02.2020
2693 Clouds -1 980 92 10000 3.6 180 21:37 12.02.2020
2694 Clouds -1 980 92 10000 3.6 180 21:18 12.02.2020
2695 Clouds -1 980 92 10000 4.6 190 20:43 12.02.2020
2696 Snow -1 980 92 10000 4.1 200 20:25 12.02.2020
2697 Clouds -1 980 92 10000 4.1 190 19:57 12.02.2020
2698 Clouds -1 980 92 10000 4.1 190 19:39 12.02.2020
2699 Clouds -1 980 92 10000 4.1 180 19:21 12.02.2020
2700 Snow -1 979 92 5000 4.6 190 18:50 12.02.2020
2701 Clouds -1 979 86 10000 4.6 200 18:20 12.02.2020
2702 Snow -1 979 92 10000 5.1 190 17:59 12.02.2020
2703 Snow -1 979 92 10000 5.1 190 17:39 12.02.2020
2704 Clouds -1 978 86 10000 5.7 190 17:19 12.02.2020
2705 Snow -1 978 92 10000 5.1 190 16:55 12.02.2020
2706 Snow -1 978 86 10000 6.2 190 16:36 12.02.2020
2707 Snow -1 978 86 10000 6.2 190 16:18 12.02.2020
2708 Snow -1 977 86 10000 5.7 190 15:37 12.02.2020
2709 Snow -1 977 86 10000 5.7 190 15:18 12.02.2020
2710 Snow -1 977 92 10000 6.2 190 14:42 12.02.2020
2711 Snow -1 976 92 10000 5.1 190 14:21 12.02.2020
2712 Snow -1 976 92 6000 5.1 190 13:59 12.02.2020
2713 Snow -1 976 92 6000 5.1 190 13:40 12.02.2020
2714 Snow -1 976 92 7000 5.7 190 13:21 12.02.2020
2715 Clouds -1 975 92 10000 5.7 190 12:58 12.02.2020
2716 Clouds -1 975 92 10000 5.7 190 12:39 12.02.2020
2717 Clouds -1 975 92 10000 5.7 190 12:39 12.02.2020
2718 Snow -1 975 92 5000 5.7 200 12:19 12.02.2020
2719 Snow -1 975 92 2500 6.2 190 11:58 12.02.2020
2720 Snow -1 975 92 2500 6.2 190 11:58 12.02.2020
2721 Snow -1 975 92 2500 6.2 190 11:40 12.02.2020
2722 Snow -1 974 92 1800 6.7 190 11:20 12.02.2020
2723 Snow -1 974 92 1600 5.1 200 10:56 12.02.2020
2724 Snow -1 974 92 1600 5.1 200 10:38 12.02.2020
2725 Snow -1 974 92 1800 5.7 200 10:20 12.02.2020
2726 Clouds -1 973 92 10000 6.2 210 09:42 12.02.2020
2727 Clouds -1 973 92 10000 7.7 210 09:24 12.02.2020
2728 Clouds -1 973 92 10000 7.7 210 09:24 12.02.2020
2729 Clouds -1 972 92 10000 7.7 210 08:58 12.02.2020
2730 Clouds -1 972 92 10000 7.2 210 08:38 12.02.2020
2731 Clouds -1 972 92 10000 7.2 210 08:20 12.02.2020
2732 Clouds -1 971 92 10000 7.2 200 07:45 12.02.2020
2733 Clouds -1 971 92 10000 7.2 200 07:45 12.02.2020
2734 Clouds -1 971 92 10000 6.7 200 07:24 12.02.2020
2735 Clouds -2 971 100 10000 6.7 200 06:59 12.02.2020
2736 Clouds -2 971 100 10000 6.7 200 06:59 12.02.2020
2737 Clouds -2 970 100 10000 8.2 200 06:24 12.02.2020
2738 Clouds -2 970 100 10000 8.2 210 05:44 12.02.2020
2739 Clouds -2 970 100 10000 8.7 200 05:21 12.02.2020
2740 Clouds -2 969 100 10000 6.7 210 04:41 12.02.2020
2741 Clouds -2 968 100 10000 5.7 200 03:43 12.02.2020
2742 Clouds -2 968 100 10000 5.1 0 03:24 12.02.2020
2743 Clouds -2 967 100 10000 6.2 210 02:31 12.02.2020
2744 Clouds -2 967 100 10000 5.7 210 01:59 12.02.2020
2745 Clouds -2 966 100 10000 3.6 200 00:58 12.02.2020
2746 Clouds -2 966 100 10000 3.6 200 00:58 12.02.2020
2747 Clouds -2 966 100 10000 3.6 200 00:39 12.02.2020
2748 Clouds -1 966 92 10000 5.1 200 00:21 12.02.2020
2749 Clouds -1 965 92 10000 4.6 210 23:42 11.02.2020
2750 Clouds -1 965 92 10000 5.1 200 23:24 11.02.2020
2751 Clouds -1 964 92 10000 4.1 210 22:56 11.02.2020
2752 Clouds -1 964 100 10000 4.1 210 22:38 11.02.2020
2753 Clouds -1 964 100 10000 4.1 210 22:19 11.02.2020
2754 Clouds -1 964 100 10000 3.6 210 21:56 11.02.2020
2755 Clouds -1 964 100 10000 3.6 210 21:56 11.02.2020
2756 Clouds -1 963 100 10000 4.6 220 21:37 11.02.2020
2757 Clouds -1 963 100 10000 4.6 220 21:18 11.02.2020
2758 Clouds -1 963 100 10000 4.6 220 21:18 11.02.2020
2759 Clouds -1 963 100 10000 4.6 220 21:18 11.02.2020
2760 Clouds -1 962 100 10000 7.2 220 20:55 11.02.2020
2761 Clouds 0 962 94 10000 6.7 220 20:37 11.02.2020
2762 Clouds 0 962 94 10000 6.7 220 20:18 11.02.2020
2763 Clouds 0 962 94 10000 5.7 220 19:42 11.02.2020
2764 Clouds 0 962 94 10000 6.7 210 19:24 11.02.2020
2765 Clouds 0 962 94 10000 6.7 210 19:24 11.02.2020
2766 Clouds 0 961 94 6000 5.1 210 18:57 11.02.2020
2767 Clouds 0 961 94 6000 5.1 210 18:57 11.02.2020
2768 Clouds 0 961 94 10000 5.1 220 18:39 11.02.2020
2769 Clouds 0 961 94 10000 5.1 220 18:20 11.02.2020
2770 Clouds 0 960 94 10000 5.7 220 17:55 11.02.2020
2771 Clouds 0 960 94 10000 5.7 220 17:36 11.02.2020
2772 Clouds 0 960 94 10000 5.7 220 17:18 11.02.2020
2773 Clouds 0 959 94 10000 5.7 220 16:56 11.02.2020
2774 Snow 0 959 94 1900 6.7 220 16:37 11.02.2020
2775 Snow 0 959 94 1900 6.7 220 16:19 11.02.2020
2776 Clouds 0 958 94 3800 5.7 220 15:44 11.02.2020
2777 Clouds 0 958 94 3800 5.7 230 15:26 11.02.2020
2778 Clouds 0 957 94 4500 5.7 230 14:55 11.02.2020
2779 Clouds 0 957 94 3000 5.7 220 14:36 11.02.2020
2780 Clouds 0 957 94 3000 5.7 220 14:36 11.02.2020
2781 Clouds 0 957 87 3000 5.7 220 14:18 11.02.2020
2782 Snow 0 956 87 1800 5.7 220 13:41 11.02.2020
2783 Snow 0 956 87 2000 5.7 220 13:21 11.02.2020
2784 Snow -1 955 100 5000 5.7 220 12:58 11.02.2020
2785 Snow -1 955 100 10000 5.7 220 12:40 11.02.2020
2786 Snow -1 955 100 10000 5.7 220 12:20 11.02.2020
2787 Snow -1 954 100 4000 6.2 220 11:42 11.02.2020
2788 Snow -1 954 100 10000 6.2 220 11:21 11.02.2020
2789 Clouds 0 953 93 10000 5.7 220 10:58 11.02.2020
2790 Clouds 0 953 93 10000 5.7 220 10:39 11.02.2020
2791 Clouds 0 953 93 10000 5.7 220 10:20 11.02.2020
2792 Clouds 0 952 93 10000 4.6 240 09:56 11.02.2020
2793 Clouds 0 951 93 10000 5.1 240 09:38 11.02.2020
2794 Clouds 0 951 93 10000 5.1 240 09:19 11.02.2020
2795 Snow 0 951 93 2000 4.6 230 08:44 11.02.2020
2796 Snow 0 950 95 1400 5.1 230 08:23 11.02.2020
2797 Snow 0 949 98 1500 4.6 220 07:48 11.02.2020
2798 Snow 0 949 98 1500 5.1 220 07:26 11.02.2020
2799 Fog 0 949 98 600 4.6 220 06:44 11.02.2020
2800 Clouds 0 948 98 1000 5.7 220 06:22 11.02.2020
2801 Clouds 0 948 98 2300 5.7 220 05:56 11.02.2020
2802 Snow 0 947 98 6000 4.6 200 05:24 11.02.2020
2803 Clouds 0 947 98 3300 4.1 190 04:42 11.02.2020
2804 Clouds 0 947 98 10000 4.1 190 03:21 11.02.2020
2805 Rain 0 946 98 7000 4.6 170 02:32 11.02.2020
2806 Rain 0 947 97 10000 4.6 170 01:38 11.02.2020
2807 Snow 0 947 97 10000 4.6 160 00:41 11.02.2020
2808 Snow 1 947 97 10000 4.6 150 23:59 10.02.2020
2809 Snow 1 947 97 10000 4.6 150 23:38 10.02.2020
2810 Rain 1 947 97 10000 4.6 160 23:20 10.02.2020
2811 Rain 1 947 100 10000 6.2 160 22:41 10.02.2020
2812 Rain 1 947 97 10000 5.7 150 22:20 10.02.2020
2813 Snow 1 947 97 6000 5.1 160 21:47 10.02.2020
2814 Snow 1 947 97 7000 5.7 160 21:27 10.02.2020
2815 Snow 1 947 97 10000 5.7 160 20:58 10.02.2020
2816 Snow 1 947 97 10000 5.7 160 20:58 10.02.2020
2817 Snow 1 947 97 10000 5.7 160 20:58 10.02.2020
2818 Snow 1 948 97 9000 6.2 160 20:40 10.02.2020
2819 Snow 1 948 98 9000 6.2 160 20:21 10.02.2020
2820 Snow 1 948 98 9000 6.2 160 20:21 10.02.2020
2821 Rain 1 948 98 10000 6.2 160 19:59 10.02.2020
2822 Rain 1 948 98 10000 6.2 160 19:39 10.02.2020
2823 Snow 1 948 98 10000 6.7 160 19:19 10.02.2020
2824 Rain 1 948 98 10000 6.7 160 18:59 10.02.2020
2825 Rain 1 948 98 10000 6.7 160 18:40 10.02.2020
2826 Rain 1 948 100 10000 6.7 160 18:21 10.02.2020
2827 Rain 1 949 100 10000 6.2 170 17:58 10.02.2020
2828 Rain 1 949 100 10000 6.2 170 17:38 10.02.2020
2829 Rain 2 949 93 10000 7.2 160 17:20 10.02.2020
2830 Rain 2 949 93 10000 7.2 170 16:59 10.02.2020
2831 Rain 2 949 93 10000 7.2 170 16:59 10.02.2020
2832 Rain 2 949 93 10000 7.2 170 16:40 10.02.2020
2833 Rain 2 949 93 10000 7.2 170 16:20 10.02.2020
2834 Rain 2 950 93 10000 6.7 170 15:56 10.02.2020
2835 Drizzle 2 950 93 6000 6.7 170 15:38 10.02.2020
2836 Drizzle 2 950 93 6000 6.7 170 15:20 10.02.2020
2837 Rain 1 950 100 6000 6.2 170 14:56 10.02.2020
2838 Drizzle 1 950 100 9000 7.2 170 14:37 10.02.2020
2839 Drizzle 1 950 100 9000 7.2 170 14:18 10.02.2020
2840 Drizzle 2 950 93 9000 7.7 180 13:42 10.02.2020
2841 Drizzle 2 950 93 9000 8.2 170 13:24 10.02.2020
2842 Rain 2 950 93 10000 7.7 180 12:51 10.02.2020
2843 Snow 1 951 95 4000 7.2 180 12:27 10.02.2020
2844 Snow 1 951 95 4000 8.2 170 11:56 10.02.2020
2845 Snow 1 951 95 4000 8.2 170 11:38 10.02.2020
2846 Snow 1 951 99 7000 8.2 160 11:20 10.02.2020
2847 Snow 1 951 99 7000 8.2 160 10:47 10.02.2020
2848 Snow 1 951 99 6000 7.2 160 10:28 10.02.2020
2849 Snow 0 952 99 7000 7.2 150 09:48 10.02.2020
2850 Snow 0 952 99 4000 7.7 160 09:26 10.02.2020
2851 Snow 0 953 99 7000 7.2 160 08:57 10.02.2020
2852 Snow 0 954 99 2800 6.7 150 08:37 10.02.2020
2853 Snow 0 954 99 2800 6.7 150 08:19 10.02.2020
2854 Snow 0 954 99 3000 6.2 150 07:50 10.02.2020
2855 Snow 0 955 99 2500 6.2 150 07:27 10.02.2020
2856 Clouds 0 957 99 6000 6.2 140 06:22 10.02.2020
2857 Snow 0 960 99 10000 6.7 150 04:42 10.02.2020
2858 Snow 0 963 99 5000 6.7 150 03:34 10.02.2020
2859 Snow 0 964 99 3300 6.2 150 02:54 10.02.2020
2860 Snow -1 966 100 1900 5.7 130 01:57 10.02.2020
2861 Snow -1 968 100 3800 5.7 130 00:51 10.02.2020
2862 Snow -1 970 100 4300 5.1 140 00:31 10.02.2020
2863 Snow -1 970 100 4300 5.1 140 00:31 10.02.2020
2864 Snow -1 971 100 4500 5.7 150 23:56 09.02.2020
2865 Snow -1 973 100 10000 6.7 170 23:38 09.02.2020
2866 Snow -1 973 100 10000 6.7 170 23:19 09.02.2020
2867 Clouds -1 975 100 10000 7.7 180 22:39 09.02.2020
2868 Clouds -1 975 100 10000 7.7 180 22:20 09.02.2020
2869 Snow -1 976 100 10000 8.2 190 21:42 09.02.2020
2870 Clouds -1 977 100 10000 8.7 190 21:23 09.02.2020
2871 Clouds 0 977 91 10000 8.2 190 20:48 09.02.2020
2872 Clouds 0 978 90 10000 10.3 200 20:27 09.02.2020
2873 Clouds 0 979 96 7000 10.3 200 19:58 09.02.2020
2874 Clouds 0 979 96 7000 10.3 200 19:39 09.02.2020
2875 Snow 0 979 96 3600 9.8 200 19:20 09.02.2020
2876 Snow 0 980 96 2500 7.7 190 18:54 09.02.2020
2877 Snow -1 981 100 2300 8.2 190 18:36 09.02.2020
2878 Snow -1 981 100 2300 8.2 190 18:18 09.02.2020
2879 Snow -1 982 100 7000 7.7 190 17:40 09.02.2020
2880 Snow -1 982 100 5000 8.7 200 17:21 09.02.2020
2881 Snow -1 983 100 2400 9.8 210 16:44 09.02.2020
2882 Snow -1 984 100 3700 8.2 210 16:24 09.02.2020
2883 Clouds -1 984 100 2500 7.7 210 15:59 09.02.2020
2884 Snow -1 985 100 10000 9.8 210 15:41 09.02.2020
2885 Clouds -1 984 100 2500 7.7 210 15:41 09.02.2020
2886 Snow -1 985 100 10000 9.8 210 15:21 09.02.2020
2887 Snow -1 985 100 10000 8.2 210 14:57 09.02.2020
2888 Snow -1 985 100 10000 8.2 210 14:38 09.02.2020
2889 Clouds -1 985 100 10000 7.7 210 14:20 09.02.2020
2890 Clouds -1 986 100 7000 8.2 210 13:44 09.02.2020
2891 Fog -1 986 100 600 8.2 210 13:26 09.02.2020
2892 Mist -1 986 100 1800 8.2 210 12:56 09.02.2020
2893 Mist -1 986 100 1800 8.2 210 12:37 09.02.2020
2894 Snow -1 986 100 6000 9.3 210 12:37 09.02.2020
2895 Snow -1 986 100 6000 9.3 210 12:18 09.02.2020
2896 Snow -1 986 100 6000 9.3 210 12:18 09.02.2020
2897 Snow -1 987 100 9000 9.8 210 11:41 09.02.2020
2898 Clouds -1 987 100 10000 9.3 210 11:20 09.02.2020
2899 Clouds -1 987 100 10000 7.7 210 10:57 09.02.2020
2900 Clouds -1 987 100 10000 7.7 210 10:38 09.02.2020
2901 Snow -1 988 100 10000 8.7 210 10:20 09.02.2020
2902 Clouds -1 988 100 10000 6.7 210 09:41 09.02.2020
2903 Snow -1 989 92 10000 9.3 210 09:22 09.02.2020
2904 Clouds -1 989 92 10000 8.2 200 08:45 09.02.2020
2905 Clouds -1 989 92 10000 8.2 200 08:45 09.02.2020
2906 Clouds -1 989 92 10000 8.2 210 08:26 09.02.2020
2907 Clouds -1 989 92 10000 7.7 200 07:58 09.02.2020
2908 Clouds -1 990 92 10000 7.7 200 07:34 09.02.2020
2909 Clouds -1 990 92 4200 7.2 210 06:45 09.02.2020
2910 Clouds -2 992 100 7000 7.2 210 05:57 09.02.2020
2911 Clouds -2 992 100 10000 7.2 210 05:35 09.02.2020
2912 Clouds -2 992 100 10000 6.7 210 04:54 09.02.2020
2913 Snow -2 993 100 2100 5.1 210 03:51 09.02.2020
2914 Clouds -2 994 100 900 5.1 220 02:44 09.02.2020
2915 Clouds -2 995 100 3800 4.1 220 01:55 09.02.2020
2916 Clouds -2 995 100 5000 6.2 220 01:34 09.02.2020
2917 Snow -1 995 92 2600 6.7 210 00:41 09.02.2020
2918 Snow -1 996 100 2400 5.1 210 00:18 09.02.2020
2919 Clouds -1 995 100 2700 6.2 210 23:42 08.02.2020
2920 Snow -1 996 100 2800 5.1 0 23:19 08.02.2020
2921 Snow -1 997 100 3200 5.1 210 22:41 08.02.2020
2922 Snow -1 997 100 3200 5.1 210 22:21 08.02.2020
2923 Snow -1 997 100 3200 6.7 200 21:58 08.02.2020
2924 Snow -1 997 100 3200 6.7 200 21:39 08.02.2020
2925 Snow -1 998 92 4000 5.1 200 21:19 08.02.2020
2926 Snow -1 998 92 10000 5.7 190 20:55 08.02.2020
2927 Snow -1 998 92 10000 5.7 190 20:55 08.02.2020
2928 Snow -1 999 92 10000 4.6 190 20:37 08.02.2020
2929 Snow -1 999 92 10000 4.6 190 20:18 08.02.2020
2930 Snow -1 999 92 10000 4.6 190 20:18 08.02.2020
2931 Snow -1 999 100 1500 6.7 210 19:41 08.02.2020
2932 Clouds -1 999 100 1900 7.2 210 19:20 08.02.2020
2933 Snow -1 1000 92 2000 7.2 210 18:59 08.02.2020
2934 Snow -1 1000 92 2000 7.2 210 18:41 08.02.2020
2935 Snow -2 1000 100 2700 7.2 210 18:22 08.02.2020
2936 Clouds -2 1000 100 1500 7.2 200 17:43 08.02.2020
2937 Snow -2 1001 100 700 6.2 200 17:21 08.02.2020
2938 Snow -2 1001 92 700 5.1 200 16:57 08.02.2020
2939 Clouds -2 1002 92 650 4.6 200 16:38 08.02.2020
2940 Clouds -2 1002 92 650 4.6 200 16:19 08.02.2020
2941 Snow -2 1002 92 500 6.2 210 15:41 08.02.2020
2942 Clouds -2 1002 92 400 5.7 210 15:19 08.02.2020
2943 Snow -3 1002 100 400 6.7 200 14:55 08.02.2020
2944 Clouds -3 1003 100 350 7.2 220 14:36 08.02.2020
2945 Clouds -3 1003 100 350 7.2 220 14:18 08.02.2020
2946 Snow -3 1003 100 300 6.7 210 13:41 08.02.2020
2947 Snow -3 1004 100 350 5.7 220 13:23 08.02.2020
2948 Clouds -3 1004 92 400 5.1 220 12:49 08.02.2020
2949 Clouds -3 1004 92 400 5.1 220 12:49 08.02.2020
2950 Fog -4 1004 100 350 6.2 220 12:24 08.02.2020
2951 Fog -4 1005 100 350 4.6 220 11:59 08.02.2020
2952 Fog -4 1005 100 350 4.6 220 11:40 08.02.2020
2953 Clouds -4 1005 92 350 5.1 220 11:20 08.02.2020
2954 Fog -6 1006 100 650 4.1 220 10:42 08.02.2020
2955 Fog -5 1005 92 300 6.2 210 10:42 08.02.2020
2956 Fog -6 1006 100 650 4.1 220 10:22 08.02.2020
2957 Fog -6 1006 100 650 4.1 220 10:22 08.02.2020
2958 Mist -5 1006 92 1200 4.6 210 09:53 08.02.2020
2959 Clouds -5 1006 92 10000 5.1 200 09:29 08.02.2020
2960 Clouds -6 1007 92 10000 4.1 200 08:56 08.02.2020
2961 Clouds -6 1007 92 10000 4.1 200 08:38 08.02.2020
2962 Clouds -5 1007 92 10000 3.6 190 08:20 08.02.2020
2963 Clouds -5 1007 92 10000 4.1 200 07:45 08.02.2020
2964 Clouds -6 1008 92 10000 4.1 180 07:23 08.02.2020
2965 Clouds -7 1008 92 10000 4.1 190 06:30 08.02.2020
2966 Clouds -8 1009 92 10000 4.6 210 05:48 08.02.2020
2967 Clouds -8 1009 85 8000 6.2 220 05:30 08.02.2020
2968 Clouds -8 1009 85 8000 6.2 220 05:30 08.02.2020
2969 Clouds -9 1010 92 10000 4.6 220 04:49 08.02.2020
2970 Clouds -9 1009 92 10000 2.1 110 03:52 08.02.2020
2971 Clouds -10 1009 92 10000 1 210 02:51 08.02.2020
2972 Clouds -9 1010 92 10000 1.5 190 01:53 08.02.2020
2973 Clouds -10 1010 85 10000 1.5 150 01:24 08.02.2020
2974 Clouds -11 1010 92 10000 1 250 00:39 08.02.2020
2975 Clouds -11 1010 92 10000 1 250 00:21 08.02.2020
2976 Clouds -10 1010 92 10000 3.1 250 23:45 07.02.2020
2977 Clear -10 1010 92 10000 3.6 250 23:21 07.02.2020
2978 Clear -9 1010 85 10000 3.1 260 22:58 07.02.2020
2979 Clear -9 1010 85 10000 3.1 260 22:39 07.02.2020
2980 Clear -10 1010 92 10000 3.1 260 22:19 07.02.2020
2981 Clear -9 1010 92 10000 3.6 250 21:43 07.02.2020
2982 Clear -10 1009 92 10000 2.1 260 21:22 07.02.2020
2983 Clear -8 1009 92 10000 3.1 260 20:55 07.02.2020
2984 Clear -8 1009 92 10000 4.1 270 20:37 07.02.2020
2985 Clouds -8 1009 92 10000 4.1 270 20:18 07.02.2020
2986 Clouds -8 1008 92 10000 3.1 260 19:40 07.02.2020
2987 Clouds -9 1008 92 10000 2.1 240 19:19 07.02.2020
2988 Clouds -8 1008 92 10000 2.1 270 18:55 07.02.2020
2989 Clouds -8 1008 92 10000 3.1 230 18:37 07.02.2020
2990 Clouds -8 1008 92 10000 3.1 230 18:18 07.02.2020
2991 Clouds -6 1007 92 10000 4.1 250 17:42 07.02.2020
2992 Clouds -6 1007 92 10000 4.1 250 17:21 07.02.2020
2993 Clouds -6 1007 92 10000 3.6 250 16:52 07.02.2020
2994 Clouds -6 1007 92 10000 3.6 240 16:25 07.02.2020
2995 Clouds -6 1007 100 10000 3.1 230 15:56 07.02.2020
2996 Clouds -6 1007 100 10000 3.1 230 15:56 07.02.2020
2997 Snow -6 1007 100 10000 4.1 230 15:38 07.02.2020
2998 Snow -6 1007 100 10000 4.1 230 15:20 07.02.2020
2999 Snow -6 1007 92 1800 4.1 230 14:42 07.02.2020
3000 Snow -6 1007 92 1200 5.7 230 14:24 07.02.2020
3001 Snow -6 1008 92 1400 5.1 220 13:57 07.02.2020
3002 Snow -6 1008 92 1400 5.1 220 13:39 07.02.2020
3003 Snow -6 1008 92 900 7.2 200 13:20 07.02.2020
3004 Snow -6 1008 92 1200 8.7 200 12:44 07.02.2020
3005 Snow -7 1009 92 3000 7.2 200 12:26 07.02.2020
3006 Snow -8 1009 92 2500 5.1 190 11:58 07.02.2020
3007 Snow -8 1009 92 2500 5.1 190 11:39 07.02.2020
3008 Snow -9 1011 92 1300 4.1 180 11:18 07.02.2020
3009 Snow -10 1011 92 1300 3.1 180 10:40 07.02.2020
3010 Snow -10 1012 92 2000 3.1 200 10:20 07.02.2020
3011 Snow -10 1012 85 10000 2.6 200 09:46 07.02.2020
3012 Clouds -11 1012 85 10000 3.1 200 09:26 07.02.2020
3013 Clouds -12 1013 92 10000 3.1 210 08:57 07.02.2020
3014 Clouds -12 1014 92 10000 3.1 210 08:37 07.02.2020
3015 Clouds -12 1014 92 10000 3.1 210 08:19 07.02.2020
3016 Clouds -13 1014 92 10000 4.1 220 07:40 07.02.2020
3017 Clouds -13 1014 92 10000 4.1 220 07:19 07.02.2020
3018 Clouds -13 1015 92 10000 4.6 220 06:43 07.02.2020
3019 Clouds -13 1015 84 10000 3.6 230 06:22 07.02.2020
3020 Clouds -13 1016 84 10000 3.1 230 05:43 07.02.2020
3021 Clouds -14 1017 92 10000 2.6 250 03:57 07.02.2020
3022 Clouds -15 1017 84 10000 2.6 250 02:28 07.02.2020
3023 Clouds -12 1018 85 10000 2.1 310 01:25 07.02.2020
3024 Clouds -11 1017 78 10000 5.1 330 00:37 07.02.2020
3025 Clouds -11 1017 78 10000 5.1 340 23:40 06.02.2020
3026 Clear -11 1017 78 10000 5.1 330 23:21 06.02.2020
3027 Clear -11 1017 78 10000 5.1 330 22:58 06.02.2020
3028 Clear -11 1017 78 10000 5.1 340 22:40 06.02.2020
3029 Clear -11 1017 78 10000 5.1 340 22:22 06.02.2020
3030 Clear -10 1016 78 10000 5.1 330 21:37 06.02.2020
3031 Clear -10 1016 78 10000 5.1 330 21:19 06.02.2020
3032 Clear -9 1015 72 10000 5.7 330 20:56 06.02.2020
3033 Clear -9 1015 72 10000 5.7 330 20:37 06.02.2020
3034 Clear -9 1015 72 10000 5.7 330 20:18 06.02.2020
3035 Clear -9 1014 72 10000 6.2 340 19:57 06.02.2020
3036 Clear -9 1014 72 10000 5.7 330 19:38 06.02.2020
3037 Clear -9 1014 72 10000 5.7 330 19:20 06.02.2020
3038 Clear -8 1013 72 10000 5.7 330 18:55 06.02.2020
3039 Clear -8 1013 72 10000 5.7 330 18:37 06.02.2020
3040 Clear -8 1013 72 10000 5.7 330 18:19 06.02.2020
3041 Clear -8 1012 72 10000 5.1 330 17:42 06.02.2020
3042 Clear -8 1012 72 10000 4.6 320 17:20 06.02.2020
3043 Clear -8 1012 72 10000 4.6 320 17:20 06.02.2020
3044 Clear -8 1011 78 10000 5.1 320 16:43 06.02.2020
3045 Clear -8 1010 78 10000 4.6 320 16:25 06.02.2020
3046 Clear -7 1010 73 10000 5.1 320 15:54 06.02.2020
3047 Clear -7 1009 73 10000 5.1 330 15:36 06.02.2020
3048 Clear -7 1009 73 10000 5.1 330 15:18 06.02.2020
3049 Snow -7 1008 73 10000 5.7 330 14:42 06.02.2020
3050 Snow -7 1007 73 10000 7.2 330 14:24 06.02.2020
3051 Snow -6 1006 67 10000 7.2 330 13:45 06.02.2020
3052 Clouds -7 1005 73 10000 6.7 330 13:26 06.02.2020
3053 Clouds -7 1004 73 10000 8.2 330 12:45 06.02.2020
3054 Clouds -7 1004 73 10000 7.7 320 12:20 06.02.2020
3055 Clear -7 1003 67 10000 8.2 320 11:59 06.02.2020
3056 Clear -7 1002 67 10000 8.2 320 11:41 06.02.2020
3057 Clear -7 1002 67 10000 8.2 320 11:22 06.02.2020
3058 Clear -8 1001 72 10000 6.2 310 10:58 06.02.2020
3059 Clear -8 1001 72 10000 6.2 310 10:40 06.02.2020
3060 Clear -8 1001 72 10000 6.2 300 10:21 06.02.2020
3061 Clear -8 1001 72 10000 6.2 310 09:57 06.02.2020
3062 Clear -8 1001 72 10000 6.2 310 09:57 06.02.2020
3063 Clear -8 1001 72 10000 6.2 310 09:38 06.02.2020
3064 Clear -9 1001 78 10000 5.1 310 09:19 06.02.2020
3065 Clear -10 1000 85 10000 2.6 300 08:43 06.02.2020
3066 Clear -11 1000 92 10000 3.1 320 08:23 06.02.2020
3067 Clear -10 1000 85 10000 3.6 340 07:52 06.02.2020
3068 Clouds -9 999 78 10000 4.6 330 07:29 06.02.2020
3069 Clouds -9 998 78 10000 5.1 320 06:47 06.02.2020
3070 Clear -11 998 78 10000 3.6 310 06:18 06.02.2020
3071 Clear -12 997 85 10000 4.6 280 05:22 06.02.2020
3072 Clear -13 997 84 10000 4.1 270 03:44 06.02.2020
3073 Clear -14 997 77 10000 3.6 250 02:58 06.02.2020
3074 Clear -16 997 91 10000 1.5 220 01:42 06.02.2020
3075 Clear -14 997 84 10000 2.1 270 00:59 06.02.2020
3076 Clear -14 997 84 10000 2.6 300 00:28 06.02.2020
3077 Clear -14 997 84 10000 3.1 300 23:50 05.02.2020
3078 Clear -14 996 84 10000 3.1 290 23:29 05.02.2020
3079 Clear -14 996 84 10000 3.1 310 22:59 05.02.2020
3080 Clear -14 996 84 10000 3.1 310 22:40 05.02.2020
3081 Clear -14 995 84 10000 4.6 320 22:22 05.02.2020
3082 Clear -14 995 84 10000 5.1 330 21:55 05.02.2020
3083 Clear -14 994 84 10000 4.1 330 21:36 05.02.2020
3084 Clear -14 994 84 10000 4.1 330 21:18 05.02.2020
3085 Clear -13 993 84 10000 4.1 320 20:39 05.02.2020
3086 Clouds -13 993 84 10000 4.1 320 20:20 05.02.2020
3087 Clouds -13 992 84 6000 4.1 310 19:58 05.02.2020
3088 Clouds -13 992 84 6000 4.1 310 19:40 05.02.2020
3089 Clouds -12 992 85 10000 4.6 320 19:19 05.02.2020
3090 Clouds -12 991 85 10000 4.6 320 18:56 05.02.2020
3091 Clouds -12 991 85 10000 3.6 320 18:38 05.02.2020
3092 Clouds -12 991 85 10000 3.6 320 18:18 05.02.2020
3093 Clouds -14 991 92 10000 1.5 260 17:38 05.02.2020
3094 Clouds -14 991 92 10000 1.5 260 17:38 05.02.2020
3095 Clouds -14 991 92 10000 1.5 260 17:19 05.02.2020
3096 Clouds -15 990 92 10000 3.1 270 16:57 05.02.2020
3097 Clouds -14 990 77 10000 2.1 240 16:38 05.02.2020
3098 Clouds -14 990 77 10000 2.1 240 16:19 05.02.2020
3099 Clouds -14 990 84 10000 2.6 240 15:42 05.02.2020
3100 Snow -14 990 84 10000 2.6 240 15:19 05.02.2020
3101 Fog -13 990 84 900 1.5 250 14:56 05.02.2020
3102 Fog -14 990 92 10000 3.6 230 14:37 05.02.2020
3103 Fog -14 990 92 10000 3.6 230 14:19 05.02.2020
3104 Fog -13 991 92 10000 3.6 230 13:42 05.02.2020
3105 Fog -13 991 84 10000 3.6 220 13:22 05.02.2020
3106 Fog -14 991 84 10000 3.6 210 12:44 05.02.2020
3107 Fog -15 992 84 10000 4.1 230 12:25 05.02.2020
3108 Fog -15 992 84 10000 5.1 220 11:59 05.02.2020
3109 Fog -15 992 84 10000 5.1 220 11:59 05.02.2020
3110 Clouds -16 993 91 10000 4.1 220 11:40 05.02.2020
3111 Clouds -16 993 91 10000 4.1 220 11:21 05.02.2020
3112 Fog -16 993 84 10000 4.1 230 10:43 05.02.2020
3113 Fog -17 994 91 10000 4.1 230 10:25 05.02.2020
3114 Fog -17 994 84 10000 5.1 220 09:59 05.02.2020
3115 Fog -18 994 84 10000 5.1 220 09:38 05.02.2020
3116 Fog -18 994 84 10000 5.1 220 09:20 05.02.2020
3117 Fog -17 995 84 10000 4.6 240 08:46 05.02.2020
3118 Fog -18 995 84 10000 2.6 230 08:24 05.02.2020
3119 Clear -18 996 84 10000 3.1 230 07:55 05.02.2020
3120 Clear -18 996 84 10000 2.6 240 07:34 05.02.2020
3121 Clear -17 997 84 10000 3.1 230 06:50 05.02.2020
3122 Clear -17 997 84 10000 3.1 230 06:23 05.02.2020
3123 Clear -18 997 84 10000 3.1 250 05:58 05.02.2020
3124 Clear -19 998 84 10000 3.1 240 05:19 05.02.2020
3125 Snow -17 998 84 2800 3.1 210 04:52 05.02.2020
3126 Clear -18 998 84 10000 2.6 240 03:52 05.02.2020
3127 Clear -17 998 84 10000 3.1 250 02:26 05.02.2020
3128 Clouds -17 998 91 10000 3.6 240 01:46 05.02.2020
3129 Clouds -16 998 84 10000 4.1 240 00:43 05.02.2020
3130 Clouds -16 998 84 10000 4.1 230 23:57 04.02.2020
3131 Clouds -15 998 84 10000 3.6 240 23:38 04.02.2020
3132 Clouds -15 998 84 10000 3.6 240 23:18 04.02.2020
3133 Clouds -15 998 84 10000 5.1 230 22:54 04.02.2020
3134 Clouds -15 998 92 10000 5.1 230 22:36 04.02.2020
3135 Clouds -15 998 92 10000 5.1 230 22:18 04.02.2020
3136 Clouds -15 998 92 10000 5.1 210 21:41 04.02.2020
3137 Clouds -15 998 92 10000 5.1 210 21:41 04.02.2020
3138 Clouds -15 998 92 10000 5.1 210 21:41 04.02.2020
3139 Clouds -16 998 84 10000 4.6 220 21:19 04.02.2020
3140 Clouds -15 998 84 10000 5.1 210 20:59 04.02.2020
3141 Clouds -15 998 84 10000 5.1 210 20:39 04.02.2020
3142 Clouds -16 998 91 10000 4.6 210 20:20 04.02.2020
3143 Clouds -16 998 91 10000 4.6 210 20:20 04.02.2020
3144 Clouds -15 998 84 10000 3.6 200 19:57 04.02.2020
3145 Clouds -16 999 91 10000 3.1 210 19:39 04.02.2020
3146 Clouds -16 999 91 10000 3.1 210 19:21 04.02.2020
3147 Clouds -15 999 84 10000 3.6 210 18:55 04.02.2020
3148 Clouds -15 999 84 10000 2.6 220 18:36 04.02.2020
3149 Clouds -15 999 84 10000 2.6 220 18:18 04.02.2020
3150 Clouds -16 999 91 10000 2.1 230 17:42 04.02.2020
3151 Clear -16 999 91 10000 2.1 230 17:20 04.02.2020
3152 Clear -15 999 84 10000 3.1 210 16:54 04.02.2020
3153 Clear -15 1000 84 10000 2.6 220 16:36 04.02.2020
3154 Clear -15 1000 84 10000 2.6 220 16:18 04.02.2020
3155 Clear -15 1000 84 10000 2.1 210 15:55 04.02.2020
3156 Clear -15 1000 84 10000 2.1 250 15:37 04.02.2020
3157 Clear -15 1000 84 10000 2.1 250 15:18 04.02.2020
3158 Clear -16 1000 84 10000 2.1 270 14:41 04.02.2020
3159 Clear -15 999 84 10000 2.1 250 14:20 04.02.2020
3160 Clear -17 999 84 10000 1.5 240 13:55 04.02.2020
3161 Clear -15 999 84 10000 2.1 260 13:36 04.02.2020
3162 Clear -15 999 84 10000 2.1 260 13:18 04.02.2020
3163 Clear -14 999 84 10000 1.5 240 12:42 04.02.2020
3164 Clear -14 999 84 10000 1.5 240 12:42 04.02.2020
3165 Clear -14 999 84 10000 1.5 240 12:42 04.02.2020
3166 Clear -15 999 84 10000 0.5 0 12:24 04.02.2020
3167 Clear -16 999 84 10000 1.5 260 11:57 04.02.2020
3168 Clear -17 998 91 10000 1 0 11:38 04.02.2020
3169 Clear -17 998 91 10000 1 0 11:19 04.02.2020
3170 Clear -14 998 84 10000 1 0 10:49 04.02.2020
3171 Clear -14 998 77 10000 1.5 290 10:26 04.02.2020
3172 Clear -14 998 84 10000 4.1 320 09:58 04.02.2020
3173 Clear -13 997 84 10000 5.1 340 09:39 04.02.2020
3174 Clear -13 997 84 10000 5.1 340 09:21 04.02.2020
3175 Clear -13 997 84 10000 5.7 340 08:46 04.02.2020
3176 Clear -13 997 78 10000 4.6 330 08:27 04.02.2020
3177 Clear -13 996 84 10000 5.1 340 07:53 04.02.2020
3178 Clear -13 996 84 10000 5.7 340 07:25 04.02.2020
3179 Clear -13 996 84 10000 5.7 340 07:25 04.02.2020
3180 Clear -13 996 84 10000 5.7 340 06:54 04.02.2020
3181 Clear -13 996 84 10000 5.7 340 06:36 04.02.2020
3182 Clear -13 995 84 10000 6.2 340 05:34 04.02.2020
3183 Clear -13 995 84 10000 6.2 340 05:34 04.02.2020
3184 Clear -13 995 84 10000 5.1 340 04:27 04.02.2020
3185 Clear -13 995 84 10000 5.7 330 03:47 04.02.2020
3186 Clear -13 995 84 10000 5.1 330 03:29 04.02.2020
3187 Clear -13 995 84 10000 4.6 340 02:38 04.02.2020
3188 Clear -13 995 84 10000 5.1 330 02:18 04.02.2020
3189 Clear -12 994 85 10000 4.6 330 01:44 04.02.2020
3190 Clear -12 994 85 10000 5.1 330 00:55 04.02.2020
3191 Clear -11 994 85 10000 5.1 330 00:23 04.02.2020
3192 Clear -11 994 85 10000 4.6 330 23:45 03.02.2020
3193 Clear -11 993 85 10000 5.1 330 23:26 03.02.2020
3194 Clear -11 993 85 10000 5.7 330 22:54 03.02.2020
3195 Clear -11 993 85 10000 5.1 330 22:36 03.02.2020
3196 Clear -11 993 85 10000 5.1 330 22:18 03.02.2020
3197 Clear -11 993 92 10000 5.1 330 21:41 03.02.2020
3198 Clear -11 993 92 10000 5.1 330 21:19 03.02.2020
3199 Clear -11 993 92 10000 5.1 330 21:19 03.02.2020
3200 Clear -10 992 85 10000 4.6 330 20:42 03.02.2020
3201 Clear -10 992 85 10000 4.1 330 20:20 03.02.2020
3202 Clear -10 992 85 10000 5.1 330 19:59 03.02.2020
3203 Clear -10 992 85 10000 5.1 330 19:40 03.02.2020
3204 Clear -10 992 85 10000 4.6 330 19:21 03.02.2020
3205 Clear -9 991 85 10000 5.7 330 18:57 03.02.2020
3206 Clear -9 991 85 10000 5.7 330 18:38 03.02.2020
3207 Clear -9 991 85 10000 5.7 330 18:20 03.02.2020
3208 Clear -9 991 85 10000 5.7 330 18:20 03.02.2020
3209 Clear -9 991 85 10000 5.1 330 17:40 03.02.2020
3210 Clear -8 990 78 10000 5.7 330 17:20 03.02.2020
3211 Clear -8 990 78 10000 5.7 330 16:59 03.02.2020
3212 Clear -8 990 78 10000 5.7 330 16:39 03.02.2020
3213 Clear -8 990 85 10000 5.1 330 16:20 03.02.2020
3214 Clear -7 989 79 10000 5.7 330 15:56 03.02.2020
3215 Clear -7 989 79 10000 5.1 330 15:37 03.02.2020
3216 Clear -7 989 79 10000 5.1 330 15:37 03.02.2020
3217 Clear -7 989 79 10000 5.1 330 15:19 03.02.2020
3218 Clear -7 989 79 10000 5.1 340 14:42 03.02.2020
3219 Clear -6 988 73 10000 6.2 330 14:24 03.02.2020
3220 Clear -6 988 73 10000 6.2 330 14:24 03.02.2020
3221 Clouds -6 988 79 10000 6.7 330 13:57 03.02.2020
3222 Clouds -6 988 79 10000 6.7 330 13:39 03.02.2020
3223 Clear -6 988 79 10000 6.2 330 13:19 03.02.2020
3224 Clear -6 987 79 10000 6.2 330 12:55 03.02.2020
3225 Clear -6 987 85 10000 6.2 330 12:36 03.02.2020
3226 Clear -6 987 85 10000 6.2 330 12:18 03.02.2020
3227 Clear -6 986 85 10000 6.2 340 11:38 03.02.2020
3228 Clouds -6 986 85 10000 6.2 340 11:19 03.02.2020
3229 Clouds -6 986 85 10000 5.7 330 10:57 03.02.2020
3230 Clouds -6 986 85 10000 5.7 330 10:38 03.02.2020
3231 Clouds -6 986 85 10000 5.7 330 10:38 03.02.2020
3232 Clouds -6 985 85 10000 5.7 330 10:19 03.02.2020
3233 Clouds -5 984 79 10000 6.7 340 09:39 03.02.2020
3234 Clouds -5 984 79 10000 6.7 340 09:19 03.02.2020
3235 Clouds -5 984 79 10000 6.7 340 09:19 03.02.2020
3236 Clouds -5 983 79 10000 7.2 330 08:41 03.02.2020
3237 Clouds -5 983 79 10000 7.2 330 08:22 03.02.2020
3238 Clouds -5 983 85 10000 7.2 330 07:43 03.02.2020
3239 Clouds -5 982 85 10000 7.2 330 07:23 03.02.2020
3240 Clouds -5 982 85 10000 7.2 330 06:57 03.02.2020
3241 Clouds -5 982 85 10000 7.2 330 06:31 03.02.2020
3242 Clouds -5 981 79 10000 6.2 330 05:55 03.02.2020
3243 Clouds -6 981 85 10000 5.7 330 05:33 03.02.2020
3244 Clouds -8 981 92 10000 4.6 330 04:45 03.02.2020
3245 Clouds -8 981 92 10000 4.6 330 04:45 03.02.2020
3246 Clouds -9 980 85 10000 4.1 320 02:48 03.02.2020
3247 Clouds -9 980 85 10000 4.1 320 02:48 03.02.2020
3248 Clouds -10 980 85 10000 3.6 340 02:27 03.02.2020
3249 Clouds -11 980 92 10000 3.6 330 00:49 03.02.2020
3250 Clouds -11 980 92 10000 4.1 330 00:27 03.02.2020
3251 Snow -11 979 92 10000 4.6 330 23:56 02.02.2020
3252 Snow -11 979 85 10000 4.6 330 23:36 02.02.2020
3253 Snow -11 979 85 10000 4.6 330 23:18 02.02.2020
3254 Clouds -11 979 85 10000 3.6 340 22:39 02.02.2020
3255 Clouds -11 979 85 10000 3.6 340 22:39 02.02.2020
3256 Snow -11 979 85 10000 3.6 340 22:39 02.02.2020
3257 Snow -11 979 85 10000 3.6 340 22:21 02.02.2020
3258 Snow -11 979 85 10000 4.1 330 21:58 02.02.2020
3259 Snow -11 979 85 10000 4.1 330 21:39 02.02.2020
3260 Clouds -11 979 85 10000 3.6 330 21:20 02.02.2020
3261 Clouds -11 978 85 10000 3.6 330 20:57 02.02.2020
3262 Clouds -11 978 85 10000 3.6 330 20:39 02.02.2020
3263 Snow -11 978 85 10000 3.6 340 20:20 02.02.2020
3264 Snow -11 978 85 10000 3.6 330 19:57 02.02.2020
3265 Snow -11 978 85 10000 2.6 340 19:38 02.02.2020
3266 Snow -11 978 85 10000 2.6 340 19:20 02.02.2020
3267 Snow -11 978 85 10000 3.1 340 18:55 02.02.2020
3268 Snow -11 978 85 10000 3.1 350 18:36 02.02.2020
3269 Snow -11 978 85 10000 3.1 350 18:36 02.02.2020
3270 Snow -11 978 85 10000 3.1 350 18:18 02.02.2020
3271 Snow -11 977 85 10000 2.6 340 17:56 02.02.2020
3272 Snow -11 977 92 10000 2.6 360 17:37 02.02.2020
3273 Snow -11 977 92 10000 2.6 360 17:18 02.02.2020
3274 Snow -11 977 92 8000 3.1 10 16:56 02.02.2020
3275 Snow -11 977 85 10000 2.6 10 16:37 02.02.2020
3276 Snow -11 977 85 10000 2.6 10 16:18 02.02.2020
3277 Snow -11 977 85 10000 2.6 10 15:40 02.02.2020
3278 Snow -11 977 85 10000 2.6 10 15:40 02.02.2020
3279 Snow -11 976 85 10000 2.6 20 15:20 02.02.2020
3280 Snow -11 976 92 10000 3.1 20 14:59 02.02.2020
3281 Snow -11 976 92 10000 3.1 20 14:41 02.02.2020
3282 Snow -11 976 92 6000 3.6 30 14:18 02.02.2020
3283 Snow -10 976 85 3100 4.1 50 13:58 02.02.2020
3284 Snow -10 976 85 4300 4.1 50 13:38 02.02.2020
3285 Snow -10 976 85 4300 4.1 50 13:19 02.02.2020
3286 Snow -10 976 85 5000 4.1 50 12:46 02.02.2020
3287 Snow -10 976 85 10000 4.1 60 12:23 02.02.2020
3288 Snow -10 976 92 7000 4.6 70 11:59 02.02.2020
3289 Snow -10 976 92 7000 4.6 70 11:41 02.02.2020
3290 Snow -10 975 92 4100 4.6 70 11:19 02.02.2020
3291 Snow -10 975 92 3500 4.6 80 10:56 02.02.2020
3292 Snow -10 975 92 2200 4.6 80 10:37 02.02.2020
3293 Snow -10 975 92 2200 4.6 80 10:19 02.02.2020
3294 Snow -10 975 92 10000 4.6 80 09:55 02.02.2020
3295 Clouds -9 975 85 10000 4.6 90 09:37 02.02.2020
3296 Clouds -9 975 85 10000 4.6 90 09:19 02.02.2020
3297 Clouds -9 975 85 10000 5.1 100 08:42 02.02.2020
3298 Clouds -9 975 85 10000 5.7 90 08:24 02.02.2020
3299 Clouds -9 975 85 10000 5.7 90 08:24 02.02.2020
3300 Clouds -9 975 85 10000 5.7 90 08:24 02.02.2020
3301 Snow -9 975 85 8000 5.1 90 07:46 02.02.2020
3302 Snow -9 975 85 10000 5.7 90 07:28 02.02.2020
3303 Clouds -9 975 85 10000 5.7 100 06:43 02.02.2020
3304 Snow -9 975 85 10000 5.7 100 06:25 02.02.2020
3305 Snow -9 976 85 10000 5.1 90 05:47 02.02.2020
3306 Snow -9 976 85 10000 5.1 90 05:47 02.02.2020
3307 Snow -9 976 92 10000 5.1 100 04:47 02.02.2020
3308 Snow -9 977 92 4100 6.2 110 03:26 02.02.2020
3309 Snow -8 977 85 7000 6.7 110 02:31 02.02.2020
3310 Snow -8 978 85 4100 6.2 110 01:54 02.02.2020
3311 Snow -8 978 85 5000 7.2 110 01:22 02.02.2020
3312 Snow -9 978 92 5000 6.7 110 00:43 02.02.2020
3313 Snow -9 979 92 3900 6.7 110 00:22 02.02.2020
3314 Snow -9 979 92 3100 6.2 110 23:46 01.02.2020
3315 Snow -9 979 85 4100 6.7 110 23:21 01.02.2020
3316 Snow -9 979 85 4700 7.2 110 22:51 01.02.2020
3317 Snow -9 980 85 5000 6.7 110 22:20 01.02.2020
3318 Snow -9 980 85 5000 6.7 110 22:20 01.02.2020
3319 Snow -9 980 85 5000 6.7 110 21:57 01.02.2020
3320 Snow -9 980 85 5000 7.2 110 21:38 01.02.2020
3321 Snow -9 980 85 5000 7.2 110 21:18 01.02.2020
3322 Snow -9 981 85 4500 7.7 110 20:40 01.02.2020
3323 Snow -9 981 85 4600 7.2 110 20:20 01.02.2020
3324 Snow -9 982 85 2600 7.7 120 19:57 01.02.2020
3325 Snow -9 982 85 2600 7.7 120 19:38 01.02.2020
3326 Snow -9 982 85 3300 8.2 120 19:19 01.02.2020
3327 Snow -9 983 85 3400 8.2 110 18:57 01.02.2020
3328 Snow -9 983 85 3400 8.2 110 18:38 01.02.2020
3329 Snow -9 983 85 10000 7.2 110 18:20 01.02.2020
3330 Snow -10 984 85 10000 6.7 110 17:56 01.02.2020
3331 Snow -10 984 85 10000 7.2 110 17:38 01.02.2020
3332 Snow -10 984 85 10000 7.2 110 17:19 01.02.2020
3333 Snow -10 985 85 10000 7.7 110 16:42 01.02.2020
3334 Snow -10 985 85 10000 7.7 110 16:23 01.02.2020
3335 Snow -11 986 92 10000 7.2 110 15:56 01.02.2020
3336 Snow -11 986 85 10000 7.7 110 15:38 01.02.2020
3337 Snow -11 986 85 10000 7.7 110 15:18 01.02.2020
3338 Snow -11 986 85 10000 7.7 110 15:18 01.02.2020
3339 Snow -11 987 85 2800 7.7 110 14:40 01.02.2020
3340 Snow -11 987 85 5000 7.7 120 14:21 01.02.2020
3341 Snow -12 988 85 10000 8.2 110 13:45 01.02.2020
3342 Snow -12 988 85 10000 8.7 110 13:24 01.02.2020
3343 Snow -12 989 85 10000 8.2 110 12:57 01.02.2020
3344 Snow -12 989 85 5000 7.2 110 12:38 01.02.2020
3345 Snow -12 989 85 5000 7.2 110 12:20 01.02.2020
3346 Snow -13 990 84 10000 7.7 110 11:42 01.02.2020
3347 Snow -13 990 84 4500 7.2 110 11:23 01.02.2020
3348 Snow -13 991 84 3400 7.2 120 10:58 01.02.2020
3349 Snow -13 991 84 3400 7.2 120 10:39 01.02.2020
3350 Snow -13 991 84 2100 7.2 120 10:21 01.02.2020
3351 Snow -13 991 84 6000 6.2 110 09:58 01.02.2020
3352 Snow -13 992 84 7000 7.2 120 09:39 01.02.2020
3353 Snow -13 992 84 7000 7.2 120 09:20 01.02.2020
3354 Snow -13 992 84 10000 7.7 120 08:46 01.02.2020
3355 Snow -13 993 84 6000 4.6 100 07:50 01.02.2020
3356 Snow -14 993 92 9000 5.7 110 07:27 01.02.2020
3357 Snow -14 994 92 6000 7.2 110 06:56 01.02.2020
3358 Snow -14 994 92 6000 7.2 110 06:56 01.02.2020
3359 Snow -13 994 84 6000 6.7 110 06:33 01.02.2020
3360 Snow -13 995 84 8000 5.1 120 05:52 01.02.2020
3361 Snow -13 996 84 10000 7.2 110 03:56 01.02.2020
3362 Snow -13 997 84 10000 7.2 110 03:21 01.02.2020
3363 Snow -13 997 84 10000 6.2 120 02:46 01.02.2020
3364 Snow -12 997 78 10000 6.7 120 02:27 01.02.2020
3365 Snow -12 998 78 10000 9.3 120 01:54 01.02.2020
3366 Snow -12 998 85 10000 8.2 120 01:31 01.02.2020
3367 Snow -11 999 85 10000 6.2 120 00:30 01.02.2020
3368 Snow -11 999 85 10000 7.7 120 23:43 31.01.2020
3369 Snow -10 999 78 9000 7.2 120 23:21 31.01.2020
3370 Snow -10 999 78 10000 8.2 110 22:59 31.01.2020
3371 Snow -10 999 85 9000 6.7 120 22:41 31.01.2020
3372 Snow -10 999 85 9000 6.7 120 22:22 31.01.2020
3373 Snow -10 999 85 9000 7.7 110 21:57 31.01.2020
3374 Snow -10 999 85 9000 7.7 110 21:39 31.01.2020
3375 Snow -10 1000 85 5000 7.7 120 21:19 31.01.2020
3376 Snow -10 1000 85 5000 6.7 120 20:56 31.01.2020
3377 Snow -10 1000 85 5000 6.7 120 20:56 31.01.2020
3378 Snow -10 1000 85 5000 6.7 120 20:38 31.01.2020
3379 Snow -10 1000 85 5000 6.7 120 20:19 31.01.2020
3380 Snow -9 1000 78 10000 5.7 120 19:56 31.01.2020
3381 Snow -9 1000 78 10000 6.2 120 19:37 31.01.2020
3382 Snow -9 1000 78 10000 6.2 120 19:18 31.01.2020
3383 Snow -9 1000 85 10000 6.2 120 18:41 31.01.2020
3384 Snow -9 1000 78 10000 6.7 110 18:23 31.01.2020
3385 Snow -10 1001 85 10000 5.1 110 17:54 31.01.2020
3386 Snow -10 1001 85 10000 6.7 110 17:36 31.01.2020
3387 Snow -10 1001 85 10000 6.7 110 17:36 31.01.2020
3388 Snow -10 1001 85 10000 6.7 110 17:18 31.01.2020
3389 Snow -10 1001 85 10000 6.2 110 16:54 31.01.2020
3390 Snow -10 1001 85 10000 6.2 110 16:54 31.01.2020
3391 Snow -10 1001 85 10000 5.7 110 16:36 31.01.2020
3392 Snow -10 1001 85 10000 5.7 110 16:18 31.01.2020
3393 Snow -10 1002 85 10000 4.6 120 15:41 31.01.2020
3394 Snow -10 1002 85 10000 4.6 120 15:21 31.01.2020
3395 Snow -10 1002 85 9000 4.6 110 14:55 31.01.2020
3396 Snow -10 1002 85 5000 5.7 110 14:36 31.01.2020
3397 Snow -10 1002 85 5000 5.7 110 14:36 31.01.2020
3398 Snow -10 1002 85 5000 5.7 110 14:18 31.01.2020
3399 Snow -10 1002 85 5000 5.7 110 13:43 31.01.2020
3400 Snow -10 1002 85 10000 5.7 110 13:24 31.01.2020
3401 Snow -10 1002 85 7000 5.7 110 12:45 31.01.2020
3402 Snow -10 1002 85 6000 5.7 110 12:24 31.01.2020
3403 Snow -10 1002 85 10000 6.7 110 11:56 31.01.2020
3404 Snow -10 1002 85 8000 7.2 110 11:37 31.01.2020
3405 Snow -10 1002 85 8000 7.2 110 11:19 31.01.2020
3406 Snow -10 1002 85 2000 6.7 100 10:44 31.01.2020
3407 Snow -10 1002 85 2000 6.7 100 10:44 31.01.2020
3408 Snow -10 1002 85 1400 6.2 100 10:23 31.01.2020
3409 Snow -10 1002 85 1500 5.7 100 09:59 31.01.2020
3410 Snow -10 1002 85 1500 5.7 100 09:41 31.01.2020
3411 Snow -10 1002 85 7000 7.2 110 09:21 31.01.2020
3412 Snow -10 1002 85 7000 7.7 110 08:54 31.01.2020
3413 Snow -10 1002 85 7000 7.7 110 08:54 31.01.2020
3414 Snow -10 1002 85 8000 7.7 110 08:28 31.01.2020
3415 Snow -9 1002 85 4000 7.2 110 07:59 31.01.2020
3416 Snow -9 1002 85 4000 7.2 110 07:40 31.01.2020
3417 Snow -9 1002 85 8000 7.2 110 07:18 31.01.2020
3418 Snow -9 1002 85 6000 8.2 100 06:31 31.01.2020
3419 Snow -9 1002 85 2200 8.2 100 05:53 31.01.2020
3420 Snow -9 1002 85 5000 8.2 100 05:18 31.01.2020
3421 Snow -9 1002 92 3600 7.2 100 03:47 31.01.2020
3422 Snow -9 1003 85 10000 7.2 110 01:44 31.01.2020
3423 Snow -9 1003 85 10000 6.7 110 00:47 31.01.2020
3424 Snow -9 1004 85 10000 7.2 110 00:29 31.01.2020
3425 Snow -9 1004 85 8000 7.7 110 23:58 30.01.2020
3426 Snow -9 1003 85 3600 7.2 100 23:26 30.01.2020
3427 Snow -8 1004 85 10000 8.2 100 22:58 30.01.2020
3428 Snow -8 1004 85 7000 7.2 100 22:38 30.01.2020
3429 Snow -8 1004 85 7000 7.2 100 22:19 30.01.2020
3430 Snow -8 1004 85 10000 7.7 100 21:57 30.01.2020
3431 Snow -8 1004 85 10000 7.7 100 21:39 30.01.2020
3432 Snow -8 1004 85 1200 7.2 100 21:18 30.01.2020
3433 Snow -8 1004 85 1200 7.2 100 21:18 30.01.2020
3434 Snow -8 1004 85 1200 7.2 100 21:18 30.01.2020
3435 Snow -8 1004 85 10000 7.7 100 20:42 30.01.2020
3436 Snow -8 1004 85 10000 7.7 100 20:22 30.01.2020
3437 Snow -8 1004 85 10000 7.7 100 19:58 30.01.2020
3438 Snow -8 1004 85 10000 7.2 100 19:40 30.01.2020
3439 Snow -8 1004 85 10000 7.2 100 19:19 30.01.2020
3440 Snow -8 1005 85 10000 7.7 100 18:42 30.01.2020
3441 Snow -8 1005 85 6000 7.2 100 18:23 30.01.2020
3442 Snow -8 1005 85 6000 6.2 100 17:58 30.01.2020
3443 Snow -8 1005 85 7000 7.7 100 17:39 30.01.2020
3444 Snow -8 1005 85 7000 7.7 100 17:19 30.01.2020
3445 Snow -8 1005 92 6000 8.2 100 16:58 30.01.2020
3446 Snow -8 1005 92 6000 8.2 100 16:39 30.01.2020
3447 Clouds -8 1005 92 10000 7.7 100 16:20 30.01.2020
3448 Snow -8 1005 92 10000 8.7 100 15:44 30.01.2020
3449 Snow -8 1006 92 10000 7.2 100 15:20 30.01.2020
3450 Clouds -8 1006 92 10000 7.7 100 14:50 30.01.2020
3451 Clouds -8 1006 92 10000 7.7 100 14:27 30.01.2020
3452 Clouds -7 1006 85 10000 7.2 100 13:59 30.01.2020
3453 Clouds -7 1006 85 10000 7.2 100 13:39 30.01.2020
3454 Clouds -8 1006 92 10000 7.2 100 13:20 30.01.2020
3455 Clouds -8 1006 85 10000 7.7 100 12:43 30.01.2020
3456 Clouds -8 1006 85 10000 7.7 100 12:25 30.01.2020
3457 Clouds -8 1006 85 10000 7.7 100 11:59 30.01.2020
3458 Clouds -8 1006 85 10000 7.7 100 11:40 30.01.2020
3459 Clouds -9 1007 92 10000 7.7 100 11:21 30.01.2020
3460 Clouds -9 1007 85 10000 7.7 100 10:43 30.01.2020
3461 Clouds -9 1007 85 10000 7.7 100 10:25 30.01.2020
3462 Clouds -9 1007 85 10000 7.2 100 09:56 30.01.2020
3463 Clouds -9 1007 85 10000 7.7 100 09:37 30.01.2020
3464 Clouds -9 1007 85 10000 7.7 100 09:19 30.01.2020
3465 Clouds -9 1007 85 10000 7.2 100 08:42 30.01.2020
3466 Clouds -9 1007 85 10000 6.7 100 08:22 30.01.2020
3467 Clouds -9 1007 85 10000 6.2 100 07:52 30.01.2020
3468 Clouds -9 1007 85 10000 6.2 100 07:52 30.01.2020
3469 Clouds -9 1007 85 10000 6.7 100 07:32 30.01.2020
3470 Clouds -9 1007 85 10000 5.1 100 06:47 30.01.2020
3471 Clouds -9 1007 85 10000 5.7 100 06:29 30.01.2020
3472 Clouds -9 1007 85 10000 6.2 100 05:47 30.01.2020
3473 Snow -9 1007 85 10000 5.7 100 05:24 30.01.2020
3474 Clouds -9 1007 85 10000 6.2 100 03:55 30.01.2020
3475 Snow -9 1007 85 10000 6.2 100 03:37 30.01.2020
3476 Snow -9 1007 85 10000 5.7 100 02:47 30.01.2020
3477 Snow -9 1007 92 10000 6.2 100 00:43 30.01.2020
3478 Snow -9 1007 92 3800 6.2 100 00:21 30.01.2020
3479 Snow -9 1007 92 5000 6.2 100 23:47 29.01.2020
3480 Snow -9 1007 92 5000 6.2 100 23:47 29.01.2020
3481 Snow -9 1007 92 10000 5.7 100 23:22 29.01.2020
3482 Snow -8 1007 85 10000 6.2 100 22:57 29.01.2020
3483 Snow -8 1007 85 10000 6.2 100 22:39 29.01.2020
3484 Snow -9 1007 92 10000 6.7 100 22:19 29.01.2020
3485 Snow -9 1007 92 9000 6.2 100 21:58 29.01.2020
3486 Snow -9 1007 92 9000 6.2 100 21:38 29.01.2020
3487 Snow -9 1007 92 9000 5.7 100 21:19 29.01.2020
3488 Snow -9 1007 92 9000 5.7 100 21:19 29.01.2020
3489 Snow -9 1007 92 9000 5.1 90 20:58 29.01.2020
3490 Snow -9 1007 92 9000 5.1 90 20:58 29.01.2020
3491 Snow -9 1006 92 2200 4.6 100 20:38 29.01.2020
3492 Snow -9 1006 92 2200 4.6 100 20:38 29.01.2020
3493 Snow -9 1006 92 2200 4.6 100 20:38 29.01.2020
3494 Snow -9 1006 92 2200 4.6 100 20:19 29.01.2020
3495 Snow -9 1006 92 2200 4.6 100 20:19 29.01.2020
3496 Snow -9 1006 92 5000 5.1 90 19:55 29.01.2020
3497 Snow -9 1006 92 9000 5.7 90 19:37 29.01.2020
3498 Snow -9 1006 92 9000 5.7 90 19:18 29.01.2020
3499 Snow -9 1006 92 10000 5.7 90 18:43 29.01.2020
3500 Snow -9 1006 85 10000 5.1 90 18:19 29.01.2020
3501 Snow -9 1006 85 10000 5.7 90 17:56 29.01.2020
3502 Snow -9 1006 85 10000 5.1 90 17:37 29.01.2020
3503 Snow -9 1006 85 10000 5.1 90 17:37 29.01.2020
3504 Snow -9 1006 85 10000 5.1 90 17:19 29.01.2020
3505 Snow -9 1006 85 9000 5.1 90 16:41 29.01.2020
3506 Snow -9 1006 85 9000 5.1 90 16:22 29.01.2020
3507 Snow -9 1006 85 3300 4.6 90 15:41 29.01.2020
3508 Snow -9 1006 85 10000 5.1 90 15:23 29.01.2020
3509 Snow -9 1006 85 10000 4.6 90 14:59 29.01.2020
3510 Snow -9 1006 85 10000 4.6 90 14:40 29.01.2020
3511 Snow -9 1006 85 10000 4.6 90 14:19 29.01.2020
3512 Snow -9 1006 85 9000 4.6 90 13:41 29.01.2020
3513 Snow -10 1006 92 10000 5.1 90 13:22 29.01.2020
3514 Snow -10 1005 85 10000 5.7 90 12:58 29.01.2020
3515 Snow -10 1005 85 10000 5.7 90 12:39 29.01.2020
3516 Clouds -10 1005 85 10000 5.1 80 12:21 29.01.2020
3517 Clouds -10 1005 85 10000 5.7 90 11:56 29.01.2020
3518 Clouds -10 1005 85 10000 6.7 90 11:38 29.01.2020
3519 Clouds -10 1005 85 10000 6.7 90 11:38 29.01.2020
3520 Clouds -10 1005 85 10000 6.7 90 11:19 29.01.2020
3521 Snow -10 1005 85 10000 6.2 80 10:46 29.01.2020
3522 Snow -10 1005 85 10000 5.7 80 10:22 29.01.2020
3523 Snow -11 1005 85 10000 5.1 80 09:40 29.01.2020
3524 Snow -11 1005 85 10000 5.1 80 09:22 29.01.2020
3525 Snow -11 1005 85 10000 5.1 70 08:59 29.01.2020
3526 Snow -11 1005 85 10000 5.1 70 08:40 29.01.2020
3527 Snow -11 1005 85 10000 4.6 70 08:22 29.01.2020
3528 Snow -11 1005 85 10000 4.6 80 07:45 29.01.2020
3529 Snow -11 1004 85 10000 5.7 90 07:25 29.01.2020
3530 Snow -11 1004 85 10000 6.2 80 06:55 29.01.2020
3531 Snow -11 1004 85 10000 6.2 80 06:37 29.01.2020
3532 Snow -11 1004 85 10000 6.2 80 06:18 29.01.2020
3533 Snow -11 1004 85 10000 5.7 90 05:45 29.01.2020
3534 Snow -11 1004 85 10000 5.7 80 05:26 29.01.2020
3535 Snow -11 1004 85 10000 5.7 90 04:38 29.01.2020
3536 Snow -11 1003 85 10000 6.2 80 03:49 29.01.2020
3537 Clouds -12 1004 85 10000 5.7 80 02:33 29.01.2020
3538 Snow -12 1004 92 10000 6.2 80 00:43 29.01.2020
3539 Snow -11 1004 85 10000 5.1 70 00:25 29.01.2020
3540 Snow -11 1004 85 10000 4.6 80 23:58 28.01.2020
3541 Snow -11 1004 85 9000 3.6 90 23:37 28.01.2020
3542 Snow -11 1004 85 9000 3.6 90 23:18 28.01.2020
3543 Snow -11 1003 85 10000 5.1 80 22:40 28.01.2020
3544 Snow -11 1003 85 8000 6.7 80 22:21 28.01.2020
3545 Snow -11 1003 85 8000 5.7 80 21:42 28.01.2020
3546 Snow -11 1003 92 5000 5.1 80 21:23 28.01.2020
3547 Snow -11 1003 92 5000 5.1 80 21:23 28.01.2020
3548 Snow -11 1003 92 4700 5.7 80 20:58 28.01.2020
3549 Snow -11 1003 92 4700 5.7 80 20:40 28.01.2020
3550 Snow -11 1003 92 5000 5.1 90 20:21 28.01.2020
3551 Snow -11 1003 92 5000 5.7 80 19:39 28.01.2020
3552 Snow -11 1003 92 5000 5.7 80 19:20 28.01.2020
3553 Snow -11 1003 92 5000 5.7 80 18:58 28.01.2020
3554 Snow -11 1003 92 5000 5.7 80 18:58 28.01.2020
3555 Snow -11 1003 92 5000 6.2 80 18:39 28.01.2020
3556 Snow -11 1003 92 5000 6.2 80 18:21 28.01.2020
3557 Snow -11 1003 92 4800 5.7 80 17:57 28.01.2020
3558 Snow -11 1003 92 2900 5.7 80 17:37 28.01.2020
3559 Snow -11 1003 92 2900 5.7 80 17:19 28.01.2020
3560 Snow -11 1003 85 3900 6.2 80 16:46 28.01.2020
3561 Snow -11 1003 85 7000 6.2 70 16:27 28.01.2020
3562 Snow -11 1003 85 3800 5.7 80 15:59 28.01.2020
3563 Snow -11 1003 85 3800 5.7 80 15:41 28.01.2020
3564 Snow -11 1003 85 2400 6.2 80 15:18 28.01.2020
3565 Snow -11 1003 85 6000 6.2 80 14:45 28.01.2020
3566 Snow -11 1003 85 7000 6.7 80 14:20 28.01.2020
3567 Snow -11 1003 85 5000 7.2 80 13:57 28.01.2020
3568 Snow -11 1003 85 2000 6.7 80 13:38 28.01.2020
3569 Snow -11 1003 85 2000 6.7 80 13:19 28.01.2020
3570 Snow -11 1003 85 2000 6.7 70 12:42 28.01.2020
3571 Snow -11 1003 85 2000 6.7 70 12:42 28.01.2020
3572 Snow -12 1004 92 1800 6.2 70 12:22 28.01.2020
3573 Snow -12 1004 85 6000 6.2 70 11:48 28.01.2020
3574 Snow -12 1004 85 8000 6.2 80 11:23 28.01.2020
3575 Snow -13 1004 92 8000 6.2 80 10:58 28.01.2020
3576 Snow -13 1004 84 9000 6.7 80 10:39 28.01.2020
3577 Snow -13 1004 84 9000 6.7 80 10:20 28.01.2020
3578 Snow -13 1004 84 6000 6.7 80 09:42 28.01.2020
3579 Snow -13 1005 84 8000 6.7 80 09:21 28.01.2020
3580 Snow -13 1005 84 8000 6.7 70 08:56 28.01.2020
3581 Snow -13 1005 84 10000 6.2 70 08:38 28.01.2020
3582 Snow -13 1005 84 10000 6.2 70 08:18 28.01.2020
3583 Snow -13 1005 84 4500 6.2 70 07:36 28.01.2020
3584 Snow -13 1005 84 4000 5.7 70 06:49 28.01.2020
3585 Snow -13 1006 84 6000 5.7 70 06:25 28.01.2020
3586 Snow -14 1006 84 6000 5.7 70 05:42 28.01.2020
3587 Snow -14 1006 84 7000 6.2 70 05:24 28.01.2020
3588 Snow -15 1007 84 9000 5.7 70 03:57 28.01.2020
3589 Snow -15 1008 84 6000 6.2 70 02:58 28.01.2020
3590 Snow -15 1008 84 10000 6.2 70 02:25 28.01.2020
3591 Snow -15 1008 84 10000 5.1 70 01:56 28.01.2020
3592 Snow -15 1009 77 7000 5.1 80 01:22 28.01.2020
3593 Snow -15 1009 84 6000 5.1 90 00:45 28.01.2020
3594 Snow -16 1009 84 5000 5.1 70 00:24 28.01.2020
3595 Snow -16 1009 84 4600 5.1 70 23:46 27.01.2020
3596 Snow -16 1010 84 10000 5.7 70 23:28 27.01.2020
3597 Snow -16 1010 84 10000 5.7 70 23:28 27.01.2020
3598 Snow -16 1010 84 10000 4.6 70 22:45 27.01.2020
3599 Snow -17 1010 84 10000 4.6 60 22:22 27.01.2020
3600 Snow -17 1010 84 10000 4.6 60 21:58 27.01.2020
3601 Snow -17 1010 84 10000 4.6 60 21:39 27.01.2020
3602 Snow -17 1011 84 9000 4.6 60 21:19 27.01.2020
3603 Snow -17 1011 84 9000 4.6 60 21:19 27.01.2020
3604 Snow -17 1011 84 9000 4.6 70 20:57 27.01.2020
3605 Snow -17 1011 84 9000 4.6 70 20:38 27.01.2020
3606 Snow -17 1011 84 10000 4.6 70 20:20 27.01.2020
3607 Snow -17 1011 77 9000 4.6 70 19:57 27.01.2020
3608 Snow -17 1011 77 9000 4.6 70 19:57 27.01.2020
3609 Snow -18 1011 84 10000 5.1 70 19:38 27.01.2020
3610 Snow -18 1011 84 10000 5.1 70 19:20 27.01.2020
3611 Snow -18 1012 84 10000 5.1 70 18:40 27.01.2020
3612 Snow -18 1012 84 10000 5.1 70 18:40 27.01.2020
3613 Snow -18 1011 84 10000 5.1 70 18:21 27.01.2020
3614 Clouds -18 1012 84 10000 5.1 70 17:58 27.01.2020
3615 Clouds -18 1012 77 10000 5.1 70 17:38 27.01.2020
3616 Clouds -18 1012 77 10000 5.1 70 17:19 27.01.2020
3617 Clouds -18 1012 77 10000 5.1 70 16:56 27.01.2020
3618 Clouds -19 1012 84 10000 5.1 70 16:37 27.01.2020
3619 Clouds -19 1012 84 10000 5.1 70 16:19 27.01.2020
3620 Clouds -19 1012 84 10000 4.6 70 15:41 27.01.2020
3621 Clouds -19 1012 84 10000 5.1 70 15:20 27.01.2020
3622 Clouds -19 1012 84 10000 4.6 70 14:57 27.01.2020
3623 Clouds -19 1012 84 10000 4.6 70 14:39 27.01.2020
3624 Clouds -19 1013 84 10000 4.6 70 14:20 27.01.2020
3625 Clouds -19 1013 84 10000 5.1 70 13:42 27.01.2020
3626 Clouds -19 1013 84 10000 5.1 70 13:22 27.01.2020
3627 Fog -19 1013 84 10000 5.1 70 12:57 27.01.2020
3628 Fog -19 1013 84 10000 5.1 70 12:57 27.01.2020
3629 Fog -19 1013 84 10000 5.1 70 12:57 27.01.2020
3630 Clouds -19 1013 77 10000 5.1 70 12:39 27.01.2020
3631 Clouds -19 1013 77 10000 5.1 70 12:20 27.01.2020
3632 Clouds -19 1013 77 10000 5.1 70 11:42 27.01.2020
3633 Clouds -19 1013 77 10000 5.1 70 11:42 27.01.2020
3634 Clouds -19 1013 84 10000 5.1 70 11:21 27.01.2020
3635 Clouds -19 1014 84 10000 4.6 70 10:55 27.01.2020
3636 Clouds -19 1014 84 10000 4.1 60 10:36 27.01.2020
3637 Clouds -19 1014 84 10000 4.1 60 10:18 27.01.2020
3638 Fog -19 1014 84 10000 4.1 70 09:39 27.01.2020
3639 Fog -19 1014 84 10000 4.1 70 09:19 27.01.2020
3640 Clouds -19 1013 84 10000 4.1 70 08:47 27.01.2020
3641 Clouds -19 1013 91 10000 3.1 70 08:23 27.01.2020
3642 Clouds -19 1013 84 10000 3.6 60 07:55 27.01.2020
3643 Clouds -19 1013 84 10000 3.6 60 07:36 27.01.2020
3644 Clouds -20 1013 83 10000 3.1 70 06:55 27.01.2020
3645 Snow -18 1013 84 10000 3.6 70 06:32 27.01.2020
3646 Clouds -20 1013 83 10000 2.6 80 05:37 27.01.2020
3647 Clouds -20 1013 83 10000 2.6 80 05:37 27.01.2020
3648 Mist -20 1013 83 2300 4.1 50 04:20 27.01.2020
3649 Clouds -21 1013 83 10000 3.6 40 03:23 27.01.2020
3650 Clouds -20 1013 83 10000 2.1 350 01:32 27.01.2020
3651 Clouds -20 1013 83 10000 1.5 340 00:59 27.01.2020
3652 Clouds -20 1012 83 10000 1.5 310 00:37 27.01.2020
3653 Clouds -20 1012 83 10000 1.5 310 00:19 27.01.2020
3654 Clouds -19 1012 84 10000 2.1 350 23:41 26.01.2020
3655 Clouds -19 1012 84 10000 4.1 350 23:19 26.01.2020
3656 Clouds -19 1012 84 10000 4.6 350 22:55 26.01.2020
3657 Clouds -18 1012 84 10000 4.1 340 22:37 26.01.2020
3658 Clouds -18 1012 84 10000 4.1 340 22:18 26.01.2020
3659 Clouds -18 1011 84 10000 5.7 350 21:56 26.01.2020
3660 Clouds -18 1011 84 10000 5.7 350 21:38 26.01.2020
3661 Clouds -18 1011 84 10000 4.1 350 21:19 26.01.2020
3662 Clouds -18 1011 91 10000 4.1 350 20:55 26.01.2020
3663 Clouds -18 1010 84 10000 4.6 350 20:36 26.01.2020
3664 Clouds -18 1010 84 10000 4.6 350 20:18 26.01.2020
3665 Clouds -17 1010 84 10000 5.1 340 19:56 26.01.2020
3666 Clouds -17 1010 84 10000 5.7 340 19:36 26.01.2020
3667 Clouds -17 1010 84 10000 5.7 340 19:18 26.01.2020
3668 Clouds -17 1009 84 10000 5.7 340 18:41 26.01.2020
3669 Clouds -17 1009 84 10000 5.7 340 18:22 26.01.2020
3670 Clouds -17 1009 84 10000 6.2 340 17:58 26.01.2020
3671 Clouds -16 1008 84 10000 6.2 330 17:38 26.01.2020
3672 Clouds -16 1008 84 10000 6.2 330 17:19 26.01.2020
3673 Clouds -16 1008 84 10000 6.2 330 16:58 26.01.2020
3674 Clouds -16 1008 84 10000 6.2 330 16:39 26.01.2020
3675 Clouds -16 1008 84 10000 6.2 330 16:20 26.01.2020
3676 Clouds -16 1011 91 0 2.16 337 15:55 26.01.2020
3677 Clouds -16 1011 91 0 2.16 337 15:36 26.01.2020
3678 Clouds -16 1011 91 0 2.16 337 15:18 26.01.2020
3679 Clouds -16 1011 91 0 2.16 337 14:39 26.01.2020
3680 Clouds -15 1009 88 0 2.55 346 14:19 26.01.2020
3681 Clouds -15 1009 88 0 2.55 346 13:42 26.01.2020
3682 Clouds -15 1009 88 0 2.55 346 13:20 26.01.2020
3683 Clouds -15 1008 90 0 2.41 355 12:57 26.01.2020
3684 Clouds -15 1008 90 0 2.41 355 12:38 26.01.2020
3685 Clouds -15 1008 90 0 2.41 355 12:20 26.01.2020
3686 Clouds -15 1008 90 0 2.41 355 11:57 26.01.2020
3687 Clouds -15 1008 90 0 2.41 355 11:37 26.01.2020
3688 Clouds -17 1003 84 10000 4.6 340 11:18 26.01.2020
3689 Clouds -17 1003 84 10000 4.6 340 10:56 26.01.2020
3690 Clouds -17 1003 84 10000 4.6 340 10:38 26.01.2020
3691 Clouds -17 1003 84 10000 4.6 340 10:19 26.01.2020
3692 Clouds -17 1003 84 10000 4.6 340 10:19 26.01.2020
3693 Clouds -19 1003 84 10000 2.6 350 09:56 26.01.2020
3694 Clouds -19 1003 84 10000 2.6 350 09:37 26.01.2020
3695 Clouds -19 1003 84 10000 2.6 350 09:19 26.01.2020
3696 Clouds -20 1002 83 10000 2.6 350 08:41 26.01.2020
3697 Clouds -19 1002 84 10000 3.1 360 08:22 26.01.2020
3698 Snow -19 1002 84 10000 3.6 360 07:50 26.01.2020
3699 Clouds -19 1001 91 10000 3.1 360 07:27 26.01.2020
3700 Clouds -18 1001 84 10000 3.6 350 06:55 26.01.2020
3701 Clouds -18 1000 84 10000 4.1 350 06:25 26.01.2020
3702 Clouds -18 999 84 10000 3.1 340 05:29 26.01.2020
3703 Clouds -17 999 84 10000 5.1 350 03:57 26.01.2020
3704 Clouds -19 999 91 10000 2.1 360 02:38 26.01.2020
3705 Clouds -17 999 84 10000 2.6 350 01:45 26.01.2020
3706 Clouds -17 999 84 10000 3.6 10 01:22 26.01.2020
3707 Snow -16 999 84 10000 1.5 260 00:42 26.01.2020
3708 Snow -16 999 91 10000 4.6 360 00:24 26.01.2020
3709 Clouds -15 1002 94 0 1.96 12 23:39 25.01.2020
3710 Clouds -15 1001 92 0 1.56 351 23:21 25.01.2020
3711 Clouds -15 1001 92 0 1.56 351 22:56 25.01.2020
3712 Clouds -15 1001 92 0 1.56 351 22:36 25.01.2020
3713 Clouds -15 1001 92 0 1.56 351 22:18 25.01.2020
3714 Clouds -15 1001 92 0 1.56 351 21:41 25.01.2020
3715 Clouds -15 1001 92 0 1.56 351 21:23 25.01.2020
3716 Clouds -15 1001 92 0 1.56 351 21:23 25.01.2020
3717 Clouds -15 1001 92 0 1.56 351 20:56 25.01.2020
3718 Clouds -15 1001 92 0 1.56 351 20:38 25.01.2020
3719 Clouds -14 1000 90 0 0.85 328 20:19 25.01.2020
3720 Clouds -14 1000 90 0 0.85 328 19:43 25.01.2020
3721 Clouds -14 1000 90 0 0.85 328 19:20 25.01.2020
3722 Clouds -14 1000 90 0 0.85 328 18:57 25.01.2020
3723 Clouds -14 1000 90 0 0.85 328 18:57 25.01.2020
3724 Clouds -14 1000 91 0 1.17 353 18:38 25.01.2020
3725 Clouds -14 1000 91 0 1.17 353 18:20 25.01.2020
3726 Clouds -14 1000 90 0 0.85 328 17:40 25.01.2020
3727 Clouds -14 999 92 0 1.48 333 17:20 25.01.2020
3728 Clouds -14 999 92 0 1.48 333 16:58 25.01.2020
3729 Clouds -14 999 92 0 1.48 333 16:38 25.01.2020
3730 Clouds -14 999 92 0 1.48 333 16:19 25.01.2020
3731 Clouds -14 999 92 0 1.48 333 15:47 25.01.2020
3732 Clouds -14 999 92 0 1.48 333 15:25 25.01.2020
3733 Clouds -14 999 92 0 1.48 333 14:57 25.01.2020
3734 Clouds -14 999 92 0 1.48 333 14:39 25.01.2020
3735 Clouds -13 996 93 0 1.55 333 14:18 25.01.2020
3736 Clouds -13 996 93 0 1.55 333 13:42 25.01.2020
3737 Clouds -13 996 94 0 1.86 335 13:23 25.01.2020
3738 Snow -16 993 91 10000 3.1 340 12:45 25.01.2020
3739 Snow -16 993 91 10000 3.1 340 12:25 25.01.2020
3740 Snow -16 993 91 10000 3.1 340 11:45 25.01.2020
3741 Clouds -16 992 84 10000 1 0 11:22 25.01.2020
3742 Clouds -16 992 84 10000 1 0 11:22 25.01.2020
3743 Clouds -16 992 84 10000 1 0 11:22 25.01.2020
3744 Snow -16 992 84 10000 4.6 330 10:58 25.01.2020
3745 Snow -16 992 84 10000 4.6 330 10:40 25.01.2020
3746 Snow -16 991 84 10000 4.6 340 10:20 25.01.2020
3747 Clouds -16 990 84 10000 5.1 330 09:41 25.01.2020
3748 Snow -16 989 84 10000 5.1 340 09:22 25.01.2020
3749 Clouds -16 989 84 10000 5.1 340 08:44 25.01.2020
3750 Clouds -16 989 84 10000 5.1 330 08:26 25.01.2020
3751 Snow -16 988 84 10000 5.1 340 07:49 25.01.2020
3752 Clouds -15 987 92 10000 6.7 340 06:51 25.01.2020
3753 Snow -14 986 84 10000 6.2 340 06:28 25.01.2020
3754 Snow -14 986 92 10000 6.2 340 05:46 25.01.2020
3755 Snow -15 985 92 10000 5.7 340 04:50 25.01.2020
3756 Snow -13 984 84 9000 0.5 0 03:51 25.01.2020
3757 Snow -13 984 100 600 3.6 340 02:57 25.01.2020
3758 Clouds -14 984 92 6000 1 0 02:18 25.01.2020
3759 Snow -14 983 92 650 2.1 40 01:37 25.01.2020
3760 Clouds -13 983 92 2200 1 0 00:44 25.01.2020
3761 Clouds -12 983 92 2600 2.1 320 00:25 25.01.2020
3762 Fog -12 983 92 300 1.5 260 23:57 24.01.2020
3763 Fog -12 983 92 300 1.5 260 23:38 24.01.2020
3764 Clouds -11 983 92 550 1.5 230 23:20 24.01.2020
3765 Fog -10 983 92 10000 2.1 220 22:42 24.01.2020
3766 Fog -12 983 100 750 1 0 22:24 24.01.2020
3767 Fog -12 983 92 800 0.5 0 21:43 24.01.2020
3768 Snow -10 983 92 10000 1.5 230 21:20 24.01.2020
3769 Snow -11 983 92 10000 2.1 240 20:56 24.01.2020
3770 Snow -12 983 92 10000 3.1 220 20:38 24.01.2020
3771 Snow -12 983 92 10000 3.1 220 20:19 24.01.2020
3772 Clear -10 983 92 10000 1 0 19:56 24.01.2020
3773 Clear -10 983 92 10000 1 0 19:38 24.01.2020
3774 Clear -11 983 100 10000 1.5 290 19:20 24.01.2020
3775 Clear -13 983 92 10000 2.1 260 18:43 24.01.2020
3776 Clear -13 983 92 10000 2.1 260 18:43 24.01.2020
3777 Clear -12 983 92 10000 2.6 260 18:23 24.01.2020
3778 Clear -9 984 92 10000 4.1 240 17:46 24.01.2020
3779 Clear -10 984 92 10000 3.6 240 17:23 24.01.2020
3780 Clear -8 984 92 10000 2.6 240 16:58 24.01.2020
3781 Clear -8 984 92 10000 2.6 240 16:39 24.01.2020
3782 Clear -8 984 92 10000 3.1 240 16:19 24.01.2020
3783 Clear -12 984 92 10000 2.1 230 15:42 24.01.2020
3784 Clear -8 984 92 10000 2.6 240 15:22 24.01.2020
3785 Clear -9 984 100 10000 2.6 240 14:55 24.01.2020
3786 Clear -8 985 92 10000 2.6 230 14:37 24.01.2020
3787 Clouds -8 985 92 10000 2.6 230 14:19 24.01.2020
3788 Clouds -8 985 92 10000 3.6 230 13:41 24.01.2020
3789 Clouds -7 985 85 10000 1 240 13:22 24.01.2020
3790 Clouds -7 985 85 10000 1 240 13:22 24.01.2020
3791 Clouds -8 985 92 10000 3.1 220 12:43 24.01.2020
3792 Clouds -7 985 92 10000 2.1 190 12:21 24.01.2020
3793 Clouds -7 985 85 10000 1.5 240 11:45 24.01.2020
3794 Clouds -8 985 92 10000 3.6 230 11:19 24.01.2020
3795 Clouds -8 985 92 10000 3.6 230 11:19 24.01.2020
3796 Clouds -8 985 92 10000 3.6 230 11:19 24.01.2020
3797 Clouds -6 985 85 10000 3.1 240 10:58 24.01.2020
3798 Clouds -6 985 85 10000 3.1 240 10:40 24.01.2020
3799 Clouds -7 985 92 10000 3.1 210 10:19 24.01.2020
3800 Clouds -6 985 85 10000 1 0 09:41 24.01.2020
3801 Clouds -5 985 85 10000 2.6 260 09:23 24.01.2020
3802 Clouds -6 985 85 10000 1 0 08:41 24.01.2020
3803 Clouds -6 985 85 10000 1 0 08:41 24.01.2020
3804 Clouds -6 984 92 10000 1.5 220 08:21 24.01.2020
3805 Clouds -5 984 92 10000 2.6 220 07:58 24.01.2020
3806 Clouds -4 984 85 10000 2.1 280 07:39 24.01.2020
3807 Clouds -4 984 92 10000 1.5 300 06:54 24.01.2020
3808 Clouds -4 984 92 10000 2.6 290 06:33 24.01.2020
3809 Clouds -4 984 92 10000 3.1 270 05:59 24.01.2020
3810 Clouds -3 984 92 10000 3.1 260 05:18 24.01.2020
3811 Clouds -3 984 100 10000 2.6 240 02:54 24.01.2020
3812 Clouds -3 984 92 10000 2.1 250 02:27 24.01.2020
3813 Clouds -4 985 100 4000 2.6 240 01:53 24.01.2020
3814 Clouds -4 985 92 10000 3.6 240 01:33 24.01.2020
3815 Fog -5 985 100 700 1.5 250 00:31 24.01.2020
3816 Snow -4 985 92 10000 2.1 240 23:56 23.01.2020
3817 Snow -4 985 92 3600 1.5 230 23:37 23.01.2020
3818 Snow -4 985 92 3600 1.5 230 23:18 23.01.2020
3819 Snow -4 986 92 4200 1.5 180 22:39 23.01.2020
3820 Snow -4 986 92 3400 2.1 160 22:19 23.01.2020
3821 Snow -4 986 92 1700 1.5 160 21:58 23.01.2020
3822 Snow -4 986 92 1700 1.5 160 21:58 23.01.2020
3823 Snow -5 987 92 3400 4.1 170 21:39 23.01.2020
3824 Snow -5 987 92 3400 4.1 170 21:20 23.01.2020
3825 Snow -5 987 92 3600 4.6 180 20:59 23.01.2020
3826 Snow -5 987 92 3600 4.6 180 20:39 23.01.2020
3827 Snow -5 988 92 10000 6.2 190 20:20 23.01.2020
3828 Snow -6 988 92 5000 5.7 170 19:56 23.01.2020
3829 Snow -6 989 92 4400 4.1 160 19:38 23.01.2020
3830 Snow -6 989 92 4400 4.1 160 19:19 23.01.2020
3831 Snow -6 990 92 10000 5.1 160 18:55 23.01.2020
3832 Snow -7 990 92 10000 4.6 140 18:36 23.01.2020
3833 Snow -7 990 92 10000 4.6 140 18:18 23.01.2020
3834 Snow -7 993 85 2500 4.6 140 17:42 23.01.2020
3835 Snow -8 993 92 2400 5.1 130 17:20 23.01.2020
3836 Snow -8 993 92 2400 5.1 130 16:56 23.01.2020
3837 Snow -8 994 92 2500 5.1 130 16:37 23.01.2020
3838 Snow -8 994 92 2500 5.1 130 16:18 23.01.2020
3839 Snow -8 995 85 3300 5.1 120 15:55 23.01.2020
3840 Snow -9 996 92 3900 4.6 130 15:37 23.01.2020
3841 Snow -9 996 92 3900 4.6 130 15:18 23.01.2020
3842 Snow -9 997 85 2600 5.1 130 14:55 23.01.2020
3843 Snow -9 997 85 2600 5.1 130 14:55 23.01.2020
3844 Snow -9 998 85 2000 4.6 120 14:37 23.01.2020
3845 Snow -9 998 85 2000 4.6 120 14:19 23.01.2020
3846 Snow -10 999 85 10000 4.1 130 13:40 23.01.2020
3847 Clouds -9 1000 78 10000 4.1 140 13:20 23.01.2020
3848 Clouds -9 1001 78 10000 4.1 150 12:47 23.01.2020
3849 Clouds -9 1002 78 10000 4.6 160 12:25 23.01.2020
3850 Clouds -9 1003 78 10000 4.6 160 11:59 23.01.2020
3851 Clouds -9 1003 78 10000 4.6 160 11:39 23.01.2020
3852 Clouds -9 1004 78 10000 4.1 160 11:19 23.01.2020
3853 Clouds -9 1004 78 10000 4.1 160 11:19 23.01.2020
3854 Clouds -10 1004 92 10000 4.1 160 10:45 23.01.2020
3855 Clouds -10 1005 92 10000 4.1 150 10:23 23.01.2020
3856 Clouds -10 1005 92 10000 1 0 09:59 23.01.2020
3857 Clouds -9 1006 85 10000 2.1 200 09:38 23.01.2020
3858 Clouds -9 1006 85 10000 2.1 200 09:20 23.01.2020
3859 Clouds -11 1007 92 10000 1.5 220 08:41 23.01.2020
3860 Clouds -11 1007 92 10000 1.5 220 08:22 23.01.2020
3861 Clouds -11 1007 92 10000 1.5 240 07:45 23.01.2020
3862 Clouds -10 1007 92 10000 1.5 250 07:26 23.01.2020
3863 Clouds -11 1008 92 10000 1 270 06:54 23.01.2020
3864 Clouds -9 1008 85 10000 1.5 300 06:23 23.01.2020
3865 Clouds -9 1008 92 10000 1.5 340 05:58 23.01.2020
3866 Clouds -8 1009 85 10000 2.1 320 04:24 23.01.2020
3867 Clouds -8 1010 85 10000 2.1 340 02:34 23.01.2020
3868 Clouds -8 1009 85 10000 2.6 320 01:41 23.01.2020
3869 Clouds -8 1009 92 10000 2.1 320 00:28 23.01.2020
3870 Clouds -7 1009 92 10000 2.1 330 23:48 22.01.2020
3871 Snow -7 1008 92 10000 2.1 260 23:30 22.01.2020
3872 Snow -7 1009 85 10000 2.1 300 22:59 22.01.2020
3873 Snow -7 1009 85 10000 2.1 300 22:41 22.01.2020
3874 Snow -7 1009 85 10000 2.1 300 22:41 22.01.2020
3875 Snow -7 1008 85 10000 2.1 290 22:22 22.01.2020
3876 Snow -8 1008 85 10000 0.5 0 21:40 22.01.2020
3877 Clouds -8 1008 85 10000 1.5 280 21:22 22.01.2020
3878 Clouds -9 1008 85 10000 1.5 240 20:58 22.01.2020
3879 Clouds -9 1008 85 10000 1.5 240 20:39 22.01.2020
3880 Clouds -10 1008 85 10000 1.5 260 20:21 22.01.2020
3881 Clouds -10 1008 85 10000 2.1 280 19:57 22.01.2020
3882 Clouds -9 1008 85 10000 2.6 290 19:38 22.01.2020
3883 Clouds -9 1008 85 10000 2.6 290 19:38 22.01.2020
3884 Clouds -9 1008 85 10000 2.6 290 19:18 22.01.2020
3885 Clouds -9 1008 78 10000 2.1 290 18:56 22.01.2020
3886 Clouds -9 1008 85 10000 2.1 270 18:38 22.01.2020
3887 Clouds -9 1008 85 10000 2.1 270 18:19 22.01.2020
3888 Clouds -8 1008 78 10000 3.1 300 17:54 22.01.2020
3889 Clouds -8 1008 78 10000 3.1 300 17:54 22.01.2020
3890 Clouds -7 1007 73 10000 3.6 310 17:36 22.01.2020
3891 Clouds -7 1007 73 10000 3.6 310 17:18 22.01.2020
3892 Clouds -8 1007 78 10000 4.1 300 16:42 22.01.2020
3893 Clouds -7 1007 73 10000 2.6 300 16:22 22.01.2020
3894 Clouds -7 1006 79 10000 3.6 300 15:58 22.01.2020
3895 Clouds -7 1006 79 10000 4.1 310 15:38 22.01.2020
3896 Clouds -7 1006 79 10000 4.1 310 15:20 22.01.2020
3897 Clouds -7 1006 79 10000 4.1 310 14:40 22.01.2020
3898 Clear -7 1005 79 10000 3.6 300 14:21 22.01.2020
3899 Clear -7 1005 79 10000 2.6 300 13:59 22.01.2020
3900 Clear -6 1004 73 10000 4.6 330 13:38 22.01.2020
3901 Clear -6 1004 73 10000 4.6 330 13:19 22.01.2020
3902 Clear -6 1004 79 10000 4.1 310 12:57 22.01.2020
3903 Clear -6 1004 79 10000 4.1 310 12:39 22.01.2020
3904 Clouds -6 1004 79 10000 4.1 310 12:20 22.01.2020
3905 Clouds -6 1003 79 10000 3.6 310 11:58 22.01.2020
3906 Clouds -6 1003 79 10000 3.6 310 11:39 22.01.2020
3907 Clouds -6 1003 79 10000 4.1 310 11:19 22.01.2020
3908 Clouds -6 1003 79 10000 4.1 310 11:19 22.01.2020
3909 Clouds -6 1002 79 10000 4.6 310 10:54 22.01.2020
3910 Clouds -7 1001 85 10000 4.1 320 10:36 22.01.2020
3911 Clouds -7 1001 85 10000 4.1 320 10:18 22.01.2020
3912 Clear -7 1000 85 10000 2.6 320 09:41 22.01.2020
3913 Clear -7 1000 85 10000 2.6 320 09:23 22.01.2020
3914 Clouds -7 1000 85 10000 3.1 310 08:56 22.01.2020
3915 Clear -7 999 85 10000 4.6 330 08:37 22.01.2020
3916 Clouds -7 999 85 10000 4.6 330 08:19 22.01.2020
3917 Clouds -7 999 85 10000 4.6 330 08:19 22.01.2020
3918 Clouds -6 998 85 10000 3.6 320 07:44 22.01.2020
3919 Clouds -6 997 85 10000 4.6 330 07:26 22.01.2020
3920 Clouds -6 996 85 10000 5.1 330 06:37 22.01.2020
3921 Clouds -6 996 85 10000 5.1 330 06:18 22.01.2020
3922 Clouds -5 992 85 10000 6.2 330 04:27 22.01.2020
3923 Clouds -5 991 79 10000 6.2 330 03:27 22.01.2020
3924 Clouds -5 990 79 10000 5.7 320 02:48 22.01.2020
3925 Clouds -5 989 79 10000 4.1 290 00:48 22.01.2020
3926 Clouds -5 989 79 10000 3.6 300 00:28 22.01.2020
3927 Clouds -5 988 79 10000 3.6 300 23:59 21.01.2020
3928 Clouds -5 988 79 10000 4.1 300 23:37 21.01.2020
3929 Clouds -5 988 79 10000 4.1 300 23:19 21.01.2020
3930 Clouds -5 988 79 10000 3.6 290 22:42 21.01.2020
3931 Clouds -5 988 85 10000 3.6 280 22:23 21.01.2020
3932 Clouds -5 987 79 10000 3.1 280 21:58 21.01.2020
3933 Clouds -5 987 85 10000 3.1 270 21:39 21.01.2020
3934 Clouds -5 987 85 10000 3.1 270 21:20 21.01.2020
3935 Clouds -5 987 85 10000 5.1 260 20:57 21.01.2020
3936 Clouds -5 987 85 10000 3.6 270 20:39 21.01.2020
3937 Clouds -5 987 85 10000 3.6 270 20:20 21.01.2020
3938 Clouds -5 987 85 10000 3.1 240 19:57 21.01.2020
3939 Clouds -5 988 85 10000 2.6 250 19:39 21.01.2020
3940 Clouds -5 988 85 10000 2.6 250 19:20 21.01.2020
3941 Clouds -4 988 79 10000 3.6 250 18:55 21.01.2020
3942 Clouds -4 988 79 10000 5.1 240 18:37 21.01.2020
3943 Clouds -4 988 79 10000 5.1 240 18:19 21.01.2020
3944 Clouds -4 988 79 10000 4.6 250 17:45 21.01.2020
3945 Clouds -4 988 79 10000 4.6 240 17:20 21.01.2020
3946 Clouds -3 989 73 10000 4.1 250 16:59 21.01.2020
3947 Clouds -4 989 79 10000 4.6 250 16:37 21.01.2020
3948 Clouds -4 989 79 10000 4.6 250 16:19 21.01.2020
3949 Clouds -3 989 79 10000 4.1 250 15:56 21.01.2020
3950 Clouds -3 989 79 10000 3.6 260 15:36 21.01.2020
3951 Clouds -3 989 79 10000 3.6 260 15:18 21.01.2020
3952 Clouds -3 990 79 10000 5.1 260 14:38 21.01.2020
3953 Clouds -2 989 74 10000 5.7 260 14:20 21.01.2020
3954 Clouds -2 989 79 10000 5.7 270 13:40 21.01.2020
3955 Clouds -2 989 79 10000 5.7 270 13:19 21.01.2020
3956 Clouds -2 989 79 10000 5.7 270 12:56 21.01.2020
3957 Clouds -1 989 74 10000 6.2 270 12:37 21.01.2020
3958 Clouds -1 989 74 10000 6.2 270 12:19 21.01.2020
3959 Clouds -1 989 74 10000 6.2 270 11:40 21.01.2020
3960 Snow -1 989 80 10000 5.1 280 11:21 21.01.2020
3961 Snow -1 989 80 10000 5.1 280 11:21 21.01.2020
3962 Snow 0 989 71 10000 5.7 270 10:55 21.01.2020
3963 Clouds 0 988 71 10000 4.6 270 10:37 21.01.2020
3964 Clouds 0 988 71 10000 4.6 270 10:18 21.01.2020
3965 Clouds 0 988 71 10000 5.7 280 09:41 21.01.2020
3966 Snow 0 988 71 10000 5.7 280 09:22 21.01.2020
3967 Clouds 0 988 71 10000 5.7 270 08:50 21.01.2020
3968 Clouds -1 988 92 10000 3.6 240 08:30 21.01.2020
3969 Snow 0 988 93 10000 4.1 240 07:59 21.01.2020
3970 Snow 0 988 93 10000 4.1 240 07:40 21.01.2020
3971 Snow 0 988 93 10000 4.1 240 07:40 21.01.2020
3972 Snow 0 988 93 10000 3.1 250 07:21 21.01.2020
3973 Snow 0 988 93 10000 3.6 250 06:49 21.01.2020
3974 Snow 0 988 93 10000 2.6 0 06:26 21.01.2020
3975 Snow 0 988 93 10000 3.6 290 05:42 21.01.2020
3976 Clear 0 988 82 10000 4.1 310 04:39 21.01.2020
3977 Clouds 1 987 82 10000 3.6 300 02:56 21.01.2020
3978 Clouds 1 987 100 10000 4.1 280 01:53 21.01.2020
3979 Clouds 1 987 100 10000 4.1 270 01:18 21.01.2020
3980 Clouds 1 986 100 10000 4.6 250 00:36 21.01.2020
3981 Rain 0 986 89 800 4.6 240 23:58 20.01.2020
3982 Rain 0 986 89 650 6.2 230 23:37 20.01.2020
3983 Rain 0 986 98 650 6.2 230 23:19 20.01.2020
3984 Rain 0 986 98 650 6.2 230 23:19 20.01.2020
3985 Rain 0 987 98 700 5.7 230 22:56 20.01.2020
3986 Snow 0 987 98 600 6.2 230 22:37 20.01.2020
3987 Snow 0 987 98 600 6.2 230 22:18 20.01.2020
3988 Snow 0 988 98 650 6.2 220 21:57 20.01.2020
3989 Snow 0 989 98 1200 5.7 220 21:36 20.01.2020
3990 Snow 0 989 98 1200 5.7 220 21:18 20.01.2020
3991 Clouds 0 990 98 2300 6.2 220 20:55 20.01.2020
3992 Clouds 0 991 98 3800 7.2 220 20:36 20.01.2020
3993 Clouds 0 991 97 3800 7.2 220 20:18 20.01.2020
3994 Snow 0 992 97 2600 6.2 220 19:56 20.01.2020
3995 Snow 0 993 97 3700 6.7 220 19:37 20.01.2020
3996 Snow 0 993 97 3700 6.7 220 19:18 20.01.2020
3997 Rain 0 994 97 10000 6.2 220 18:42 20.01.2020
3998 Clouds 0 995 97 10000 6.2 230 18:21 20.01.2020
3999 Mist 0 996 97 4900 7.2 220 17:39 20.01.2020
4000 Clouds 0 997 90 9000 8.2 220 17:19 20.01.2020
4001 Clouds 0 997 90 10000 5.1 220 16:58 20.01.2020
4002 Clouds -1 998 100 10000 6.7 220 16:37 20.01.2020
4003 Clouds -1 998 100 10000 6.7 220 16:18 20.01.2020
4004 Clouds -1 998 100 10000 6.7 220 16:18 20.01.2020
4005 Clouds -1 998 100 10000 5.7 230 15:41 20.01.2020
4006 Clouds -1 999 100 10000 6.7 230 15:22 20.01.2020
4007 Clouds -1 999 100 10000 5.7 220 14:59 20.01.2020
4008 Clouds -1 999 100 10000 5.7 220 14:41 20.01.2020
4009 Clouds -1 999 100 10000 5.1 220 14:21 20.01.2020
4010 Mist -1 1000 100 2500 4.1 220 13:57 20.01.2020
4011 Mist -1 1000 100 2500 4.1 220 13:38 20.01.2020
4012 Clouds -1 1000 100 10000 5.1 230 13:20 20.01.2020
4013 Clouds -1 1000 100 10000 4.6 230 12:44 20.01.2020
4014 Clouds -1 1000 100 8000 5.7 230 12:25 20.01.2020
4015 Clouds -1 1000 100 8000 5.7 230 12:25 20.01.2020
4016 Clouds -1 1000 100 10000 6.2 230 11:56 20.01.2020
4017 Clouds -1 1000 100 6000 6.2 230 11:37 20.01.2020
4018 Clouds -1 1000 100 6000 6.2 230 11:18 20.01.2020
4019 Fog -1 1001 100 400 8.2 220 10:46 20.01.2020
4020 Fog -1 1001 92 400 6.2 220 10:21 20.01.2020
4021 Snow -2 1002 100 5000 5.7 200 09:42 20.01.2020
4022 Snow -3 1002 100 2000 5.1 190 09:24 20.01.2020
4023 Snow -3 1003 92 1200 6.2 190 08:56 20.01.2020
4024 Snow -4 1004 100 1800 5.7 190 08:34 20.01.2020
4025 Snow -4 1005 92 1500 6.7 200 07:59 20.01.2020
4026 Snow -4 1005 92 1500 6.7 200 07:41 20.01.2020
4027 Mist -4 1006 92 1500 7.2 200 07:21 20.01.2020
4028 Mist -5 1006 100 1500 7.2 200 06:44 20.01.2020
4029 Snow -5 1007 92 6000 6.2 200 06:22 20.01.2020
4030 Snow -6 1008 100 3600 5.7 200 05:38 20.01.2020
4031 Clouds -6 1009 92 4000 6.7 200 05:19 20.01.2020
4032 Clouds -7 1011 92 6000 8.7 220 04:23 20.01.2020
4033 Clouds -7 1014 92 5000 3.6 220 01:59 20.01.2020
4034 Clouds -7 1014 92 5000 3.6 220 01:40 20.01.2020
4035 Clouds -7 1014 92 6000 4.1 220 01:18 20.01.2020
4036 Clouds -7 1014 92 7000 4.1 210 00:42 20.01.2020
4037 Clouds -7 1014 92 10000 3.6 230 00:20 20.01.2020
4038 Clouds -8 1015 92 10000 2.1 250 23:38 19.01.2020
4039 Clouds -8 1015 92 10000 2.1 250 23:19 19.01.2020
4040 Snow -8 1015 92 2500 1 230 22:56 19.01.2020
4041 Clouds -8 1014 92 10000 0.5 0 22:37 19.01.2020
4042 Clouds -8 1014 92 10000 0.5 0 22:19 19.01.2020
4043 Clouds -8 1015 92 10000 0.5 0 21:56 19.01.2020
4044 Clouds -8 1016 92 10000 1.5 280 21:38 19.01.2020
4045 Clouds -8 1016 92 10000 1.5 280 21:19 19.01.2020
4046 Clouds -8 1015 92 10000 2.1 330 20:56 19.01.2020
4047 Clouds -7 1015 92 10000 2.6 320 20:38 19.01.2020
4048 Clouds -7 1015 92 10000 2.6 320 20:19 19.01.2020
4049 Clouds -7 1016 92 10000 3.1 300 19:55 19.01.2020
4050 Clouds -7 1015 92 10000 2.6 290 19:37 19.01.2020
4051 Clouds -7 1015 92 10000 2.6 290 19:19 19.01.2020
4052 Clouds -7 1013 92 10000 2.1 40 18:55 19.01.2020
4053 Clouds -8 1014 92 10000 2.1 360 18:37 19.01.2020
4054 Clouds -8 1014 92 10000 2.1 360 18:19 19.01.2020
4055 Clouds -8 1014 92 10000 2.1 360 18:19 19.01.2020
4056 Clouds -8 1014 92 10000 2.6 360 17:57 19.01.2020
4057 Clouds -8 1014 92 10000 2.6 360 17:38 19.01.2020
4058 Clouds -7 1014 92 10000 2.6 350 17:19 19.01.2020
4059 Clouds -6 1014 92 10000 2.6 350 16:57 19.01.2020
4060 Clouds -6 1014 92 10000 3.1 350 16:37 19.01.2020
4061 Clouds -6 1014 92 10000 3.1 350 16:19 19.01.2020
4062 Clouds -6 1013 92 10000 3.1 350 15:55 19.01.2020
4063 Clouds -6 1013 92 10000 3.1 360 15:37 19.01.2020
4064 Clouds -6 1013 92 10000 3.1 360 15:18 19.01.2020
4065 Clouds -6 1012 92 10000 3.6 10 14:41 19.01.2020
4066 Clouds -6 1012 92 10000 3.6 10 14:41 19.01.2020
4067 Clouds -6 1011 92 10000 3.1 10 14:21 19.01.2020
4068 Snow -7 1010 92 10000 4.1 50 13:59 19.01.2020
4069 Snow -7 1010 92 10000 4.1 50 13:40 19.01.2020
4070 Snow -6 1010 85 10000 4.6 40 13:22 19.01.2020
4071 Snow -6 1010 85 10000 4.6 40 13:22 19.01.2020
4072 Snow -6 1010 92 5000 4.6 30 12:59 19.01.2020
4073 Snow -6 1010 92 5000 4.6 30 12:41 19.01.2020
4074 Snow -5 1009 92 8000 5.1 40 12:21 19.01.2020
4075 Snow -5 1009 92 9000 4.6 40 11:57 19.01.2020
4076 Snow -5 1008 92 6000 4.6 40 11:38 19.01.2020
4077 Snow -5 1008 92 6000 4.6 40 11:18 19.01.2020
4078 Snow -5 1008 92 5000 4.6 40 10:40 19.01.2020
4079 Snow -5 1007 92 5000 4.6 40 10:21 19.01.2020
4080 Snow -5 1007 92 4700 5.7 50 09:57 19.01.2020
4081 Snow -5 1006 92 4600 6.2 60 09:38 19.01.2020
4082 Snow -5 1006 92 4600 6.2 60 09:20 19.01.2020
4083 Snow -5 1006 92 6000 6.2 60 08:55 19.01.2020
4084 Snow -5 1005 92 5000 6.2 60 08:33 19.01.2020
4085 Snow -5 1005 100 4000 6.2 60 07:55 19.01.2020
4086 Snow -4 1004 92 4700 6.2 60 07:29 19.01.2020
4087 Snow -4 1004 92 4200 6.7 60 06:55 19.01.2020
4088 Snow -4 1003 92 3900 6.2 70 06:22 19.01.2020
4089 Snow -5 1003 100 2800 6.2 70 03:58 19.01.2020
4090 Snow -5 1002 100 2800 6.2 60 02:34 19.01.2020
4091 Snow -5 1002 100 3000 5.7 70 01:42 19.01.2020
4092 Snow -5 1002 100 2600 6.2 70 01:20 19.01.2020
4093 Snow -5 1002 100 3700 6.2 70 00:44 19.01.2020
4094 Snow -5 1002 92 3500 6.2 70 00:21 19.01.2020
4095 Snow -5 1002 92 3500 6.2 70 23:47 18.01.2020
4096 Snow -5 1002 92 3200 6.2 70 23:25 18.01.2020
4097 Snow -5 1002 92 3500 6.2 70 22:59 18.01.2020
4098 Snow -5 1002 92 3500 6.2 70 22:41 18.01.2020
4099 Snow -5 1002 92 3500 6.2 70 22:21 18.01.2020
4100 Snow -5 1002 92 3500 6.2 70 21:58 18.01.2020
4101 Snow -5 1002 92 3500 6.2 70 21:38 18.01.2020
4102 Snow -5 1002 92 3300 6.7 80 21:20 18.01.2020
4103 Snow -5 1002 92 3400 6.7 80 20:55 18.01.2020
4104 Snow -5 1002 92 3100 6.2 80 20:36 18.01.2020
4105 Snow -5 1002 92 3100 6.2 80 20:18 18.01.2020
4106 Snow -5 1002 92 3100 6.2 80 20:18 18.01.2020
4107 Snow -5 1002 92 2500 6.7 80 19:42 18.01.2020
4108 Snow -5 1003 92 2600 6.7 80 19:24 18.01.2020
4109 Snow -6 1003 100 3000 6.7 80 18:43 18.01.2020
4110 Snow -6 1003 92 2900 7.2 70 18:24 18.01.2020
4111 Snow -6 1003 92 3500 7.2 70 17:57 18.01.2020
4112 Snow -6 1003 92 3500 7.2 70 17:39 18.01.2020
4113 Snow -6 1003 92 2800 6.7 70 17:20 18.01.2020
4114 Snow -6 1003 92 3400 6.7 70 16:56 18.01.2020
4115 Snow -6 1003 92 4000 6.7 70 16:37 18.01.2020
4116 Snow -6 1003 92 4000 6.7 70 16:19 18.01.2020
4117 Snow -6 1003 92 5000 6.7 70 15:43 18.01.2020
4118 Snow -6 1003 92 3900 6.2 70 15:24 18.01.2020
4119 Snow -6 1004 92 4500 6.2 70 14:58 18.01.2020
4120 Snow -6 1004 92 3300 6.2 70 14:39 18.01.2020
4121 Snow -6 1004 92 3300 6.2 70 14:18 18.01.2020
4122 Snow -6 1004 92 2600 6.2 70 13:45 18.01.2020
4123 Snow -6 1004 92 2600 6.2 70 13:27 18.01.2020
4124 Snow -6 1005 92 2100 6.2 70 12:59 18.01.2020
4125 Snow -6 1005 92 2100 6.2 70 12:40 18.01.2020
4126 Snow -6 1005 92 2500 5.7 70 12:20 18.01.2020
4127 Snow -6 1005 92 3600 5.7 70 11:44 18.01.2020
4128 Snow -6 1005 92 3200 5.7 70 11:22 18.01.2020
4129 Snow -6 1006 92 2600 6.2 70 10:57 18.01.2020
4130 Snow -6 1006 92 2600 6.2 70 10:38 18.01.2020
4131 Snow -7 1006 92 3300 6.7 70 10:20 18.01.2020
4132 Snow -7 1006 92 6000 6.7 80 09:48 18.01.2020
4133 Snow -7 1006 92 4700 6.7 70 09:30 18.01.2020
4134 Snow -7 1006 92 4800 6.7 70 08:56 18.01.2020
4135 Snow -7 1006 92 3900 6.7 70 08:38 18.01.2020
4136 Snow -7 1006 92 3900 6.7 70 08:19 18.01.2020
4137 Snow -7 1006 92 4200 6.2 70 07:47 18.01.2020
4138 Snow -8 1007 92 6000 6.2 70 07:29 18.01.2020
4139 Snow -8 1007 92 9000 6.2 70 06:47 18.01.2020
4140 Snow -8 1007 85 9000 5.7 70 05:59 18.01.2020
4141 Snow -9 1008 92 4900 6.2 80 05:21 18.01.2020
4142 Snow -10 1009 92 6000 6.2 70 02:55 18.01.2020
4143 Clouds -9 1010 85 10000 5.7 80 01:52 18.01.2020
4144 Clouds -10 1010 92 10000 5.7 80 01:29 18.01.2020
4145 Clouds -10 1011 85 10000 6.7 80 00:36 18.01.2020
4146 Clouds -10 1011 85 10000 6.7 80 00:18 18.01.2020
4147 Clouds -10 1011 85 10000 7.2 80 23:41 17.01.2020
4148 Clouds -10 1011 92 10000 6.7 80 23:19 17.01.2020
4149 Clouds -10 1011 85 10000 6.2 70 22:44 17.01.2020
4150 Clouds -11 1011 92 10000 6.2 70 22:21 17.01.2020
4151 Clouds -11 1011 92 10000 6.2 70 21:58 17.01.2020
4152 Clouds -11 1011 92 10000 6.2 70 21:40 17.01.2020
4153 Clouds -11 1011 92 10000 5.7 70 21:22 17.01.2020
4154 Clouds -11 1011 92 10000 5.7 70 20:57 17.01.2020
4155 Clouds -11 1012 92 10000 5.1 60 20:37 17.01.2020
4156 Clouds -11 1012 92 10000 5.1 60 20:19 17.01.2020
4157 Clouds -11 1012 92 10000 5.1 70 19:54 17.01.2020
4158 Clouds -11 1012 92 10000 4.6 70 19:36 17.01.2020
4159 Clouds -11 1012 92 10000 4.6 70 19:18 17.01.2020
4160 Clouds -11 1012 92 10000 4.6 70 19:18 17.01.2020
4161 Clouds -11 1011 92 10000 4.1 80 18:44 17.01.2020
4162 Clouds -11 1011 92 10000 5.7 60 18:26 17.01.2020
4163 Clouds -11 1011 92 10000 5.7 60 17:56 17.01.2020
4164 Clouds -11 1011 85 10000 4.1 60 17:38 17.01.2020
4165 Clouds -11 1011 85 10000 4.1 60 17:20 17.01.2020
4166 Clouds -12 1010 92 10000 5.7 50 16:42 17.01.2020
4167 Clouds -12 1011 85 10000 4.1 50 16:20 17.01.2020
4168 Clouds -11 1010 85 10000 2.6 50 15:48 17.01.2020
4169 Clouds -12 1010 85 10000 4.6 40 15:28 17.01.2020
4170 Clouds -13 1010 92 10000 3.1 30 14:56 17.01.2020
4171 Clouds -13 1010 92 10000 3.1 30 14:38 17.01.2020
4172 Clouds -12 1009 85 10000 3.6 10 14:20 17.01.2020
4173 Clouds -11 1009 85 10000 4.6 350 13:39 17.01.2020
4174 Clouds -11 1009 85 10000 4.6 350 13:21 17.01.2020
4175 Clouds -11 1009 85 10000 4.6 350 13:21 17.01.2020
4176 Clouds -11 1008 92 10000 4.1 340 12:45 17.01.2020
4177 Clouds -11 1008 92 10000 4.1 340 12:23 17.01.2020
4178 Clouds -10 1007 85 10000 2.6 320 11:41 17.01.2020
4179 Clouds -10 1007 85 10000 2.6 320 11:19 17.01.2020
4180 Clouds -10 1006 92 10000 3.1 340 10:54 17.01.2020
4181 Clouds -10 1006 92 10000 3.1 340 10:54 17.01.2020
4182 Clouds -10 1006 92 10000 2.6 330 10:36 17.01.2020
4183 Clouds -10 1006 92 10000 2.6 330 10:18 17.01.2020
4184 Clouds -10 1006 92 10000 1.5 280 09:41 17.01.2020
4185 Clouds -10 1005 92 10000 2.1 310 09:20 17.01.2020
4186 Clouds -10 1004 92 10000 2.6 330 08:55 17.01.2020
4187 Clouds -10 1004 92 10000 2.1 320 08:36 17.01.2020
4188 Clouds -10 1004 92 10000 2.1 320 08:18 17.01.2020
4189 Clouds -10 1004 92 10000 3.1 310 07:42 17.01.2020
4190 Clouds -9 1003 92 10000 2.6 300 07:24 17.01.2020
4191 Clouds -8 1003 92 10000 3.1 300 06:43 17.01.2020
4192 Clouds -7 1002 92 10000 3.6 310 06:20 17.01.2020
4193 Clouds -4 1001 92 10000 3.1 290 04:25 17.01.2020
4194 Clouds -3 1002 97 0 1.85 252 02:55 17.01.2020
4195 Clouds -3 1002 97 0 1.85 252 02:30 17.01.2020
4196 Snow -4 1002 96 0 2.42 204 01:32 17.01.2020
4197 Snow -5 1003 95 0 2.67 195 00:58 17.01.2020
4198 Snow -5 1003 95 0 2.67 195 00:29 17.01.2020
4199 Snow -7 1001 100 10000 1 0 23:54 16.01.2020
4200 Snow -7 1001 100 10000 1 0 23:54 16.01.2020
4201 Snow -7 1001 100 10000 1 0 23:36 16.01.2020
4202 Snow -7 1001 100 10000 1 0 23:18 16.01.2020
4203 Snow -7 1001 100 2300 2.6 210 22:40 16.01.2020
4204 Snow -7 1001 100 2300 2.6 210 22:21 16.01.2020
4205 Snow -7 1001 92 4600 2.6 210 21:56 16.01.2020
4206 Snow -7 1001 92 1500 3.1 200 21:37 16.01.2020
4207 Snow -7 1001 92 1500 3.1 200 21:18 16.01.2020
4208 Snow -7 1001 92 10000 3.1 190 20:56 16.01.2020
4209 Snow -8 1001 92 2900 3.1 160 20:37 16.01.2020
4210 Snow -8 1001 92 2900 3.1 160 20:18 16.01.2020
4211 Snow -8 1001 92 2600 2.1 140 19:41 16.01.2020
4212 Fog -9 1001 92 1200 3.1 120 19:23 16.01.2020
4213 Fog -9 1001 92 900 2.6 120 18:58 16.01.2020
4214 Fog -10 1001 92 500 2.1 90 18:40 16.01.2020
4215 Fog -10 1001 92 500 2.1 90 18:21 16.01.2020
4216 Fog -10 1001 92 600 2.6 80 17:59 16.01.2020
4217 Fog -10 1001 92 600 2.6 80 17:41 16.01.2020
4218 Fog -10 1001 92 800 3.1 90 17:21 16.01.2020
4219 Fog -10 1001 85 750 2.6 70 16:56 16.01.2020
4220 Snow -11 1001 92 1300 1.5 90 16:36 16.01.2020
4221 Snow -11 1001 92 1300 1.5 90 16:18 16.01.2020
4222 Fog -11 1001 92 800 2.1 100 15:42 16.01.2020
4223 Clouds -11 1001 92 1700 3.1 110 15:21 16.01.2020
4224 Clouds -11 1001 92 10000 2.6 110 14:45 16.01.2020
4225 Clouds -11 1001 92 10000 2.1 90 14:24 16.01.2020
4226 Clouds -10 1000 85 10000 2.6 90 13:57 16.01.2020
4227 Clouds -10 1000 85 10000 2.6 90 13:39 16.01.2020
4228 Clouds -10 1000 92 10000 3.1 100 13:21 16.01.2020
4229 Clouds -10 999 92 10000 4.1 90 12:43 16.01.2020
4230 Clouds -10 999 92 10000 5.1 80 12:25 16.01.2020
4231 Clouds -10 999 92 8000 4.6 70 11:54 16.01.2020
4232 Clouds -10 998 92 10000 4.1 80 11:36 16.01.2020
4233 Clouds -10 998 92 10000 4.1 80 11:18 16.01.2020
4234 Clouds -10 997 92 10000 5.1 70 10:38 16.01.2020
4235 Clouds -10 997 92 10000 5.1 70 10:20 16.01.2020
4236 Clouds -10 997 92 10000 4.6 60 09:56 16.01.2020
4237 Clouds -10 997 92 10000 4.1 60 09:37 16.01.2020
4238 Clouds -10 997 92 10000 4.1 60 09:19 16.01.2020
4239 Clouds -10 996 92 10000 3.6 70 08:48 16.01.2020
4240 Clouds -10 996 92 10000 3.1 50 08:29 16.01.2020
4241 Clouds -10 996 92 10000 3.1 50 07:44 16.01.2020
4242 Clouds -10 995 92 10000 2.1 40 07:25 16.01.2020
4243 Clouds -10 995 92 10000 2.1 30 06:59 16.01.2020
4244 Clouds -10 995 92 10000 2.6 50 06:37 16.01.2020
4245 Clouds -10 994 92 10000 2.6 40 05:58 16.01.2020
4246 Clouds -10 994 92 10000 3.1 50 05:39 16.01.2020
4247 Snow -10 993 92 5000 2.6 50 04:37 16.01.2020
4248 Snow -10 993 92 5000 2.6 50 04:37 16.01.2020
4249 Clouds -10 992 85 10000 3.6 30 03:28 16.01.2020
4250 Clouds -8 991 92 10000 2.6 10 02:36 16.01.2020
4251 Clouds -6 990 92 4700 3.6 340 00:48 16.01.2020
4252 Clouds -5 989 92 7000 2.6 340 00:24 16.01.2020
4253 Clouds -5 989 92 10000 3.1 330 23:48 15.01.2020
4254 Clouds -4 988 92 10000 3.1 340 23:22 15.01.2020
4255 Clouds -4 988 92 10000 2.6 340 22:57 15.01.2020
4256 Clouds -4 988 92 10000 2.6 340 22:39 15.01.2020
4257 Snow -3 987 92 10000 2.6 320 22:19 15.01.2020
4258 Snow -3 987 92 2400 2.1 310 21:57 15.01.2020
4259 Snow -3 986 92 10000 1.5 310 21:37 15.01.2020
4260 Snow -3 986 92 10000 1.5 310 21:19 15.01.2020
4261 Snow -3 985 100 5000 1.5 320 20:56 15.01.2020
4262 Snow -3 985 100 5000 1.5 320 20:38 15.01.2020
4263 Snow -3 985 100 9000 2.1 340 20:19 15.01.2020
4264 Snow -3 984 100 10000 3.1 340 19:54 15.01.2020
4265 Snow -3 984 100 10000 2.6 340 19:36 15.01.2020
4266 Snow -3 984 100 10000 2.6 340 19:18 15.01.2020
4267 Snow -2 984 92 3800 1.5 350 18:56 15.01.2020
4268 Snow -2 983 100 6000 1.5 230 18:37 15.01.2020
4269 Snow -2 983 100 6000 1.5 230 18:19 15.01.2020
4270 Mist -2 983 100 4300 1.5 260 17:55 15.01.2020
4271 Mist -2 983 100 4300 1.5 250 17:36 15.01.2020
4272 Mist -2 983 100 4300 1.5 250 17:18 15.01.2020
4273 Fog -2 983 100 1800 2.1 270 16:40 15.01.2020
4274 Fog -2 982 100 1800 2.1 250 16:21 15.01.2020
4275 Mist -1 982 92 3900 3.1 230 15:56 15.01.2020
4276 Mist -1 982 92 3900 3.1 230 15:38 15.01.2020
4277 Fog -1 982 92 1300 3.1 230 15:18 15.01.2020
4278 Clouds -1 982 92 5000 3.6 230 14:42 15.01.2020
4279 Clouds -1 982 92 9000 5.1 210 14:20 15.01.2020
4280 Mist -1 982 100 1000 3.1 210 13:46 15.01.2020
4281 Mist -1 982 92 5000 3.1 200 13:26 15.01.2020
4282 Clouds -1 982 92 7000 3.6 230 12:59 15.01.2020
4283 Fog -1 982 100 9000 3.6 220 12:39 15.01.2020
4284 Fog -1 982 100 9000 3.6 220 12:19 15.01.2020
4285 Fog -1 982 100 9000 3.6 220 12:19 15.01.2020
4286 Clouds -1 982 100 10000 4.1 230 11:56 15.01.2020
4287 Clouds -1 982 100 10000 4.1 220 11:37 15.01.2020
4288 Clouds -1 982 100 10000 4.1 220 11:19 15.01.2020
4289 Clouds -1 982 100 10000 4.1 220 11:19 15.01.2020
4290 Clouds -1 982 100 10000 3.6 230 10:43 15.01.2020
4291 Clouds -1 982 100 10000 3.6 230 10:25 15.01.2020
4292 Clouds -1 982 100 10000 4.6 230 09:44 15.01.2020
4293 Clouds -1 982 100 10000 5.7 220 09:23 15.01.2020
4294 Clouds -1 982 100 10000 5.1 220 08:56 15.01.2020
4295 Clouds -1 982 100 10000 5.1 220 08:38 15.01.2020
4296 Clouds -1 982 100 10000 5.1 220 08:19 15.01.2020
4297 Clouds -1 981 100 10000 4.6 230 07:51 15.01.2020
4298 Clouds -1 981 100 10000 5.1 230 07:31 15.01.2020
4299 Clouds 0 981 94 10000 6.2 230 06:45 15.01.2020
4300 Clouds 0 981 94 10000 6.7 220 06:19 15.01.2020
4301 Snow 0 980 94 10000 5.7 220 04:36 15.01.2020
4302 Snow 0 981 94 7000 6.7 220 02:32 15.01.2020
4303 Snow 0 981 97 1900 6.7 220 01:27 15.01.2020
4304 Snow 0 980 98 5000 7.7 210 00:45 15.01.2020
4305 Snow 0 980 98 10000 7.2 210 00:26 15.01.2020
4306 Snow 0 980 98 4400 7.7 200 23:48 14.01.2020
4307 Snow 0 981 98 4000 7.2 200 23:29 14.01.2020
4308 Snow 0 981 98 3300 5.7 190 22:59 14.01.2020
4309 Snow 0 981 98 3300 5.7 190 22:40 14.01.2020
4310 Clouds 0 982 98 3600 5.7 170 22:19 14.01.2020
4311 Snow -1 982 100 3800 6.2 160 21:58 14.01.2020
4312 Snow -1 983 100 3800 6.7 150 21:39 14.01.2020
4313 Snow -1 983 100 3800 6.7 150 21:20 14.01.2020
4314 Snow -1 983 100 3300 7.2 150 20:56 14.01.2020
4315 Snow -1 983 100 3300 7.2 150 20:38 14.01.2020
4316 Snow -1 985 100 2900 6.2 150 20:19 14.01.2020
4317 Snow -1 985 100 2900 6.2 150 19:55 14.01.2020
4318 Snow -1 986 100 4100 6.2 150 19:37 14.01.2020
4319 Snow -1 986 100 4100 6.2 150 19:18 14.01.2020
4320 Snow -1 987 100 4400 6.2 160 18:41 14.01.2020
4321 Snow -1 989 100 10000 6.2 170 18:20 14.01.2020
4322 Snow -1 989 100 10000 6.2 170 17:58 14.01.2020
4323 Snow -1 990 100 10000 6.2 180 17:37 14.01.2020
4324 Snow -1 990 100 10000 6.2 180 17:18 14.01.2020
4325 Snow -1 990 100 10000 7.2 190 16:44 14.01.2020
4326 Snow 0 991 95 6000 6.7 180 16:23 14.01.2020
4327 Clouds 0 991 95 5000 6.2 190 15:58 14.01.2020
4328 Clouds 0 991 95 5000 6.2 190 15:40 14.01.2020
4329 Clouds 0 991 95 9000 7.7 200 15:19 14.01.2020
4330 Clouds -1 992 100 10000 7.7 210 14:44 14.01.2020
4331 Clouds -1 992 100 10000 6.2 200 14:21 14.01.2020
4332 Clouds -1 992 92 10000 6.7 190 13:57 14.01.2020
4333 Clouds -1 992 92 10000 6.7 190 13:38 14.01.2020
4334 Clouds -2 992 92 10000 5.7 180 13:18 14.01.2020
4335 Clouds -2 992 92 10000 5.7 180 13:18 14.01.2020
4336 Clouds -3 993 100 10000 5.7 190 12:42 14.01.2020
4337 Clouds -4 993 100 7000 4.6 180 12:21 14.01.2020
4338 Fog -5 993 92 10000 5.1 160 11:55 14.01.2020
4339 Clouds -6 993 92 10000 2.6 140 11:36 14.01.2020
4340 Clouds -6 993 92 10000 2.6 140 11:18 14.01.2020
4341 Clouds -5 993 92 10000 2.6 150 10:40 14.01.2020
4342 Clouds -5 994 92 10000 3.6 190 10:20 14.01.2020
4343 Clouds -5 993 92 10000 2.1 180 09:58 14.01.2020
4344 Clouds -5 993 92 10000 2.1 180 09:40 14.01.2020
4345 Clouds -6 993 100 10000 2.1 190 09:21 14.01.2020
4346 Clouds -6 992 92 10000 2.1 240 08:48 14.01.2020
4347 Clouds -6 993 92 10000 3.1 230 08:25 14.01.2020
4348 Clouds -6 992 92 10000 2.6 210 07:56 14.01.2020
4349 Clouds -6 992 92 10000 3.1 220 07:33 14.01.2020
4350 Clouds -6 992 92 10000 3.6 230 06:56 14.01.2020
4351 Clouds -6 992 92 10000 4.6 220 06:33 14.01.2020
4352 Clouds -6 992 92 10000 4.1 220 05:27 14.01.2020
4353 Clouds -6 991 92 10000 4.1 220 03:52 14.01.2020
4354 Clouds -7 990 100 10000 4.1 220 02:43 14.01.2020
4355 Clear -6 990 92 10000 3.6 220 01:53 14.01.2020
4356 Clouds -5 989 92 10000 3.6 230 00:51 14.01.2020
4357 Clouds -5 989 92 10000 3.1 240 00:32 14.01.2020
4358 Clouds -5 989 92 10000 3.1 240 00:32 14.01.2020
4359 Clouds -5 989 92 10000 3.1 240 00:32 14.01.2020
4360 Clouds -4 988 92 10000 3.1 240 23:55 13.01.2020
4361 Clouds -4 988 92 10000 2.6 230 23:37 13.01.2020
4362 Clouds -4 988 92 10000 2.6 230 23:18 13.01.2020
4363 Clouds -4 988 92 10000 2.6 230 23:18 13.01.2020
4364 Clouds -4 988 92 10000 4.1 230 22:42 13.01.2020
4365 Clouds -4 988 100 10000 4.6 230 22:21 13.01.2020
4366 Clouds -4 987 100 10000 4.1 230 21:56 13.01.2020
4367 Clouds -4 987 100 10000 5.7 220 21:38 13.01.2020
4368 Clouds -4 987 100 10000 5.7 220 21:19 13.01.2020
4369 Clouds -3 987 92 10000 6.7 220 20:58 13.01.2020
4370 Clouds -3 987 92 10000 6.7 220 20:40 13.01.2020
4371 Clouds -4 988 100 10000 6.2 220 20:22 13.01.2020
4372 Clouds -3 988 92 10000 5.7 220 19:58 13.01.2020
4373 Clouds -4 988 100 10000 6.7 220 19:39 13.01.2020
4374 Clouds -4 988 100 10000 6.7 220 19:19 13.01.2020
4375 Clouds -4 988 92 10000 7.2 220 18:56 13.01.2020
4376 Clouds -5 988 100 10000 6.2 220 18:37 13.01.2020
4377 Clouds -5 988 100 10000 6.2 220 18:37 13.01.2020
4378 Clouds -5 988 100 10000 6.2 220 18:18 13.01.2020
4379 Clouds -5 988 92 10000 5.7 220 17:40 13.01.2020
4380 Clouds -6 989 92 10000 5.7 220 17:40 13.01.2020
4381 Clouds -6 989 92 10000 5.7 220 17:22 13.01.2020
4382 Snow -6 989 92 10000 5.1 220 16:56 13.01.2020
4383 Clouds -5 991 93 0 3.96 209 16:37 13.01.2020
4384 Clouds -5 991 93 0 3.96 209 16:19 13.01.2020
4385 Clouds -5 991 93 0 3.96 209 15:43 13.01.2020
4386 Clouds -5 991 93 0 3.96 209 15:22 13.01.2020
4387 Clouds -5 991 93 0 3.96 209 14:57 13.01.2020
4388 Clouds -5 991 93 0 3.96 209 14:37 13.01.2020
4389 Clouds -6 992 93 0 3.9 217 14:18 13.01.2020
4390 Clouds -6 992 93 0 3.9 217 13:41 13.01.2020
4391 Clouds -6 992 93 0 3.9 217 13:23 13.01.2020
4392 Clouds -6 992 94 0 3.47 215 12:58 13.01.2020
4393 Clouds -7 989 92 6000 4.6 220 12:40 13.01.2020
4394 Clouds -7 989 92 6000 4.6 220 12:40 13.01.2020
4395 Clouds -7 989 92 6000 4.6 220 12:21 13.01.2020
4396 Clouds -7 989 92 6000 4.6 220 11:56 13.01.2020
4397 Clouds -7 989 92 5000 3.6 210 11:36 13.01.2020
4398 Clouds -7 989 92 5000 3.6 210 11:18 13.01.2020
4399 Fog -7 989 92 700 4.1 230 10:55 13.01.2020
4400 Mist -7 989 92 1000 4.1 210 10:36 13.01.2020
4401 Mist -7 989 92 1000 4.1 210 10:18 13.01.2020
4402 Fog -8 988 92 400 3.1 230 09:40 13.01.2020
4403 Fog -8 988 92 400 3.1 230 09:22 13.01.2020
4404 Mist -8 988 92 2000 2.6 220 08:42 13.01.2020
4405 Fog -8 988 92 1400 3.6 230 08:21 13.01.2020
4406 Mist -8 988 92 2000 4.1 230 07:57 13.01.2020
4407 Mist -8 988 92 1400 4.1 220 07:38 13.01.2020
4408 Clouds -8 988 92 10000 4.1 220 06:55 13.01.2020
4409 Clouds -8 988 85 10000 3.6 220 06:36 13.01.2020
4410 Clouds -9 988 92 10000 2.6 220 05:36 13.01.2020
4411 Clear -9 988 92 10000 3.1 240 04:25 13.01.2020
4412 Clear -8 988 92 10000 2.6 230 03:31 13.01.2020
4413 Clear -9 988 92 10000 3.6 230 02:47 13.01.2020
4414 Clear -9 987 92 10000 2.1 230 02:29 13.01.2020
4415 Clouds -8 987 85 10000 3.6 230 01:23 13.01.2020
4416 Clouds -8 987 92 10000 2.6 230 00:42 13.01.2020
4417 Clouds -8 987 92 10000 2.6 230 00:24 13.01.2020
4418 Clouds -7 987 92 10000 3.1 240 23:55 12.01.2020
4419 Clouds -8 986 92 10000 2.6 230 23:36 12.01.2020
4420 Clouds -8 986 92 10000 2.6 230 23:18 12.01.2020
4421 Clouds -8 986 92 10000 2.6 230 23:18 12.01.2020
4422 Clouds -7 986 92 10000 2.6 230 22:42 12.01.2020
4423 Clouds -7 986 92 10000 2.6 230 22:24 12.01.2020
4424 Clouds -5 986 92 10000 2.6 230 21:57 12.01.2020
4425 Clouds -5 986 92 10000 2.6 230 21:38 12.01.2020
4426 Clouds -5 985 92 10000 3.1 240 21:19 12.01.2020
4427 Clouds -5 985 92 10000 3.1 250 20:56 12.01.2020
4428 Clouds -5 984 92 10000 4.1 230 20:38 12.01.2020
4429 Clouds -5 984 92 10000 4.1 230 20:20 12.01.2020
4430 Clouds -5 984 92 10000 4.1 230 19:56 12.01.2020
4431 Clouds -5 984 92 10000 3.6 230 19:37 12.01.2020
4432 Clouds -5 984 92 10000 3.6 230 19:18 12.01.2020
4433 Clouds -5 983 92 10000 3.1 240 18:57 12.01.2020
4434 Clouds -5 983 92 10000 3.1 240 18:57 12.01.2020
4435 Clouds -5 983 92 10000 3.1 240 18:39 12.01.2020
4436 Clouds -3 983 92 10000 3.1 260 18:21 12.01.2020
4437 Clouds -3 983 92 10000 3.1 260 17:54 12.01.2020
4438 Clouds -2 982 92 10000 3.6 280 17:36 12.01.2020
4439 Clouds -2 982 92 10000 3.6 280 17:18 12.01.2020
4440 Clouds -2 982 92 10000 4.1 270 16:54 12.01.2020
4441 Clouds -2 982 92 10000 4.1 260 16:36 12.01.2020
4442 Clouds -2 982 92 10000 4.1 260 16:18 12.01.2020
4443 Snow -1 981 92 3400 4.1 260 15:40 12.01.2020
4444 Snow -1 981 92 3400 4.1 260 15:21 12.01.2020
4445 Snow -2 981 92 4900 3.6 240 14:44 12.01.2020
4446 Snow -3 980 100 2700 4.6 230 14:25 12.01.2020
4447 Snow -3 980 100 10000 4.1 240 13:58 12.01.2020
4448 Snow -3 979 100 10000 4.1 230 13:40 12.01.2020
4449 Snow -3 979 100 10000 4.1 230 13:22 12.01.2020
4450 Clouds -3 979 92 10000 4.1 230 12:57 12.01.2020
4451 Clouds -3 978 92 10000 3.6 230 12:38 12.01.2020
4452 Clouds -3 978 92 10000 3.6 230 12:19 12.01.2020
4453 Clouds -4 978 100 10000 1.5 230 11:42 12.01.2020
4454 Clouds -3 978 92 10000 3.1 240 11:22 12.01.2020
4455 Clouds -3 978 100 10000 5.1 230 10:58 12.01.2020
4456 Clouds -3 977 100 10000 4.1 230 10:40 12.01.2020
4457 Clouds -3 977 100 10000 4.1 230 10:20 12.01.2020
4458 Clouds -3 977 100 10000 3.6 230 09:43 12.01.2020
4459 Clouds -2 977 100 10000 4.6 230 09:23 12.01.2020
4460 Clouds -2 977 100 10000 3.1 240 08:48 12.01.2020
4461 Clouds -2 977 100 10000 4.1 240 08:24 12.01.2020
4462 Clouds -2 977 100 10000 5.1 230 07:56 12.01.2020
4463 Clouds -2 977 100 10000 3.6 230 07:37 12.01.2020
4464 Clouds -2 977 100 10000 3.6 230 07:19 12.01.2020
4465 Clouds -1 977 92 10000 3.1 240 06:38 12.01.2020
4466 Clouds -1 977 100 10000 3.1 230 05:55 12.01.2020
4467 Clouds -1 977 100 10000 4.6 230 04:56 12.01.2020
4468 Clouds -1 977 100 10000 6.7 240 03:43 12.01.2020
4469 Clouds -1 978 100 10000 5.7 240 02:48 12.01.2020
4470 Clouds -1 978 100 10000 5.7 240 02:24 12.01.2020
4471 Clouds -1 979 100 10000 6.7 230 01:34 12.01.2020
4472 Snow -1 979 100 10000 6.7 220 00:46 12.01.2020
4473 Snow -1 979 100 5000 6.7 220 00:22 12.01.2020
4474 Snow -1 980 100 3300 7.7 220 23:57 11.01.2020
4475 Snow -1 980 100 3300 7.7 220 23:39 11.01.2020
4476 Snow -1 980 100 2300 6.7 210 23:18 11.01.2020
4477 Snow -1 981 92 4600 7.2 220 22:56 11.01.2020
4478 Clouds -2 981 100 10000 7.7 220 22:37 11.01.2020
4479 Clouds -2 981 100 10000 7.7 220 22:19 11.01.2020
4480 Snow -2 982 100 10000 7.7 210 21:44 11.01.2020
4481 Snow -2 983 100 3400 6.7 200 21:19 11.01.2020
4482 Snow -2 983 100 1600 6.2 190 20:56 11.01.2020
4483 Snow -2 984 100 1200 6.7 190 20:38 11.01.2020
4484 Snow -2 984 100 1200 6.7 190 20:19 11.01.2020
4485 Snow -2 985 92 1300 5.7 180 19:56 11.01.2020
4486 Snow -2 985 92 4100 6.2 160 19:38 11.01.2020
4487 Snow -2 985 92 4100 6.2 160 19:20 11.01.2020
4488 Clouds -3 986 100 3700 6.7 170 18:55 11.01.2020
4489 Clouds -3 988 100 7000 7.7 170 18:36 11.01.2020
4490 Clouds -3 988 100 7000 7.7 170 18:18 11.01.2020
4491 Clouds -3 989 100 10000 7.2 160 17:56 11.01.2020
4492 Clouds -3 990 100 7000 6.7 170 17:37 11.01.2020
4493 Clouds -3 990 100 7000 6.7 170 17:18 11.01.2020
4494 Clouds -3 990 100 7000 6.7 170 17:18 11.01.2020
4495 Snow -3 991 100 6000 6.2 170 16:43 11.01.2020
4496 Snow -3 992 92 10000 5.7 160 16:23 11.01.2020
4497 Clouds -3 993 92 10000 6.2 160 15:43 11.01.2020
4498 Clouds -3 994 92 10000 4.6 150 15:24 11.01.2020
4499 Clouds -3 995 92 10000 5.1 150 14:59 11.01.2020
4500 Clouds -3 995 92 10000 5.1 150 14:41 11.01.2020
4501 Clouds -4 997 100 10000 5.1 150 14:22 11.01.2020
4502 Clouds -4 998 92 10000 4.6 160 13:55 11.01.2020
4503 Snow -5 999 100 10000 4.6 160 13:37 11.01.2020
4504 Snow -5 999 100 10000 4.6 160 13:18 11.01.2020
4505 Snow -5 1000 92 10000 3.6 170 12:44 11.01.2020
4506 Snow -6 1000 92 10000 3.1 160 12:26 11.01.2020
4507 Snow -6 1001 92 10000 3.6 170 11:55 11.01.2020
4508 Clouds -7 1001 92 10000 3.1 170 11:37 11.01.2020
4509 Clouds -7 1001 92 10000 3.1 170 11:18 11.01.2020
4510 Clouds -7 1001 92 10000 3.1 170 11:18 11.01.2020
4511 Clouds -7 1001 92 10000 3.1 170 11:18 11.01.2020
4512 Clouds -7 1001 100 10000 4.1 170 10:42 11.01.2020
4513 Clouds -7 1001 100 10000 4.1 170 10:42 11.01.2020
4514 Clouds -7 1002 92 10000 4.1 170 10:23 11.01.2020
4515 Clouds -7 1003 100 10000 3.6 180 09:39 11.01.2020
4516 Clouds -7 1003 92 10000 3.1 210 09:21 11.01.2020
4517 Clouds -7 1003 92 10000 4.1 200 08:43 11.01.2020
4518 Clouds -8 1004 100 10000 3.1 200 08:22 11.01.2020
4519 Clouds -8 1004 92 10000 3.1 210 07:44 11.01.2020
4520 Clouds -9 1004 92 10000 3.1 220 07:26 11.01.2020
4521 Snow -9 1005 92 10000 3.6 240 06:55 11.01.2020
4522 Clouds -9 1004 92 10000 4.1 220 06:19 11.01.2020
4523 Snow -10 1005 92 10000 2.6 210 04:48 11.01.2020
4524 Clouds -11 1005 92 3900 2.6 220 04:29 11.01.2020
4525 Fog -10 1005 92 650 2.1 220 03:28 11.01.2020
4526 Fog -10 1005 92 1800 2.6 230 02:40 11.01.2020
4527 Fog -10 1004 92 700 2.6 230 01:44 11.01.2020
4528 Clouds -10 1005 92 750 3.6 220 01:20 11.01.2020
4529 Fog -9 1004 92 650 2.6 220 00:44 11.01.2020
4530 Fog -10 1004 92 750 3.6 230 00:19 11.01.2020
4531 Clouds -10 1004 92 550 3.1 220 23:41 10.01.2020
4532 Clouds -10 1004 92 1100 2.6 230 23:41 10.01.2020
4533 Clouds -10 1004 92 1100 2.6 230 23:22 10.01.2020
4534 Fog -9 1004 92 700 3.6 220 22:59 10.01.2020
4535 Fog -9 1004 92 700 3.6 220 22:40 10.01.2020
4536 Fog -9 1003 92 1100 3.1 240 22:20 10.01.2020
4537 Clouds -9 1003 92 750 2.6 230 21:57 10.01.2020
4538 Fog -8 1003 92 400 2.6 180 21:37 10.01.2020
4539 Fog -8 1003 92 400 2.6 180 21:19 10.01.2020
4540 Fog -8 1003 92 450 2.6 220 20:43 10.01.2020
4541 Fog -8 1003 100 500 2.6 210 20:24 10.01.2020
4542 Fog -8 1003 100 500 2.6 210 20:24 10.01.2020
4543 Clouds -8 1003 92 10000 2.6 240 19:59 10.01.2020
4544 Clouds -8 1003 92 10000 2.6 230 19:38 10.01.2020
4545 Clouds -8 1003 92 10000 2.6 230 19:19 10.01.2020
4546 Clouds -7 1003 92 10000 3.1 250 18:43 10.01.2020
4547 Clouds -7 1003 92 10000 3.6 240 18:19 10.01.2020
4548 Clouds -8 1003 100 10000 2.1 220 17:58 10.01.2020
4549 Clouds -6 1002 92 10000 3.1 260 17:39 10.01.2020
4550 Clouds -6 1002 92 10000 3.1 260 17:20 10.01.2020
4551 Clouds -7 1002 92 10000 3.6 260 16:58 10.01.2020
4552 Clouds -9 1002 92 10000 3.1 240 16:39 10.01.2020
4553 Clouds -9 1002 92 10000 3.1 240 16:20 10.01.2020
4554 Clouds -8 1002 100 10000 3.6 260 15:56 10.01.2020
4555 Clouds -8 1002 100 10000 4.1 250 15:37 10.01.2020
4556 Clouds -8 1002 100 10000 4.1 250 15:18 10.01.2020
4557 Clouds -8 1001 92 10000 4.1 250 14:55 10.01.2020
4558 Clouds -8 1001 100 10000 3.1 250 14:37 10.01.2020
4559 Clouds -8 1001 100 10000 3.1 250 14:18 10.01.2020
4560 Clouds -7 1001 92 10000 2.6 260 13:44 10.01.2020
4561 Clouds -8 1001 92 10000 3.6 250 13:25 10.01.2020
4562 Clear -7 1001 92 10000 3.1 250 12:58 10.01.2020
4563 Clear -7 1001 92 10000 3.1 250 12:39 10.01.2020
4564 Clear -7 1001 92 10000 1.5 220 12:19 10.01.2020
4565 Clear -7 1000 85 10000 3.1 230 11:55 10.01.2020
4566 Clear -7 1000 92 10000 2.1 180 11:37 10.01.2020
4567 Clear -7 1000 92 10000 2.1 180 11:18 10.01.2020
4568 Clear -7 1000 92 10000 2.1 180 11:18 10.01.2020
4569 Clear -6 1000 85 10000 2.6 190 10:44 10.01.2020
4570 Clear -6 999 85 10000 2.6 210 10:24 10.01.2020
4571 Clear -6 999 85 10000 2.6 240 09:59 10.01.2020
4572 Clear -6 999 85 10000 2.6 240 09:40 10.01.2020
4573 Clear -7 999 85 10000 2.1 230 09:22 10.01.2020
4574 Clear -6 999 85 10000 1.5 210 08:43 10.01.2020
4575 Clear -4 998 79 10000 2.1 270 08:24 10.01.2020
4576 Clear -4 998 79 10000 3.1 280 07:46 10.01.2020
4577 Clear -3 998 68 10000 3.6 270 07:28 10.01.2020
4578 Clear -4 998 73 10000 4.6 270 06:50 10.01.2020
4579 Clear -3 998 68 10000 4.1 260 06:26 10.01.2020
4580 Clear -4 998 73 10000 4.1 270 05:51 10.01.2020
4581 Clear -3 997 68 10000 5.7 250 03:46 10.01.2020
4582 Clear -3 997 68 10000 5.7 250 03:27 10.01.2020
4583 Clear -3 996 68 10000 6.7 260 02:50 10.01.2020
4584 Clear -3 995 63 10000 6.2 250 01:47 10.01.2020
4585 Clear -3 995 63 10000 6.2 250 01:47 10.01.2020
4586 Clear -3 995 63 10000 5.7 250 01:28 10.01.2020
4587 Clear -2 994 58 10000 6.7 250 00:44 10.01.2020
4588 Clear -3 993 63 10000 6.7 240 23:58 09.01.2020
4589 Clear -2 993 63 10000 7.2 250 23:39 09.01.2020
4590 Clear -2 993 63 10000 7.2 250 23:20 09.01.2020
4591 Clear -2 993 63 10000 6.7 250 22:57 09.01.2020
4592 Clear -2 992 63 10000 6.7 250 22:39 09.01.2020
4593 Clear -2 992 63 10000 6.7 250 22:19 09.01.2020
4594 Clear -2 992 63 10000 6.2 260 21:57 09.01.2020
4595 Clear -3 991 68 10000 5.7 250 21:38 09.01.2020
4596 Clear -3 991 68 10000 5.7 250 21:19 09.01.2020
4597 Clear -2 991 63 10000 5.7 250 20:57 09.01.2020
4598 Clear -2 991 63 10000 5.7 250 20:39 09.01.2020
4599 Clouds -2 990 63 10000 6.7 250 20:19 09.01.2020
4600 Clear -1 990 58 10000 5.7 250 19:57 09.01.2020
4601 Clear -1 990 58 10000 5.7 250 19:37 09.01.2020
4602 Clear -1 990 58 10000 6.2 260 19:19 09.01.2020
4603 Clear -1 989 63 10000 5.1 260 18:55 09.01.2020
4604 Clear -1 989 63 10000 5.1 260 18:36 09.01.2020
4605 Clear -1 989 63 10000 6.7 270 18:18 09.01.2020
4606 Clear 0 988 65 10000 7.2 260 17:41 09.01.2020
4607 Clouds 0 988 65 10000 6.7 270 17:18 09.01.2020
4608 Clouds 0 987 65 10000 6.2 270 16:48 09.01.2020
4609 Clouds 0 987 65 10000 6.2 270 16:24 09.01.2020
4610 Clouds 1 986 59 10000 6.2 270 15:57 09.01.2020
4611 Clouds 1 986 59 10000 6.2 270 15:39 09.01.2020
4612 Clouds 1 986 59 10000 6.7 270 15:18 09.01.2020
4613 Clouds 1 986 64 10000 6.2 270 14:42 09.01.2020
4614 Clouds 1 985 64 10000 6.7 260 14:21 09.01.2020
4615 Clouds 1 985 64 10000 6.7 260 13:57 09.01.2020
4616 Clouds 1 984 69 10000 6.2 260 13:39 09.01.2020
4617 Clouds 1 983 69 10000 7.2 260 13:20 09.01.2020
4618 Clouds 1 983 69 10000 7.2 260 12:58 09.01.2020
4619 Clouds 1 983 69 10000 7.2 260 12:58 09.01.2020
4620 Clouds 1 983 69 10000 8.2 260 12:38 09.01.2020
4621 Clouds 1 982 69 10000 6.2 250 12:19 09.01.2020
4622 Clouds 0 981 64 10000 5.7 240 11:43 09.01.2020
4623 Clouds 0 981 64 10000 5.7 240 11:25 09.01.2020
4624 Clouds -1 980 80 10000 5.7 240 10:59 09.01.2020
4625 Clouds -1 980 80 10000 5.7 240 10:41 09.01.2020
4626 Clouds -1 980 80 10000 6.7 230 10:22 09.01.2020
4627 Clouds -2 980 86 10000 6.7 230 09:49 09.01.2020
4628 Clouds -2 979 86 10000 6.7 230 09:25 09.01.2020
4629 Clouds -2 979 86 10000 6.7 230 08:59 09.01.2020
4630 Clouds -1 979 80 10000 7.7 220 08:40 09.01.2020
4631 Clouds -1 979 80 10000 7.2 220 08:21 09.01.2020
4632 Clouds -2 978 86 10000 7.7 220 07:53 09.01.2020
4633 Clouds -2 978 86 10000 7.7 220 07:33 09.01.2020
4634 Clouds -2 978 86 10000 7.7 210 06:52 09.01.2020
4635 Clouds -2 978 86 10000 7.7 210 06:32 09.01.2020
4636 Clouds -1 978 80 10000 7.2 220 05:52 09.01.2020
4637 Clouds -1 978 80 10000 7.2 220 05:26 09.01.2020
4638 Clouds -1 978 80 10000 6.7 200 04:40 09.01.2020
4639 Clouds -2 979 86 10000 6.7 220 03:28 09.01.2020
4640 Clouds -2 979 86 10000 7.2 220 02:47 09.01.2020
4641 Clouds -2 979 92 10000 5.1 220 01:42 09.01.2020
4642 Clouds -2 978 86 10000 5.7 210 01:18 09.01.2020
4643 Clouds -2 978 86 10000 5.7 210 01:18 09.01.2020
4644 Clouds -2 978 92 10000 6.2 220 00:38 09.01.2020
4645 Clouds -2 978 92 10000 5.7 220 00:19 09.01.2020
4646 Clouds -2 978 92 10000 5.7 220 00:19 09.01.2020
4647 Clouds -2 979 92 10000 5.1 220 23:40 08.01.2020
4648 Clouds -2 979 92 10000 6.2 220 23:22 08.01.2020
4649 Clouds -2 979 92 10000 4.1 230 22:56 08.01.2020
4650 Clouds -2 979 92 10000 4.1 230 22:56 08.01.2020
4651 Clouds -2 979 92 10000 4.1 230 22:37 08.01.2020
4652 Clouds -1 979 92 10000 5.1 230 22:18 08.01.2020
4653 Clouds -1 979 92 10000 5.1 230 21:55 08.01.2020
4654 Clouds -1 978 92 10000 6.2 230 21:37 08.01.2020
4655 Clouds -1 978 92 10000 5.7 230 21:18 08.01.2020
4656 Clouds 0 978 80 10000 6.2 230 20:41 08.01.2020
4657 Clouds 0 978 75 10000 5.1 230 20:21 08.01.2020
4658 Clouds 0 978 75 10000 5.1 230 19:58 08.01.2020
4659 Clouds 0 978 75 10000 4.6 230 19:38 08.01.2020
4660 Clouds 1 977 75 10000 5.7 230 19:19 08.01.2020
4661 Clouds 1 977 75 10000 5.7 230 18:58 08.01.2020
4662 Clouds 1 977 75 10000 6.2 240 18:39 08.01.2020
4663 Clouds 1 977 100 10000 7.7 230 18:19 08.01.2020
4664 Clouds 1 976 100 10000 7.2 230 17:57 08.01.2020
4665 Clouds 1 976 100 10000 7.2 230 17:38 08.01.2020
4666 Clouds 1 976 100 10000 6.7 230 17:19 08.01.2020
4667 Clouds 1 976 100 10000 6.7 230 17:19 08.01.2020
4668 Clouds 1 976 100 10000 5.7 230 16:55 08.01.2020
4669 Clouds 1 976 100 10000 5.7 230 16:37 08.01.2020
4670 Clouds 1 976 100 9000 4.6 220 16:18 08.01.2020
4671 Mist 1 976 100 4100 6.2 220 15:44 08.01.2020
4672 Mist 1 976 100 4100 6.2 220 15:44 08.01.2020
4673 Clouds 1 975 100 10000 7.2 220 15:21 08.01.2020
4674 Clouds 1 975 100 10000 7.2 220 14:58 08.01.2020
4675 Mist 1 975 100 4900 5.7 220 14:40 08.01.2020
4676 Mist 1 975 100 1600 6.2 230 14:20 08.01.2020
4677 Mist 1 975 100 1600 6.2 230 14:20 08.01.2020
4678 Fog 1 975 100 600 7.2 220 13:41 08.01.2020
4679 Fog 1 975 100 500 7.7 220 13:20 08.01.2020
4680 Mist 1 975 100 1200 7.7 220 12:43 08.01.2020
4681 Rain 1 975 100 6000 7.7 220 12:20 08.01.2020
4682 Rain 1 975 100 6000 7.7 220 11:59 08.01.2020
4683 Rain 1 976 100 10000 8.2 210 11:41 08.01.2020
4684 Clouds 1 976 100 10000 7.7 210 11:19 08.01.2020
4685 Clouds 1 976 100 10000 7.7 210 10:56 08.01.2020
4686 Rain 1 976 93 8000 7.2 200 10:38 08.01.2020
4687 Snow 1 977 93 7000 7.7 200 10:19 08.01.2020
4688 Rain 1 977 93 7000 8.2 200 09:42 08.01.2020
4689 Rain 1 978 93 3000 8.2 200 09:20 08.01.2020
4690 Rain 1 978 93 3000 8.2 200 08:57 08.01.2020
4691 Rain 1 978 93 7000 7.2 200 08:37 08.01.2020
4692 Drizzle 1 979 96 3500 8.2 200 08:19 08.01.2020
4693 Clouds 1 979 96 6000 8.2 200 07:49 08.01.2020
4694 Clouds 1 979 96 6000 8.2 200 07:30 08.01.2020
4695 Snow 0 980 96 5000 7.7 190 06:48 08.01.2020
4696 Snow 0 981 96 8000 8.2 180 06:24 08.01.2020
4697 Clouds 0 982 96 4000 7.7 170 05:53 08.01.2020
4698 Clouds 0 982 96 4000 7.7 170 05:53 08.01.2020
4699 Clouds 0 983 96 3400 7.7 170 04:57 08.01.2020
4700 Snow 0 984 96 6000 7.2 160 04:25 08.01.2020
4701 Snow 1 988 96 10000 8.2 190 02:45 08.01.2020
4702 Clouds 1 990 96 10000 7.2 180 02:22 08.01.2020
4703 Clouds 0 990 94 10000 7.2 180 01:48 08.01.2020
4704 Clouds 0 991 94 10000 6.2 180 01:19 08.01.2020
4705 Clouds 0 992 95 10000 5.7 180 00:28 08.01.2020
4706 Clouds 0 992 95 10000 5.7 180 00:28 08.01.2020
4707 Clouds 0 993 95 10000 6.7 190 23:57 07.01.2020
4708 Clouds 0 993 95 10000 7.2 200 23:39 07.01.2020
4709 Clouds 0 994 95 10000 7.7 200 23:20 07.01.2020
4710 Clouds 0 994 95 10000 7.7 200 23:20 07.01.2020
4711 Clouds 0 994 95 10000 7.7 200 22:40 07.01.2020
4712 Fog 0 995 95 1200 7.2 210 22:20 07.01.2020
4713 Fog 0 995 95 1200 7.2 210 21:56 07.01.2020
4714 Clouds 0 995 95 2100 6.2 190 21:38 07.01.2020
4715 Fog 0 995 95 1700 6.7 210 21:20 07.01.2020
4716 Fog 0 995 95 1700 6.7 210 20:55 07.01.2020
4717 Fog 0 995 95 1000 7.2 210 20:36 07.01.2020
4718 Fog 0 996 96 800 7.7 210 20:18 07.01.2020
4719 Fog 0 995 96 650 7.2 220 19:38 07.01.2020
4720 Fog 0 996 96 550 6.7 220 19:19 07.01.2020
4721 Fog 0 996 96 550 6.7 220 18:58 07.01.2020
4722 Fog 0 996 96 550 6.7 220 18:58 07.01.2020
4723 Fog 0 996 96 450 5.1 220 18:40 07.01.2020
4724 Fog 0 996 96 500 6.7 220 18:19 07.01.2020
4725 Fog 0 996 96 500 6.7 220 17:58 07.01.2020
4726 Fog 0 996 96 650 7.7 220 17:39 07.01.2020
4727 Fog 0 995 95 1000 7.7 220 17:20 07.01.2020
4728 Clouds 0 995 95 7000 7.7 220 16:56 07.01.2020
4729 Clouds 0 995 95 7000 7.7 220 16:37 07.01.2020
4730 Clouds 0 996 95 10000 8.7 230 16:18 07.01.2020
4731 Clouds 0 996 95 10000 8.7 230 15:55 07.01.2020
4732 Clouds 0 996 95 10000 6.7 230 15:36 07.01.2020
4733 Clouds 1 995 95 10000 7.7 220 15:18 07.01.2020
4734 Drizzle 1 995 100 2100 7.2 220 14:41 07.01.2020
4735 Drizzle 1 995 100 2500 6.7 200 14:22 07.01.2020
4736 Drizzle 0 995 95 2000 6.2 180 13:56 07.01.2020
4737 Drizzle 0 995 95 2000 6.2 180 13:37 07.01.2020
4738 Drizzle 0 995 95 5000 7.2 170 13:18 07.01.2020
4739 Snow 0 996 95 5000 6.7 170 12:40 07.01.2020
4740 Snow 0 996 95 5000 6.7 170 12:40 07.01.2020
4741 Clouds 0 996 95 3000 6.7 160 12:19 07.01.2020
4742 Drizzle 0 996 95 2000 7.2 160 11:43 07.01.2020
4743 Drizzle 0 997 93 2000 6.7 170 11:23 07.01.2020
4744 Drizzle 0 997 93 2000 6.7 170 10:58 07.01.2020
4745 Drizzle 0 998 93 2000 6.2 160 10:39 07.01.2020
4746 Mist 0 998 93 2500 6.7 170 10:21 07.01.2020
4747 Mist 0 998 93 2500 7.2 180 09:55 07.01.2020
4748 Mist 0 998 93 2500 7.2 180 09:37 07.01.2020
4749 Mist 0 999 93 4000 6.7 180 09:19 07.01.2020
4750 Clouds 0 999 93 6000 7.2 180 08:41 07.01.2020
4751 Clouds 0 999 96 8000 6.7 180 08:18 07.01.2020
4752 Clouds 0 999 96 10000 7.2 190 07:49 07.01.2020
4753 Clouds 0 999 96 3000 7.7 190 07:23 07.01.2020
4754 Clouds 0 999 96 2000 7.2 190 06:50 07.01.2020
4755 Clouds 0 999 96 2000 7.2 190 06:30 07.01.2020
4756 Clouds 0 1000 96 1100 6.7 190 05:41 07.01.2020
4757 Fog 0 1000 97 700 5.7 190 03:52 07.01.2020
4758 Fog 0 1000 97 700 5.7 190 03:52 07.01.2020
4759 Fog 0 1000 97 700 5.7 190 03:25 07.01.2020
4760 Clouds -1 1001 100 2500 4.1 170 02:20 07.01.2020
4761 Clouds -1 1001 100 1200 4.1 160 01:40 07.01.2020
4762 Clouds -1 1001 100 1200 4.1 160 01:40 07.01.2020
4763 Clouds -1 1001 100 1200 4.1 160 01:40 07.01.2020
4764 Clouds -2 1001 100 1300 3.6 150 00:59 07.01.2020
4765 Mist -2 1002 92 3600 4.1 160 00:21 07.01.2020
4766 Clouds -3 1002 100 6000 3.6 150 23:57 06.01.2020
4767 Clouds -3 1002 100 6000 3.6 150 23:38 06.01.2020
4768 Clouds -3 1002 92 5000 3.1 150 23:20 06.01.2020
4769 Clouds -4 1002 100 6000 2.6 150 22:44 06.01.2020
4770 Clouds -4 1002 100 6000 2.6 150 22:44 06.01.2020
4771 Clouds -4 1002 100 2300 2.6 160 22:25 06.01.2020
4772 Clouds -4 1002 100 2300 2.6 160 21:59 06.01.2020
4773 Fog -4 1002 92 1000 2.1 160 21:40 06.01.2020
4774 Fog -5 1002 100 1800 2.6 180 21:20 06.01.2020
4775 Fog -5 1002 100 1800 2.6 180 20:57 06.01.2020
4776 Fog -5 1002 92 2100 2.1 150 20:39 06.01.2020
4777 Fog -6 1002 100 700 2.6 170 20:20 06.01.2020
4778 Fog -6 1002 100 700 2.6 170 20:20 06.01.2020
4779 Fog -6 1001 100 1000 2.1 160 19:57 06.01.2020
4780 Fog -6 1001 100 1000 2.1 160 19:39 06.01.2020
4781 Fog -5 1002 92 900 2.6 160 19:20 06.01.2020
4782 Fog -5 1002 92 600 2.6 180 18:48 06.01.2020
4783 Fog -5 1002 92 600 2.6 180 18:48 06.01.2020
4784 Fog -5 1002 92 400 2.6 180 18:23 06.01.2020
4785 Fog -5 1002 92 400 2.6 180 17:59 06.01.2020
4786 Fog -5 1002 92 350 2.1 190 17:39 06.01.2020
4787 Fog -5 1002 92 450 3.1 210 17:19 06.01.2020
4788 Fog -5 1001 92 400 2.6 210 16:46 06.01.2020
4789 Fog -5 1001 92 400 2.6 210 16:46 06.01.2020
4790 Fog -5 1001 92 300 1.5 210 16:27 06.01.2020
4791 Fog -5 1001 92 300 1.5 210 15:59 06.01.2020
4792 Fog -5 1001 92 400 2.1 190 15:41 06.01.2020
4793 Fog -5 1001 92 450 3.1 210 15:20 06.01.2020
4794 Fog -5 1001 92 450 3.1 210 14:58 06.01.2020
4795 Snow -6 1000 92 500 3.6 220 14:40 06.01.2020
4796 Fog -7 1000 100 500 2.6 230 14:20 06.01.2020
4797 Snow -6 1000 92 550 3.1 220 13:55 06.01.2020
4798 Snow -6 1000 92 550 3.1 220 13:55 06.01.2020
4799 Snow -6 1000 92 550 3.1 220 13:37 06.01.2020
4800 Snow -6 1000 100 650 2.6 230 13:19 06.01.2020
4801 Fog -6 1000 100 450 3.6 220 12:42 06.01.2020
4802 Fog -6 1000 92 350 4.1 220 12:20 06.01.2020
4803 Fog -6 1000 92 350 4.1 220 11:57 06.01.2020
4804 Fog -6 1000 92 500 3.6 220 11:39 06.01.2020
4805 Snow -6 1000 92 600 5.1 220 11:20 06.01.2020
4806 Clouds -6 999 92 10000 4.1 230 10:45 06.01.2020
4807 Clouds -6 999 92 10000 4.1 230 10:45 06.01.2020
4808 Clouds -6 999 92 10000 4.1 230 10:27 06.01.2020
4809 Clouds -6 1000 92 10000 4.6 230 09:59 06.01.2020
4810 Mist -6 999 92 4500 4.6 210 09:37 06.01.2020
4811 Clouds -6 999 92 10000 4.1 210 09:19 06.01.2020
4812 Clouds -6 999 92 10000 3.1 210 08:43 06.01.2020
4813 Clouds -5 999 92 10000 3.6 240 08:24 06.01.2020
4814 Clouds -5 999 92 10000 4.6 230 07:51 06.01.2020
4815 Clouds -5 999 92 10000 4.6 230 07:26 06.01.2020
4816 Clouds -4 998 92 10000 4.6 230 06:45 06.01.2020
4817 Clouds -4 998 92 10000 5.1 230 06:18 06.01.2020
4818 Clouds -4 998 92 10000 4.1 230 05:40 06.01.2020
4819 Clouds -4 998 92 10000 5.1 230 04:30 06.01.2020
4820 Snow -4 998 92 10000 4.6 220 03:58 06.01.2020
4821 Clouds -4 998 92 10000 6.2 190 02:40 06.01.2020
4822 Clouds -4 998 92 10000 5.7 180 02:21 06.01.2020
4823 Clouds -5 998 92 10000 6.2 160 01:41 06.01.2020
4824 Clouds -5 998 92 5000 6.2 160 01:20 06.01.2020
4825 Snow -5 999 92 7000 6.2 170 00:40 06.01.2020
4826 Snow -5 1000 92 10000 5.1 160 00:19 06.01.2020
4827 Snow -5 1000 92 10000 5.1 160 00:19 06.01.2020
4828 Snow -6 1000 92 5000 4.6 140 23:41 05.01.2020
4829 Snow -8 1001 92 6000 4.1 130 23:21 05.01.2020
4830 Snow -8 1001 92 6000 4.1 130 22:55 05.01.2020
4831 Clouds -8 1001 85 5000 3.6 140 22:37 05.01.2020
4832 Clouds -8 1002 92 10000 5.1 160 22:18 05.01.2020
4833 Clouds -9 1002 92 10000 5.1 160 21:41 05.01.2020
4834 Clouds -10 1003 92 10000 4.1 150 21:21 05.01.2020
4835 Clouds -10 1003 92 10000 4.1 150 20:58 05.01.2020
4836 Snow -11 1003 85 10000 2.6 150 20:39 05.01.2020
4837 Snow -11 1004 85 10000 3.1 150 20:20 05.01.2020
4838 Snow -11 1004 85 10000 3.1 150 19:59 05.01.2020
4839 Snow -10 1004 85 2200 3.1 170 19:39 05.01.2020
4840 Snow -11 1005 92 10000 3.1 180 19:20 05.01.2020
4841 Clouds -11 1005 92 10000 3.1 180 18:56 05.01.2020
4842 Clouds -11 1005 92 10000 3.1 180 18:56 05.01.2020
4843 Clouds -11 1005 92 10000 3.1 180 18:38 05.01.2020
4844 Clouds -11 1005 92 10000 3.6 190 18:19 05.01.2020
4845 Clouds -11 1005 92 10000 3.6 190 17:58 05.01.2020
4846 Clouds -11 1006 85 10000 2.6 200 17:39 05.01.2020
4847 Clouds -13 1006 84 10000 2.6 220 17:20 05.01.2020
4848 Clouds -12 1006 85 10000 1.5 220 16:57 05.01.2020
4849 Clouds -12 1006 85 10000 1.5 220 16:57 05.01.2020
4850 Clouds -12 1006 85 10000 1.5 220 16:38 05.01.2020
4851 Clouds -13 1007 92 10000 2.1 210 16:19 05.01.2020
4852 Clouds -12 1007 85 10000 2.1 210 15:39 05.01.2020
4853 Clouds -12 1007 85 10000 2.1 210 15:39 05.01.2020
4854 Clouds -13 1008 84 10000 2.1 240 15:20 05.01.2020
4855 Clouds -12 1008 85 10000 3.1 260 14:56 05.01.2020
4856 Clouds -12 1008 85 10000 3.1 260 14:38 05.01.2020
4857 Clouds -13 1008 92 10000 3.6 240 14:20 05.01.2020
4858 Clouds -13 1008 92 10000 3.6 240 13:56 05.01.2020
4859 Clouds -13 1008 84 10000 3.6 230 13:38 05.01.2020
4860 Clouds -13 1008 84 10000 2.6 230 13:19 05.01.2020
4861 Clouds -13 1008 84 10000 2.6 230 12:56 05.01.2020
4862 Clouds -14 1008 92 10000 2.6 230 12:37 05.01.2020
4863 Clouds -13 1009 84 10000 2.6 250 12:19 05.01.2020
4864 Clouds -12 1009 78 10000 3.1 240 11:44 05.01.2020
4865 Clouds -13 1008 84 10000 3.6 250 11:20 05.01.2020
4866 Clouds -13 1008 84 10000 3.6 250 11:20 05.01.2020
4867 Clouds -13 1008 84 10000 3.6 250 10:58 05.01.2020
4868 Clouds -14 1008 92 10000 3.6 240 10:40 05.01.2020
4869 Clouds -13 1008 84 10000 3.1 250 10:19 05.01.2020
4870 Clouds -15 1008 84 10000 2.6 250 09:42 05.01.2020
4871 Clouds -14 1009 92 10000 2.6 240 09:22 05.01.2020
4872 Clouds -13 1008 84 10000 2.6 240 08:50 05.01.2020
4873 Clouds -13 1008 84 10000 2.6 240 08:31 05.01.2020
4874 Clear -13 1008 84 10000 2.6 230 07:57 05.01.2020
4875 Clear -13 1008 84 10000 2.6 240 07:38 05.01.2020
4876 Snow -10 1008 78 10000 2.6 270 07:20 05.01.2020
4877 Clear -11 1007 78 10000 2.6 240 06:20 05.01.2020
4878 Clear -13 1007 92 10000 2.1 240 05:33 05.01.2020
4879 Clear -13 1007 92 10000 2.1 240 05:33 05.01.2020
4880 Clear -13 1007 92 10000 2.1 240 05:33 05.01.2020
4881 Clear -13 1007 92 10000 2.1 240 05:33 05.01.2020
4882 Clear -13 1006 84 10000 2.6 250 04:44 05.01.2020
4883 Clear -11 1006 78 10000 2.6 250 04:18 05.01.2020
4884 Clear -10 1005 78 10000 1.5 290 02:46 05.01.2020
4885 Clear -10 1005 78 10000 1.5 290 02:24 05.01.2020
4886 Clouds -10 1003 78 10000 2.6 310 01:48 05.01.2020
4887 Clouds -9 1003 78 10000 3.1 320 01:19 05.01.2020
4888 Clouds -8 1002 72 10000 4.6 330 00:42 05.01.2020
4889 Clouds -8 1002 72 10000 4.6 330 00:42 05.01.2020
4890 Clouds -8 1002 72 10000 4.1 310 00:23 05.01.2020
4891 Clouds -8 1002 72 10000 4.1 310 23:59 04.01.2020
4892 Clouds -8 1001 72 10000 3.1 330 23:40 04.01.2020
4893 Clouds -7 1001 73 10000 4.1 340 23:19 04.01.2020
4894 Clouds -7 1001 73 10000 4.1 340 23:19 04.01.2020
4895 Clouds -7 1000 67 10000 3.1 340 22:40 04.01.2020
4896 Clouds -7 999 67 10000 5.1 340 22:22 04.01.2020
4897 Clouds -7 999 67 10000 5.1 340 21:58 04.01.2020
4898 Clouds -6 998 62 10000 4.6 350 21:39 04.01.2020
4899 Clouds -6 997 67 10000 5.7 350 21:20 04.01.2020
4900 Clouds -6 997 67 10000 5.7 350 20:59 04.01.2020
4901 Clouds -5 996 57 10000 6.2 360 20:39 04.01.2020
4902 Clouds -5 996 57 10000 6.2 360 20:39 04.01.2020
4903 Snow -5 994 62 10000 6.7 350 20:21 04.01.2020
4904 Snow -5 994 62 10000 6.7 350 19:56 04.01.2020
4905 Clouds -4 993 68 10000 7.2 350 19:37 04.01.2020
4906 Clouds -4 991 73 10000 7.2 350 19:18 04.01.2020
4907 Snow -4 990 85 10000 5.7 350 18:54 04.01.2020
4908 Snow -4 990 85 10000 5.7 350 18:36 04.01.2020
4909 Snow -5 989 85 10000 5.1 350 18:18 04.01.2020
4910 Snow -6 987 85 10000 6.2 350 17:41 04.01.2020
4911 Snow -6 987 85 10000 6.2 350 17:41 04.01.2020
4912 Snow -7 986 85 4400 5.7 340 17:22 04.01.2020
4913 Clouds -7 984 85 10000 6.7 340 16:55 04.01.2020
4914 Clouds -7 984 85 10000 6.7 340 16:55 04.01.2020
4915 Clouds -7 984 85 10000 6.7 340 16:36 04.01.2020
4916 Clouds -7 984 85 10000 6.7 340 16:36 04.01.2020
4917 Clouds -7 982 85 10000 5.7 340 16:18 04.01.2020
4918 Clouds -7 981 85 10000 4.6 330 15:42 04.01.2020
4919 Clouds -8 980 85 10000 2.6 310 15:20 04.01.2020
4920 Clouds -8 980 85 10000 2.6 310 14:59 04.01.2020
4921 Clouds -8 980 85 10000 2.6 310 14:59 04.01.2020
4922 Clouds -8 980 85 10000 2.6 310 14:59 04.01.2020
4923 Clouds -9 979 92 10000 2.1 300 14:40 04.01.2020
4924 Clouds -8 978 85 10000 1.5 290 14:20 04.01.2020
4925 Clouds -8 978 85 10000 1.5 290 13:58 04.01.2020
4926 Clouds -8 978 85 10000 2.6 310 13:37 04.01.2020
4927 Clouds -8 977 85 10000 2.6 310 13:19 04.01.2020
4928 Clouds -8 976 92 10000 2.6 300 12:42 04.01.2020
4929 Clouds -7 976 85 10000 3.6 320 12:20 04.01.2020
4930 Clouds -7 976 85 10000 3.6 320 11:59 04.01.2020
4931 Clouds -7 975 85 10000 3.6 320 11:40 04.01.2020
4932 Clouds -7 975 85 10000 3.6 320 11:40 04.01.2020
4933 Clouds -7 974 85 10000 2.1 310 11:20 04.01.2020
4934 Clouds -7 974 92 10000 2.1 300 10:58 04.01.2020
4935 Clouds -7 974 92 10000 2.1 300 10:38 04.01.2020
4936 Clouds -7 973 92 10000 2.1 250 10:19 04.01.2020
4937 Clouds -8 973 100 10000 1.5 270 09:42 04.01.2020
4938 Clouds -8 973 100 10000 1.5 270 09:24 04.01.2020
4939 Clouds -7 971 92 10000 1.5 260 08:44 04.01.2020
4940 Clouds -7 971 92 10000 1.5 260 08:25 04.01.2020
4941 Clouds -6 970 92 10000 2.1 230 07:51 04.01.2020
4942 Clouds -6 970 92 10000 2.1 230 07:32 04.01.2020
4943 Snow -5 969 85 10000 2.6 230 06:39 04.01.2020
4944 Snow -5 969 79 10000 3.6 200 05:46 04.01.2020
4945 Clouds -5 968 79 10000 2.6 0 04:47 04.01.2020
4946 Clouds -5 968 79 10000 2.6 0 04:27 04.01.2020
4947 Clouds -6 968 85 10000 3.1 210 03:19 04.01.2020
4948 Clouds -5 968 79 10000 5.1 230 02:23 04.01.2020
4949 Clouds -5 968 79 10000 5.1 230 01:57 04.01.2020
4950 Clouds -5 968 73 10000 6.2 220 01:32 04.01.2020
4951 Clouds -5 969 73 10000 6.7 220 00:50 04.01.2020
4952 Clouds -5 969 73 10000 6.7 220 00:28 04.01.2020
4953 Clouds -4 969 68 10000 6.2 230 23:52 03.01.2020
4954 Clouds -4 969 68 10000 6.2 230 23:27 03.01.2020
4955 Clouds -4 969 68 10000 5.7 230 22:55 03.01.2020
4956 Clouds -4 969 68 10000 6.2 230 22:55 03.01.2020
4957 Clouds -4 969 68 10000 5.7 230 22:36 03.01.2020
4958 Clouds -3 969 63 10000 6.2 0 22:18 03.01.2020
4959 Clouds -3 969 63 10000 6.2 0 21:55 03.01.2020
4960 Clouds -3 969 63 10000 6.2 230 21:37 03.01.2020
4961 Clouds -3 969 63 10000 6.7 230 21:18 03.01.2020
4962 Clouds -3 969 68 10000 7.2 230 20:43 03.01.2020
4963 Clouds -2 969 58 10000 6.2 230 20:19 03.01.2020
4964 Clouds -2 969 58 10000 6.2 230 19:58 03.01.2020
4965 Clouds -2 969 63 10000 6.2 240 19:39 03.01.2020
4966 Clouds -2 969 63 10000 6.2 240 19:21 03.01.2020
4967 Clouds -2 969 68 10000 5.7 240 18:44 03.01.2020
4968 Clouds -2 969 68 10000 5.7 240 18:44 03.01.2020
4969 Clouds -2 969 68 10000 5.7 240 18:26 03.01.2020
4970 Clouds -1 969 68 10000 6.2 240 17:57 03.01.2020
4971 Clouds 0 968 68 10000 5.7 250 17:39 03.01.2020
4972 Snow 0 968 66 10000 6.2 240 17:19 03.01.2020
4973 Snow 0 968 66 10000 4.6 240 16:43 03.01.2020
4974 Snow 0 968 66 10000 4.6 240 16:24 03.01.2020
4975 Snow 0 968 66 10000 5.7 240 15:58 03.01.2020
4976 Snow 0 968 66 10000 5.7 240 15:58 03.01.2020
4977 Snow 1 968 66 10000 5.7 230 15:40 03.01.2020
4978 Clouds 0 968 66 10000 4.6 230 15:18 03.01.2020
4979 Clouds 1 969 66 10000 4.6 220 14:39 03.01.2020
4980 Clouds 1 969 96 10000 5.7 230 14:19 03.01.2020
4981 Fog 1 969 96 10000 6.2 220 13:44 03.01.2020
4982 Fog 1 969 95 10000 6.2 220 13:24 03.01.2020
4983 Clouds 1 969 95 10000 6.2 220 13:00 03.01.2020
4984 Clouds 0 969 95 10000 5.1 220 12:39 03.01.2020
4985 Snow 0 970 95 1800 5.7 230 12:21 03.01.2020
4986 Snow 0 970 95 1400 6.2 220 11:48 03.01.2020
4987 Snow 0 970 95 1400 6.2 220 11:29 03.01.2020
4988 Snow 1 971 91 10000 7.2 230 10:47 03.01.2020
4989 Snow 1 971 91 10000 7.2 230 10:27 03.01.2020
4990 Clouds 2 971 80 10000 8.7 210 09:58 03.01.2020
4991 Clouds 2 970 80 10000 7.7 200 09:40 03.01.2020
4992 Clouds 2 971 80 10000 7.2 210 09:22 03.01.2020
4993 Clouds 2 972 80 10000 7.7 220 08:57 03.01.2020
4994 Clouds 2 972 80 10000 7.7 220 08:38 03.01.2020
4995 Snow 2 972 80 10000 8.7 220 08:19 03.01.2020
4996 Clouds 2 972 90 10000 8.7 220 07:40 03.01.2020
4997 Snow 2 972 90 10000 8.7 210 07:19 03.01.2020
4998 Clouds 2 972 90 10000 8.2 210 06:50 03.01.2020
4999 Clouds 2 972 90 10000 8.2 210 06:32 03.01.2020
5000 Snow 3 973 90 10000 8.7 210 05:46 03.01.2020
5001 Rain 3 973 89 10000 9.8 210 04:23 03.01.2020
5002 Rain 3 974 89 10000 9.3 210 02:57 03.01.2020
5003 Rain 3 975 89 10000 7.2 220 02:33 03.01.2020
5004 Clouds 3 976 89 10000 7.2 220 01:44 03.01.2020
5005 Clouds 2 977 88 10000 6.7 220 00:50 03.01.2020
5006 Clouds 2 977 88 10000 6.7 220 00:30 03.01.2020
5007 Clouds 3 976 88 10000 6.2 210 23:55 02.01.2020
5008 Clouds 3 977 88 10000 6.7 220 23:37 02.01.2020
5009 Clouds 3 977 90 10000 6.2 230 23:18 02.01.2020
5010 Clouds 3 977 90 10000 7.2 230 22:45 02.01.2020
5011 Clouds 3 977 90 10000 7.2 230 22:45 02.01.2020
5012 Clouds 3 978 90 10000 6.7 230 22:21 02.01.2020
5013 Clouds 3 978 90 10000 6.7 230 21:59 02.01.2020
5014 Clouds 3 978 86 10000 7.2 230 21:41 02.01.2020
5015 Clouds 3 978 86 10000 7.2 230 21:23 02.01.2020
5016 Clouds 3 978 86 10000 7.2 230 20:58 02.01.2020
5017 Clouds 3 978 86 10000 7.2 230 20:39 02.01.2020
5018 Clouds 3 978 86 10000 7.2 230 20:39 02.01.2020
5019 Clouds 3 978 86 10000 7.7 230 20:20 02.01.2020
5020 Clouds 3 978 86 10000 7.2 230 19:55 02.01.2020
5021 Clouds 3 978 86 10000 7.2 230 19:37 02.01.2020
5022 Clouds 3 978 86 10000 7.2 230 19:37 02.01.2020
5023 Clouds 3 978 86 10000 7.7 230 19:19 02.01.2020
5024 Clouds 3 978 86 10000 7.7 230 18:56 02.01.2020
5025 Clouds 3 978 86 10000 6.2 230 18:38 02.01.2020
5026 Clouds 3 978 86 10000 7.7 230 18:19 02.01.2020
5027 Clouds 3 978 86 10000 7.7 230 17:55 02.01.2020
5028 Clouds 2 978 93 10000 7.2 230 17:36 02.01.2020
5029 Clouds 2 978 93 10000 7.2 230 17:36 02.01.2020
5030 Clouds 2 978 93 10000 7.7 230 17:18 02.01.2020
5031 Clouds 2 978 93 10000 7.7 230 17:18 02.01.2020
5032 Clouds 2 978 93 10000 7.2 230 16:54 02.01.2020
5033 Clouds 2 978 93 10000 7.2 230 16:36 02.01.2020
5034 Rain 2 978 93 10000 7.7 220 16:18 02.01.2020
5035 Rain 1 979 100 10000 7.2 220 15:41 02.01.2020
5036 Rain 1 980 100 10000 7.2 220 15:23 02.01.2020
5037 Rain 1 980 100 10000 7.7 220 14:57 02.01.2020
5038 Rain 1 980 100 10000 7.7 220 14:57 02.01.2020
5039 Rain 1 980 100 10000 7.7 220 14:37 02.01.2020
5040 Rain 1 981 100 10000 7.7 220 14:18 02.01.2020
5041 Rain 1 982 100 10000 7.2 210 13:55 02.01.2020
5042 Rain 1 982 100 10000 7.2 210 13:36 02.01.2020
5043 Rain 1 983 96 10000 6.2 210 12:58 02.01.2020
5044 Rain 1 983 96 10000 5.1 220 12:39 02.01.2020
5045 Rain 1 984 86 10000 4.1 220 12:20 02.01.2020
5046 Rain 1 984 86 10000 4.1 220 11:41 02.01.2020
5047 Clouds 1 985 86 10000 4.6 220 11:20 02.01.2020
5048 Clouds 1 985 86 10000 5.7 220 10:45 02.01.2020
5049 Clouds 1 985 86 10000 5.7 220 10:26 02.01.2020
5050 Clouds 1 986 86 10000 5.7 230 09:55 02.01.2020
5051 Clouds 1 986 86 10000 5.7 230 09:34 02.01.2020
5052 Clouds 0 985 82 10000 5.7 230 08:50 02.01.2020
5053 Clouds 0 985 82 10000 5.7 230 08:28 02.01.2020
5054 Clouds 0 985 78 10000 5.1 230 07:57 02.01.2020
5055 Clouds 0 984 78 10000 4.6 220 07:31 02.01.2020
5056 Clouds 0 984 78 10000 4.6 250 06:57 02.01.2020
5057 Clouds 0 984 78 10000 4.6 250 06:57 02.01.2020
5058 Clouds 1 983 86 10000 5.1 250 06:39 02.01.2020
5059 Clouds 1 983 86 10000 5.1 260 05:36 02.01.2020
5060 Clouds 0 982 72 10000 5.7 240 04:33 02.01.2020
5061 Clouds 0 982 72 10000 7.2 230 02:55 02.01.2020
5062 Clouds 1 981 83 10000 6.7 230 02:20 02.01.2020
5063 Clouds 1 981 83 10000 7.2 230 01:46 02.01.2020
5064 Clouds 1 981 77 10000 7.7 230 01:19 02.01.2020
5065 Clouds 1 981 77 10000 7.2 230 00:34 02.01.2020
5066 Clouds 0 981 77 10000 7.2 230 23:56 01.01.2020
5067 Clouds 0 981 77 10000 7.2 230 23:37 01.01.2020
5068 Clouds 0 982 89 10000 7.2 230 23:18 01.01.2020
5069 Clouds 0 982 89 10000 6.7 210 22:38 01.01.2020
5070 Fog -1 983 92 5000 4.6 210 22:19 01.01.2020
5071 Fog -1 983 92 5000 4.6 210 21:56 01.01.2020
5072 Fog -2 983 100 750 4.1 200 21:38 01.01.2020
5073 Fog -3 984 100 900 4.1 180 21:19 01.01.2020
5074 Fog -3 984 100 900 4.1 180 21:19 01.01.2020
5075 Fog -3 984 100 900 4.1 180 20:55 01.01.2020
5076 Fog -3 984 100 800 5.1 180 20:37 01.01.2020
5077 Fog -3 984 92 800 4.6 170 20:18 01.01.2020
5078 Fog -4 985 100 1200 4.6 150 19:55 01.01.2020
5079 Fog -4 985 100 1200 4.6 150 19:36 01.01.2020
5080 Clouds -4 986 92 1900 3.1 140 19:18 01.01.2020
5081 Mist -5 986 100 4400 3.6 150 18:55 01.01.2020
5082 Mist -5 986 100 4400 3.6 150 18:36 01.01.2020
5083 Clouds -5 987 92 6000 3.6 130 18:18 01.01.2020
5084 Clouds -5 988 92 2900 2.6 120 17:55 01.01.2020
5085 Clouds -5 988 92 2900 2.6 120 17:37 01.01.2020
5086 Clouds -6 988 100 4400 4.1 150 17:18 01.01.2020
5087 Clouds -6 989 92 4300 4.1 140 16:39 01.01.2020
5088 Clouds -7 989 92 10000 4.6 140 16:20 01.01.2020
5089 Snow -7 990 92 10000 4.1 140 15:57 01.01.2020
5090 Snow -7 990 92 10000 4.1 140 15:39 01.01.2020
5091 Snow -7 990 92 9000 5.1 130 15:20 01.01.2020
5092 Snow -7 990 92 9000 5.1 130 14:56 01.01.2020
5093 Snow -8 990 92 6000 5.7 120 14:38 01.01.2020
5094 Snow -8 991 92 4800 5.1 130 14:20 01.01.2020
5095 Snow -8 991 92 4800 5.1 130 13:55 01.01.2020
5096 Snow -8 991 85 3600 5.1 110 13:37 01.01.2020
5097 Snow -9 992 92 2800 5.1 120 13:18 01.01.2020
5098 Snow -9 992 92 2800 5.1 120 12:55 01.01.2020
5099 Snow -9 992 92 4400 5.1 110 12:36 01.01.2020
5100 Snow -8 993 92 7000 4.6 120 12:18 01.01.2020
5101 Clouds -8 994 92 10000 4.6 140 11:42 01.01.2020
5102 Clouds -9 994 100 10000 4.6 140 11:21 01.01.2020
5103 Clouds -9 994 100 10000 4.6 140 10:57 01.01.2020
5104 Clouds -9 995 85 10000 5.1 130 10:38 01.01.2020
5105 Clouds -10 995 92 10000 3.1 130 10:19 01.01.2020
5106 Clouds -10 995 92 10000 2.6 150 09:42 01.01.2020
5107 Clouds -10 996 85 10000 2.1 130 09:22 01.01.2020
5108 Clouds -10 996 85 10000 2.1 130 08:57 01.01.2020
5109 Clouds -10 996 92 10000 1.5 120 08:38 01.01.2020
5110 Clouds -8 996 85 10000 1.5 190 08:20 01.01.2020
5111 Clouds -8 996 85 10000 1.5 190 07:58 01.01.2020
5112 Clouds -8 996 85 10000 2.1 190 07:40 01.01.2020
5113 Clouds -10 997 92 10000 1.5 230 07:19 01.01.2020
5114 Clouds -10 996 92 10000 2.6 240 06:36 01.01.2020
5115 Clouds -10 997 92 10000 2.6 210 05:51 01.01.2020
5116 Clouds -9 997 92 10000 1 250 04:28 01.01.2020
5117 Clouds -11 998 92 10000 2.6 230 03:39 01.01.2020
5118 Clouds -12 997 92 10000 2.1 220 03:21 01.01.2020
5119 Clouds -9 997 85 10000 2.1 250 02:42 01.01.2020
5120 Clouds -9 997 85 10000 2.6 220 02:23 01.01.2020
5121 Clear -10 997 92 10000 1.5 220 01:42 01.01.2020
5122 Clear -10 997 85 10000 2.1 260 01:23 01.01.2020
5123 Clear -8 997 85 10000 2.6 270 00:45 01.01.2020
5124 Clear -7 997 85 10000 4.1 280 00:26 01.01.2020
5125 Clear -7 997 85 10000 4.1 280 23:56 31.12.2019
5126 Clear -7 997 85 10000 4.1 280 23:37 31.12.2019
5127 Clear -7 997 85 10000 3.6 280 23:18 31.12.2019
5128 Clear -7 997 85 10000 2.6 270 22:55 31.12.2019
5129 Clear -7 997 85 10000 2.6 270 22:36 31.12.2019
5130 Clear -8 997 85 10000 2.6 280 22:18 31.12.2019
5131 Clear -8 997 85 10000 2.6 280 21:43 31.12.2019
5132 Clear -8 997 85 10000 2.6 280 21:25 31.12.2019
5133 Clear -8 996 85 10000 4.1 250 20:57 31.12.2019
5134 Clear -8 996 85 10000 4.1 250 20:57 31.12.2019
5135 Clear -7 996 85 10000 3.6 270 20:38 31.12.2019
5136 Clear -7 996 85 10000 3.6 270 20:38 31.12.2019
5137 Clouds -9 996 92 10000 1.5 250 20:20 31.12.2019
5138 Clouds -9 996 92 10000 1.5 250 19:55 31.12.2019
5139 Clouds -10 996 85 10000 1 0 19:37 31.12.2019
5140 Clouds -11 996 92 10000 1.5 0 19:18 31.12.2019
5141 Clouds -10 995 92 10000 3.1 230 18:55 31.12.2019
5142 Clouds -10 995 92 10000 3.1 230 18:37 31.12.2019
5143 Clouds -10 995 92 10000 2.6 240 18:19 31.12.2019
5144 Clouds -10 995 92 10000 2.6 240 17:55 31.12.2019
5145 Clouds -10 995 85 10000 3.1 230 17:36 31.12.2019
5146 Clouds -9 995 85 10000 3.1 240 17:18 31.12.2019
5147 Clouds -9 995 85 10000 3.1 240 16:55 31.12.2019
5148 Clouds -10 995 92 10000 3.1 230 16:36 31.12.2019
5149 Clouds -9 995 85 10000 2.1 240 16:18 31.12.2019
5150 Clouds -9 994 92 10000 4.6 230 15:55 31.12.2019
5151 Clouds -9 994 92 10000 4.6 230 15:55 31.12.2019
5152 Clouds -9 995 85 10000 2.1 240 15:55 31.12.2019
5153 Clouds -9 994 92 10000 4.6 230 15:37 31.12.2019
5154 Clouds -9 995 92 10000 4.6 220 15:19 31.12.2019
5155 Clouds -9 995 92 10000 4.6 220 14:55 31.12.2019
5156 Clouds -9 995 92 10000 3.1 230 14:36 31.12.2019
5157 Clouds -8 995 85 10000 4.6 230 14:18 31.12.2019
5158 Clouds -8 995 92 10000 3.6 220 13:54 31.12.2019
5159 Clouds -8 995 92 10000 3.6 220 13:36 31.12.2019
5160 Clouds -8 995 92 10000 4.1 230 13:18 31.12.2019
5161 Clouds -8 995 92 10000 3.6 210 12:40 31.12.2019
5162 Clouds -8 995 92 10000 3.6 210 12:40 31.12.2019
5163 Clouds -8 995 92 10000 3.6 230 12:21 31.12.2019
5164 Clouds -8 995 92 10000 3.6 230 11:58 31.12.2019
5165 Clouds -8 995 92 10000 3.1 230 11:40 31.12.2019
5166 Clouds -6 996 85 10000 2.1 240 11:21 31.12.2019
5167 Clouds -6 996 85 10000 2.1 240 10:58 31.12.2019
5168 Clouds -6 996 85 10000 1 0 10:39 31.12.2019
5169 Clouds -7 996 92 10000 2.1 250 10:20 31.12.2019
5170 Clouds -7 996 92 10000 2.1 250 09:59 31.12.2019
5171 Clouds -7 995 92 10000 2.6 250 09:40 31.12.2019
5172 Clouds -6 995 85 10000 1.5 300 09:22 31.12.2019
5173 Clouds -6 995 85 10000 1.5 300 08:59 31.12.2019
5174 Clouds -6 995 85 10000 2.6 320 08:41 31.12.2019
5175 Clouds -7 994 92 10000 3.1 320 08:20 31.12.2019
5176 Clouds -7 994 92 10000 3.6 320 07:44 31.12.2019
5177 Clouds -7 994 92 10000 3.1 330 07:22 31.12.2019
5178 Clouds -7 993 92 10000 3.1 330 06:50 31.12.2019
5179 Clouds -7 993 92 10000 3.1 320 05:59 31.12.2019
5180 Clouds -6 991 85 10000 3.6 320 04:30 31.12.2019
5181 Clouds -6 991 85 10000 3.6 330 03:59 31.12.2019
5182 Clouds -6 990 85 10000 3.6 340 02:56 31.12.2019
5183 Clouds -5 989 79 10000 5.1 10 02:19 31.12.2019
5184 Clouds -4 988 79 10000 5.1 20 01:48 31.12.2019
5185 Clouds -4 988 79 10000 5.1 20 01:27 31.12.2019
5186 Clouds -5 987 85 10000 4.1 360 00:46 31.12.2019
5187 Clouds -5 987 85 10000 4.1 360 00:22 31.12.2019
5188 Clouds -5 987 85 10000 4.1 360 23:56 30.12.2019
5189 Clouds -5 986 85 10000 4.1 350 23:38 30.12.2019
5190 Clouds -4 985 79 10000 5.7 10 23:20 30.12.2019
5191 Clouds -4 984 79 10000 6.2 20 22:57 30.12.2019
5192 Clouds -4 984 79 10000 6.2 20 22:38 30.12.2019
5193 Clouds -4 984 85 10000 6.7 20 22:20 30.12.2019
5194 Clouds -4 984 85 10000 6.7 20 21:56 30.12.2019
5195 Snow -4 983 85 10000 7.2 20 21:38 30.12.2019
5196 Snow -4 983 85 10000 7.2 20 21:38 30.12.2019
5197 Clouds -4 982 92 10000 6.7 10 21:18 30.12.2019
5198 Clouds -4 982 92 10000 6.7 10 20:56 30.12.2019
5199 Clouds -3 982 86 10000 4.1 360 20:38 30.12.2019
5200 Clouds -3 981 86 10000 6.2 20 20:20 30.12.2019
5201 Clouds -3 981 86 10000 6.2 20 19:57 30.12.2019
5202 Clouds -3 980 92 10000 7.2 20 19:37 30.12.2019
5203 Clouds -2 979 86 10000 7.7 20 19:19 30.12.2019
5204 Snow -2 979 86 10000 6.7 10 18:56 30.12.2019
5205 Snow -2 979 86 10000 6.7 10 18:37 30.12.2019
5206 Snow -1 978 86 10000 7.2 10 18:19 30.12.2019
5207 Snow -1 978 86 10000 7.2 10 17:54 30.12.2019
5208 Snow -1 978 92 10000 6.7 10 17:36 30.12.2019
5209 Snow 0 977 93 6000 5.1 10 17:18 30.12.2019
5210 Clouds 0 977 93 10000 4.1 330 16:41 30.12.2019
5211 Clouds 0 976 93 10000 3.6 310 16:21 30.12.2019
5212 Clouds 0 976 93 10000 3.6 310 15:58 30.12.2019
5213 Clouds 0 976 93 7000 2.6 270 15:40 30.12.2019
5214 Snow 0 976 93 10000 2.6 250 15:20 30.12.2019
5215 Snow 0 976 93 10000 2.6 250 15:20 30.12.2019
5216 Snow 0 976 93 10000 2.6 250 15:20 30.12.2019
5217 Clouds 0 976 93 10000 3.6 240 14:56 30.12.2019
5218 Clouds 0 976 93 10000 3.6 240 14:38 30.12.2019
5219 Clouds 0 976 92 10000 3.6 240 14:18 30.12.2019
5220 Snow 0 976 92 10000 3.6 240 13:43 30.12.2019
5221 Clouds 0 976 84 10000 4.1 240 13:24 30.12.2019
5222 Clouds 0 976 84 10000 4.1 240 12:59 30.12.2019
5223 Snow 0 976 84 10000 4.6 230 12:41 30.12.2019
5224 Rain 0 976 84 10000 5.1 230 12:19 30.12.2019
5225 Rain 0 976 84 10000 5.1 230 11:58 30.12.2019
5226 Snow 0 976 84 10000 4.1 230 11:39 30.12.2019
5227 Clouds 0 977 81 5000 4.6 240 11:18 30.12.2019
5228 Clouds 0 977 81 10000 5.1 240 10:43 30.12.2019
5229 Clouds 1 977 81 10000 5.1 240 10:21 30.12.2019
5230 Clouds 1 977 81 10000 5.1 240 09:55 30.12.2019
5231 Clouds 1 977 81 10000 5.1 240 09:55 30.12.2019
5232 Clouds 1 977 81 10000 4.6 240 09:37 30.12.2019
5233 Clouds 0 977 81 10000 5.7 240 09:18 30.12.2019
5234 Clouds 0 978 81 10000 5.1 230 08:46 30.12.2019
5235 Clouds 0 978 82 10000 5.7 230 08:23 30.12.2019
5236 Clouds 1 978 81 10000 7.2 230 07:53 30.12.2019
5237 Clouds 1 978 81 10000 7.2 230 07:32 30.12.2019
5238 Clouds 0 978 81 10000 6.7 240 06:39 30.12.2019
5239 Clouds 1 980 74 10000 6.7 240 04:32 30.12.2019
5240 Fog 1 981 100 1100 4.6 240 03:51 30.12.2019
5241 Rain 1 981 74 700 4.6 220 02:47 30.12.2019
5242 Fog 0 982 74 900 5.1 240 02:27 30.12.2019
5243 Rain 0 982 95 800 5.7 230 01:39 30.12.2019
5244 Rain 0 983 95 1200 6.7 230 01:19 30.12.2019
5245 Rain 0 983 95 2100 6.2 220 00:42 30.12.2019
5246 Snow 0 984 95 4200 6.2 210 23:58 29.12.2019
5247 Snow 0 985 95 6000 6.7 200 23:37 29.12.2019
5248 Clouds 0 986 97 3300 6.2 190 23:19 29.12.2019
5249 Clouds 0 986 97 4000 6.2 190 22:41 29.12.2019
5250 Snow 0 988 97 3900 6.2 190 22:22 29.12.2019
5251 Clouds 0 989 97 4900 5.7 180 21:56 29.12.2019
5252 Clouds 0 989 97 4900 5.7 180 21:56 29.12.2019
5253 Clouds 0 989 97 4900 5.7 180 21:38 29.12.2019
5254 Rain 0 990 97 900 6.2 190 21:19 29.12.2019
5255 Rain 0 990 97 900 6.2 190 21:19 29.12.2019
5256 Rain 0 990 97 900 6.2 190 20:55 29.12.2019
5257 Rain 0 991 97 400 7.2 200 20:37 29.12.2019
5258 Fog 0 992 96 400 6.2 200 20:18 29.12.2019
5259 Fog 0 992 96 400 6.2 200 19:56 29.12.2019
5260 Fog 0 993 96 400 5.7 190 19:37 29.12.2019
5261 Fog 0 994 96 350 6.7 210 19:19 29.12.2019
5262 Fog 0 995 96 350 7.2 200 18:55 29.12.2019
5263 Fog 0 995 96 350 7.2 200 18:55 29.12.2019
5264 Fog 0 995 96 350 7.2 200 18:37 29.12.2019
5265 Fog 0 995 96 350 5.7 200 18:18 29.12.2019
5266 Fog 0 996 96 400 6.7 200 17:56 29.12.2019
5267 Fog 0 996 96 400 6.7 200 17:37 29.12.2019
5268 Fog 0 996 96 400 6.7 200 17:37 29.12.2019
5269 Fog 0 996 96 400 6.7 200 17:37 29.12.2019
5270 Clouds 0 996 95 400 7.2 210 17:19 29.12.2019
5271 Clouds 0 997 95 450 7.2 210 16:55 29.12.2019
5272 Clouds 0 997 95 450 7.2 210 16:36 29.12.2019
5273 Clouds 0 997 95 450 7.2 210 16:36 29.12.2019
5274 Clouds 0 998 95 550 7.2 220 16:18 29.12.2019
5275 Clouds 0 998 95 600 8.7 220 15:55 29.12.2019
5276 Clouds 0 998 95 600 8.7 220 15:37 29.12.2019
5277 Fog 0 999 95 750 7.2 220 15:18 29.12.2019
5278 Fog 0 998 95 1300 9.3 210 14:55 29.12.2019
5279 Fog 0 998 95 1300 9.3 210 14:37 29.12.2019
5280 Clouds 0 999 91 10000 8.2 220 14:18 29.12.2019
5281 Clouds 0 999 91 5000 9.3 220 13:40 29.12.2019
5282 Clouds 0 999 91 5000 9.3 220 13:40 29.12.2019
5283 Clouds -1 999 100 3500 9.3 230 13:22 29.12.2019
5284 Clouds -1 999 100 3500 9.3 230 12:58 29.12.2019
5285 Snow -1 999 100 1800 10.3 220 12:40 29.12.2019
5286 Clouds -1 1000 100 2400 11.3 220 12:22 29.12.2019
5287 Clouds -1 1000 100 2400 11.3 220 12:22 29.12.2019
5288 Clouds -1 1000 100 1000 10.3 220 11:43 29.12.2019
5289 Clouds -1 1000 100 1100 11.3 220 11:23 29.12.2019
5290 Clouds -1 1000 100 1100 11.3 220 11:00 29.12.2019
5291 Clouds 0 1001 92 750 10.3 220 10:41 29.12.2019
5292 Clouds 0 1001 92 550 11.8 220 10:19 29.12.2019
5293 Clouds 0 1002 92 550 10.8 220 09:47 29.12.2019
5294 Clouds 0 1002 92 550 10.8 220 09:28 29.12.2019
5295 Snow -1 1002 100 3300 11.3 220 08:59 29.12.2019
5296 Snow -1 1002 100 2400 11.8 210 08:41 29.12.2019
5297 Snow -1 1002 100 3700 11.3 210 08:23 29.12.2019
5298 Snow -1 1003 92 1200 11.8 200 07:49 29.12.2019
5299 Snow -2 1004 100 1300 10.3 200 07:27 29.12.2019
5300 Snow -2 1004 92 1300 11.3 190 06:52 29.12.2019
5301 Snow -3 1005 100 2200 10.8 190 06:22 29.12.2019
5302 Snow -3 1007 100 6000 11.3 190 05:45 29.12.2019
5303 Snow -2 1009 92 9000 11.3 200 04:33 29.12.2019
5304 Snow -2 1010 100 5000 9.8 190 03:39 29.12.2019
5305 Snow -1 1012 92 4700 10.3 200 02:36 29.12.2019
5306 Clouds -1 1013 92 4300 10.3 210 02:18 29.12.2019
5307 Snow -1 1014 92 6000 11.3 210 01:29 29.12.2019
5308 Snow -1 1015 92 8000 11.8 210 00:47 29.12.2019
5309 Snow -1 1015 92 8000 11.8 210 00:25 29.12.2019
5310 Snow -2 1016 100 4000 12.3 210 23:55 28.12.2019
5311 Snow -2 1016 100 4000 12.3 210 23:37 28.12.2019
5312 Clouds -2 1017 100 4100 12.3 210 23:18 28.12.2019
5313 Clouds -2 1017 100 4100 12.3 210 23:18 28.12.2019
5314 Clouds -2 1017 100 4100 12.3 210 23:18 28.12.2019
5315 Clouds -2 1017 100 10000 12.3 210 22:37 28.12.2019
5316 Clouds -2 1017 100 3800 11.8 210 22:18 28.12.2019
5317 Clouds -2 1017 100 3800 11.8 210 21:56 28.12.2019
5318 Snow -2 1018 100 5000 10.8 220 21:37 28.12.2019
5319 Snow -2 1018 100 2000 11.3 210 21:19 28.12.2019
5320 Snow -2 1019 100 3300 10.3 220 20:54 28.12.2019
5321 Snow -2 1019 100 3300 10.3 220 20:36 28.12.2019
5322 Snow -4 1019 100 2300 7.2 200 20:18 28.12.2019
5323 Snow -4 1019 100 3400 7.7 200 19:41 28.12.2019
5324 Clouds -4 1020 92 4000 7.2 200 19:23 28.12.2019
5325 Clouds -4 1020 92 4000 7.2 200 18:59 28.12.2019
5326 Snow -4 1020 92 3100 8.7 200 18:40 28.12.2019
5327 Clouds -4 1021 92 2400 7.2 200 18:20 28.12.2019
5328 Snow -5 1021 92 3100 9.8 200 17:57 28.12.2019
5329 Snow -5 1021 92 3100 9.8 200 17:38 28.12.2019
5330 Snow -5 1021 92 3100 8.7 200 17:19 28.12.2019
5331 Snow -5 1022 92 3900 8.7 190 16:47 28.12.2019
5332 Snow -5 1022 92 3900 8.7 190 16:26 28.12.2019
5333 Snow -5 1023 92 3100 8.7 200 15:57 28.12.2019
5334 Clouds -5 1023 92 4800 8.7 190 15:39 28.12.2019
5335 Snow -6 1024 92 8000 8.2 190 15:19 28.12.2019
5336 Snow -6 1024 92 10000 8.7 190 14:44 28.12.2019
5337 Snow -6 1025 92 10000 9.8 190 14:24 28.12.2019
5338 Snow -6 1025 92 10000 9.8 190 14:24 28.12.2019
5339 Snow -6 1025 92 10000 9.8 190 13:57 28.12.2019
5340 Snow -6 1025 92 10000 9.3 190 13:38 28.12.2019
5341 Clouds -7 1025 92 10000 8.7 190 13:19 28.12.2019
5342 Snow -6 1026 92 10000 10.3 200 12:43 28.12.2019
5343 Snow -6 1026 92 10000 10.3 200 12:24 28.12.2019
5344 Snow -6 1026 92 10000 10.3 200 12:24 28.12.2019
5345 Snow -6 1026 92 10000 9.3 190 11:57 28.12.2019
5346 Snow -6 1028 92 10000 8.7 190 11:39 28.12.2019
5347 Snow -6 1029 92 10000 8.7 200 11:20 28.12.2019
5348 Snow -6 1029 92 10000 8.7 200 10:44 28.12.2019
5349 Clouds -6 1030 92 10000 9.3 200 10:22 28.12.2019
5350 Clouds -6 1030 92 10000 9.3 200 09:58 28.12.2019
5351 Clouds -7 1030 92 10000 8.2 190 09:40 28.12.2019
5352 Clouds -7 1030 92 10000 7.2 190 09:20 28.12.2019
5353 Snow -8 1031 92 10000 6.2 190 08:44 28.12.2019
5354 Snow -10 1031 92 3800 5.7 180 08:26 28.12.2019
5355 Snow -10 1031 92 3800 5.7 180 07:55 28.12.2019
5356 Snow -10 1032 85 2500 5.1 180 07:31 28.12.2019
5357 Snow -12 1032 85 10000 4.1 160 06:41 28.12.2019
5358 Snow -13 1034 84 450 4.1 180 04:51 28.12.2019
5359 Snow -14 1035 84 650 4.6 220 03:47 28.12.2019
5360 Snow -14 1035 92 1200 2.6 220 02:48 28.12.2019
5361 Snow -14 1035 92 10000 1 0 01:59 28.12.2019
5362 Snow -13 1035 84 1200 2.1 200 01:30 28.12.2019
5363 Snow -12 1035 85 1600 1 0 00:58 28.12.2019
5364 Snow -12 1035 85 1600 1 0 00:38 28.12.2019
5365 Fog -12 1035 85 1000 1.5 200 00:19 28.12.2019
5366 Snow -13 1035 92 1600 1.5 200 23:43 27.12.2019
5367 Snow -15 1035 84 2100 1.5 170 23:20 27.12.2019
5368 Snow -15 1035 84 2100 1.5 170 22:57 27.12.2019
5369 Clouds -15 1035 92 10000 1 0 22:38 27.12.2019
5370 Clouds -16 1035 91 10000 0.5 0 22:20 27.12.2019
5371 Fog -16 1035 91 1900 1 0 21:55 27.12.2019
5372 Fog -16 1035 91 1900 1 0 21:36 27.12.2019
5373 Clouds -15 1035 84 10000 0.5 0 21:18 27.12.2019
5374 Clear -15 1035 84 10000 1.45 195 20:41 27.12.2019
5375 Clear -14 1035 92 1800 0.5 0 20:22 27.12.2019
5376 Clear -14 1035 84 10000 1 80 19:43 27.12.2019
5377 Clear -14 1035 92 10000 2.1 80 19:21 27.12.2019
5378 Clear -14 1035 92 10000 2.1 80 18:59 27.12.2019
5379 Clear -13 1035 92 10000 0.5 0 18:39 27.12.2019
5380 Clear -14 1035 92 10000 0.5 0 18:20 27.12.2019
5381 Clear -14 1035 92 10000 0.5 0 17:57 27.12.2019
5382 Clear -12 1035 85 10000 1 0 17:39 27.12.2019
5383 Clear -12 1034 92 10000 0.5 0 17:19 27.12.2019
5384 Clear -12 1034 92 10000 0.5 0 16:58 27.12.2019
5385 Clear -12 1034 92 10000 0.5 0 16:38 27.12.2019
5386 Clear -12 1034 92 10000 1 0 16:19 27.12.2019
5387 Clear -12 1034 92 10000 1 0 16:19 27.12.2019
5388 Clear -12 1034 85 10000 1 0 15:43 27.12.2019
5389 Clear -12 1033 92 10000 0.5 0 15:22 27.12.2019
5390 Clear -12 1033 92 10000 0.5 0 14:57 27.12.2019
5391 Clear -13 1033 92 10000 1 0 14:39 27.12.2019
5392 Clear -13 1033 92 10000 1.5 350 14:20 27.12.2019
5393 Clear -10 1033 85 10000 2.1 340 13:48 27.12.2019
5394 Clear -10 1033 85 10000 2.1 340 13:25 27.12.2019
5395 Clear -10 1033 85 10000 2.1 340 13:25 27.12.2019
5396 Clear -10 1033 92 10000 2.6 340 12:58 27.12.2019
5397 Clear -10 1032 85 10000 4.6 350 12:39 27.12.2019
5398 Clouds -10 1032 92 10000 4.6 340 12:21 27.12.2019
5399 Clouds -10 1032 85 10000 3.6 360 11:44 27.12.2019
5400 Clouds -11 1031 92 10000 4.1 360 11:24 27.12.2019
5401 Clouds -11 1031 92 10000 4.1 360 10:55 27.12.2019
5402 Clouds -11 1031 85 10000 3.6 360 10:37 27.12.2019
5403 Clouds -11 1031 92 10000 3.6 350 10:19 27.12.2019
5404 Clear -10 1030 85 10000 4.1 350 09:42 27.12.2019
5405 Clear -10 1030 85 10000 3.6 340 09:21 27.12.2019
5406 Clear -10 1030 85 10000 3.6 350 08:56 27.12.2019
5407 Clear -10 1030 85 10000 3.6 350 08:36 27.12.2019
5408 Clear -10 1029 85 10000 4.1 350 07:51 27.12.2019
5409 Clear -10 1029 85 10000 4.1 350 07:31 27.12.2019
5410 Clouds -9 1028 85 10000 5.1 350 06:37 27.12.2019
5411 Clouds -10 1028 92 10000 5.1 340 05:28 27.12.2019
5412 Clear -10 1027 92 10000 4.1 350 03:40 27.12.2019
5413 Clouds -9 1026 92 10000 4.1 350 02:20 27.12.2019
5414 Clouds -8 1026 85 10000 4.1 350 01:37 27.12.2019
5415 Clouds -8 1025 92 10000 4.1 350 01:18 27.12.2019
5416 Clear -8 1025 92 10000 4.1 340 00:41 27.12.2019
5417 Clear -7 1025 92 10000 4.1 340 00:23 27.12.2019
5418 Clear -6 1025 85 10000 3.6 350 23:41 26.12.2019
5419 Clouds -6 1024 92 10000 3.6 360 23:22 26.12.2019
5420 Clouds -5 1024 85 10000 4.1 340 22:47 26.12.2019
5421 Clouds -5 1024 92 10000 4.1 350 22:23 26.12.2019
5422 Clouds -5 1024 92 10000 4.1 350 21:59 26.12.2019
5423 Clouds -5 1023 92 10000 4.6 350 21:38 26.12.2019
5424 Clouds -5 1023 92 10000 4.6 360 21:20 26.12.2019
5425 Clouds -5 1022 92 10000 4.6 360 20:46 26.12.2019
5426 Snow -5 1023 92 10000 4.6 10 20:23 26.12.2019
5427 Snow -5 1023 92 10000 4.6 10 20:23 26.12.2019
5428 Snow -5 1023 92 10000 4.6 10 19:59 26.12.2019
5429 Clouds -5 1022 92 10000 4.1 360 19:40 26.12.2019
5430 Snow -5 1022 92 10000 3.6 350 19:21 26.12.2019
5431 Snow -5 1022 92 10000 3.6 350 18:58 26.12.2019
5432 Snow -5 1022 92 10000 3.6 350 18:39 26.12.2019
5433 Snow -5 1022 92 10000 3.6 350 18:19 26.12.2019
5434 Snow -5 1021 92 9000 4.1 350 17:43 26.12.2019
5435 Snow -6 1021 92 10000 4.1 350 17:22 26.12.2019
5436 Snow -6 1021 92 10000 4.1 350 16:59 26.12.2019
5437 Snow -6 1021 92 10000 3.6 340 16:41 26.12.2019
5438 Snow -6 1021 92 10000 3.6 350 16:21 26.12.2019
5439 Clouds -6 1021 92 10000 3.6 360 15:41 26.12.2019
5440 Clouds -6 1020 92 10000 3.1 360 15:22 26.12.2019
5441 Clouds -6 1020 92 10000 3.1 360 14:59 26.12.2019
5442 Clouds -6 1020 85 10000 2.1 350 14:39 26.12.2019
5443 Clouds -6 1020 85 10000 4.1 10 14:20 26.12.2019
5444 Snow -7 1019 92 10000 4.6 20 13:43 26.12.2019
5445 Snow -7 1019 92 10000 6.7 50 13:21 26.12.2019
5446 Snow -7 1019 92 10000 6.7 50 12:56 26.12.2019
5447 Clouds -7 1019 92 10000 7.2 40 12:37 26.12.2019
5448 Snow -6 1018 85 10000 7.7 30 12:19 26.12.2019
5449 Snow -6 1018 85 10000 7.7 30 11:56 26.12.2019
5450 Snow -5 1018 85 5000 8.2 30 11:37 26.12.2019
5451 Snow -5 1018 85 5000 8.2 30 11:37 26.12.2019
5452 Snow -4 1018 92 10000 6.2 20 11:19 26.12.2019
5453 Snow -3 1017 86 10000 6.2 20 10:41 26.12.2019
5454 Snow -3 1017 86 10000 6.2 20 10:41 26.12.2019
5455 Snow -3 1017 92 10000 5.1 20 10:18 26.12.2019
5456 Snow -3 1017 92 10000 5.1 20 09:43 26.12.2019
5457 Snow -3 1017 92 10000 5.1 20 09:25 26.12.2019
5458 Clouds -3 1017 92 10000 3.1 350 08:42 26.12.2019
5459 Clouds -3 1016 92 10000 4.6 20 08:24 26.12.2019
5460 Snow -3 1016 92 10000 3.1 360 07:52 26.12.2019
5461 Snow -3 1016 92 10000 3.1 360 07:26 26.12.2019
5462 Clouds -4 1016 100 10000 3.1 360 06:48 26.12.2019
5463 Clouds -4 1016 100 10000 3.1 360 06:30 26.12.2019
5464 Clouds -4 1016 92 10000 4.1 10 05:45 26.12.2019
5465 Clouds -4 1015 100 10000 4.1 10 04:38 26.12.2019
5466 Clouds -3 1015 92 10000 5.1 20 03:47 26.12.2019
5467 Clouds -3 1015 100 10000 3.6 10 02:50 26.12.2019
5468 Clouds -3 1015 100 10000 3.6 10 02:31 26.12.2019
5469 Clouds -3 1015 100 10000 3.6 10 02:31 26.12.2019
5470 Clouds -3 1015 100 10000 3.6 20 01:45 26.12.2019
5471 Snow -3 1014 92 10000 3.6 10 01:26 26.12.2019
5472 Snow -3 1014 92 7000 3.1 20 00:47 26.12.2019
5473 Snow -3 1014 92 10000 3.1 10 00:24 26.12.2019
5474 Snow -3 1014 92 10000 3.1 10 23:58 25.12.2019
5475 Snow -3 1014 92 10000 3.1 10 23:38 25.12.2019
5476 Clouds -3 1014 92 10000 3.6 360 23:19 25.12.2019
5477 Clouds -3 1014 92 10000 4.1 360 22:57 25.12.2019
5478 Clouds -3 1014 92 10000 4.1 360 22:37 25.12.2019
5479 Snow -4 1013 100 10000 3.6 360 22:19 25.12.2019
5480 Snow -4 1013 100 10000 3.6 360 21:55 25.12.2019
5481 Clouds -4 1013 100 10000 3.1 360 21:37 25.12.2019
5482 Clouds -4 1013 100 10000 3.6 360 21:19 25.12.2019
5483 Clouds -4 1013 100 10000 3.6 360 20:40 25.12.2019
5484 Clouds -3 1013 92 10000 3.6 360 20:21 25.12.2019
5485 Clouds -3 1013 92 10000 3.6 360 19:59 25.12.2019
5486 Clouds -3 1013 92 10000 3.6 360 19:41 25.12.2019
5487 Clouds -3 1013 92 10000 3.6 360 19:21 25.12.2019
5488 Clouds -3 1013 92 10000 3.1 360 18:40 25.12.2019
5489 Clouds -3 1013 92 10000 3.6 360 18:21 25.12.2019
5490 Clouds -3 1013 92 10000 3.6 360 18:21 25.12.2019
5491 Clouds -3 1013 92 10000 3.6 360 17:57 25.12.2019
5492 Clouds -3 1012 92 10000 3.1 360 17:39 25.12.2019
5493 Clouds -3 1012 92 10000 3.1 360 17:18 25.12.2019
5494 Clouds -3 1012 92 10000 3.1 20 16:39 25.12.2019
5495 Clouds -3 1012 92 10000 2.6 30 16:20 25.12.2019
5496 Clouds -3 1012 92 10000 2.6 30 15:59 25.12.2019
5497 Clouds -3 1012 92 10000 2.6 20 15:40 25.12.2019
5498 Clouds -3 1012 92 10000 2.6 40 15:22 25.12.2019
5499 Clouds -3 1012 92 10000 2.6 40 14:59 25.12.2019
5500 Clouds -3 1012 92 10000 3.1 30 14:40 25.12.2019
5501 Clouds -3 1012 100 10000 3.1 30 14:22 25.12.2019
5502 Clouds -3 1012 100 10000 3.1 30 13:57 25.12.2019
5503 Clouds -3 1012 100 10000 3.1 30 13:57 25.12.2019
5504 Clouds -3 1012 100 10000 2.6 50 13:39 25.12.2019
5505 Clouds -3 1012 100 10000 2.6 30 13:19 25.12.2019
5506 Clouds -3 1011 92 10000 1.5 350 12:43 25.12.2019
5507 Clouds -3 1011 100 10000 2.1 10 12:21 25.12.2019
5508 Clouds -3 1011 100 10000 2.1 10 11:57 25.12.2019
5509 Clouds -3 1011 100 10000 2.1 10 11:39 25.12.2019
5510 Clouds -3 1011 100 10000 3.1 10 11:18 25.12.2019
5511 Snow -3 1011 100 10000 2.1 10 10:38 25.12.2019
5512 Clouds -2 1011 92 10000 2.1 70 10:20 25.12.2019
5513 Clouds -3 1010 100 10000 2.1 60 09:51 25.12.2019
5514 Clouds -3 1010 100 10000 2.1 60 09:32 25.12.2019
5515 Clouds -3 1010 100 6000 2.1 360 08:51 25.12.2019
5516 Clouds -3 1010 100 6000 2.1 360 08:31 25.12.2019
5517 Fog -3 1009 100 1200 1.5 20 07:52 25.12.2019
5518 Fog -3 1009 100 1200 1.5 20 07:34 25.12.2019
5519 Fog -2 1009 92 900 1 360 06:52 25.12.2019
5520 Fog -2 1009 100 700 2.1 20 06:23 25.12.2019
5521 Fog -2 1009 100 600 0.5 0 05:31 25.12.2019
5522 Fog -2 1009 92 1100 1.5 360 04:39 25.12.2019
5523 Mist -2 1009 92 2000 1 20 04:20 25.12.2019
5524 Fog -2 1008 100 1600 1.5 30 03:42 25.12.2019
5525 Fog -2 1008 100 700 0.5 350 02:54 25.12.2019
5526 Fog -2 1008 100 600 0.5 0 02:27 25.12.2019
5527 Fog -2 1008 100 550 1 30 01:25 25.12.2019
5528 Fog -2 1008 100 1200 1 10 00:54 25.12.2019
5529 Clouds -2 1007 100 6000 1 0 00:33 25.12.2019
5530 Fog -2 1007 100 1200 1 0 23:57 24.12.2019
5531 Clouds -2 1007 100 10000 1 240 23:38 24.12.2019
5532 Mist -2 1007 100 3900 1.5 190 23:20 24.12.2019
5533 Clouds -2 1007 100 6000 0.5 0 22:41 24.12.2019
5534 Clouds -2 1007 100 6000 0.5 0 22:41 24.12.2019
5535 Fog -2 1007 100 1000 0.5 240 22:21 24.12.2019
5536 Fog -1 1007 92 1100 0.5 0 21:44 24.12.2019
5537 Fog -1 1007 92 1100 0.5 0 21:44 24.12.2019
5538 Fog -1 1006 92 900 0.5 0 21:23 24.12.2019
5539 Fog -1 1006 92 900 0.5 0 20:59 24.12.2019
5540 Fog -1 1006 92 700 1 0 20:40 24.12.2019
5541 Fog -1 1006 92 900 1 0 20:19 24.12.2019
5542 Fog -1 1006 92 500 1.5 200 19:45 24.12.2019
5543 Fog -1 1005 92 900 1 0 19:20 24.12.2019
5544 Fog -1 1005 92 900 1 0 18:57 24.12.2019
5545 Fog -1 1005 92 700 0.5 0 18:38 24.12.2019
5546 Fog -1 1005 92 750 1 0 18:18 24.12.2019
5547 Fog -1 1005 100 1000 1 210 17:39 24.12.2019
5548 Fog -1 1005 100 1100 1 0 17:21 24.12.2019
5549 Fog -1 1005 100 1100 1 0 16:55 24.12.2019
5550 Mist -1 1005 100 2900 1 0 16:37 24.12.2019
5551 Fog -1 1004 100 800 1 0 16:19 24.12.2019
5552 Fog -1 1004 100 800 1 0 15:55 24.12.2019
5553 Fog -1 1004 100 550 1.5 270 15:36 24.12.2019
5554 Fog -1 1004 100 500 1.5 240 15:18 24.12.2019
5555 Fog -1 1004 100 500 1.5 240 15:18 24.12.2019
5556 Fog -1 1004 100 500 1.5 240 14:55 24.12.2019
5557 Fog -1 1004 100 500 1.5 220 14:37 24.12.2019
5558 Fog -1 1004 100 750 1 240 14:19 24.12.2019
5559 Fog -1 1004 100 750 1 240 13:55 24.12.2019
5560 Fog -1 1003 100 900 1.5 230 13:37 24.12.2019
5561 Fog -1 1003 100 900 1.5 230 13:37 24.12.2019
5562 Fog -1 1003 100 600 1 230 13:19 24.12.2019
5563 Fog -1 1003 100 600 1.5 230 12:55 24.12.2019
5564 Fog -1 1003 100 600 1.5 230 12:36 24.12.2019
5565 Clouds -1 1003 100 600 1.5 240 12:18 24.12.2019
5566 Fog -1 1003 100 350 1.5 0 11:55 24.12.2019
5567 Fog -1 1003 100 350 1.5 0 11:36 24.12.2019
5568 Fog -1 1003 100 250 1 240 11:18 24.12.2019
5569 Fog -1 1003 100 350 1.5 220 10:55 24.12.2019
5570 Fog -1 1003 100 350 1.5 220 10:55 24.12.2019
5571 Fog -1 1003 100 350 1.5 220 10:36 24.12.2019
5572 Fog -1 1003 100 350 1 220 10:18 24.12.2019
5573 Fog -1 1003 100 350 1 220 09:54 24.12.2019
5574 Fog -1 1002 100 350 1.5 230 09:36 24.12.2019
5575 Clouds -1 1002 100 450 2.1 200 09:18 24.12.2019
5576 Fog -1 1002 100 600 1.5 220 08:42 24.12.2019
5577 Fog -1 1002 100 600 1.5 220 08:42 24.12.2019
5578 Fog -1 1001 100 550 1.5 230 08:19 24.12.2019
5579 Fog -1 1001 100 650 1.5 230 07:45 24.12.2019
5580 Snow -1 1001 100 1000 2.1 220 07:23 24.12.2019
5581 Fog -1 1001 100 900 2.1 220 06:41 24.12.2019
5582 Fog -1 1001 100 650 2.6 210 06:22 24.12.2019
5583 Clouds -1 1001 100 700 2.6 210 05:56 24.12.2019
5584 Clouds -1 1001 100 700 2.6 210 05:56 24.12.2019
5585 Clouds -1 1001 100 650 3.1 200 05:20 24.12.2019
5586 Clouds -1 1001 100 1600 2.6 230 04:22 24.12.2019
5587 Clouds -1 1001 100 6000 2.1 220 03:50 24.12.2019
5588 Clouds -1 1000 100 10000 3.6 210 02:37 24.12.2019
5589 Clouds -1 1000 100 10000 4.1 200 02:18 24.12.2019
5590 Clouds -1 1000 100 7000 2.6 190 01:42 24.12.2019
5591 Clouds -1 1000 100 7000 2.6 190 01:42 24.12.2019
5592 Clouds 0 1000 97 10000 2.6 180 01:19 24.12.2019
5593 Clouds 0 1000 97 10000 2.6 180 00:40 24.12.2019
5594 Clouds 0 1000 97 10000 3.1 170 00:20 24.12.2019
5595 Clouds 0 1000 97 10000 2.6 160 23:43 23.12.2019
5596 Clouds 0 999 97 10000 2.1 160 23:24 23.12.2019
5597 Clouds 0 999 97 10000 2.1 160 22:58 23.12.2019
5598 Clouds 0 999 97 10000 2.1 160 22:58 23.12.2019
5599 Clouds 0 999 97 2500 2.1 160 22:38 23.12.2019
5600 Clouds 0 999 97 2700 2.1 160 22:20 23.12.2019
5601 Clouds 0 999 97 2700 2.1 160 21:57 23.12.2019
5602 Clouds 0 999 97 5000 2.6 170 21:37 23.12.2019
5603 Clouds 0 999 97 1900 3.1 150 21:19 23.12.2019
5604 Clouds 0 999 97 1900 3.1 150 20:59 23.12.2019
5605 Snow 0 999 97 2400 2.6 160 20:41 23.12.2019
5606 Snow 0 999 98 2000 2.1 150 20:19 23.12.2019
5607 Snow 0 999 98 2000 2.1 150 19:59 23.12.2019
5608 Snow 0 998 98 2400 2.6 150 19:40 23.12.2019
5609 Snow 0 998 98 2400 2.6 150 19:40 23.12.2019
5610 Snow 0 998 98 5000 2.6 150 19:22 23.12.2019
5611 Snow 0 998 98 5000 2.6 150 18:58 23.12.2019
5612 Snow 0 998 98 2800 2.6 150 18:39 23.12.2019
5613 Clouds 0 998 98 1200 2.6 160 18:21 23.12.2019
5614 Clouds 0 998 98 1200 2.6 160 17:59 23.12.2019
5615 Fog 0 998 98 1200 2.6 150 17:40 23.12.2019
5616 Clouds 0 998 99 1200 3.1 150 17:19 23.12.2019
5617 Clouds 0 998 99 1200 3.1 150 17:19 23.12.2019
5618 Clouds 0 998 99 1200 3.1 150 16:57 23.12.2019
5619 Snow 0 998 99 1400 2.6 140 16:39 23.12.2019
5620 Clouds -1 998 100 1100 2.6 130 16:19 23.12.2019
5621 Clouds -1 998 100 1100 2.6 130 16:19 23.12.2019
5622 Clouds -1 998 100 1100 2.6 130 15:57 23.12.2019
5623 Clouds -1 998 100 1100 2.6 130 15:57 23.12.2019
5624 Snow -1 998 100 3600 2.6 130 15:37 23.12.2019
5625 Snow -1 997 100 5000 2.6 130 15:19 23.12.2019
5626 Snow -1 997 100 3900 3.1 0 14:56 23.12.2019
5627 Snow -1 997 100 3900 3.1 0 14:38 23.12.2019
5628 Snow -1 997 100 2500 3.1 110 14:18 23.12.2019
5629 Snow -1 997 100 2500 3.1 110 13:56 23.12.2019
5630 Snow -1 997 100 2200 3.1 110 13:37 23.12.2019
5631 Snow -1 997 100 1400 3.6 110 13:19 23.12.2019
5632 Snow -1 997 100 1400 4.1 110 12:54 23.12.2019
5633 Snow -1 997 100 1400 4.1 110 12:36 23.12.2019
5634 Snow -1 997 100 1600 3.6 110 12:18 23.12.2019
5635 Snow -1 997 100 1600 4.1 100 11:42 23.12.2019
5636 Snow -1 997 100 1200 4.1 100 11:22 23.12.2019
5637 Snow -1 997 100 1200 4.1 100 10:56 23.12.2019
5638 Snow -1 997 100 1200 4.6 100 10:37 23.12.2019
5639 Snow -1 997 100 1400 4.1 90 10:18 23.12.2019
5640 Snow -1 997 100 1300 4.1 90 09:56 23.12.2019
5641 Snow -1 997 100 1300 4.1 90 09:37 23.12.2019
5642 Snow -1 996 92 2800 4.1 90 09:19 23.12.2019
5643 Snow -1 996 92 5000 4.6 100 08:41 23.12.2019
5644 Snow -1 996 100 9000 5.1 100 08:22 23.12.2019
5645 Snow -1 996 100 9000 5.1 100 07:56 23.12.2019
5646 Snow -1 996 92 7000 4.6 100 07:38 23.12.2019
5647 Snow -1 996 92 2500 5.7 100 07:18 23.12.2019
5648 Snow -1 996 92 4000 5.7 90 06:39 23.12.2019
5649 Snow -1 996 92 10000 5.7 100 06:21 23.12.2019
5650 Snow -1 996 92 10000 5.7 100 05:44 23.12.2019
5651 Clouds -2 996 100 5000 5.7 90 04:40 23.12.2019
5652 Snow -2 996 100 10000 5.7 90 03:58 23.12.2019
5653 Snow -2 996 100 4400 5.1 90 02:46 23.12.2019
5654 Snow -2 996 92 6000 5.1 90 02:19 23.12.2019
5655 Clouds -2 996 92 10000 4.6 80 01:45 23.12.2019
5656 Clouds -2 996 92 10000 4.6 80 01:27 23.12.2019
5657 Snow -2 996 92 10000 5.1 80 00:45 23.12.2019
5658 Snow -2 997 92 10000 4.6 80 00:24 23.12.2019
5659 Snow -2 996 92 10000 5.1 80 00:24 23.12.2019
5660 Snow -2 997 92 10000 5.1 80 23:40 22.12.2019
5661 Snow -2 997 92 10000 5.7 80 23:22 22.12.2019
5662 Snow -2 997 92 10000 5.7 80 22:58 22.12.2019
5663 Snow -2 997 92 10000 5.7 80 22:58 22.12.2019
5664 Snow -2 997 92 10000 4.6 90 22:40 22.12.2019
5665 Clouds -2 997 92 10000 5.1 90 22:22 22.12.2019
5666 Clouds -2 997 92 10000 5.1 90 21:59 22.12.2019
5667 Clouds -2 997 92 10000 6.2 80 21:40 22.12.2019
5668 Clouds -2 997 92 5000 5.1 90 21:21 22.12.2019
5669 Clouds -2 997 92 5000 5.1 90 21:21 22.12.2019
5670 Clouds -2 997 92 5000 5.1 90 20:58 22.12.2019
5671 Clouds -2 997 92 6000 5.1 90 20:39 22.12.2019
5672 Clouds -2 997 92 10000 4.6 80 20:19 22.12.2019
5673 Clouds -2 997 92 10000 4.6 80 19:57 22.12.2019
5674 Clouds -2 997 92 10000 4.6 80 19:57 22.12.2019
5675 Clouds -2 997 92 10000 5.1 80 19:38 22.12.2019
5676 Clouds -2 997 92 10000 4.6 90 19:19 22.12.2019
5677 Clouds -2 997 92 10000 5.1 90 18:42 22.12.2019
5678 Clouds -2 997 92 9000 5.1 90 18:23 22.12.2019
5679 Clouds -2 997 92 9000 5.1 90 17:56 22.12.2019
5680 Clouds -2 997 92 9000 5.1 80 17:38 22.12.2019
5681 Clouds -3 997 100 8000 5.1 80 17:19 22.12.2019
5682 Clouds -3 997 100 8000 5.1 80 16:57 22.12.2019
5683 Clouds -3 996 100 7000 5.1 70 16:38 22.12.2019
5684 Clouds -3 997 100 7000 5.1 70 16:20 22.12.2019
5685 Clouds -3 997 100 7000 5.1 70 15:56 22.12.2019
5686 Clouds -3 996 100 10000 4.1 60 15:37 22.12.2019
5687 Clouds -3 996 100 10000 4.6 70 15:19 22.12.2019
5688 Clouds -3 996 100 10000 4.1 60 14:55 22.12.2019
5689 Clouds -3 996 100 10000 4.1 60 14:36 22.12.2019
5690 Clouds -3 996 100 10000 4.6 60 14:18 22.12.2019
5691 Clouds -3 996 100 10000 4.6 60 13:55 22.12.2019
5692 Clouds -3 996 100 10000 4.6 60 13:36 22.12.2019
5693 Snow -3 996 92 10000 4.6 60 13:18 22.12.2019
5694 Snow -3 996 92 10000 4.6 60 12:55 22.12.2019
5695 Snow -3 996 92 10000 4.6 60 12:37 22.12.2019
5696 Snow -3 996 92 10000 4.6 60 12:18 22.12.2019
5697 Snow -3 996 92 4100 4.6 60 11:39 22.12.2019
5698 Snow -3 996 100 1900 4.6 60 11:21 22.12.2019
5699 Snow -3 996 100 10000 4.6 50 10:59 22.12.2019
5700 Snow -3 996 100 10000 4.6 50 10:40 22.12.2019
5701 Snow -3 996 100 10000 3.6 60 10:21 22.12.2019
5702 Snow -3 996 100 10000 3.6 60 09:59 22.12.2019
5703 Clouds -3 996 100 5000 4.1 60 09:40 22.12.2019
5704 Clouds -3 996 100 7000 4.1 60 09:21 22.12.2019
5705 Clouds -3 996 100 7000 4.1 60 08:59 22.12.2019
5706 Snow -3 996 100 3900 3.6 70 08:37 22.12.2019
5707 Snow -3 996 100 1900 4.1 60 08:18 22.12.2019
5708 Snow -3 996 100 1900 4.1 60 08:18 22.12.2019
5709 Snow -2 996 92 1100 4.1 60 07:38 22.12.2019
5710 Clouds -2 995 92 600 4.1 70 07:19 22.12.2019
5711 Clouds -2 995 100 550 4.1 60 06:40 22.12.2019
5712 Clouds -2 995 100 450 3.6 60 05:53 22.12.2019
5713 Clouds -2 995 100 450 3.1 60 05:21 22.12.2019
5714 Fog -1 995 92 500 2.6 70 04:28 22.12.2019
5715 Fog -1 995 100 500 2.6 70 03:45 22.12.2019
5716 Fog -1 995 100 450 1.5 70 02:38 22.12.2019
5717 Fog -1 995 100 450 1.5 70 02:38 22.12.2019
5718 Fog -1 995 100 550 1.5 100 01:37 22.12.2019
5719 Fog -1 995 100 500 1.5 60 01:18 22.12.2019
5720 Fog -1 995 100 550 1.5 90 00:45 22.12.2019
5721 Fog -1 995 100 650 1.5 100 00:21 22.12.2019
5722 Fog -1 995 100 550 1 80 23:42 21.12.2019
5723 Fog -1 994 100 600 1.5 80 23:24 21.12.2019
5724 Fog -1 994 100 600 1.5 80 22:59 21.12.2019
5725 Fog -1 994 100 800 1.5 130 22:40 21.12.2019
5726 Fog -1 994 100 1100 1.5 130 22:19 21.12.2019
5727 Fog -1 994 100 1100 1.5 130 21:57 21.12.2019
5728 Snow -1 994 100 1300 1.5 110 21:37 21.12.2019
5729 Snow -1 994 100 1000 1.5 90 21:19 21.12.2019
5730 Snow -1 994 100 1000 1.5 90 20:58 21.12.2019
5731 Snow -1 994 100 1000 1.5 90 20:58 21.12.2019
5732 Snow -1 994 100 1300 2.1 90 20:39 21.12.2019
5733 Clouds -1 994 92 2900 2.1 90 20:21 21.12.2019
5734 Clouds -1 994 92 2900 2.1 90 19:57 21.12.2019
5735 Snow -1 994 92 1000 2.1 90 19:39 21.12.2019
5736 Clouds -1 994 92 650 2.6 80 19:19 21.12.2019
5737 Fog -2 994 100 650 2.1 0 18:42 21.12.2019
5738 Snow -2 994 100 1200 2.6 80 18:24 21.12.2019
5739 Clouds -2 994 100 2100 2.6 90 17:57 21.12.2019
5740 Clouds -2 994 100 2100 2.6 90 17:39 21.12.2019
5741 Clouds -2 994 100 1300 2.6 80 17:21 21.12.2019
5742 Clouds -2 994 100 1300 2.6 80 16:57 21.12.2019
5743 Clouds -2 994 100 1300 2.6 80 16:57 21.12.2019
5744 Clouds -2 994 100 1900 2.6 90 16:39 21.12.2019
5745 Clouds -2 994 100 1300 2.1 80 16:18 21.12.2019
5746 Clouds -2 994 100 1300 2.1 80 15:56 21.12.2019
5747 Clouds -2 995 100 3200 2.6 80 15:37 21.12.2019
5748 Clouds -2 995 100 9000 2.6 90 15:19 21.12.2019
5749 Clouds -2 995 100 5000 2.6 70 14:44 21.12.2019
5750 Clouds -2 995 100 5000 2.6 70 14:25 21.12.2019
5751 Clouds -2 995 100 7000 2.1 90 13:59 21.12.2019
5752 Clouds -2 995 92 9000 3.6 90 13:40 21.12.2019
5753 Snow -2 996 92 10000 2.6 100 13:20 21.12.2019
5754 Snow -2 996 92 10000 2.6 100 12:57 21.12.2019
5755 Snow -3 996 100 10000 2.6 90 12:39 21.12.2019
5756 Snow -3 996 100 10000 2.6 90 12:21 21.12.2019
5757 Snow -3 996 100 3600 2.6 80 11:57 21.12.2019
5758 Snow -3 996 100 3600 2.6 80 11:39 21.12.2019
5759 Snow -3 996 100 2800 3.1 100 11:21 21.12.2019
5760 Snow -3 996 100 3100 2.6 90 10:41 21.12.2019
5761 Snow -3 997 100 4000 2.6 90 10:23 21.12.2019
5762 Snow -3 997 100 4000 2.6 90 10:23 21.12.2019
5763 Snow -3 997 100 4000 2.6 90 09:58 21.12.2019
5764 Snow -3 997 100 2400 2.6 90 09:40 21.12.2019
5765 Snow -3 997 100 3500 3.1 90 09:20 21.12.2019
5766 Snow -3 997 100 4900 3.1 80 08:52 21.12.2019
5767 Snow -3 997 100 4900 3.1 80 08:27 21.12.2019
5768 Snow -3 997 100 8000 3.1 90 07:58 21.12.2019
5769 Snow -3 997 100 10000 3.1 90 07:40 21.12.2019
5770 Snow -3 997 100 4500 3.1 100 07:21 21.12.2019
5771 Snow -3 998 100 4100 2.6 100 06:41 21.12.2019
5772 Snow -3 998 100 4300 3.1 110 06:23 21.12.2019
5773 Snow -3 998 100 3400 3.6 100 05:37 21.12.2019
5774 Snow -3 999 100 4400 3.1 100 04:55 21.12.2019
5775 Snow -3 999 100 4300 3.6 100 03:56 21.12.2019
5776 Snow -3 1000 92 4200 3.6 90 02:25 21.12.2019
5777 Snow -3 1000 92 3400 3.6 90 01:48 21.12.2019
5778 Snow -3 1000 92 3400 3.6 90 01:25 21.12.2019
5779 Snow -3 1001 92 3300 3.6 100 00:45 21.12.2019
5780 Snow -4 1001 100 3600 3.6 100 00:26 21.12.2019
5781 Snow -4 1002 100 3400 3.6 90 23:39 20.12.2019
5782 Snow -3 1002 92 6000 2.6 100 23:21 20.12.2019
5783 Snow -3 1002 92 6000 2.6 100 22:59 20.12.2019
5784 Clouds -3 1002 92 10000 3.6 100 22:39 20.12.2019
5785 Clouds -3 1003 92 10000 3.1 100 22:19 20.12.2019
5786 Clouds -3 1003 92 8000 2.6 100 21:42 20.12.2019
5787 Clouds -4 1003 100 5000 3.1 120 21:21 20.12.2019
5788 Clouds -4 1003 100 5000 3.1 120 20:59 20.12.2019
5789 Clouds -4 1004 100 10000 3.1 110 20:38 20.12.2019
5790 Clouds -4 1004 100 10000 2.6 110 20:19 20.12.2019
5791 Clouds -4 1004 100 10000 2.6 110 19:56 20.12.2019
5792 Clouds -4 1004 100 10000 3.6 110 19:38 20.12.2019
5793 Clouds -4 1004 100 10000 3.6 110 19:18 20.12.2019
5794 Clouds -4 1004 100 10000 3.6 110 19:18 20.12.2019
5795 Snow -4 1004 100 10000 3.6 120 18:41 20.12.2019
5796 Snow -4 1005 100 10000 3.1 120 18:22 20.12.2019
5797 Snow -4 1005 100 10000 3.1 120 17:57 20.12.2019
5798 Clouds -4 1005 100 9000 4.1 120 17:39 20.12.2019
5799 Clouds -4 1005 100 9000 4.1 120 17:39 20.12.2019
5800 Clouds -4 1005 100 9000 4.1 120 17:20 20.12.2019
5801 Snow -4 1005 100 10000 3.6 130 16:56 20.12.2019
5802 Snow -4 1005 92 10000 3.6 130 16:37 20.12.2019
5803 Snow -4 1005 92 10000 3.6 130 16:19 20.12.2019
5804 Snow -4 1005 92 6000 4.1 120 15:54 20.12.2019
5805 Snow -4 1005 92 6000 4.1 120 15:54 20.12.2019
5806 Snow -4 1006 92 4100 4.1 130 15:36 20.12.2019
5807 Snow -4 1006 92 4100 4.1 130 15:36 20.12.2019
5808 Snow -4 1006 92 4100 4.1 130 15:18 20.12.2019
5809 Snow -5 1006 100 4300 4.1 120 14:42 20.12.2019
5810 Clouds -5 1006 92 8000 4.1 110 14:23 20.12.2019
5811 Clouds -6 1006 100 5000 3.6 110 13:56 20.12.2019
5812 Snow -6 1006 92 2500 3.1 90 13:37 20.12.2019
5813 Snow -6 1006 92 2500 3.1 90 13:18 20.12.2019
5814 Mist -6 1007 92 2500 3.1 90 12:55 20.12.2019
5815 Mist -6 1007 92 1200 2.6 100 12:36 20.12.2019
5816 Mist -6 1007 92 1200 2.6 100 12:18 20.12.2019
5817 Fog -6 1007 92 700 3.6 140 11:57 20.12.2019
5818 Fog -7 1007 100 600 4.1 130 11:38 20.12.2019
5819 Fog -7 1007 100 600 4.1 130 11:18 20.12.2019
5820 Fog -8 1007 92 500 3.6 110 10:55 20.12.2019
5821 Fog -8 1007 92 600 2.6 80 10:37 20.12.2019
5822 Fog -8 1007 92 600 2.6 80 10:18 20.12.2019
5823 Mist -8 1007 92 1400 2.6 80 09:42 20.12.2019
5824 Mist -8 1008 92 1000 2.6 80 09:21 20.12.2019
5825 Fog -9 1007 92 700 3.6 90 08:54 20.12.2019
5826 Fog -9 1008 92 350 4.1 110 08:36 20.12.2019
5827 Fog -9 1008 92 350 4.1 110 08:18 20.12.2019
5828 Fog -9 1008 92 700 2.6 60 07:41 20.12.2019
5829 Fog -9 1008 92 700 2.6 60 07:20 20.12.2019
5830 Fog -10 1008 92 700 2.1 80 06:52 20.12.2019
5831 Clouds -10 1008 92 6000 2.6 60 06:33 20.12.2019
5832 Snow -10 1008 92 3400 4.1 120 05:56 20.12.2019
5833 Mist -11 1008 92 3000 4.1 140 05:37 20.12.2019
5834 Clouds -11 1008 92 10000 3.1 90 04:34 20.12.2019
5835 Clouds -10 1009 92 10000 3.6 60 03:31 20.12.2019
5836 Clouds -11 1009 92 10000 2.6 70 02:44 20.12.2019
5837 Clouds -11 1009 92 10000 2.6 90 01:54 20.12.2019
5838 Clouds -13 1009 92 10000 2.6 80 01:33 20.12.2019
5839 Clouds -12 1009 85 10000 2.6 80 00:48 20.12.2019
5840 Clouds -12 1009 92 10000 1.5 70 00:29 20.12.2019
5841 Clouds -12 1009 92 10000 1 210 23:54 19.12.2019
5842 Clouds -9 1009 85 10000 1.5 50 23:36 19.12.2019
5843 Clouds -9 1009 85 10000 1.5 50 23:18 19.12.2019
5844 Clouds -10 1009 92 6000 1 0 22:37 19.12.2019
5845 Clouds -10 1009 92 6000 1 0 22:19 19.12.2019
5846 Clouds -11 1009 92 10000 1 0 21:56 19.12.2019
5847 Clouds -10 1009 92 10000 2.1 210 21:37 19.12.2019
5848 Clouds -10 1009 92 10000 2.1 210 21:18 19.12.2019
5849 Clouds -11 1009 92 10000 1 250 20:56 19.12.2019
5850 Clouds -11 1008 85 10000 1 0 20:36 19.12.2019
5851 Clouds -11 1008 85 10000 1 0 20:18 19.12.2019
5852 Clouds -11 1008 92 10000 2.1 220 19:57 19.12.2019
5853 Clouds -11 1008 92 10000 2.1 220 19:57 19.12.2019
5854 Clouds -11 1008 92 10000 2.1 220 19:39 19.12.2019
5855 Clouds -11 1008 92 10000 2.1 220 19:39 19.12.2019
5856 Clouds -9 1008 92 10000 3.6 350 19:19 19.12.2019
5857 Clouds -9 1008 92 10000 3.6 350 19:19 19.12.2019
5858 Clouds -10 1008 92 10000 2.6 340 18:41 19.12.2019
5859 Clouds -10 1008 92 10000 2.6 340 18:23 19.12.2019
5860 Clouds -8 1008 92 10000 2.1 320 17:58 19.12.2019
5861 Clouds -8 1008 92 10000 2.1 320 17:40 19.12.2019
5862 Clouds -8 1008 92 10000 2.6 330 17:19 19.12.2019
5863 Clouds -8 1008 92 10000 2.6 330 17:19 19.12.2019
5864 Clouds -8 1008 92 10000 2.6 320 16:59 19.12.2019
5865 Clouds -8 1008 92 10000 2.6 320 16:41 19.12.2019
5866 Clouds -8 1007 92 10000 3.1 330 16:22 19.12.2019
5867 Clouds -7 1007 92 10000 4.1 330 15:59 19.12.2019
5868 Clouds -7 1007 92 10000 4.1 330 15:59 19.12.2019
5869 Clouds -7 1007 92 10000 4.1 330 15:39 19.12.2019
5870 Clouds -7 1007 92 10000 4.1 340 15:20 19.12.2019
5871 Clouds -8 1006 92 10000 2.1 320 14:59 19.12.2019
5872 Clouds -7 1006 92 10000 1 0 14:41 19.12.2019
5873 Clouds -7 1006 92 10000 1 0 14:19 19.12.2019
5874 Clouds -8 1006 92 10000 2.1 340 13:57 19.12.2019
5875 Clouds -8 1005 92 10000 2.1 280 13:37 19.12.2019
5876 Clouds -8 1005 92 10000 2.1 280 13:18 19.12.2019
5877 Clouds -6 1005 92 10000 4.1 330 12:55 19.12.2019
5878 Clouds -6 1005 92 10000 4.1 330 12:55 19.12.2019
5879 Clouds -7 1005 92 10000 3.6 320 12:37 19.12.2019
5880 Clouds -7 1005 92 10000 3.6 320 12:18 19.12.2019
5881 Clouds -7 1005 92 10000 3.6 320 12:18 19.12.2019
5882 Clouds -7 1005 92 10000 3.6 320 12:18 19.12.2019
5883 Clouds -7 1004 92 10000 3.6 310 11:57 19.12.2019
5884 Clouds -8 1004 92 10000 2.6 290 11:38 19.12.2019
5885 Clouds -8 1004 92 10000 2.6 290 11:18 19.12.2019
5886 Clouds -8 1004 92 10000 2.6 290 11:18 19.12.2019
5887 Clear -8 1003 85 10000 3.1 280 10:39 19.12.2019
5888 Clear -8 1003 85 10000 3.1 280 10:20 19.12.2019
5889 Clear -9 1002 92 10000 2.6 290 09:59 19.12.2019
5890 Clear -9 1002 92 10000 2.1 270 09:38 19.12.2019
5891 Clear -9 1002 92 10000 2.1 270 09:20 19.12.2019
5892 Clear -10 1001 92 10000 3.6 250 08:56 19.12.2019
5893 Clear -10 1001 92 10000 2.6 320 08:37 19.12.2019
5894 Clouds -10 1001 92 10000 2.6 320 08:18 19.12.2019
5895 Clouds -10 1001 85 10000 3.1 260 07:55 19.12.2019
5896 Clouds -10 1001 85 10000 3.1 260 07:55 19.12.2019
5897 Clouds -11 1000 92 10000 2.1 250 07:37 19.12.2019
5898 Clouds -11 1000 92 10000 2.1 250 07:19 19.12.2019
5899 Clouds -11 1000 92 10000 1.5 250 06:45 19.12.2019
5900 Clouds -11 999 92 10000 2.1 250 06:26 19.12.2019
5901 Clouds -11 999 92 10000 2.6 260 05:47 19.12.2019
5902 Clouds -10 999 92 10000 3.1 250 05:27 19.12.2019
5903 Clouds -10 998 92 10000 3.1 260 03:58 19.12.2019
5904 Fog -8 996 92 1000 2.6 260 02:30 19.12.2019
5905 Clouds -8 996 92 4400 2.1 300 01:27 19.12.2019
5906 Clouds -7 996 92 900 2.6 320 01:00 19.12.2019
5907 Clouds -7 996 100 3900 3.6 320 00:39 19.12.2019
5908 Clouds -7 996 100 3900 3.6 320 00:39 19.12.2019
5909 Clouds -7 996 100 3900 3.6 320 00:39 19.12.2019
5910 Clouds -7 996 100 3900 3.6 320 00:19 19.12.2019
5911 Clouds -7 996 100 3900 3.6 320 00:19 19.12.2019
5912 Clouds -6 995 92 5000 3.1 320 23:45 18.12.2019
5913 Mist -6 995 92 3800 2.6 310 23:19 18.12.2019
5914 Mist -6 995 92 3800 2.6 310 23:19 18.12.2019
5915 Mist -6 995 92 3800 2.6 310 23:19 18.12.2019
5916 Clouds -6 995 100 10000 2.6 300 22:58 18.12.2019
5917 Snow -6 995 100 10000 2.6 310 22:40 18.12.2019
5918 Snow -6 995 100 10000 2.6 310 22:22 18.12.2019
5919 Snow -5 995 92 10000 2.6 290 21:59 18.12.2019
5920 Snow -5 994 92 10000 2.1 270 21:40 18.12.2019
5921 Snow -5 994 92 10000 2.1 270 21:20 18.12.2019
5922 Clouds -5 994 92 10000 2.6 280 20:57 18.12.2019
5923 Snow -5 994 100 10000 3.1 260 20:38 18.12.2019
5924 Snow -5 994 100 10000 3.1 260 20:20 18.12.2019
5925 Snow -4 994 92 10000 3.1 250 19:57 18.12.2019
5926 Snow -4 993 92 10000 3.6 230 19:39 18.12.2019
5927 Snow -4 993 92 10000 3.6 230 19:19 18.12.2019
5928 Snow -4 993 92 10000 2.6 240 18:55 18.12.2019
5929 Snow -4 993 92 10000 3.1 230 18:37 18.12.2019
5930 Snow -4 993 92 10000 3.1 230 18:18 18.12.2019
5931 Snow -4 993 100 10000 3.1 240 17:55 18.12.2019
5932 Snow -3 993 92 10000 3.6 230 17:37 18.12.2019
5933 Snow -3 993 92 10000 3.6 230 17:18 18.12.2019
5934 Snow -3 993 92 10000 5.1 220 16:42 18.12.2019
5935 Snow -3 993 92 10000 5.1 220 16:42 18.12.2019
5936 Clouds -3 993 92 10000 3.1 230 16:23 18.12.2019
5937 Clouds -3 993 92 10000 3.1 230 15:57 18.12.2019
5938 Snow -3 993 100 10000 4.1 220 15:39 18.12.2019
5939 Snow -3 994 100 10000 4.6 210 15:21 18.12.2019
5940 Snow -3 994 100 10000 4.6 210 14:56 18.12.2019
5941 Snow -3 994 100 10000 6.2 200 14:36 18.12.2019
5942 Snow -3 994 100 10000 5.7 210 14:18 18.12.2019
5943 Snow -3 994 100 10000 5.7 210 13:54 18.12.2019
5944 Snow -3 994 100 10000 5.7 210 13:36 18.12.2019
5945 Snow -3 994 100 3000 3.6 220 13:18 18.12.2019
5946 Snow -3 994 100 3000 3.6 220 13:18 18.12.2019
5947 Snow -3 994 100 6000 4.6 220 12:40 18.12.2019
5948 Snow -3 994 100 5000 6.2 200 12:21 18.12.2019
5949 Snow -2 994 92 2200 4.6 200 11:57 18.12.2019
5950 Snow -2 994 92 2200 4.6 200 11:39 18.12.2019
5951 Snow -2 995 92 2000 5.1 200 11:20 18.12.2019
5952 Snow -2 995 92 2000 5.1 200 10:58 18.12.2019
5953 Snow -2 995 92 4000 5.7 190 10:39 18.12.2019
5954 Snow -2 995 92 10000 5.1 190 10:20 18.12.2019
5955 Snow -2 995 92 10000 5.1 190 10:20 18.12.2019
5956 Snow -2 995 92 10000 5.1 190 09:57 18.12.2019
5957 Snow -2 995 100 10000 5.7 190 09:20 18.12.2019
5958 Snow -2 995 100 4000 4.1 210 08:42 18.12.2019
5959 Clouds -2 995 100 5000 6.2 210 08:24 18.12.2019
5960 Clouds -2 995 100 5000 6.2 210 07:57 18.12.2019
5961 Mist -2 995 100 3500 7.2 210 07:39 18.12.2019
5962 Mist -2 995 100 3000 6.2 220 07:19 18.12.2019
5963 Clouds -2 995 92 10000 6.7 220 06:51 18.12.2019
5964 Clouds -2 995 92 10000 8.2 220 06:23 18.12.2019
5965 Clouds -3 995 100 2500 8.7 220 05:34 18.12.2019
5966 Clouds -2 995 92 10000 6.2 220 03:46 18.12.2019
5967 Clouds -2 995 92 10000 5.7 200 02:44 18.12.2019
5968 Clouds -3 996 100 10000 6.2 200 02:26 18.12.2019
5969 Clouds -3 996 100 10000 5.7 210 01:43 18.12.2019
5970 Clouds -3 996 100 10000 5.7 210 01:25 18.12.2019
5971 Clouds -3 996 100 10000 5.7 220 00:42 18.12.2019
5972 Clouds -3 996 100 10000 5.1 210 00:24 18.12.2019
5973 Clouds -3 995 100 10000 5.1 210 23:58 17.12.2019
5974 Clouds -3 995 100 10000 5.1 210 23:58 17.12.2019
5975 Clouds -3 995 100 10000 5.1 210 23:39 17.12.2019
5976 Clouds -3 995 100 10000 6.7 210 23:21 17.12.2019
5977 Clouds -2 995 92 10000 6.2 220 22:57 17.12.2019
5978 Clouds -2 995 92 10000 6.2 220 22:38 17.12.2019
5979 Clouds -2 995 100 10000 5.7 220 22:19 17.12.2019
5980 Clouds -2 995 100 10000 5.7 220 21:57 17.12.2019
5981 Clouds -2 995 100 10000 6.2 220 21:38 17.12.2019
5982 Clouds -1 995 100 1000 7.2 210 21:19 17.12.2019
5983 Clouds -1 995 100 1000 7.2 210 20:58 17.12.2019
5984 Clouds -1 994 100 6000 6.7 210 20:39 17.12.2019
5985 Snow -1 994 100 6000 8.7 200 20:18 17.12.2019
5986 Snow -1 994 100 6000 8.7 200 19:56 17.12.2019
5987 Clouds -1 994 100 8000 7.2 210 19:38 17.12.2019
5988 Clouds -1 994 100 6000 7.2 220 19:18 17.12.2019
5989 Clouds -1 994 100 5000 6.7 210 18:54 17.12.2019
5990 Clouds -1 994 100 5000 6.7 210 18:36 17.12.2019
5991 Clouds -1 994 100 4000 7.2 210 18:18 17.12.2019
5992 Clouds -1 994 100 4000 7.2 210 18:18 17.12.2019
5993 Clouds -1 994 100 700 6.2 210 17:42 17.12.2019
5994 Snow -1 994 100 3900 5.1 200 17:20 17.12.2019
5995 Clouds -1 994 100 7000 5.7 210 16:56 17.12.2019
5996 Clouds -1 994 100 7000 5.7 210 16:38 17.12.2019
5997 Snow -1 994 100 7000 5.7 210 16:19 17.12.2019
5998 Clouds -1 994 100 1400 6.2 210 15:58 17.12.2019
5999 Clouds -1 994 100 1400 6.2 210 15:37 17.12.2019
6000 Clouds -1 994 100 900 5.1 210 15:19 17.12.2019
6001 Clouds -1 994 100 900 5.1 210 14:55 17.12.2019
6002 Clouds -1 994 100 900 5.1 210 14:55 17.12.2019
6003 Clouds -1 994 100 2200 5.7 200 14:37 17.12.2019
6004 Snow -1 994 100 2300 5.7 210 14:18 17.12.2019
6005 Snow -1 994 100 2300 5.7 210 14:18 17.12.2019
6006 Snow -2 994 100 1800 5.1 210 13:55 17.12.2019
6007 Snow -2 994 100 1800 5.1 210 13:37 17.12.2019
6008 Snow -2 994 100 2500 4.1 200 13:18 17.12.2019
6009 Snow -2 993 100 2500 3.6 190 12:41 17.12.2019
6010 Snow -2 993 100 1700 3.1 190 12:19 17.12.2019
6011 Snow -2 993 100 1400 3.1 190 11:59 17.12.2019
6012 Snow -2 993 100 1400 3.1 190 11:37 17.12.2019
6013 Snow -2 993 92 1500 3.1 220 11:19 17.12.2019
6014 Mist -2 993 100 1000 4.1 220 10:59 17.12.2019
6015 Mist -2 993 100 1000 4.1 220 10:41 17.12.2019
6016 Mist -2 993 100 1000 4.1 220 10:41 17.12.2019
6017 Fog -2 993 92 500 4.6 200 10:22 17.12.2019
6018 Fog -2 993 92 500 4.6 200 09:59 17.12.2019
6019 Fog -2 993 100 500 3.1 200 09:41 17.12.2019
6020 Fog -2 993 92 600 4.1 210 09:20 17.12.2019
6021 Fog -2 993 92 700 4.1 230 08:56 17.12.2019
6022 Fog -2 993 92 700 4.1 230 08:38 17.12.2019
6023 Fog -2 993 92 600 4.1 210 08:19 17.12.2019
6024 Fog -2 993 92 500 4.1 220 07:46 17.12.2019
6025 Fog -2 992 92 400 3.6 220 07:26 17.12.2019
6026 Fog -2 992 92 400 3.6 220 06:59 17.12.2019
6027 Fog -2 992 92 600 3.1 230 06:35 17.12.2019
6028 Clouds -3 992 100 1000 3.1 230 05:53 17.12.2019
6029 Clouds -3 992 100 1000 3.1 230 05:35 17.12.2019
6030 Clouds -3 992 100 650 3.6 230 04:30 17.12.2019
6031 Clouds -3 993 100 10000 3.1 220 02:34 17.12.2019
6032 Snow -3 993 100 10000 2.1 230 01:55 17.12.2019
6033 Snow -3 993 100 1400 1.5 250 00:58 17.12.2019
6034 Snow -3 993 100 1400 1.5 250 00:37 17.12.2019
6035 Fog -3 993 100 900 1.5 220 00:19 17.12.2019
6036 Fog -3 993 100 800 2.1 230 23:41 16.12.2019
6037 Clouds -3 993 100 550 2.6 220 23:19 16.12.2019
6038 Fog -3 993 100 800 2.1 230 22:56 16.12.2019
6039 Fog -3 993 100 800 2.1 230 22:37 16.12.2019
6040 Clouds -3 993 100 5000 1.5 230 22:19 16.12.2019
6041 Clouds -3 993 100 5000 1.5 230 21:55 16.12.2019
6042 Clouds -3 993 100 10000 1.5 200 21:37 16.12.2019
6043 Clouds -3 993 100 10000 1.5 190 21:19 16.12.2019
6044 Clouds -3 993 100 10000 1 170 20:57 16.12.2019
6045 Clouds -3 993 100 10000 1 170 20:57 16.12.2019
6046 Clouds -3 993 100 10000 1 170 20:37 16.12.2019
6047 Clouds -3 993 100 10000 1 0 20:19 16.12.2019
6048 Clouds -3 993 100 10000 1 0 19:55 16.12.2019
6049 Clouds -3 993 100 10000 1 0 19:36 16.12.2019
6050 Clouds -3 993 100 10000 1.5 170 19:18 16.12.2019
6051 Clouds -3 993 100 10000 2.1 160 18:55 16.12.2019
6052 Clouds -3 993 100 10000 2.1 160 18:37 16.12.2019
6053 Clouds -3 993 100 10000 2.1 160 18:37 16.12.2019
6054 Clouds -3 993 100 10000 2.6 160 18:19 16.12.2019
6055 Clouds -2 993 92 10000 2.6 160 17:57 16.12.2019
6056 Clouds -2 993 92 10000 2.6 160 17:37 16.12.2019
6057 Snow -2 993 92 10000 2.6 150 17:19 16.12.2019
6058 Snow -2 993 92 10000 2.6 130 16:55 16.12.2019
6059 Snow -2 993 92 10000 2.6 130 16:37 16.12.2019
6060 Snow -2 993 92 10000 2.6 130 16:37 16.12.2019
6061 Snow -2 993 92 9000 2.6 120 16:18 16.12.2019
6062 Snow -2 993 92 9000 2.6 120 15:55 16.12.2019
6063 Snow -2 993 92 6000 2.6 120 15:37 16.12.2019
6064 Snow -2 993 92 10000 2.6 120 15:19 16.12.2019
6065 Snow -2 993 92 10000 2.6 110 14:54 16.12.2019
6066 Snow -2 993 92 10000 2.6 110 14:36 16.12.2019
6067 Snow -2 993 92 4500 3.1 110 14:18 16.12.2019
6068 Snow -2 993 92 4500 3.1 110 14:18 16.12.2019
6069 Snow -2 993 100 5000 2.6 120 13:38 16.12.2019
6070 Snow -2 993 100 4000 2.6 110 13:20 16.12.2019
6071 Snow -2 993 100 2500 2.6 100 12:59 16.12.2019
6072 Snow -2 993 100 2500 2.6 100 12:40 16.12.2019
6073 Snow -2 993 100 3000 2.6 100 12:20 16.12.2019
6074 Snow -2 993 100 3000 2.6 100 11:59 16.12.2019
6075 Snow -2 993 100 2000 2.6 100 11:41 16.12.2019
6076 Snow -2 993 100 2500 2.6 100 11:22 16.12.2019
6077 Snow -2 993 100 2500 2.6 100 10:59 16.12.2019
6078 Snow -2 993 100 2000 3.1 90 10:40 16.12.2019
6079 Snow -2 993 100 2000 3.1 90 10:40 16.12.2019
6080 Snow -2 993 100 1500 3.1 90 10:20 16.12.2019
6081 Snow -2 994 100 2000 2.6 80 09:46 16.12.2019
6082 Snow -2 994 100 2000 3.1 80 09:28 16.12.2019
6083 Snow -2 994 100 2000 2.6 90 08:58 16.12.2019
6084 Snow -2 994 100 2000 2.6 90 08:38 16.12.2019
6085 Snow -2 994 100 2000 3.1 90 08:18 16.12.2019
6086 Snow -2 994 100 2000 3.1 90 07:47 16.12.2019
6087 Snow -2 994 100 2000 2.6 90 07:29 16.12.2019
6088 Snow -2 994 100 3000 3.1 90 06:46 16.12.2019
6089 Snow -2 994 100 5000 2.6 90 06:26 16.12.2019
6090 Snow -2 994 100 3400 3.6 90 05:54 16.12.2019
6091 Snow -2 994 100 3400 3.6 90 05:35 16.12.2019
6092 Snow -1 995 92 8000 3.1 90 04:27 16.12.2019
6093 Snow -1 995 92 3800 3.6 90 02:36 16.12.2019
6094 Snow -1 996 92 5000 3.6 100 01:45 16.12.2019
6095 Snow -1 996 92 3300 4.1 100 00:54 16.12.2019
6096 Snow -1 996 92 3300 4.1 100 00:36 16.12.2019
6097 Snow -1 996 92 6000 3.6 100 00:18 16.12.2019
6098 Snow -1 997 92 5000 4.1 100 23:40 15.12.2019
6099 Snow -1 997 92 6000 4.1 100 23:21 15.12.2019
6100 Snow -1 997 92 9000 4.1 110 22:56 15.12.2019
6101 Snow -1 997 92 9000 4.1 110 22:37 15.12.2019
6102 Snow -1 997 92 9000 4.1 110 22:37 15.12.2019
6103 Snow -1 997 92 6000 4.6 110 22:18 15.12.2019
6104 Snow -1 997 92 10000 4.1 100 21:56 15.12.2019
6105 -273 0 0 0 0 0 21:37 15.12.2019
6106 Snow -1 997 100 3200 4.6 110 21:19 15.12.2019
6107 Snow -1 997 100 5000 4.6 110 20:56 15.12.2019
6108 Snow -1 997 100 5000 4.6 110 20:37 15.12.2019
6109 Snow -1 997 100 8000 4.6 110 20:19 15.12.2019
6110 Snow -1 997 100 8000 4.6 110 19:57 15.12.2019
6111 Snow -1 997 100 8000 4.6 110 19:57 15.12.2019
6112 Snow -1 997 100 9000 5.1 110 19:38 15.12.2019
6113 Snow -1 997 100 10000 4.6 110 19:18 15.12.2019
6114 Snow -1 997 100 4800 5.1 110 18:56 15.12.2019
6115 Snow -1 997 100 4800 5.1 110 18:56 15.12.2019
6116 Snow -1 997 100 4800 5.1 110 18:38 15.12.2019
6117 Snow -1 998 100 4800 4.6 120 18:18 15.12.2019
6118 Snow -1 998 100 6000 4.6 120 17:56 15.12.2019
6119 Snow -1 998 100 6000 4.6 120 17:36 15.12.2019
6120 Snow -1 998 100 6000 4.6 120 17:18 15.12.2019
6121 Snow -1 998 100 6000 4.6 120 17:18 15.12.2019
6122 Snow -1 998 100 3700 5.1 120 16:43 15.12.2019
6123 Snow -1 998 100 8000 5.1 120 16:23 15.12.2019
6124 Clouds -1 998 100 10000 5.1 110 15:58 15.12.2019
6125 Clouds -1 998 100 10000 5.1 110 15:39 15.12.2019
6126 Snow -1 998 100 4300 5.1 110 15:20 15.12.2019
6127 Snow -1 998 100 4300 5.1 110 14:57 15.12.2019
6128 Snow -1 998 100 5000 5.1 110 14:38 15.12.2019
6129 Snow -1 998 100 6000 4.6 110 14:19 15.12.2019
6130 Snow -1 998 100 6000 4.6 110 14:19 15.12.2019
6131 Snow -1 998 100 6000 4.6 110 13:59 15.12.2019
6132 Clouds -1 998 100 1200 4.6 110 13:39 15.12.2019
6133 Snow -1 998 100 4000 4.1 110 13:20 15.12.2019
6134 Clouds -1 998 100 10000 4.6 110 12:57 15.12.2019
6135 Snow -1 998 100 4000 4.1 110 12:57 15.12.2019
6136 Clouds -1 998 100 10000 4.6 110 12:39 15.12.2019
6137 Clouds -1 999 100 10000 3.6 110 12:21 15.12.2019
6138 Clouds -1 999 100 10000 4.6 110 11:59 15.12.2019
6139 Clouds -1 999 100 10000 4.6 110 11:38 15.12.2019
6140 Clouds -1 999 100 10000 4.6 110 11:38 15.12.2019
6141 Clouds -1 999 100 10000 4.6 110 11:38 15.12.2019
6142 Snow -1 999 100 9000 4.1 110 11:19 15.12.2019
6143 Snow -1 999 100 10000 4.6 110 10:56 15.12.2019
6144 Snow -1 999 100 10000 4.6 110 10:37 15.12.2019
6145 Snow -1 999 100 10000 4.6 110 10:19 15.12.2019
6146 Snow -1 999 100 10000 4.6 110 09:57 15.12.2019
6147 Snow -1 999 100 10000 4.6 110 09:37 15.12.2019
6148 Snow -1 999 100 8000 4.6 110 09:19 15.12.2019
6149 Snow -1 999 92 9000 4.6 110 08:42 15.12.2019
6150 Snow -1 999 92 6000 4.6 110 08:23 15.12.2019
6151 Snow -1 999 92 10000 4.6 110 07:57 15.12.2019
6152 Snow -1 999 92 10000 4.6 110 07:38 15.12.2019
6153 Snow -1 999 92 10000 4.6 110 06:59 15.12.2019
6154 Snow -1 1000 92 9000 4.6 100 06:24 15.12.2019
6155 Snow -1 1000 92 10000 4.6 110 05:42 15.12.2019
6156 Snow -1 1000 92 5000 4.6 100 05:20 15.12.2019
6157 Snow -1 1000 92 10000 4.1 110 04:18 15.12.2019
6158 Clouds -1 1000 92 10000 4.1 110 02:35 15.12.2019
6159 Clouds -1 1001 92 10000 4.1 120 01:57 15.12.2019
6160 Clouds -1 1001 92 10000 4.1 120 01:39 15.12.2019
6161 Clouds -1 1001 92 10000 4.1 120 01:18 15.12.2019
6162 Clouds -1 1001 100 10000 4.1 110 00:44 15.12.2019
6163 Clouds -1 1001 100 10000 4.1 120 00:25 15.12.2019
6164 Clouds -1 1001 100 10000 4.1 120 23:41 14.12.2019
6165 Clouds -1 1001 100 10000 3.6 120 23:22 14.12.2019
6166 Snow -1 1001 100 10000 3.6 110 22:59 14.12.2019
6167 Snow -1 1001 100 10000 3.6 110 22:41 14.12.2019
6168 Snow 0 1001 96 7000 3.1 120 22:21 14.12.2019
6169 Snow 0 1001 96 7000 3.1 120 21:56 14.12.2019
6170 Clouds -1 1001 100 6000 3.6 120 21:38 14.12.2019
6171 Snow -1 1002 100 8000 3.6 120 21:19 14.12.2019
6172 Snow -1 1001 100 10000 3.6 120 20:57 14.12.2019
6173 Snow -1 1001 100 10000 3.6 120 20:39 14.12.2019
6174 Clouds -1 1001 100 10000 3.6 110 20:19 14.12.2019
6175 Clouds -1 1001 100 10000 3.6 110 19:56 14.12.2019
6176 Clouds -1 1001 100 10000 3.6 110 19:37 14.12.2019
6177 Clouds -1 1002 100 10000 3.6 120 19:18 14.12.2019
6178 Clouds 0 1001 95 10000 3.6 120 18:56 14.12.2019
6179 Clouds 0 1001 95 10000 3.6 120 18:36 14.12.2019
6180 Clouds 0 1001 95 10000 3.6 110 18:18 14.12.2019
6181 Clouds 0 1002 95 10000 3.6 120 17:43 14.12.2019
6182 -273 0 0 0 0 0 17:23 14.12.2019
6183 Clouds 0 1002 95 9000 3.1 110 16:56 14.12.2019
6184 Clouds 0 1002 95 9000 3.1 110 16:38 14.12.2019
6185 Clouds 0 1002 95 9000 3.1 120 16:18 14.12.2019
6186 Clouds 0 1002 95 10000 3.1 110 15:42 14.12.2019
6187 Mist 0 1002 95 4400 3.1 110 15:21 14.12.2019
6188 Clouds 0 1002 95 8000 2.1 110 14:58 14.12.2019
6189 Clouds 0 1002 95 8000 2.1 110 14:38 14.12.2019
6190 Clouds 0 1002 97 10000 2.1 130 14:19 14.12.2019
6191 Clouds 0 1002 97 7000 3.6 130 13:45 14.12.2019
6192 Mist 0 1002 97 4400 3.6 140 13:20 14.12.2019
6193 Mist 0 1002 96 4400 3.6 140 12:58 14.12.2019
6194 Mist 0 1002 96 3400 3.6 140 12:40 14.12.2019
6195 Mist 0 1002 97 3600 3.1 130 12:21 14.12.2019
6196 Mist 0 1002 96 3600 3.1 130 11:58 14.12.2019
6197 Mist 0 1002 97 4400 3.6 130 11:39 14.12.2019
6198 Clouds 0 1002 96 10000 3.6 150 11:19 14.12.2019
6199 Clouds 0 1002 97 10000 3.6 150 10:57 14.12.2019
6200 Clouds 0 1002 97 10000 3.6 150 10:39 14.12.2019
6201 Clouds 0 1002 96 10000 3.6 150 10:20 14.12.2019
6202 Clouds 0 1002 97 10000 3.1 150 09:55 14.12.2019
6203 Clouds 0 1002 97 10000 3.1 150 09:37 14.12.2019
6204 Clouds 0 1002 97 10000 4.1 160 09:18 14.12.2019
6205 Clouds 0 1002 96 10000 3.6 160 08:42 14.12.2019
6206 Clouds 0 1001 97 10000 4.6 170 08:19 14.12.2019
6207 Clouds 0 1001 97 10000 5.7 180 07:43 14.12.2019
6208 Clouds 0 1001 97 10000 5.1 170 07:23 14.12.2019
6209 Clouds 0 1001 97 10000 5.1 170 06:55 14.12.2019
6210 Clouds 0 1001 97 10000 5.1 170 06:36 14.12.2019
6211 Clouds 0 1001 97 10000 4.6 180 05:56 14.12.2019
6212 Clouds 0 1001 95 10000 4.6 170 04:42 14.12.2019
6213 Clouds 0 1000 95 10000 3.6 170 02:31 14.12.2019
6214 Clouds 0 1000 97 10000 3.6 160 01:46 14.12.2019
6215 Clouds 0 1000 97 10000 3.6 160 01:28 14.12.2019
6216 Snow 0 1000 97 10000 4.6 170 00:44 14.12.2019
6217 Clouds 0 1000 97 10000 3.6 180 00:26 14.12.2019
6218 Clouds 0 1000 97 10000 4.1 180 23:43 13.12.2019
6219 Clouds 0 1000 97 10000 5.1 180 23:22 13.12.2019
6220 Clouds 0 1000 97 10000 5.1 180 22:59 13.12.2019
6221 Snow 0 1000 97 10000 5.1 190 22:40 13.12.2019
6222 Clouds 0 999 97 10000 5.7 200 22:19 13.12.2019
6223 Clouds 0 999 97 10000 5.1 190 21:55 13.12.2019
6224 Clouds 0 999 97 10000 5.1 190 21:36 13.12.2019
6225 Snow 0 999 97 10000 5.7 200 21:18 13.12.2019
6226 Clouds 0 999 97 10000 4.6 190 20:40 13.12.2019
6227 Snow 0 998 96 10000 6.2 190 20:21 13.12.2019
6228 Snow 0 998 96 10000 6.2 190 19:57 13.12.2019
6229 Clouds 0 998 96 10000 6.2 190 19:39 13.12.2019
6230 Clouds 0 998 96 10000 6.2 190 19:20 13.12.2019
6231 Snow 0 998 96 7000 5.1 180 18:57 13.12.2019
6232 Snow 0 997 96 10000 6.7 190 18:39 13.12.2019
6233 Snow 0 997 96 10000 6.7 190 18:18 13.12.2019
6234 Snow 0 997 96 10000 6.7 200 17:41 13.12.2019
6235 Clouds 0 997 95 10000 6.7 200 17:19 13.12.2019
6236 Clouds 0 997 95 10000 6.2 200 16:58 13.12.2019
6237 Snow 0 997 95 10000 6.2 200 16:39 13.12.2019
6238 Snow 0 997 95 10000 6.2 200 16:39 13.12.2019
6239 Snow 0 997 95 10000 6.2 200 16:20 13.12.2019
6240 Snow 0 996 95 10000 6.2 190 15:43 13.12.2019
6241 Snow 0 996 95 10000 6.2 190 15:22 13.12.2019
6242 Snow 0 996 95 10000 4.6 190 14:58 13.12.2019
6243 Snow 0 996 95 5000 4.6 180 14:39 13.12.2019
6244 Snow 0 996 96 5000 4.6 180 14:20 13.12.2019
6245 Snow 0 995 96 5000 4.6 190 13:45 13.12.2019
6246 Snow -1 995 100 7000 4.6 180 13:27 13.12.2019
6247 Snow -1 995 100 2000 5.1 180 12:59 13.12.2019
6248 Snow -1 995 100 2000 5.1 180 12:41 13.12.2019
6249 Snow -1 995 100 3000 5.1 180 12:19 13.12.2019
6250 Snow -1 995 100 4500 4.6 180 11:45 13.12.2019
6251 Snow -1 995 100 2500 4.6 180 11:27 13.12.2019
6252 Snow -1 995 100 7000 5.1 180 10:58 13.12.2019
6253 Snow -1 995 100 6000 5.1 180 10:40 13.12.2019
6254 Snow -1 995 100 6000 5.1 180 10:21 13.12.2019
6255 Snow -1 994 92 3000 4.1 180 09:43 13.12.2019
6256 Snow -1 994 92 3000 4.1 180 09:22 13.12.2019
6257 Snow -1 994 92 2500 4.6 180 08:55 13.12.2019
6258 Snow -1 994 100 2500 5.7 180 08:37 13.12.2019
6259 Snow -1 994 100 2500 5.7 180 08:19 13.12.2019
6260 Snow -1 994 100 2500 4.6 170 07:43 13.12.2019
6261 Snow -1 994 100 2500 4.6 170 07:19 13.12.2019
6262 Snow -1 994 100 2500 4.6 170 06:46 13.12.2019
6263 Snow -1 994 100 7000 4.6 180 06:27 13.12.2019
6264 Snow -1 994 100 6000 4.6 170 05:41 13.12.2019
6265 Snow -1 994 100 5000 4.6 170 05:20 13.12.2019
6266 Snow -1 994 100 5000 5.1 170 04:29 13.12.2019
6267 Snow -1 994 100 5000 4.6 170 02:57 13.12.2019
6268 Clouds 0 994 95 8000 4.1 170 02:30 13.12.2019
6269 Clouds 0 994 95 5000 4.6 170 01:38 13.12.2019
6270 Clouds 0 995 95 4000 4.6 180 00:51 13.12.2019
6271 Snow 0 995 95 5000 4.6 170 00:28 13.12.2019
6272 Snow 0 995 95 6000 4.6 170 23:44 12.12.2019
6273 Clouds 0 995 95 7000 4.1 180 23:26 12.12.2019
6274 Clouds 0 995 97 10000 6.2 180 22:57 12.12.2019
6275 Clouds 0 995 97 10000 5.7 180 22:39 12.12.2019
6276 Clouds 0 995 97 10000 5.7 180 22:39 12.12.2019
6277 Clouds 0 995 97 10000 5.7 180 22:21 12.12.2019
6278 Clouds 0 995 97 10000 5.7 180 22:21 12.12.2019
6279 Rain 0 995 97 8000 5.1 180 21:56 12.12.2019
6280 Drizzle 0 995 97 5000 5.1 190 21:37 12.12.2019
6281 Drizzle 0 995 97 5000 5.1 190 21:19 12.12.2019
6282 Rain 0 995 97 4600 5.1 180 20:59 12.12.2019
6283 Rain 1 996 97 7000 5.1 180 20:40 12.12.2019
6284 Rain 1 996 94 7000 5.1 180 20:21 12.12.2019
6285 Rain 1 996 94 4700 5.1 180 19:56 12.12.2019
6286 Rain 1 996 94 5000 5.7 180 19:37 12.12.2019
6287 Rain 1 996 94 5000 5.7 180 19:18 12.12.2019
6288 Rain 1 996 94 5000 6.2 190 18:56 12.12.2019
6289 Rain 1 996 100 5000 6.2 190 18:37 12.12.2019
6290 Rain 1 996 100 5000 6.2 190 18:37 12.12.2019
6291 Rain 1 996 100 5000 6.2 190 18:19 12.12.2019
6292 Rain 1 996 100 6000 5.7 190 17:56 12.12.2019
6293 Rain 1 996 100 6000 5.7 180 17:38 12.12.2019
6294 Rain 1 996 100 6000 5.7 180 17:38 12.12.2019
6295 Rain 1 996 100 6000 5.7 180 17:19 12.12.2019
6296 Rain 1 996 100 6000 6.7 190 16:54 12.12.2019
6297 Rain 1 996 94 8000 6.2 190 16:36 12.12.2019
6298 Rain 1 996 94 8000 6.2 190 16:18 12.12.2019
6299 Rain 1 996 94 9000 6.7 190 15:42 12.12.2019
6300 Rain 1 996 94 6000 7.7 190 15:20 12.12.2019
6301 Rain 1 996 94 6000 7.7 190 15:20 12.12.2019
6302 Rain 1 996 94 10000 5.7 190 14:57 12.12.2019
6303 Rain 1 996 94 10000 5.7 190 14:57 12.12.2019
6304 Rain 1 996 94 5000 5.7 190 14:37 12.12.2019
6305 Rain 1 996 93 5000 5.7 190 14:19 12.12.2019
6306 Clouds 1 996 93 5000 5.7 190 13:55 12.12.2019
6307 Snow 1 996 93 6000 6.7 190 13:36 12.12.2019
6308 Snow 1 996 93 6000 6.7 190 13:18 12.12.2019
6309 Snow 1 996 93 6000 6.2 180 12:42 12.12.2019
6310 Snow 1 996 93 7000 6.7 190 12:23 12.12.2019
6311 Snow 1 996 93 6000 6.7 190 11:59 12.12.2019
6312 Snow 1 996 93 6000 6.7 190 11:40 12.12.2019
6313 Clouds 1 996 92 10000 6.7 190 11:22 12.12.2019
6314 Clouds 1 996 92 10000 6.7 200 10:59 12.12.2019
6315 Clouds 1 996 92 10000 6.7 200 10:40 12.12.2019
6316 Clouds 1 996 92 10000 6.7 200 10:22 12.12.2019
6317 Clouds 1 996 92 10000 7.7 200 09:56 12.12.2019
6318 Clouds 1 996 92 10000 7.7 200 09:38 12.12.2019
6319 Clouds 1 996 92 10000 7.7 200 09:20 12.12.2019
6320 Drizzle 1 996 92 9000 6.7 190 08:47 12.12.2019
6321 Drizzle 1 996 92 3000 6.7 200 08:29 12.12.2019
6322 Drizzle 1 996 100 3000 6.7 190 07:55 12.12.2019
6323 Drizzle 1 996 100 3000 7.7 200 07:36 12.12.2019
6324 Drizzle 1 996 100 3000 7.7 200 07:18 12.12.2019
6325 Drizzle 1 996 93 4000 6.7 200 06:41 12.12.2019
6326 Rain 1 996 93 7000 6.7 190 06:21 12.12.2019
6327 Rain 1 996 100 10000 8.7 210 05:28 12.12.2019
6328 Drizzle 1 996 100 10000 8.7 200 04:46 12.12.2019
6329 Clouds 1 996 100 10000 7.7 200 02:42 12.12.2019
6330 Rain 1 996 100 3300 7.2 200 02:24 12.12.2019
6331 Rain 0 996 94 1000 5.7 190 01:58 12.12.2019
6332 Clouds 0 996 94 10000 7.2 200 01:35 12.12.2019
6333 Clouds 0 995 94 10000 6.7 200 00:49 12.12.2019
6334 Clouds 0 995 94 10000 7.7 220 00:22 12.12.2019
6335 Clouds 0 994 94 10000 7.7 210 23:58 11.12.2019
6336 Clouds 0 994 94 10000 8.2 210 23:36 11.12.2019
6337 Clouds 0 994 90 10000 8.2 210 23:18 11.12.2019
6338 Clouds 0 994 90 10000 7.2 230 22:55 11.12.2019
6339 Clouds 0 993 90 10000 8.7 220 22:37 11.12.2019
6340 Clouds 0 993 90 10000 8.7 220 22:18 11.12.2019
6341 Clouds 0 992 90 10000 8.7 220 21:39 11.12.2019
6342 Clouds 0 992 90 10000 8.7 220 21:39 11.12.2019
6343 Clouds 0 992 90 10000 8.7 220 21:20 11.12.2019
6344 Clouds 0 992 90 10000 8.7 220 21:20 11.12.2019
6345 Clouds 0 991 90 10000 8.2 220 20:58 11.12.2019
6346 Snow 0 990 90 10000 8.7 220 20:40 11.12.2019
6347 Snow 0 990 97 10000 8.7 220 20:20 11.12.2019
6348 Clouds 0 990 97 8000 8.7 210 19:59 11.12.2019
6349 Snow -1 989 100 4100 9.3 200 19:40 11.12.2019
6350 Snow -1 989 100 4100 9.3 200 19:21 11.12.2019
6351 Snow -1 989 92 2800 7.2 190 18:58 11.12.2019
6352 Snow -2 989 100 2800 7.2 180 18:39 11.12.2019
6353 Snow -2 989 100 2800 7.2 180 18:18 11.12.2019
6354 Snow -2 989 92 4200 6.7 170 17:55 11.12.2019
6355 Snow -2 989 92 2600 7.2 170 17:37 11.12.2019
6356 Snow -2 989 92 2600 7.2 170 17:18 11.12.2019
6357 Snow -3 989 100 2600 7.7 170 16:55 11.12.2019
6358 Snow -3 990 92 4000 7.7 170 16:36 11.12.2019
6359 Snow -3 990 92 4000 7.7 170 16:18 11.12.2019
6360 Snow -3 990 92 3900 7.2 170 15:54 11.12.2019
6361 Snow -3 991 92 3600 7.2 160 15:36 11.12.2019
6362 Snow -3 991 92 3600 7.2 160 15:18 11.12.2019
6363 Snow -4 991 92 3000 8.2 160 14:54 11.12.2019
6364 Snow -4 992 92 2000 7.2 160 14:36 11.12.2019
6365 Snow -4 992 92 2000 7.2 160 14:36 11.12.2019
6366 Snow -4 992 92 2000 7.2 160 14:18 11.12.2019
6367 Snow -4 992 92 1600 8.2 160 13:41 11.12.2019
6368 Snow -4 993 92 1300 8.7 160 13:21 11.12.2019
6369 Snow -5 994 92 1500 8.2 150 12:57 11.12.2019
6370 Snow -5 994 92 1500 7.7 150 12:38 11.12.2019
6371 Snow -5 994 92 1500 7.7 150 12:38 11.12.2019
6372 Snow -5 994 92 1500 7.7 150 12:20 11.12.2019
6373 Snow -5 995 92 1600 7.7 150 11:57 11.12.2019
6374 Snow -5 996 85 800 6.7 150 11:38 11.12.2019
6375 Snow -5 996 85 800 6.7 150 11:18 11.12.2019
6376 Snow -6 997 92 1300 6.7 140 10:56 11.12.2019
6377 Snow -7 998 92 1300 7.2 140 10:38 11.12.2019
6378 Snow -7 998 92 1300 7.2 140 10:19 11.12.2019
6379 Snow -7 999 92 1500 5.7 140 09:41 11.12.2019
6380 Snow -7 999 92 1500 5.7 140 09:21 11.12.2019
6381 Snow -8 1000 92 2000 6.2 130 08:58 11.12.2019
6382 Snow -8 1000 85 10000 6.2 130 08:38 11.12.2019
6383 Snow -8 1000 85 10000 6.2 130 08:19 11.12.2019
6384 Snow -9 1001 92 2500 5.7 130 07:56 11.12.2019
6385 Snow -11 1002 92 2500 5.7 120 07:38 11.12.2019
6386 Snow -11 1002 92 2500 5.7 120 07:18 11.12.2019
6387 Snow -11 1002 92 2500 5.7 120 07:18 11.12.2019
6388 Snow -11 1002 85 4000 6.2 120 06:43 11.12.2019
6389 Clouds -12 1003 92 10000 5.7 120 06:22 11.12.2019
6390 Snow -13 1003 84 4400 4.1 120 05:41 11.12.2019
6391 Snow -14 1004 92 800 5.7 120 05:20 11.12.2019
6392 Snow -15 1005 92 1400 4.6 130 04:28 11.12.2019
6393 Fog -16 1006 84 1200 4.6 120 02:49 11.12.2019
6394 Snow -15 1006 84 10000 3.1 120 01:25 11.12.2019
6395 Snow -15 1006 84 2400 2.6 90 00:47 11.12.2019
6396 Clouds -14 1007 84 10000 1 0 00:21 11.12.2019
6397 Snow -15 1007 84 7000 1 0 23:49 10.12.2019
6398 Snow -16 1007 84 8000 1 0 23:30 10.12.2019
6399 Clear -15 1007 84 10000 1.5 170 22:58 10.12.2019
6400 Clear -15 1006 84 10000 1.5 190 22:40 10.12.2019
6401 Clear -15 1006 84 10000 1.5 190 22:40 10.12.2019
6402 Clear -15 1006 84 10000 1.5 190 22:22 10.12.2019
6403 Clear -13 1007 84 10000 2.1 210 21:56 10.12.2019
6404 Clear -13 1007 84 10000 2.1 210 21:56 10.12.2019
6405 Clear -15 1007 84 10000 2.1 210 21:38 10.12.2019
6406 Clear -15 1007 84 10000 2.1 210 21:38 10.12.2019
6407 Clear -15 1007 84 10000 2.1 210 21:38 10.12.2019
6408 Clear -15 1007 84 10000 2.1 210 21:19 10.12.2019
6409 Clear -15 1007 92 10000 1.5 240 20:57 10.12.2019
6410 Clear -14 1006 92 10000 1.5 230 20:37 10.12.2019
6411 Clear -14 1006 92 10000 1.5 230 20:19 10.12.2019
6412 Clear -14 1006 84 10000 2.1 220 19:55 10.12.2019
6413 Clear -14 1006 84 10000 2.6 230 19:37 10.12.2019
6414 Clear -14 1006 84 10000 2.6 230 19:18 10.12.2019
6415 Clear -15 1006 84 10000 2.6 240 18:40 10.12.2019
6416 Clear -15 1006 92 10000 1.5 230 18:20 10.12.2019
6417 Clear -14 1006 84 10000 3.1 250 17:58 10.12.2019
6418 Clear -14 1006 84 10000 3.1 250 17:39 10.12.2019
6419 Clear -15 1006 92 10000 2.1 240 17:20 10.12.2019
6420 Clear -14 1005 92 10000 2.6 250 16:43 10.12.2019
6421 Clear -12 1005 85 10000 2.1 250 16:21 10.12.2019
6422 Clear -12 1005 85 10000 2.1 250 16:21 10.12.2019
6423 Clear -13 1005 92 10000 2.6 270 15:59 10.12.2019
6424 Clear -14 1004 92 10000 2.6 260 15:38 10.12.2019
6425 Clear -14 1004 92 10000 2.6 260 15:18 10.12.2019
6426 Clear -12 1004 85 10000 2.6 270 14:55 10.12.2019
6427 Clear -11 1004 78 10000 2.6 280 14:37 10.12.2019
6428 Clear -11 1004 78 10000 2.6 280 14:19 10.12.2019
6429 Clear -11 1004 78 10000 2.6 280 14:19 10.12.2019
6430 Clear -11 1003 78 10000 3.1 290 13:56 10.12.2019
6431 Clear -11 1003 78 10000 3.1 290 13:56 10.12.2019
6432 Clear -12 1003 85 10000 3.1 310 13:38 10.12.2019
6433 Clear -12 1003 85 10000 3.1 310 13:18 10.12.2019
6434 Clear -12 1003 85 10000 3.1 310 12:41 10.12.2019
6435 Clear -11 1002 85 10000 2.1 290 12:22 10.12.2019
6436 Clear -11 1002 85 10000 2.6 330 11:44 10.12.2019
6437 Clear -12 1002 85 10000 2.6 300 11:25 10.12.2019
6438 Clear -12 1001 85 10000 1.5 280 10:57 10.12.2019
6439 Clear -12 1001 85 10000 2.6 260 10:39 10.12.2019
6440 Clear -12 1001 85 10000 2.6 260 10:39 10.12.2019
6441 Clear -12 1001 85 10000 2.6 260 10:21 10.12.2019
6442 Clear -12 1000 85 10000 3.1 320 09:56 10.12.2019
6443 Clear -12 1000 85 10000 3.1 320 09:56 10.12.2019
6444 Clear -12 999 85 10000 3.1 310 09:38 10.12.2019
6445 Clear -12 999 85 10000 3.1 310 09:38 10.12.2019
6446 Clear -12 999 85 10000 3.1 310 09:38 10.12.2019
6447 Clear -12 999 85 10000 3.1 310 09:20 10.12.2019
6448 Clear -12 999 85 10000 2.6 280 08:55 10.12.2019
6449 Clear -12 998 85 10000 3.1 320 08:37 10.12.2019
6450 Clouds -12 998 85 10000 3.1 320 08:18 10.12.2019
6451 Clouds -12 998 85 10000 2.6 320 07:44 10.12.2019
6452 Clouds -12 998 85 10000 2.6 320 07:44 10.12.2019
6453 Clouds -12 998 85 10000 2.6 320 07:44 10.12.2019
6454 Clouds -11 997 85 10000 4.1 330 07:25 10.12.2019
6455 Clouds -11 996 85 10000 4.6 330 06:47 10.12.2019
6456 Clouds -11 996 85 10000 4.6 320 06:21 10.12.2019
6457 Clouds -11 995 85 10000 4.6 320 05:55 10.12.2019
6458 Clouds -11 994 85 10000 5.1 320 04:55 10.12.2019
6459 Clouds -11 992 85 10000 5.1 320 03:38 10.12.2019
6460 Clouds -10 991 78 10000 5.7 320 02:46 10.12.2019
6461 Clouds -9 990 78 10000 4.1 320 01:45 10.12.2019
6462 Clouds -9 989 85 10000 4.6 320 01:21 10.12.2019
6463 Clouds -8 988 78 10000 4.6 320 00:42 10.12.2019
6464 Clouds -8 988 78 10000 5.1 330 00:21 10.12.2019
6465 Clouds -7 986 79 10000 4.6 320 23:42 09.12.2019
6466 Clouds -7 986 79 10000 4.6 320 23:42 09.12.2019
6467 Clouds -7 986 79 10000 4.6 320 23:42 09.12.2019
6468 Clouds -7 986 79 10000 4.6 320 23:23 09.12.2019
6469 Clouds -7 986 79 10000 4.6 320 23:23 09.12.2019
6470 Snow -7 986 85 10000 5.1 330 22:58 09.12.2019
6471 Snow -7 986 85 10000 5.1 330 22:40 09.12.2019
6472 Snow -7 985 92 10000 4.6 330 22:20 09.12.2019
6473 Snow -6 984 85 10000 4.1 330 21:57 09.12.2019
6474 Snow -6 983 85 10000 5.1 330 21:38 09.12.2019
6475 Snow -6 983 85 10000 5.1 330 21:19 09.12.2019
6476 Snow -6 983 85 10000 5.1 330 20:57 09.12.2019
6477 Snow -6 983 85 10000 5.1 330 20:57 09.12.2019
6478 Snow -6 982 92 10000 4.6 340 20:39 09.12.2019
6479 Snow -6 982 92 10000 4.6 340 20:20 09.12.2019
6480 Snow -6 981 92 10000 4.1 350 19:56 09.12.2019
6481 Snow -6 980 92 10000 4.1 350 19:37 09.12.2019
6482 Snow -6 980 92 10000 4.1 350 19:19 09.12.2019
6483 Snow -6 980 92 10000 4.1 350 19:19 09.12.2019
6484 Snow -6 980 92 10000 4.6 350 18:56 09.12.2019
6485 Snow -6 979 85 5000 4.1 340 18:38 09.12.2019
6486 Snow -6 979 85 5000 4.1 340 18:19 09.12.2019
6487 Snow -7 979 92 7000 4.1 340 17:57 09.12.2019
6488 Snow -7 978 92 10000 4.6 340 17:38 09.12.2019
6489 Snow -7 978 92 10000 4.6 340 17:20 09.12.2019
6490 Snow -7 978 92 10000 4.1 350 16:56 09.12.2019
6491 Snow -7 977 92 7000 4.6 350 16:37 09.12.2019
6492 Snow -7 977 92 7000 4.6 350 16:19 09.12.2019
6493 Snow -7 976 92 7000 4.6 350 15:55 09.12.2019
6494 Snow -7 976 92 7000 4.6 350 15:55 09.12.2019
6495 Snow -7 976 92 8000 4.6 350 15:37 09.12.2019
6496 Snow -7 976 92 8000 4.6 350 15:37 09.12.2019
6497 Snow -7 976 92 8000 4.6 350 15:19 09.12.2019
6498 Snow -6 975 92 2500 4.1 350 14:42 09.12.2019
6499 Snow -6 975 92 2500 4.1 350 14:19 09.12.2019
6500 Snow -6 975 92 5000 3.6 360 13:58 09.12.2019
6501 Snow -6 974 85 7000 4.6 10 13:38 09.12.2019
6502 Snow -6 974 85 7000 4.6 10 13:19 09.12.2019
6503 Clouds -6 974 85 10000 5.1 10 12:57 09.12.2019
6504 Clouds -6 973 85 10000 6.2 10 12:38 09.12.2019
6505 Clouds -6 973 85 10000 6.2 10 12:20 09.12.2019
6506 Clouds -7 973 92 10000 6.7 20 11:58 09.12.2019
6507 Clouds -7 973 92 10000 7.2 20 11:39 09.12.2019
6508 Clouds -7 973 92 10000 7.2 20 11:21 09.12.2019
6509 Clouds -7 973 92 10000 6.7 40 10:54 09.12.2019
6510 Clouds -6 973 85 10000 7.7 40 10:36 09.12.2019
6511 Clouds -6 973 85 10000 7.7 40 10:18 09.12.2019
6512 Clouds -6 973 85 10000 7.7 30 09:41 09.12.2019
6513 Clouds -6 973 85 10000 7.2 40 09:21 09.12.2019
6514 Clouds -6 972 85 10000 7.2 40 08:54 09.12.2019
6515 Clouds -6 972 92 10000 7.2 40 08:36 09.12.2019
6516 Clouds -6 972 92 10000 7.2 40 08:18 09.12.2019
6517 Clouds -6 972 92 10000 7.2 40 08:18 09.12.2019
6518 Clouds -6 972 92 10000 7.2 40 07:42 09.12.2019
6519 Clouds -6 973 92 10000 6.7 50 07:23 09.12.2019
6520 Clouds -7 973 100 10000 6.7 50 06:47 09.12.2019
6521 Clouds -7 973 92 10000 5.7 50 06:25 09.12.2019
6522 Clouds -7 973 92 10000 5.1 70 05:29 09.12.2019
6523 Clouds -7 974 92 10000 5.7 60 04:46 09.12.2019
6524 Clouds -8 975 92 10000 5.1 60 03:21 09.12.2019
6525 Clouds -8 975 92 10000 3.6 70 02:24 09.12.2019
6526 Clouds -8 976 92 10000 2.6 90 01:42 09.12.2019
6527 Clouds -8 976 92 10000 3.6 90 00:46 09.12.2019
6528 Clouds -8 976 92 10000 3.1 100 00:27 09.12.2019
6529 Clouds -8 977 92 10000 2.6 100 23:43 08.12.2019
6530 Clouds -8 977 92 10000 2.1 120 23:24 08.12.2019
6531 Mist -8 977 100 4200 2.1 100 22:57 08.12.2019
6532 Clouds -7 977 92 10000 1.5 140 22:39 08.12.2019
6533 Clouds -7 977 92 10000 1.5 140 22:19 08.12.2019
6534 Clouds -7 977 92 9000 1.5 210 21:58 08.12.2019
6535 Clouds -7 977 92 9000 1.5 210 21:40 08.12.2019
6536 Clouds -7 977 92 3600 2.1 0 21:20 08.12.2019
6537 Clouds -7 977 92 3600 2.1 0 21:20 08.12.2019
6538 Fog -7 977 92 2700 3.1 210 20:57 08.12.2019
6539 Fog -7 977 92 2300 3.1 210 20:38 08.12.2019
6540 Fog -7 977 92 2300 3.1 210 20:20 08.12.2019
6541 Fog -7 977 92 2300 3.1 210 20:20 08.12.2019
6542 Clouds -7 977 92 10000 2.6 210 19:58 08.12.2019
6543 Clouds -7 977 92 10000 2.6 210 19:40 08.12.2019
6544 Clouds -7 977 92 10000 1.5 220 19:22 08.12.2019
6545 Snow -7 977 92 10000 2.6 220 18:55 08.12.2019
6546 Snow -7 977 92 10000 2.6 220 18:55 08.12.2019
6547 Snow -7 977 92 10000 3.1 220 18:37 08.12.2019
6548 Snow -7 977 92 10000 3.1 220 18:19 08.12.2019
6549 Snow -7 977 100 10000 2.1 240 17:56 08.12.2019
6550 Snow -7 977 100 4200 2.6 220 17:38 08.12.2019
6551 Snow -7 977 100 4200 2.6 220 17:19 08.12.2019
6552 Clouds -6 977 92 6000 2.1 230 16:56 08.12.2019
6553 Snow -6 977 92 6000 2.1 240 16:38 08.12.2019
6554 Snow -6 977 92 6000 2.1 240 16:20 08.12.2019
6555 Clouds -6 977 92 2600 2.1 250 15:54 08.12.2019
6556 Snow -6 976 100 4200 2.1 270 15:36 08.12.2019
6557 Snow -6 976 100 4200 2.1 270 15:18 08.12.2019
6558 Snow -6 976 100 4700 3.1 270 14:40 08.12.2019
6559 Snow -6 976 100 4700 3.1 270 14:40 08.12.2019
6560 Clouds -6 976 100 6000 3.1 260 14:22 08.12.2019
6561 Snow -5 976 92 5000 1 0 13:57 08.12.2019
6562 Clouds -5 976 92 6000 1 0 13:38 08.12.2019
6563 Clouds -5 976 92 6000 1 0 13:20 08.12.2019
6564 Clouds -5 976 92 5000 1.5 320 12:54 08.12.2019
6565 Clouds -5 976 92 4400 1.5 310 12:36 08.12.2019
6566 Clouds -5 976 92 4400 1.5 310 12:18 08.12.2019
6567 Clouds -5 976 100 3700 3.6 320 11:39 08.12.2019
6568 Clouds -5 976 100 3700 3.6 320 11:20 08.12.2019
6569 Snow -4 976 92 3200 2.6 330 10:59 08.12.2019
6570 Snow -4 976 100 3700 1.5 290 10:38 08.12.2019
6571 Snow -4 976 100 3700 1.5 290 10:20 08.12.2019
6572 Snow -3 976 100 6000 2.1 300 09:57 08.12.2019
6573 Snow -2 976 92 4300 1 0 09:38 08.12.2019
6574 Snow -2 976 92 4300 1 0 09:19 08.12.2019
6575 Snow -2 976 92 6000 1 0 08:57 08.12.2019
6576 Clouds -2 976 92 10000 1.5 170 08:37 08.12.2019
6577 Clouds -2 976 92 10000 1.5 170 08:37 08.12.2019
6578 Clouds -2 976 92 10000 1.5 170 08:37 08.12.2019
6579 Clouds -2 976 92 10000 1.5 170 08:18 08.12.2019
6580 Snow -2 976 92 4400 1.5 100 07:42 08.12.2019
6581 Snow -2 976 92 4400 1.5 100 07:19 08.12.2019
6582 Snow -2 976 92 3900 0.5 0 06:50 08.12.2019
6583 Clouds -2 976 92 10000 1 0 06:22 08.12.2019
6584 Clouds -2 976 92 10000 1.5 140 05:43 08.12.2019
6585 Snow -2 976 92 10000 1.5 130 04:59 08.12.2019
6586 Snow -2 976 100 10000 1 0 03:49 08.12.2019
6587 Snow -2 976 100 6000 1.5 130 03:21 08.12.2019
6588 Snow -2 977 100 8000 1.5 150 02:38 08.12.2019
6589 Clouds -2 977 100 3400 2.1 160 01:54 08.12.2019
6590 Snow -2 977 100 5000 2.6 160 00:59 08.12.2019
6591 Snow -2 977 100 5000 2.6 160 00:39 08.12.2019
6592 Snow -1 977 92 4200 2.6 180 00:19 08.12.2019
6593 Snow -1 977 92 3600 2.6 180 23:40 07.12.2019
6594 Snow -1 978 92 4100 3.1 180 23:20 07.12.2019
6595 Snow -1 978 92 5000 3.1 180 22:56 07.12.2019
6596 Clouds -1 978 100 4800 3.1 190 22:38 07.12.2019
6597 Clouds -1 978 100 4800 3.1 190 22:20 07.12.2019
6598 Clouds -1 978 100 5000 3.6 200 21:56 07.12.2019
6599 Clouds -1 978 92 6000 4.1 190 21:38 07.12.2019
6600 Clouds -1 978 92 6000 4.1 190 21:38 07.12.2019
6601 Clouds -1 978 92 6000 4.1 190 21:19 07.12.2019
6602 Clouds -1 978 100 7000 4.6 200 20:56 07.12.2019
6603 Clouds -1 978 100 9000 5.1 200 20:36 07.12.2019
6604 Clouds -1 978 100 9000 5.1 200 20:18 07.12.2019
6605 Clouds -1 979 100 6000 4.6 200 19:56 07.12.2019
6606 Clouds -1 979 100 6000 5.1 200 19:37 07.12.2019
6607 Clouds -1 979 100 6000 5.1 200 19:19 07.12.2019
6608 Clouds -1 979 100 5000 5.7 200 18:44 07.12.2019
6609 Clouds -1 979 100 7000 5.7 200 18:19 07.12.2019
6610 Clouds -1 979 100 9000 4.6 200 17:58 07.12.2019
6611 Clouds -1 979 100 10000 4.6 200 17:39 07.12.2019
6612 Clouds -1 979 100 10000 4.6 200 17:21 07.12.2019
6613 Clouds -1 979 92 10000 6.2 190 16:56 07.12.2019
6614 Clouds -1 979 92 10000 6.2 190 16:56 07.12.2019
6615 Clouds -1 979 92 10000 6.2 200 16:37 07.12.2019
6616 Clouds -1 979 92 10000 6.2 200 16:19 07.12.2019
6617 Clouds -1 980 100 10000 4.6 190 15:42 07.12.2019
6618 Clouds -1 980 100 10000 5.1 200 15:23 07.12.2019
6619 Clouds -1 980 100 10000 5.1 200 15:23 07.12.2019
6620 Clouds -1 980 92 10000 5.1 190 14:57 07.12.2019
6621 Clouds -1 980 100 10000 4.6 190 14:39 07.12.2019
6622 Clouds -1 980 100 10000 4.6 190 14:18 07.12.2019
6623 Clouds -1 980 92 10000 5.1 190 13:41 07.12.2019
6624 Clouds -1 980 92 10000 4.6 200 13:21 07.12.2019
6625 Clouds -1 980 92 10000 4.6 200 12:58 07.12.2019
6626 Clouds -1 980 92 10000 4.6 200 12:40 07.12.2019
6627 Clouds -1 980 92 10000 5.7 200 12:22 07.12.2019
6628 Clouds -1 980 92 10000 4.1 190 11:57 07.12.2019
6629 Clouds -1 980 92 10000 5.7 200 11:38 07.12.2019
6630 Clouds -1 980 92 10000 5.7 200 11:20 07.12.2019
6631 Clouds -1 981 92 10000 6.2 200 10:38 07.12.2019
6632 Clouds -1 981 92 10000 6.2 200 10:19 07.12.2019
6633 Snow -1 980 100 4400 5.7 200 09:41 07.12.2019
6634 Snow -1 980 100 4400 5.7 200 09:22 07.12.2019
6635 Clouds -1 980 100 10000 6.2 210 08:56 07.12.2019
6636 Clouds -1 980 100 10000 6.2 210 08:37 07.12.2019
6637 Clouds -1 980 100 10000 6.2 210 08:19 07.12.2019
6638 Clouds -1 980 100 10000 6.2 210 07:44 07.12.2019
6639 Clouds -1 980 92 10000 5.7 200 07:23 07.12.2019
6640 Clouds -1 979 100 10000 6.7 200 06:45 07.12.2019
6641 Snow -1 980 100 10000 5.1 190 06:24 07.12.2019
6642 Snow -1 980 100 10000 4.6 190 05:19 07.12.2019
6643 Clouds -1 980 100 2700 3.6 180 03:54 07.12.2019
6644 Snow -1 980 92 7000 3.6 180 02:56 07.12.2019
6645 Clouds -1 980 92 10000 3.6 190 02:21 07.12.2019
6646 Mist -2 980 100 4300 3.6 180 01:34 07.12.2019
6647 Snow -2 980 100 2300 3.1 180 00:52 07.12.2019
6648 Snow -2 980 100 2200 3.6 160 00:19 07.12.2019
6649 Snow -2 980 92 1500 3.6 170 23:48 06.12.2019
6650 Fog -3 979 100 1100 3.6 160 23:25 06.12.2019
6651 Snow -3 979 92 1900 3.6 160 22:59 06.12.2019
6652 Snow -5 979 100 1200 2.6 140 22:37 06.12.2019
6653 Snow -5 979 100 1200 2.6 140 22:19 06.12.2019
6654 Clouds -5 979 92 1300 2.1 140 21:57 06.12.2019
6655 Fog -5 979 92 900 2.1 170 21:38 06.12.2019
6656 Fog -5 979 92 900 2.1 170 21:19 06.12.2019
6657 Fog -6 979 100 550 1.5 210 20:42 06.12.2019
6658 Fog -7 979 92 700 1.5 200 20:23 06.12.2019
6659 Fog -7 979 92 1500 2.1 160 19:58 06.12.2019
6660 Fog -8 979 92 800 1.5 130 19:39 06.12.2019
6661 Fog -8 979 92 800 1.5 130 19:21 06.12.2019
6662 Clouds -8 979 92 2100 2.1 130 18:55 06.12.2019
6663 Clouds -8 979 92 2100 2.1 130 18:55 06.12.2019
6664 Clouds -9 979 92 4300 2.6 130 18:36 06.12.2019
6665 Clouds -9 979 92 4300 2.6 130 18:18 06.12.2019
6666 Mist -9 978 92 3600 2.6 90 17:55 06.12.2019
6667 Clouds -8 978 92 10000 1.5 110 17:37 06.12.2019
6668 Clouds -8 978 92 10000 1.5 110 17:19 06.12.2019
6669 Fog -7 978 92 650 1.5 120 16:42 06.12.2019
6670 Fog -7 978 92 400 1.5 190 16:23 06.12.2019
6671 Fog -7 978 100 600 1.5 210 15:56 06.12.2019
6672 Mist -6 978 92 2500 2.6 210 15:38 06.12.2019
6673 Mist -6 978 92 2500 2.6 210 15:18 06.12.2019
6674 Clouds -6 977 92 10000 2.6 230 14:41 06.12.2019
6675 Clouds -7 977 100 10000 3.1 220 14:20 06.12.2019
6676 Clear -7 977 92 10000 2.6 200 13:58 06.12.2019
6677 Clear -7 977 92 10000 2.6 200 13:40 06.12.2019
6678 Clear -6 977 92 10000 3.6 180 13:21 06.12.2019
6679 Clouds -6 977 92 10000 2.6 200 12:41 06.12.2019
6680 Clouds -7 977 100 10000 3.1 220 12:22 06.12.2019
6681 Clear -6 977 92 10000 3.1 230 11:43 06.12.2019
6682 Clear -6 976 100 10000 2.6 260 11:24 06.12.2019
6683 Clear -6 976 100 10000 2.6 260 11:24 06.12.2019
6684 Clear -6 976 92 10000 3.1 230 10:59 06.12.2019
6685 Clear -6 976 92 10000 3.1 230 10:40 06.12.2019
6686 Clear -6 976 92 10000 3.1 230 10:21 06.12.2019
6687 Clear -6 976 92 10000 3.1 230 09:56 06.12.2019
6688 Clear -6 976 100 10000 3.1 230 09:37 06.12.2019
6689 Clear -6 976 100 10000 3.1 230 09:19 06.12.2019
6690 Clouds -5 976 92 10000 3.6 230 08:43 06.12.2019
6691 Clear -5 976 92 10000 4.6 220 08:25 06.12.2019
6692 Clouds -5 975 92 10000 4.6 230 07:43 06.12.2019
6693 -273 0 0 0 0 0 07:23 06.12.2019
6694 Clouds -5 975 100 10000 4.1 230 07:23 06.12.2019
6695 -273 0 0 0 0 0 07:23 06.12.2019
6696 Clouds -5 975 100 10000 4.1 220 06:53 06.12.2019
6697 Clouds -4 974 92 10000 3.6 220 06:26 06.12.2019
6698 Clouds -5 974 100 10000 3.6 230 05:51 06.12.2019
6699 Clouds -3 974 100 10000 4.1 220 03:57 06.12.2019
6700 Clouds -1 973 92 10000 3.1 220 01:48 06.12.2019
6701 Clouds -1 973 92 10000 3.6 210 00:57 06.12.2019
6702 Clouds -1 973 92 10000 5.1 220 00:24 06.12.2019
6703 Clouds -1 973 100 10000 4.6 210 23:56 05.12.2019
6704 Clouds -1 974 100 10000 6.2 210 23:21 05.12.2019
6705 Clouds -1 973 100 10000 6.2 210 22:59 05.12.2019
6706 Clouds -1 973 100 10000 5.7 210 22:39 05.12.2019
6707 Clouds -1 973 100 10000 5.7 210 22:39 05.12.2019
6708 Clouds -1 973 100 10000 5.7 210 22:20 05.12.2019
6709 Clouds 0 973 88 10000 5.1 220 21:58 05.12.2019
6710 Clouds 0 973 88 10000 5.1 220 21:58 05.12.2019
6711 Clouds 0 974 88 10000 6.2 220 21:40 05.12.2019
6712 Clouds 0 974 88 10000 6.2 220 21:22 05.12.2019
6713 Clouds 0 974 88 10000 6.7 220 20:58 05.12.2019
6714 Clouds 0 974 88 10000 6.7 220 20:39 05.12.2019
6715 Clouds 0 974 91